<?xml version="1.0" encoding="UTF-8" standalone="no" ?>
<gpx xmlns="http://www.topografix.com/GPX/1/1" xmlns:xsi="http://www.w3.org/2001/XMLSchema-instance" xsi:schemaLocation="http://www.topografix.com/GPX/1/1 http://www.topografix.com/GPX/1/1/gpx.xsd" version="1.1" creator="VisuGPX - https://www.visugpx.com">
  <metadata>
    <name>Moissac - Pic de l'Aigle</name>
    <desc><![CDATA[Randonnée sur les hauteurs de Moissac. Petit mouvements de voitures. Passage au pic de l'Aigle un 360°. 
Aller-retour à l'arche un peu sportif.
Deux tables d'orientation sur la descente, la première côté Nord en direction du lac de Sainte-Croix et une côté Sud.]]></desc>
  </metadata>
  <wpt lat="43.66432" lon="6.20088">
    <ele>776.2</ele>
    <name><![CDATA[Ptv]]></name>
    <type><![CDATA[vue]]></type>
  </wpt>
  <wpt lat="43.66684" lon="6.19841">
    <ele>802.7</ele>
    <name><![CDATA[Ptv]]></name>
    <type><![CDATA[vue]]></type>
  </wpt>
  <wpt lat="43.69105" lon="6.18696">
    <ele>916</ele>
    <name><![CDATA[Table O]]></name>
    <type><![CDATA[vue]]></type>
  </wpt>
  <wpt lat="43.68997" lon="6.18468">
    <ele>885.9</ele>
    <name><![CDATA[Table O.]]></name>
    <type><![CDATA[vue]]></type>
  </wpt>
  <trk>
    <name><![CDATA[Moissac_1]]></name>
    <extensions>
      <line xmlns="http://www.topografix.com/GPX/gpx_style/0/2">
        <color>0000FF</color>
        <width>4</width>
      </line>
    </extensions>
    <trkseg>
      <trkpt lat="43.65584" lon="6.16265">
        <ele>582.4</ele>
        <time>2025-01-12T08:38:08.000Z</time>
      </trkpt>
      <trkpt lat="43.65588" lon="6.1627">
        <ele>582.2</ele>
        <time>2025-01-12T08:38:14.003Z</time>
      </trkpt>
      <trkpt lat="43.65591" lon="6.16274">
        <ele>582.1</ele>
        <time>2025-01-12T08:38:18.826Z</time>
      </trkpt>
      <trkpt lat="43.65595" lon="6.16266">
        <ele>583</ele>
        <time>2025-01-12T08:38:32.245Z</time>
      </trkpt>
      <trkpt lat="43.65596" lon="6.16265">
        <ele>583.1</ele>
        <time>2025-01-12T08:38:34.242Z</time>
      </trkpt>
      <trkpt lat="43.65602" lon="6.16257">
        <ele>583.8</ele>
        <time>2025-01-12T08:38:47.866Z</time>
      </trkpt>
      <trkpt lat="43.65605" lon="6.16253">
        <ele>583.9</ele>
        <time>2025-01-12T08:38:53.457Z</time>
      </trkpt>
      <trkpt lat="43.6561" lon="6.16248">
        <ele>584.1</ele>
        <time>2025-01-12T08:39:01.960Z</time>
      </trkpt>
      <trkpt lat="43.65617" lon="6.16241">
        <ele>584.7</ele>
        <time>2025-01-12T08:39:15.402Z</time>
      </trkpt>
      <trkpt lat="43.65621" lon="6.16238">
        <ele>585</ele>
        <time>2025-01-12T08:39:22.400Z</time>
      </trkpt>
      <trkpt lat="43.65627" lon="6.16232">
        <ele>585.4</ele>
        <time>2025-01-12T08:39:33.345Z</time>
      </trkpt>
      <trkpt lat="43.6563" lon="6.1623">
        <ele>585.6</ele>
        <time>2025-01-12T08:39:38.367Z</time>
      </trkpt>
      <trkpt lat="43.65632" lon="6.16236">
        <ele>585.6</ele>
        <time>2025-01-12T08:39:44.315Z</time>
      </trkpt>
      <trkpt lat="43.65635" lon="6.16241">
        <ele>585.8</ele>
        <time>2025-01-12T08:39:50.565Z</time>
      </trkpt>
      <trkpt lat="43.65637" lon="6.16247">
        <ele>585.9</ele>
        <time>2025-01-12T08:39:57.354Z</time>
      </trkpt>
      <trkpt lat="43.65639" lon="6.16252">
        <ele>586</ele>
        <time>2025-01-12T08:40:02.901Z</time>
      </trkpt>
      <trkpt lat="43.65642" lon="6.16257">
        <ele>586.1</ele>
        <time>2025-01-12T08:40:09.151Z</time>
      </trkpt>
      <trkpt lat="43.65645" lon="6.16262">
        <ele>586.2</ele>
        <time>2025-01-12T08:40:15.401Z</time>
      </trkpt>
      <trkpt lat="43.65648" lon="6.1627">
        <ele>586.3</ele>
        <time>2025-01-12T08:40:23.910Z</time>
      </trkpt>
      <trkpt lat="43.65649" lon="6.16277">
        <ele>586.4</ele>
        <time>2025-01-12T08:40:30.734Z</time>
      </trkpt>
      <trkpt lat="43.6565" lon="6.16281">
        <ele>586.5</ele>
        <time>2025-01-12T08:40:34.956Z</time>
      </trkpt>
      <trkpt lat="43.65652" lon="6.16291">
        <ele>586.9</ele>
        <time>2025-01-12T08:40:46.023Z</time>
      </trkpt>
      <trkpt lat="43.65654" lon="6.16301">
        <ele>587.4</ele>
        <time>2025-01-12T08:40:57.591Z</time>
      </trkpt>
      <trkpt lat="43.65656" lon="6.16307">
        <ele>587.6</ele>
        <time>2025-01-12T08:41:04.380Z</time>
      </trkpt>
      <trkpt lat="43.65658" lon="6.16313">
        <ele>587.9</ele>
        <time>2025-01-12T08:41:11.169Z</time>
      </trkpt>
      <trkpt lat="43.65659" lon="6.16319">
        <ele>588.1</ele>
        <time>2025-01-12T08:41:18.051Z</time>
      </trkpt>
      <trkpt lat="43.65661" lon="6.16325">
        <ele>588.4</ele>
        <time>2025-01-12T08:41:25.323Z</time>
      </trkpt>
      <trkpt lat="43.65664" lon="6.16334">
        <ele>588.8</ele>
        <time>2025-01-12T08:41:35.981Z</time>
      </trkpt>
      <trkpt lat="43.65666" lon="6.16343">
        <ele>589</ele>
        <time>2025-01-12T08:41:45.275Z</time>
      </trkpt>
      <trkpt lat="43.65669" lon="6.16352">
        <ele>589.2</ele>
        <time>2025-01-12T08:41:54.592Z</time>
      </trkpt>
      <trkpt lat="43.65671" lon="6.16361">
        <ele>589.3</ele>
        <time>2025-01-12T08:42:03.886Z</time>
      </trkpt>
      <trkpt lat="43.65675" lon="6.16371">
        <ele>590</ele>
        <time>2025-01-12T08:42:17.429Z</time>
      </trkpt>
      <trkpt lat="43.65678" lon="6.1638">
        <ele>590.5</ele>
        <time>2025-01-12T08:42:28.594Z</time>
      </trkpt>
      <trkpt lat="43.65682" lon="6.1639">
        <ele>591.1</ele>
        <time>2025-01-12T08:42:41.593Z</time>
      </trkpt>
      <trkpt lat="43.65685" lon="6.16399">
        <ele>591.6</ele>
        <time>2025-01-12T08:42:52.251Z</time>
      </trkpt>
      <trkpt lat="43.65688" lon="6.16408">
        <ele>592.1</ele>
        <time>2025-01-12T08:43:03.957Z</time>
      </trkpt>
      <trkpt lat="43.65691" lon="6.16414">
        <ele>592.5</ele>
        <time>2025-01-12T08:43:12.344Z</time>
      </trkpt>
      <trkpt lat="43.65693" lon="6.16421">
        <ele>593</ele>
        <time>2025-01-12T08:43:21.486Z</time>
      </trkpt>
      <trkpt lat="43.65696" lon="6.16427">
        <ele>593.4</ele>
        <time>2025-01-12T08:43:29.874Z</time>
      </trkpt>
      <trkpt lat="43.65698" lon="6.16433">
        <ele>593.7</ele>
        <time>2025-01-12T08:43:37.146Z</time>
      </trkpt>
      <trkpt lat="43.65701" lon="6.16442">
        <ele>594.1</ele>
        <time>2025-01-12T08:43:47.804Z</time>
      </trkpt>
      <trkpt lat="43.65704" lon="6.16451">
        <ele>594.4</ele>
        <time>2025-01-12T08:43:57.987Z</time>
      </trkpt>
      <trkpt lat="43.65705" lon="6.16458">
        <ele>594.6</ele>
        <time>2025-01-12T08:44:05.246Z</time>
      </trkpt>
      <trkpt lat="43.65706" lon="6.16464">
        <ele>594.7</ele>
        <time>2025-01-12T08:44:11.192Z</time>
      </trkpt>
      <trkpt lat="43.65708" lon="6.16472">
        <ele>595</ele>
        <time>2025-01-12T08:44:19.636Z</time>
      </trkpt>
      <trkpt lat="43.65709" lon="6.16479">
        <ele>595.3</ele>
        <time>2025-01-12T08:44:27.889Z</time>
      </trkpt>
      <trkpt lat="43.65712" lon="6.16487">
        <ele>595.8</ele>
        <time>2025-01-12T08:44:37.761Z</time>
      </trkpt>
      <trkpt lat="43.65714" lon="6.16494">
        <ele>596.2</ele>
        <time>2025-01-12T08:44:46.903Z</time>
      </trkpt>
      <trkpt lat="43.65717" lon="6.165">
        <ele>596.6</ele>
        <time>2025-01-12T08:44:55.291Z</time>
      </trkpt>
      <trkpt lat="43.65719" lon="6.16505">
        <ele>596.9</ele>
        <time>2025-01-12T08:45:01.790Z</time>
      </trkpt>
      <trkpt lat="43.65721" lon="6.16508">
        <ele>597.2</ele>
        <time>2025-01-12T08:45:06.917Z</time>
      </trkpt>
      <trkpt lat="43.65724" lon="6.16516">
        <ele>597.7</ele>
        <time>2025-01-12T08:45:16.789Z</time>
      </trkpt>
      <trkpt lat="43.65726" lon="6.16523">
        <ele>598.1</ele>
        <time>2025-01-12T08:45:25.932Z</time>
      </trkpt>
      <trkpt lat="43.65729" lon="6.16532">
        <ele>598.6</ele>
        <time>2025-01-12T08:45:37.097Z</time>
      </trkpt>
      <trkpt lat="43.65732" lon="6.16542">
        <ele>599.2</ele>
        <time>2025-01-12T08:45:49.580Z</time>
      </trkpt>
      <trkpt lat="43.65734" lon="6.16554">
        <ele>599.8</ele>
        <time>2025-01-12T08:46:03.344Z</time>
      </trkpt>
      <trkpt lat="43.65735" lon="6.16566">
        <ele>600.5</ele>
        <time>2025-01-12T08:46:17.439Z</time>
      </trkpt>
      <trkpt lat="43.65736" lon="6.16575">
        <ele>601</ele>
        <time>2025-01-12T08:46:27.914Z</time>
      </trkpt>
      <trkpt lat="43.65735" lon="6.16585">
        <ele>601.5</ele>
        <time>2025-01-12T08:46:39.239Z</time>
      </trkpt>
      <trkpt lat="43.65736" lon="6.16594">
        <ele>601.9</ele>
        <time>2025-01-12T08:46:49.194Z</time>
      </trkpt>
      <trkpt lat="43.65737" lon="6.16601">
        <ele>602.2</ele>
        <time>2025-01-12T08:46:56.453Z</time>
      </trkpt>
      <trkpt lat="43.65737" lon="6.16607">
        <ele>602.4</ele>
        <time>2025-01-12T08:47:03.199Z</time>
      </trkpt>
      <trkpt lat="43.6574" lon="6.16614">
        <ele>602.7</ele>
        <time>2025-01-12T08:47:11.812Z</time>
      </trkpt>
      <trkpt lat="43.65742" lon="6.16621">
        <ele>603.1</ele>
        <time>2025-01-12T08:47:20.399Z</time>
      </trkpt>
      <trkpt lat="43.65744" lon="6.16629">
        <ele>603.4</ele>
        <time>2025-01-12T08:47:29.302Z</time>
      </trkpt>
      <trkpt lat="43.65746" lon="6.16636">
        <ele>603.8</ele>
        <time>2025-01-12T08:47:37.888Z</time>
      </trkpt>
      <trkpt lat="43.65747" lon="6.16639">
        <ele>603.9</ele>
        <time>2025-01-12T08:47:41.283Z</time>
      </trkpt>
      <trkpt lat="43.6575" lon="6.1665">
        <ele>604.4</ele>
        <time>2025-01-12T08:47:54.053Z</time>
      </trkpt>
      <trkpt lat="43.65753" lon="6.16659">
        <ele>604.8</ele>
        <time>2025-01-12T08:48:04.711Z</time>
      </trkpt>
      <trkpt lat="43.65755" lon="6.16668">
        <ele>605.3</ele>
        <time>2025-01-12T08:48:15.451Z</time>
      </trkpt>
      <trkpt lat="43.65758" lon="6.16677">
        <ele>605.9</ele>
        <time>2025-01-12T08:48:27.156Z</time>
      </trkpt>
      <trkpt lat="43.65761" lon="6.16683">
        <ele>606.3</ele>
        <time>2025-01-12T08:48:35.544Z</time>
      </trkpt>
      <trkpt lat="43.65763" lon="6.16688">
        <ele>606.6</ele>
        <time>2025-01-12T08:48:42.043Z</time>
      </trkpt>
      <trkpt lat="43.65766" lon="6.16693">
        <ele>606.9</ele>
        <time>2025-01-12T08:48:49.219Z</time>
      </trkpt>
      <trkpt lat="43.6577" lon="6.16698">
        <ele>607.1</ele>
        <time>2025-01-12T08:48:56.762Z</time>
      </trkpt>
      <trkpt lat="43.65773" lon="6.16702">
        <ele>607.2</ele>
        <time>2025-01-12T08:49:02.353Z</time>
      </trkpt>
      <trkpt lat="43.65776" lon="6.16707">
        <ele>607.4</ele>
        <time>2025-01-12T08:49:09.043Z</time>
      </trkpt>
      <trkpt lat="43.65781" lon="6.16715">
        <ele>607.7</ele>
        <time>2025-01-12T08:49:19.373Z</time>
      </trkpt>
      <trkpt lat="43.65786" lon="6.16722">
        <ele>607.7</ele>
        <time>2025-01-12T08:49:28.624Z</time>
      </trkpt>
      <trkpt lat="43.65791" lon="6.16729">
        <ele>607.9</ele>
        <time>2025-01-12T08:49:38.296Z</time>
      </trkpt>
      <trkpt lat="43.65795" lon="6.16735">
        <ele>608.1</ele>
        <time>2025-01-12T08:49:46.467Z</time>
      </trkpt>
      <trkpt lat="43.65798" lon="6.1674">
        <ele>608.4</ele>
        <time>2025-01-12T08:49:53.643Z</time>
      </trkpt>
      <trkpt lat="43.65801" lon="6.16745">
        <ele>608.7</ele>
        <time>2025-01-12T08:50:00.818Z</time>
      </trkpt>
      <trkpt lat="43.65806" lon="6.16753">
        <ele>609.1</ele>
        <time>2025-01-12T08:50:12.059Z</time>
      </trkpt>
      <trkpt lat="43.6581" lon="6.1676">
        <ele>609.6</ele>
        <time>2025-01-12T08:50:22.375Z</time>
      </trkpt>
      <trkpt lat="43.65813" lon="6.16765">
        <ele>609.9</ele>
        <time>2025-01-12T08:50:29.551Z</time>
      </trkpt>
      <trkpt lat="43.65816" lon="6.1677">
        <ele>610.2</ele>
        <time>2025-01-12T08:50:36.727Z</time>
      </trkpt>
      <trkpt lat="43.65819" lon="6.16775">
        <ele>610.4</ele>
        <time>2025-01-12T08:50:43.417Z</time>
      </trkpt>
      <trkpt lat="43.65821" lon="6.16781">
        <ele>610.7</ele>
        <time>2025-01-12T08:50:50.689Z</time>
      </trkpt>
      <trkpt lat="43.65821" lon="6.16786">
        <ele>611</ele>
        <time>2025-01-12T08:50:56.580Z</time>
      </trkpt>
      <trkpt lat="43.65822" lon="6.16788">
        <ele>611.2</ele>
        <time>2025-01-12T08:50:59.768Z</time>
      </trkpt>
      <trkpt lat="43.65823" lon="6.16798">
        <ele>611.8</ele>
        <time>2025-01-12T08:51:11.630Z</time>
      </trkpt>
      <trkpt lat="43.65823" lon="6.16808">
        <ele>612.3</ele>
        <time>2025-01-12T08:51:22.874Z</time>
      </trkpt>
      <trkpt lat="43.65824" lon="6.16816">
        <ele>612.7</ele>
        <time>2025-01-12T08:51:31.971Z</time>
      </trkpt>
      <trkpt lat="43.65824" lon="6.16824">
        <ele>613</ele>
        <time>2025-01-12T08:51:40.464Z</time>
      </trkpt>
      <trkpt lat="43.65825" lon="6.16831">
        <ele>613.3</ele>
        <time>2025-01-12T08:51:48.197Z</time>
      </trkpt>
      <trkpt lat="43.65825" lon="6.16839">
        <ele>613.5</ele>
        <time>2025-01-12T08:51:56.227Z</time>
      </trkpt>
      <trkpt lat="43.65826" lon="6.16847">
        <ele>613.8</ele>
        <time>2025-01-12T08:52:04.825Z</time>
      </trkpt>
      <trkpt lat="43.65827" lon="6.16855">
        <ele>614.1</ele>
        <time>2025-01-12T08:52:13.422Z</time>
      </trkpt>
      <trkpt lat="43.65827" lon="6.16863">
        <ele>614.3</ele>
        <time>2025-01-12T08:52:21.452Z</time>
      </trkpt>
      <trkpt lat="43.65828" lon="6.16871">
        <ele>614.4</ele>
        <time>2025-01-12T08:52:29.159Z</time>
      </trkpt>
      <trkpt lat="43.65827" lon="6.16876">
        <ele>614.3</ele>
        <time>2025-01-12T08:52:33.467Z</time>
      </trkpt>
      <trkpt lat="43.65826" lon="6.16884">
        <ele>614.2</ele>
        <time>2025-01-12T08:52:40.407Z</time>
      </trkpt>
      <trkpt lat="43.65826" lon="6.16891">
        <ele>614.2</ele>
        <time>2025-01-12T08:52:46.709Z</time>
      </trkpt>
      <trkpt lat="43.65827" lon="6.16899">
        <ele>614.3</ele>
        <time>2025-01-12T08:52:54.416Z</time>
      </trkpt>
      <trkpt lat="43.6583" lon="6.16906">
        <ele>614.6</ele>
        <time>2025-01-12T08:53:03.029Z</time>
      </trkpt>
      <trkpt lat="43.65832" lon="6.16912">
        <ele>614.9</ele>
        <time>2025-01-12T08:53:10.301Z</time>
      </trkpt>
      <trkpt lat="43.65835" lon="6.16922">
        <ele>615.4</ele>
        <time>2025-01-12T08:53:22.259Z</time>
      </trkpt>
      <trkpt lat="43.65837" lon="6.16932">
        <ele>616</ele>
        <time>2025-01-12T08:53:34.359Z</time>
      </trkpt>
      <trkpt lat="43.65839" lon="6.16941">
        <ele>616.5</ele>
        <time>2025-01-12T08:53:45.099Z</time>
      </trkpt>
      <trkpt lat="43.65841" lon="6.1695">
        <ele>617</ele>
        <time>2025-01-12T08:53:55.838Z</time>
      </trkpt>
      <trkpt lat="43.65842" lon="6.16957">
        <ele>617.4</ele>
        <time>2025-01-12T08:54:03.572Z</time>
      </trkpt>
      <trkpt lat="43.65842" lon="6.16964">
        <ele>617.6</ele>
        <time>2025-01-12T08:54:11.187Z</time>
      </trkpt>
      <trkpt lat="43.65843" lon="6.16971">
        <ele>618</ele>
        <time>2025-01-12T08:54:18.921Z</time>
      </trkpt>
      <trkpt lat="43.65843" lon="6.16978">
        <ele>618.3</ele>
        <time>2025-01-12T08:54:27.058Z</time>
      </trkpt>
      <trkpt lat="43.65843" lon="6.16985">
        <ele>618.5</ele>
        <time>2025-01-12T08:54:34.196Z</time>
      </trkpt>
      <trkpt lat="43.65843" lon="6.16992">
        <ele>618.8</ele>
        <time>2025-01-12T08:54:41.335Z</time>
      </trkpt>
      <trkpt lat="43.65843" lon="6.16998">
        <ele>619</ele>
        <time>2025-01-12T08:54:48.081Z</time>
      </trkpt>
      <trkpt lat="43.65843" lon="6.17005">
        <ele>619.4</ele>
        <time>2025-01-12T08:54:56.218Z</time>
      </trkpt>
      <trkpt lat="43.65843" lon="6.17014">
        <ele>620.1</ele>
        <time>2025-01-12T08:55:07.163Z</time>
      </trkpt>
      <trkpt lat="43.65842" lon="6.17023">
        <ele>620.6</ele>
        <time>2025-01-12T08:55:18.195Z</time>
      </trkpt>
      <trkpt lat="43.65842" lon="6.17034">
        <ele>621.2</ele>
        <time>2025-01-12T08:55:30.305Z</time>
      </trkpt>
      <trkpt lat="43.65841" lon="6.17044">
        <ele>621.4</ele>
        <time>2025-01-12T08:55:40.653Z</time>
      </trkpt>
      <trkpt lat="43.6584" lon="6.17052">
        <ele>621.6</ele>
        <time>2025-01-12T08:55:48.788Z</time>
      </trkpt>
      <trkpt lat="43.65841" lon="6.17059">
        <ele>621.9</ele>
        <time>2025-01-12T08:55:56.522Z</time>
      </trkpt>
      <trkpt lat="43.65841" lon="6.17065">
        <ele>622.1</ele>
        <time>2025-01-12T08:56:02.773Z</time>
      </trkpt>
      <trkpt lat="43.65842" lon="6.17074">
        <ele>622.4</ele>
        <time>2025-01-12T08:56:11.790Z</time>
      </trkpt>
      <trkpt lat="43.65842" lon="6.17082">
        <ele>622.6</ele>
        <time>2025-01-12T08:56:20.283Z</time>
      </trkpt>
      <trkpt lat="43.65844" lon="6.17089">
        <ele>622.9</ele>
        <time>2025-01-12T08:56:28.359Z</time>
      </trkpt>
      <trkpt lat="43.65845" lon="6.17096">
        <ele>623.1</ele>
        <time>2025-01-12T08:56:35.618Z</time>
      </trkpt>
      <trkpt lat="43.65846" lon="6.17103">
        <ele>623.3</ele>
        <time>2025-01-12T08:56:42.877Z</time>
      </trkpt>
      <trkpt lat="43.65847" lon="6.17109">
        <ele>623.5</ele>
        <time>2025-01-12T08:56:49.267Z</time>
      </trkpt>
      <trkpt lat="43.65848" lon="6.17119">
        <ele>623.5</ele>
        <time>2025-01-12T08:56:58.356Z</time>
      </trkpt>
      <trkpt lat="43.65849" lon="6.17126">
        <ele>623.5</ele>
        <time>2025-01-12T08:57:04.780Z</time>
      </trkpt>
      <trkpt lat="43.65849" lon="6.17133">
        <ele>623.5</ele>
        <time>2025-01-12T08:57:11.082Z</time>
      </trkpt>
      <trkpt lat="43.65844" lon="6.17132">
        <ele>623.6</ele>
        <time>2025-01-12T08:57:17.769Z</time>
      </trkpt>
      <trkpt lat="43.65838" lon="6.1713">
        <ele>623.6</ele>
        <time>2025-01-12T08:57:25.450Z</time>
      </trkpt>
      <trkpt lat="43.65833" lon="6.17127">
        <ele>623.6</ele>
        <time>2025-01-12T08:57:32.233Z</time>
      </trkpt>
      <trkpt lat="43.65827" lon="6.17124">
        <ele>623.7</ele>
        <time>2025-01-12T08:57:40.569Z</time>
      </trkpt>
      <trkpt lat="43.65823" lon="6.17122">
        <ele>623.8</ele>
        <time>2025-01-12T08:57:46.266Z</time>
      </trkpt>
      <trkpt lat="43.65818" lon="6.17119">
        <ele>623.8</ele>
        <time>2025-01-12T08:57:53.049Z</time>
      </trkpt>
      <trkpt lat="43.65814" lon="6.17116">
        <ele>623.9</ele>
        <time>2025-01-12T08:57:59.115Z</time>
      </trkpt>
      <trkpt lat="43.6581" lon="6.17111">
        <ele>623.8</ele>
        <time>2025-01-12T08:58:05.458Z</time>
      </trkpt>
      <trkpt lat="43.65807" lon="6.17106">
        <ele>623.8</ele>
        <time>2025-01-12T08:58:11.306Z</time>
      </trkpt>
      <trkpt lat="43.65803" lon="6.17099">
        <ele>623.7</ele>
        <time>2025-01-12T08:58:18.966Z</time>
      </trkpt>
      <trkpt lat="43.658" lon="6.17092">
        <ele>623.7</ele>
        <time>2025-01-12T08:58:26.292Z</time>
      </trkpt>
      <trkpt lat="43.65798" lon="6.17087">
        <ele>623.7</ele>
        <time>2025-01-12T08:58:31.435Z</time>
      </trkpt>
      <trkpt lat="43.65795" lon="6.17082">
        <ele>623.7</ele>
        <time>2025-01-12T08:58:37.284Z</time>
      </trkpt>
      <trkpt lat="43.65793" lon="6.17077">
        <ele>623.4</ele>
        <time>2025-01-12T08:58:41.784Z</time>
      </trkpt>
      <trkpt lat="43.6579" lon="6.17071">
        <ele>623.2</ele>
        <time>2025-01-12T08:58:47.644Z</time>
      </trkpt>
      <trkpt lat="43.65788" lon="6.17068">
        <ele>623.2</ele>
        <time>2025-01-12T08:58:51.316Z</time>
      </trkpt>
      <trkpt lat="43.65786" lon="6.17065">
        <ele>623.1</ele>
        <time>2025-01-12T08:58:54.633Z</time>
      </trkpt>
      <trkpt lat="43.65782" lon="6.17064">
        <ele>623.3</ele>
        <time>2025-01-12T08:59:00.546Z</time>
      </trkpt>
      <trkpt lat="43.65778" lon="6.17062">
        <ele>623.4</ele>
        <time>2025-01-12T08:59:06.243Z</time>
      </trkpt>
      <trkpt lat="43.65773" lon="6.17063">
        <ele>623.7</ele>
        <time>2025-01-12T08:59:13.844Z</time>
      </trkpt>
      <trkpt lat="43.65773" lon="6.17063">
        <ele>623.7</ele>
        <time>2025-01-12T08:59:13.844Z</time>
      </trkpt>
      <trkpt lat="43.65774" lon="6.17069">
        <ele>624</ele>
        <time>2025-01-12T08:59:20.726Z</time>
      </trkpt>
      <trkpt lat="43.65773" lon="6.17063">
        <ele>623.7</ele>
        <time>2025-01-12T08:59:25.576Z</time>
      </trkpt>
      <trkpt lat="43.65768" lon="6.17066">
        <ele>624</ele>
        <time>2025-01-12T08:59:33.660Z</time>
      </trkpt>
      <trkpt lat="43.65764" lon="6.17069">
        <ele>624.2</ele>
        <time>2025-01-12T08:59:40.168Z</time>
      </trkpt>
      <trkpt lat="43.6576" lon="6.17072">
        <ele>624.4</ele>
        <time>2025-01-12T08:59:46.676Z</time>
      </trkpt>
      <trkpt lat="43.65755" lon="6.17078">
        <ele>624.8</ele>
        <time>2025-01-12T08:59:56.672Z</time>
      </trkpt>
      <trkpt lat="43.6575" lon="6.17084">
        <ele>625</ele>
        <time>2025-01-12T09:00:05.731Z</time>
      </trkpt>
      <trkpt lat="43.65745" lon="6.1709">
        <ele>625.4</ele>
        <time>2025-01-12T09:00:16.245Z</time>
      </trkpt>
      <trkpt lat="43.6574" lon="6.17097">
        <ele>625.8</ele>
        <time>2025-01-12T09:00:26.364Z</time>
      </trkpt>
      <trkpt lat="43.65734" lon="6.17103">
        <ele>626</ele>
        <time>2025-01-12T09:00:36.393Z</time>
      </trkpt>
      <trkpt lat="43.65729" lon="6.17109">
        <ele>626.1</ele>
        <time>2025-01-12T09:00:45.028Z</time>
      </trkpt>
      <trkpt lat="43.65723" lon="6.17117">
        <ele>626.4</ele>
        <time>2025-01-12T09:00:56.647Z</time>
      </trkpt>
      <trkpt lat="43.6572" lon="6.17121">
        <ele>626.5</ele>
        <time>2025-01-12T09:01:02.298Z</time>
      </trkpt>
      <trkpt lat="43.65716" lon="6.17125">
        <ele>626.4</ele>
        <time>2025-01-12T09:01:07.951Z</time>
      </trkpt>
      <trkpt lat="43.6571" lon="6.17131">
        <ele>626.2</ele>
        <time>2025-01-12T09:01:16.443Z</time>
      </trkpt>
      <trkpt lat="43.65706" lon="6.17138">
        <ele>626.2</ele>
        <time>2025-01-12T09:01:24.474Z</time>
      </trkpt>
      <trkpt lat="43.65704" lon="6.17145">
        <ele>626.3</ele>
        <time>2025-01-12T09:01:31.649Z</time>
      </trkpt>
      <trkpt lat="43.65702" lon="6.17156">
        <ele>626.7</ele>
        <time>2025-01-12T09:01:43.569Z</time>
      </trkpt>
      <trkpt lat="43.65701" lon="6.17168">
        <ele>627.3</ele>
        <time>2025-01-12T09:01:57.130Z</time>
      </trkpt>
      <trkpt lat="43.657" lon="6.1718">
        <ele>627.7</ele>
        <time>2025-01-12T09:02:09.702Z</time>
      </trkpt>
      <trkpt lat="43.657" lon="6.17188">
        <ele>628</ele>
        <time>2025-01-12T09:02:17.732Z</time>
      </trkpt>
      <trkpt lat="43.65699" lon="6.17195">
        <ele>628.2</ele>
        <time>2025-01-12T09:02:25.465Z</time>
      </trkpt>
      <trkpt lat="43.65699" lon="6.17202">
        <ele>628.4</ele>
        <time>2025-01-12T09:02:32.604Z</time>
      </trkpt>
      <trkpt lat="43.65698" lon="6.17208">
        <ele>628.6</ele>
        <time>2025-01-12T09:02:38.994Z</time>
      </trkpt>
      <trkpt lat="43.65698" lon="6.17216">
        <ele>628.9</ele>
        <time>2025-01-12T09:02:47.488Z</time>
      </trkpt>
      <trkpt lat="43.65697" lon="6.17224">
        <ele>629.2</ele>
        <time>2025-01-12T09:02:56.086Z</time>
      </trkpt>
      <trkpt lat="43.65696" lon="6.1723">
        <ele>629.3</ele>
        <time>2025-01-12T09:03:02.031Z</time>
      </trkpt>
      <trkpt lat="43.65696" lon="6.17237">
        <ele>629.6</ele>
        <time>2025-01-12T09:03:09.170Z</time>
      </trkpt>
      <trkpt lat="43.65695" lon="6.17243">
        <ele>629.8</ele>
        <time>2025-01-12T09:03:15.560Z</time>
      </trkpt>
      <trkpt lat="43.65694" lon="6.17249">
        <ele>629.9</ele>
        <time>2025-01-12T09:03:21.951Z</time>
      </trkpt>
      <trkpt lat="43.65693" lon="6.17259">
        <ele>629.9</ele>
        <time>2025-01-12T09:03:31.040Z</time>
      </trkpt>
      <trkpt lat="43.65692" lon="6.17268">
        <ele>629.8</ele>
        <time>2025-01-12T09:03:38.867Z</time>
      </trkpt>
      <trkpt lat="43.65691" lon="6.17278">
        <ele>629.8</ele>
        <time>2025-01-12T09:03:47.956Z</time>
      </trkpt>
      <trkpt lat="43.6569" lon="6.17287">
        <ele>629.7</ele>
        <time>2025-01-12T09:03:55.783Z</time>
      </trkpt>
      <trkpt lat="43.65689" lon="6.17294">
        <ele>629.7</ele>
        <time>2025-01-12T09:04:02.207Z</time>
      </trkpt>
      <trkpt lat="43.65689" lon="6.17301">
        <ele>629.8</ele>
        <time>2025-01-12T09:04:08.909Z</time>
      </trkpt>
      <trkpt lat="43.65688" lon="6.17308">
        <ele>629.7</ele>
        <time>2025-01-12T09:04:14.966Z</time>
      </trkpt>
      <trkpt lat="43.65687" lon="6.17315">
        <ele>629.6</ele>
        <time>2025-01-12T09:04:21.022Z</time>
      </trkpt>
      <trkpt lat="43.65686" lon="6.17322">
        <ele>629.5</ele>
        <time>2025-01-12T09:04:27.079Z</time>
      </trkpt>
      <trkpt lat="43.65685" lon="6.17329">
        <ele>629.4</ele>
        <time>2025-01-12T09:04:33.135Z</time>
      </trkpt>
      <trkpt lat="43.65683" lon="6.1734">
        <ele>629</ele>
        <time>2025-01-12T09:04:42.071Z</time>
      </trkpt>
      <trkpt lat="43.6568" lon="6.17349">
        <ele>628.7</ele>
        <time>2025-01-12T09:04:49.940Z</time>
      </trkpt>
      <trkpt lat="43.65677" lon="6.17358">
        <ele>628.4</ele>
        <time>2025-01-12T09:04:57.809Z</time>
      </trkpt>
      <trkpt lat="43.65674" lon="6.17366">
        <ele>628.1</ele>
        <time>2025-01-12T09:05:04.907Z</time>
      </trkpt>
      <trkpt lat="43.65671" lon="6.17373">
        <ele>627.7</ele>
        <time>2025-01-12T09:05:11.317Z</time>
      </trkpt>
      <trkpt lat="43.65669" lon="6.1738">
        <ele>627.4</ele>
        <time>2025-01-12T09:05:17.246Z</time>
      </trkpt>
      <trkpt lat="43.65666" lon="6.17387">
        <ele>627</ele>
        <time>2025-01-12T09:05:23.655Z</time>
      </trkpt>
      <trkpt lat="43.65663" lon="6.17394">
        <ele>626.3</ele>
        <time>2025-01-12T09:05:30.065Z</time>
      </trkpt>
      <trkpt lat="43.6566" lon="6.17404">
        <ele>625.5</ele>
        <time>2025-01-12T09:05:38.593Z</time>
      </trkpt>
      <trkpt lat="43.65657" lon="6.17414">
        <ele>624.7</ele>
        <time>2025-01-12T09:05:47.122Z</time>
      </trkpt>
      <trkpt lat="43.65653" lon="6.17424">
        <ele>624</ele>
        <time>2025-01-12T09:05:56.124Z</time>
      </trkpt>
      <trkpt lat="43.6565" lon="6.17434">
        <ele>623.6</ele>
        <time>2025-01-12T09:06:04.652Z</time>
      </trkpt>
      <trkpt lat="43.65648" lon="6.1744">
        <ele>623.3</ele>
        <time>2025-01-12T09:06:09.856Z</time>
      </trkpt>
      <trkpt lat="43.65645" lon="6.17446">
        <ele>622.9</ele>
        <time>2025-01-12T09:06:15.602Z</time>
      </trkpt>
      <trkpt lat="43.65643" lon="6.17452">
        <ele>622.8</ele>
        <time>2025-01-12T09:06:21.184Z</time>
      </trkpt>
      <trkpt lat="43.6564" lon="6.17458">
        <ele>622.6</ele>
        <time>2025-01-12T09:06:27.043Z</time>
      </trkpt>
      <trkpt lat="43.65635" lon="6.17467">
        <ele>622.2</ele>
        <time>2025-01-12T09:06:35.982Z</time>
      </trkpt>
      <trkpt lat="43.6563" lon="6.17475">
        <ele>621.9</ele>
        <time>2025-01-12T09:06:44.311Z</time>
      </trkpt>
      <trkpt lat="43.65624" lon="6.17482">
        <ele>621.4</ele>
        <time>2025-01-12T09:06:52.860Z</time>
      </trkpt>
      <trkpt lat="43.65621" lon="6.17486">
        <ele>621.2</ele>
        <time>2025-01-12T09:06:57.399Z</time>
      </trkpt>
      <trkpt lat="43.65617" lon="6.17491">
        <ele>621.1</ele>
        <time>2025-01-12T09:07:03.402Z</time>
      </trkpt>
      <trkpt lat="43.65614" lon="6.17495">
        <ele>621</ele>
        <time>2025-01-12T09:07:08.225Z</time>
      </trkpt>
      <trkpt lat="43.6561" lon="6.17499">
        <ele>620.8</ele>
        <time>2025-01-12T09:07:14.002Z</time>
      </trkpt>
      <trkpt lat="43.65605" lon="6.17506">
        <ele>620.6</ele>
        <time>2025-01-12T09:07:22.137Z</time>
      </trkpt>
      <trkpt lat="43.656" lon="6.17516">
        <ele>620.6</ele>
        <time>2025-01-12T09:07:33.081Z</time>
      </trkpt>
      <trkpt lat="43.65598" lon="6.17524">
        <ele>620.8</ele>
        <time>2025-01-12T09:07:41.099Z</time>
      </trkpt>
      <trkpt lat="43.65595" lon="6.17531">
        <ele>621</ele>
        <time>2025-01-12T09:07:49.712Z</time>
      </trkpt>
      <trkpt lat="43.65593" lon="6.17539">
        <ele>621.5</ele>
        <time>2025-01-12T09:07:59.641Z</time>
      </trkpt>
      <trkpt lat="43.65591" lon="6.17548">
        <ele>622.1</ele>
        <time>2025-01-12T09:08:10.932Z</time>
      </trkpt>
      <trkpt lat="43.6559" lon="6.17559">
        <ele>622.9</ele>
        <time>2025-01-12T09:08:24.774Z</time>
      </trkpt>
      <trkpt lat="43.6559" lon="6.17569">
        <ele>623.3</ele>
        <time>2025-01-12T09:08:35.512Z</time>
      </trkpt>
      <trkpt lat="43.65591" lon="6.17578">
        <ele>623.9</ele>
        <time>2025-01-12T09:08:46.545Z</time>
      </trkpt>
      <trkpt lat="43.65592" lon="6.1759">
        <ele>624.4</ele>
        <time>2025-01-12T09:08:59.599Z</time>
      </trkpt>
      <trkpt lat="43.65592" lon="6.17598">
        <ele>624.6</ele>
        <time>2025-01-12T09:09:07.629Z</time>
      </trkpt>
      <trkpt lat="43.65592" lon="6.17608">
        <ele>624.9</ele>
        <time>2025-01-12T09:09:17.892Z</time>
      </trkpt>
      <trkpt lat="43.65592" lon="6.17615">
        <ele>625</ele>
        <time>2025-01-12T09:09:24.595Z</time>
      </trkpt>
      <trkpt lat="43.65592" lon="6.17621">
        <ele>625.2</ele>
        <time>2025-01-12T09:09:30.846Z</time>
      </trkpt>
      <trkpt lat="43.65591" lon="6.17631">
        <ele>625.3</ele>
        <time>2025-01-12T09:09:40.330Z</time>
      </trkpt>
      <trkpt lat="43.6559" lon="6.1764">
        <ele>625.4</ele>
        <time>2025-01-12T09:09:48.924Z</time>
      </trkpt>
      <trkpt lat="43.6559" lon="6.1765">
        <ele>625.2</ele>
        <time>2025-01-12T09:09:57.205Z</time>
      </trkpt>
      <trkpt lat="43.65591" lon="6.17657">
        <ele>625.1</ele>
        <time>2025-01-12T09:10:02.923Z</time>
      </trkpt>
      <trkpt lat="43.65591" lon="6.17664">
        <ele>624.9</ele>
        <time>2025-01-12T09:10:08.858Z</time>
      </trkpt>
      <trkpt lat="43.65591" lon="6.17674">
        <ele>624.7</ele>
        <time>2025-01-12T09:10:17.139Z</time>
      </trkpt>
      <trkpt lat="43.65592" lon="6.17684">
        <ele>624.5</ele>
        <time>2025-01-12T09:10:25.505Z</time>
      </trkpt>
      <trkpt lat="43.65592" lon="6.17692">
        <ele>624.4</ele>
        <time>2025-01-12T09:10:32.339Z</time>
      </trkpt>
      <trkpt lat="43.65592" lon="6.17701">
        <ele>624.1</ele>
        <time>2025-01-12T09:10:39.429Z</time>
      </trkpt>
      <trkpt lat="43.65591" lon="6.17712">
        <ele>623.6</ele>
        <time>2025-01-12T09:10:48.163Z</time>
      </trkpt>
      <trkpt lat="43.6559" lon="6.17719">
        <ele>623.4</ele>
        <time>2025-01-12T09:10:53.881Z</time>
      </trkpt>
      <trkpt lat="43.65588" lon="6.17729">
        <ele>622.9</ele>
        <time>2025-01-12T09:11:02.055Z</time>
      </trkpt>
      <trkpt lat="43.65585" lon="6.17736">
        <ele>622.6</ele>
        <time>2025-01-12T09:11:08.464Z</time>
      </trkpt>
      <trkpt lat="43.65582" lon="6.17744">
        <ele>622</ele>
        <time>2025-01-12T09:11:15.563Z</time>
      </trkpt>
      <trkpt lat="43.65579" lon="6.17752">
        <ele>621.3</ele>
        <time>2025-01-12T09:11:22.662Z</time>
      </trkpt>
      <trkpt lat="43.65576" lon="6.17759">
        <ele>620.7</ele>
        <time>2025-01-12T09:11:29.071Z</time>
      </trkpt>
      <trkpt lat="43.65574" lon="6.17767">
        <ele>620.2</ele>
        <time>2025-01-12T09:11:35.739Z</time>
      </trkpt>
      <trkpt lat="43.65573" lon="6.17775">
        <ele>619.9</ele>
        <time>2025-01-12T09:11:42.135Z</time>
      </trkpt>
      <trkpt lat="43.65571" lon="6.17782">
        <ele>619.5</ele>
        <time>2025-01-12T09:11:48.064Z</time>
      </trkpt>
      <trkpt lat="43.65569" lon="6.1779">
        <ele>619</ele>
        <time>2025-01-12T09:11:54.732Z</time>
      </trkpt>
      <trkpt lat="43.65567" lon="6.17802">
        <ele>618.4</ele>
        <time>2025-01-12T09:12:04.434Z</time>
      </trkpt>
      <trkpt lat="43.65565" lon="6.17813">
        <ele>617.8</ele>
        <time>2025-01-12T09:12:13.369Z</time>
      </trkpt>
      <trkpt lat="43.65563" lon="6.17825">
        <ele>617.1</ele>
        <time>2025-01-12T09:12:23.071Z</time>
      </trkpt>
      <trkpt lat="43.65561" lon="6.17836">
        <ele>616.5</ele>
        <time>2025-01-12T09:12:32.006Z</time>
      </trkpt>
      <trkpt lat="43.65559" lon="6.17846">
        <ele>615.9</ele>
        <time>2025-01-12T09:12:40.179Z</time>
      </trkpt>
      <trkpt lat="43.65557" lon="6.17856">
        <ele>615.3</ele>
        <time>2025-01-12T09:12:48.353Z</time>
      </trkpt>
      <trkpt lat="43.65555" lon="6.17864">
        <ele>614.8</ele>
        <time>2025-01-12T09:12:55.021Z</time>
      </trkpt>
      <trkpt lat="43.65553" lon="6.17871">
        <ele>614.1</ele>
        <time>2025-01-12T09:13:00.950Z</time>
      </trkpt>
      <trkpt lat="43.6555" lon="6.17879">
        <ele>613.3</ele>
        <time>2025-01-12T09:13:08.049Z</time>
      </trkpt>
      <trkpt lat="43.65548" lon="6.17886">
        <ele>612.7</ele>
        <time>2025-01-12T09:13:13.978Z</time>
      </trkpt>
      <trkpt lat="43.65547" lon="6.17893">
        <ele>612.5</ele>
        <time>2025-01-12T09:13:19.599Z</time>
      </trkpt>
      <trkpt lat="43.65546" lon="6.179">
        <ele>612.3</ele>
        <time>2025-01-12T09:13:25.317Z</time>
      </trkpt>
      <trkpt lat="43.65544" lon="6.17907">
        <ele>611.9</ele>
        <time>2025-01-12T09:13:31.385Z</time>
      </trkpt>
      <trkpt lat="43.65543" lon="6.17914">
        <ele>611.7</ele>
        <time>2025-01-12T09:13:37.006Z</time>
      </trkpt>
      <trkpt lat="43.65542" lon="6.17922">
        <ele>611.5</ele>
        <time>2025-01-12T09:13:43.402Z</time>
      </trkpt>
      <trkpt lat="43.6554" lon="6.1793">
        <ele>611</ele>
        <time>2025-01-12T09:13:50.070Z</time>
      </trkpt>
      <trkpt lat="43.65539" lon="6.17937">
        <ele>610.7</ele>
        <time>2025-01-12T09:13:55.691Z</time>
      </trkpt>
      <trkpt lat="43.65537" lon="6.17945">
        <ele>610.3</ele>
        <time>2025-01-12T09:14:02.359Z</time>
      </trkpt>
      <trkpt lat="43.65536" lon="6.17952">
        <ele>610.2</ele>
        <time>2025-01-12T09:14:08.077Z</time>
      </trkpt>
      <trkpt lat="43.65535" lon="6.17958">
        <ele>610</ele>
        <time>2025-01-12T09:14:13.256Z</time>
      </trkpt>
      <trkpt lat="43.65533" lon="6.17965">
        <ele>609.8</ele>
        <time>2025-01-12T09:14:19.323Z</time>
      </trkpt>
      <trkpt lat="43.65532" lon="6.17971">
        <ele>609.6</ele>
        <time>2025-01-12T09:14:24.173Z</time>
      </trkpt>
      <trkpt lat="43.6553" lon="6.17981">
        <ele>609.3</ele>
        <time>2025-01-12T09:14:32.347Z</time>
      </trkpt>
      <trkpt lat="43.65527" lon="6.17991">
        <ele>608.8</ele>
        <time>2025-01-12T09:14:40.875Z</time>
      </trkpt>
      <trkpt lat="43.65525" lon="6.17999">
        <ele>608.4</ele>
        <time>2025-01-12T09:14:47.544Z</time>
      </trkpt>
      <trkpt lat="43.65523" lon="6.18006">
        <ele>608.2</ele>
        <time>2025-01-12T09:14:53.611Z</time>
      </trkpt>
      <trkpt lat="43.65522" lon="6.18014">
        <ele>608.4</ele>
        <time>2025-01-12T09:15:00.920Z</time>
      </trkpt>
      <trkpt lat="43.6552" lon="6.18021">
        <ele>608.3</ele>
        <time>2025-01-12T09:15:08.095Z</time>
      </trkpt>
      <trkpt lat="43.65519" lon="6.1803">
        <ele>608.6</ele>
        <time>2025-01-12T09:15:17.113Z</time>
      </trkpt>
      <trkpt lat="43.65517" lon="6.18038">
        <ele>608.8</ele>
        <time>2025-01-12T09:15:26.016Z</time>
      </trkpt>
      <trkpt lat="43.65514" lon="6.18049">
        <ele>609</ele>
        <time>2025-01-12T09:15:37.407Z</time>
      </trkpt>
      <trkpt lat="43.65511" lon="6.1806">
        <ele>609.3</ele>
        <time>2025-01-12T09:15:49.234Z</time>
      </trkpt>
      <trkpt lat="43.65509" lon="6.18069">
        <ele>609.8</ele>
        <time>2025-01-12T09:15:59.974Z</time>
      </trkpt>
      <trkpt lat="43.65507" lon="6.18078">
        <ele>610.3</ele>
        <time>2025-01-12T09:16:10.714Z</time>
      </trkpt>
      <trkpt lat="43.65504" lon="6.18088">
        <ele>610.7</ele>
        <time>2025-01-12T09:16:22.178Z</time>
      </trkpt>
      <trkpt lat="43.65501" lon="6.18097">
        <ele>611.1</ele>
        <time>2025-01-12T09:16:32.837Z</time>
      </trkpt>
      <trkpt lat="43.65497" lon="6.18108">
        <ele>611.5</ele>
        <time>2025-01-12T09:16:45.160Z</time>
      </trkpt>
      <trkpt lat="43.65492" lon="6.18118">
        <ele>612</ele>
        <time>2025-01-12T09:16:58.787Z</time>
      </trkpt>
      <trkpt lat="43.65489" lon="6.18124">
        <ele>612.3</ele>
        <time>2025-01-12T09:17:06.659Z</time>
      </trkpt>
      <trkpt lat="43.65487" lon="6.18129">
        <ele>612.7</ele>
        <time>2025-01-12T09:17:13.158Z</time>
      </trkpt>
      <trkpt lat="43.65484" lon="6.18135">
        <ele>613.1</ele>
        <time>2025-01-12T09:17:21.546Z</time>
      </trkpt>
      <trkpt lat="43.65481" lon="6.1814">
        <ele>613.4</ele>
        <time>2025-01-12T09:17:29.257Z</time>
      </trkpt>
      <trkpt lat="43.65478" lon="6.18147">
        <ele>613.7</ele>
        <time>2025-01-12T09:17:37.870Z</time>
      </trkpt>
      <trkpt lat="43.65474" lon="6.18155">
        <ele>614.2</ele>
        <time>2025-01-12T09:17:48.876Z</time>
      </trkpt>
      <trkpt lat="43.65471" lon="6.18162">
        <ele>614.6</ele>
        <time>2025-01-12T09:17:57.989Z</time>
      </trkpt>
      <trkpt lat="43.65467" lon="6.18169">
        <ele>615.2</ele>
        <time>2025-01-12T09:18:08.868Z</time>
      </trkpt>
      <trkpt lat="43.65461" lon="6.18178">
        <ele>615.8</ele>
        <time>2025-01-12T09:18:22.566Z</time>
      </trkpt>
      <trkpt lat="43.65455" lon="6.18186">
        <ele>616.4</ele>
        <time>2025-01-12T09:18:35.647Z</time>
      </trkpt>
      <trkpt lat="43.65449" lon="6.18194">
        <ele>617</ele>
        <time>2025-01-12T09:18:48.214Z</time>
      </trkpt>
      <trkpt lat="43.65443" lon="6.18201">
        <ele>617.5</ele>
        <time>2025-01-12T09:19:00.721Z</time>
      </trkpt>
      <trkpt lat="43.65437" lon="6.18208">
        <ele>618.1</ele>
        <time>2025-01-12T09:19:13.227Z</time>
      </trkpt>
      <trkpt lat="43.6543" lon="6.18215">
        <ele>618.6</ele>
        <time>2025-01-12T09:19:26.161Z</time>
      </trkpt>
      <trkpt lat="43.65424" lon="6.1822">
        <ele>618.9</ele>
        <time>2025-01-12T09:19:36.144Z</time>
      </trkpt>
      <trkpt lat="43.65418" lon="6.18224">
        <ele>619.1</ele>
        <time>2025-01-12T09:19:45.252Z</time>
      </trkpt>
      <trkpt lat="43.65412" lon="6.18229">
        <ele>619.2</ele>
        <time>2025-01-12T09:19:53.971Z</time>
      </trkpt>
      <trkpt lat="43.65406" lon="6.18233">
        <ele>619.3</ele>
        <time>2025-01-12T09:20:03.079Z</time>
      </trkpt>
      <trkpt lat="43.654" lon="6.18241">
        <ele>619.9</ele>
        <time>2025-01-12T09:20:16.160Z</time>
      </trkpt>
      <trkpt lat="43.65397" lon="6.18245">
        <ele>620.3</ele>
        <time>2025-01-12T09:20:23.979Z</time>
      </trkpt>
      <trkpt lat="43.65393" lon="6.18249">
        <ele>620.8</ele>
        <time>2025-01-12T09:20:31.800Z</time>
      </trkpt>
      <trkpt lat="43.65388" lon="6.18256">
        <ele>621.2</ele>
        <time>2025-01-12T09:20:41.919Z</time>
      </trkpt>
      <trkpt lat="43.65382" lon="6.18263">
        <ele>621.2</ele>
        <time>2025-01-12T09:20:52.084Z</time>
      </trkpt>
      <trkpt lat="43.65377" lon="6.18269">
        <ele>621.4</ele>
        <time>2025-01-12T09:21:01.143Z</time>
      </trkpt>
      <trkpt lat="43.65371" lon="6.18276">
        <ele>621.9</ele>
        <time>2025-01-12T09:21:13.126Z</time>
      </trkpt>
      <trkpt lat="43.65366" lon="6.18282">
        <ele>622.1</ele>
        <time>2025-01-12T09:21:22.185Z</time>
      </trkpt>
      <trkpt lat="43.65361" lon="6.18289">
        <ele>622.4</ele>
        <time>2025-01-12T09:21:32.303Z</time>
      </trkpt>
      <trkpt lat="43.65356" lon="6.18295">
        <ele>622.3</ele>
        <time>2025-01-12T09:21:40.173Z</time>
      </trkpt>
      <trkpt lat="43.65351" lon="6.18301">
        <ele>622.4</ele>
        <time>2025-01-12T09:21:48.809Z</time>
      </trkpt>
      <trkpt lat="43.65347" lon="6.18306">
        <ele>622.5</ele>
        <time>2025-01-12T09:21:55.919Z</time>
      </trkpt>
      <trkpt lat="43.65344" lon="6.1831">
        <ele>622.6</ele>
        <time>2025-01-12T09:22:01.511Z</time>
      </trkpt>
      <trkpt lat="43.6534" lon="6.18315">
        <ele>622.8</ele>
        <time>2025-01-12T09:22:08.621Z</time>
      </trkpt>
      <trkpt lat="43.65336" lon="6.18319">
        <ele>623</ele>
        <time>2025-01-12T09:22:16.083Z</time>
      </trkpt>
      <trkpt lat="43.65333" lon="6.18324">
        <ele>623.3</ele>
        <time>2025-01-12T09:22:22.774Z</time>
      </trkpt>
      <trkpt lat="43.65329" lon="6.18328">
        <ele>623.3</ele>
        <time>2025-01-12T09:22:29.318Z</time>
      </trkpt>
      <trkpt lat="43.65326" lon="6.18335">
        <ele>623.8</ele>
        <time>2025-01-12T09:22:38.431Z</time>
      </trkpt>
      <trkpt lat="43.65322" lon="6.18341">
        <ele>623.8</ele>
        <time>2025-01-12T09:22:46.174Z</time>
      </trkpt>
      <trkpt lat="43.65319" lon="6.18348">
        <ele>624</ele>
        <time>2025-01-12T09:22:54.326Z</time>
      </trkpt>
      <trkpt lat="43.65315" lon="6.18355">
        <ele>624.4</ele>
        <time>2025-01-12T09:23:04.119Z</time>
      </trkpt>
      <trkpt lat="43.65312" lon="6.18362">
        <ele>624.8</ele>
        <time>2025-01-12T09:23:13.232Z</time>
      </trkpt>
      <trkpt lat="43.65308" lon="6.18369">
        <ele>624.9</ele>
        <time>2025-01-12T09:23:21.659Z</time>
      </trkpt>
      <trkpt lat="43.65303" lon="6.18377">
        <ele>624.9</ele>
        <time>2025-01-12T09:23:31.178Z</time>
      </trkpt>
      <trkpt lat="43.65296" lon="6.18384">
        <ele>625</ele>
        <time>2025-01-12T09:23:42.323Z</time>
      </trkpt>
      <trkpt lat="43.65289" lon="6.18391">
        <ele>625.6</ele>
        <time>2025-01-12T09:23:55.765Z</time>
      </trkpt>
      <trkpt lat="43.65283" lon="6.18395">
        <ele>625.8</ele>
        <time>2025-01-12T09:24:04.874Z</time>
      </trkpt>
      <trkpt lat="43.65277" lon="6.18399">
        <ele>626</ele>
        <time>2025-01-12T09:24:13.982Z</time>
      </trkpt>
      <trkpt lat="43.65271" lon="6.18402">
        <ele>625.9</ele>
        <time>2025-01-12T09:24:21.552Z</time>
      </trkpt>
      <trkpt lat="43.65265" lon="6.18406">
        <ele>625.9</ele>
        <time>2025-01-12T09:24:29.842Z</time>
      </trkpt>
      <trkpt lat="43.6526" lon="6.18411">
        <ele>626.2</ele>
        <time>2025-01-12T09:24:38.803Z</time>
      </trkpt>
      <trkpt lat="43.65254" lon="6.18415">
        <ele>626.7</ele>
        <time>2025-01-12T09:24:49.365Z</time>
      </trkpt>
      <trkpt lat="43.65249" lon="6.1842">
        <ele>627.1</ele>
        <time>2025-01-12T09:24:58.326Z</time>
      </trkpt>
      <trkpt lat="43.65243" lon="6.18424">
        <ele>626.8</ele>
        <time>2025-01-12T09:25:05.897Z</time>
      </trkpt>
      <trkpt lat="43.65236" lon="6.18427">
        <ele>626.6</ele>
        <time>2025-01-12T09:25:14.294Z</time>
      </trkpt>
      <trkpt lat="43.65232" lon="6.1843">
        <ele>626.5</ele>
        <time>2025-01-12T09:25:19.592Z</time>
      </trkpt>
      <trkpt lat="43.65227" lon="6.18433">
        <ele>626.4</ele>
        <time>2025-01-12T09:25:26.007Z</time>
      </trkpt>
      <trkpt lat="43.65219" lon="6.18438">
        <ele>626.2</ele>
        <time>2025-01-12T09:25:36.203Z</time>
      </trkpt>
      <trkpt lat="43.65212" lon="6.18445">
        <ele>625.9</ele>
        <time>2025-01-12T09:25:45.888Z</time>
      </trkpt>
      <trkpt lat="43.65207" lon="6.18451">
        <ele>625.6</ele>
        <time>2025-01-12T09:25:53.098Z</time>
      </trkpt>
      <trkpt lat="43.65203" lon="6.18456">
        <ele>625.3</ele>
        <time>2025-01-12T09:25:58.971Z</time>
      </trkpt>
      <trkpt lat="43.65199" lon="6.1846">
        <ele>625.1</ele>
        <time>2025-01-12T09:26:04.411Z</time>
      </trkpt>
      <trkpt lat="43.65194" lon="6.1847">
        <ele>624.8</ele>
        <time>2025-01-12T09:26:14.286Z</time>
      </trkpt>
      <trkpt lat="43.6519" lon="6.18476">
        <ele>624.4</ele>
        <time>2025-01-12T09:26:20.714Z</time>
      </trkpt>
      <trkpt lat="43.65186" lon="6.18482">
        <ele>623.9</ele>
        <time>2025-01-12T09:26:27.142Z</time>
      </trkpt>
      <trkpt lat="43.65183" lon="6.18491">
        <ele>623.9</ele>
        <time>2025-01-12T09:26:36.064Z</time>
      </trkpt>
      <trkpt lat="43.6518" lon="6.18502">
        <ele>623.9</ele>
        <time>2025-01-12T09:26:46.649Z</time>
      </trkpt>
      <trkpt lat="43.65177" lon="6.18512">
        <ele>623.5</ele>
        <time>2025-01-12T09:26:55.178Z</time>
      </trkpt>
      <trkpt lat="43.65176" lon="6.18521">
        <ele>623.3</ele>
        <time>2025-01-12T09:27:02.658Z</time>
      </trkpt>
      <trkpt lat="43.65174" lon="6.1853">
        <ele>623</ele>
        <time>2025-01-12T09:27:10.088Z</time>
      </trkpt>
      <trkpt lat="43.65172" lon="6.18541">
        <ele>622.7</ele>
        <time>2025-01-12T09:27:19.236Z</time>
      </trkpt>
      <trkpt lat="43.65172" lon="6.18546">
        <ele>622.6</ele>
        <time>2025-01-12T09:27:23.377Z</time>
      </trkpt>
      <trkpt lat="43.65172" lon="6.18547">
        <ele>622.6</ele>
        <time>2025-01-12T09:27:24.278Z</time>
      </trkpt>
      <trkpt lat="43.65175" lon="6.18546">
        <ele>623</ele>
        <time>2025-01-12T09:27:30.199Z</time>
      </trkpt>
      <trkpt lat="43.65172" lon="6.18547">
        <ele>622.6</ele>
        <time>2025-01-12T09:27:33.560Z</time>
      </trkpt>
      <trkpt lat="43.65175" lon="6.18557">
        <ele>622.8</ele>
        <time>2025-01-12T09:27:44.118Z</time>
      </trkpt>
      <trkpt lat="43.65179" lon="6.18563">
        <ele>623.1</ele>
        <time>2025-01-12T09:27:52.289Z</time>
      </trkpt>
      <trkpt lat="43.65182" lon="6.18568">
        <ele>623.2</ele>
        <time>2025-01-12T09:27:58.980Z</time>
      </trkpt>
      <trkpt lat="43.65186" lon="6.18574">
        <ele>623.4</ele>
        <time>2025-01-12T09:28:07.152Z</time>
      </trkpt>
      <trkpt lat="43.65189" lon="6.18579">
        <ele>623.6</ele>
        <time>2025-01-12T09:28:13.843Z</time>
      </trkpt>
      <trkpt lat="43.65194" lon="6.18585">
        <ele>623.8</ele>
        <time>2025-01-12T09:28:23.355Z</time>
      </trkpt>
      <trkpt lat="43.652" lon="6.18592">
        <ele>623.2</ele>
        <time>2025-01-12T09:28:31.904Z</time>
      </trkpt>
      <trkpt lat="43.65205" lon="6.18598">
        <ele>622.8</ele>
        <time>2025-01-12T09:28:39.115Z</time>
      </trkpt>
      <trkpt lat="43.65211" lon="6.18604">
        <ele>622.4</ele>
        <time>2025-01-12T09:28:47.179Z</time>
      </trkpt>
      <trkpt lat="43.65216" lon="6.1861">
        <ele>622</ele>
        <time>2025-01-12T09:28:54.389Z</time>
      </trkpt>
      <trkpt lat="43.65221" lon="6.18617">
        <ele>621.6</ele>
        <time>2025-01-12T09:29:02.139Z</time>
      </trkpt>
      <trkpt lat="43.65227" lon="6.18623">
        <ele>621</ele>
        <time>2025-01-12T09:29:10.203Z</time>
      </trkpt>
      <trkpt lat="43.65232" lon="6.18629">
        <ele>620.4</ele>
        <time>2025-01-12T09:29:17.413Z</time>
      </trkpt>
      <trkpt lat="43.65237" lon="6.18635">
        <ele>619.7</ele>
        <time>2025-01-12T09:29:24.623Z</time>
      </trkpt>
      <trkpt lat="43.65241" lon="6.18641">
        <ele>619.2</ele>
        <time>2025-01-12T09:29:31.051Z</time>
      </trkpt>
      <trkpt lat="43.65247" lon="6.18648">
        <ele>618.5</ele>
        <time>2025-01-12T09:29:39.601Z</time>
      </trkpt>
      <trkpt lat="43.65254" lon="6.18655">
        <ele>617.7</ele>
        <time>2025-01-12T09:29:49.009Z</time>
      </trkpt>
      <trkpt lat="43.6526" lon="6.18662">
        <ele>617</ele>
        <time>2025-01-12T09:29:57.559Z</time>
      </trkpt>
      <trkpt lat="43.65266" lon="6.1867">
        <ele>616.3</ele>
        <time>2025-01-12T09:30:06.637Z</time>
      </trkpt>
      <trkpt lat="43.65272" lon="6.18677">
        <ele>615.8</ele>
        <time>2025-01-12T09:30:15.187Z</time>
      </trkpt>
      <trkpt lat="43.65279" lon="6.18684">
        <ele>615.4</ele>
        <time>2025-01-12T09:30:24.595Z</time>
      </trkpt>
      <trkpt lat="43.65285" lon="6.18691">
        <ele>615.1</ele>
        <time>2025-01-12T09:30:33.306Z</time>
      </trkpt>
      <trkpt lat="43.65291" lon="6.18698">
        <ele>614.8</ele>
        <time>2025-01-12T09:30:42.016Z</time>
      </trkpt>
      <trkpt lat="43.65295" lon="6.18702">
        <ele>614.4</ele>
        <time>2025-01-12T09:30:47.392Z</time>
      </trkpt>
      <trkpt lat="43.65299" lon="6.18706">
        <ele>613.9</ele>
        <time>2025-01-12T09:30:52.768Z</time>
      </trkpt>
      <trkpt lat="43.65303" lon="6.1871">
        <ele>613.4</ele>
        <time>2025-01-12T09:30:58.144Z</time>
      </trkpt>
      <trkpt lat="43.65307" lon="6.18714">
        <ele>612.8</ele>
        <time>2025-01-12T09:31:03.521Z</time>
      </trkpt>
      <trkpt lat="43.6531" lon="6.18717">
        <ele>612.2</ele>
        <time>2025-01-12T09:31:07.553Z</time>
      </trkpt>
      <trkpt lat="43.65314" lon="6.18721">
        <ele>611.5</ele>
        <time>2025-01-12T09:31:12.929Z</time>
      </trkpt>
      <trkpt lat="43.65318" lon="6.18725">
        <ele>611</ele>
        <time>2025-01-12T09:31:18.305Z</time>
      </trkpt>
      <trkpt lat="43.65322" lon="6.18729">
        <ele>610.4</ele>
        <time>2025-01-12T09:31:23.681Z</time>
      </trkpt>
      <trkpt lat="43.65318" lon="6.18736">
        <ele>610.4</ele>
        <time>2025-01-12T09:31:31.712Z</time>
      </trkpt>
      <trkpt lat="43.65313" lon="6.18743">
        <ele>610.5</ele>
        <time>2025-01-12T09:31:40.964Z</time>
      </trkpt>
      <trkpt lat="43.65313" lon="6.18744">
        <ele>610.5</ele>
        <time>2025-01-12T09:31:41.864Z</time>
      </trkpt>
      <trkpt lat="43.65312" lon="6.18746">
        <ele>610.5</ele>
        <time>2025-01-12T09:31:44.053Z</time>
      </trkpt>
      <trkpt lat="43.65307" lon="6.18739">
        <ele>611.3</ele>
        <time>2025-01-12T09:31:56.894Z</time>
      </trkpt>
      <trkpt lat="43.65312" lon="6.18746">
        <ele>610.5</ele>
        <time>2025-01-12T09:32:04.644Z</time>
      </trkpt>
      <trkpt lat="43.65308" lon="6.18751">
        <ele>610.7</ele>
        <time>2025-01-12T09:32:12.187Z</time>
      </trkpt>
      <trkpt lat="43.65304" lon="6.18757">
        <ele>610.9</ele>
        <time>2025-01-12T09:32:19.931Z</time>
      </trkpt>
      <trkpt lat="43.65301" lon="6.18762">
        <ele>610.9</ele>
        <time>2025-01-12T09:32:26.181Z</time>
      </trkpt>
      <trkpt lat="43.65297" lon="6.18768">
        <ele>611</ele>
        <time>2025-01-12T09:32:33.924Z</time>
      </trkpt>
      <trkpt lat="43.65294" lon="6.18773">
        <ele>611</ele>
        <time>2025-01-12T09:32:39.773Z</time>
      </trkpt>
      <trkpt lat="43.6529" lon="6.18779">
        <ele>611.1</ele>
        <time>2025-01-12T09:32:47.516Z</time>
      </trkpt>
      <trkpt lat="43.65286" lon="6.18784">
        <ele>611.2</ele>
        <time>2025-01-12T09:32:54.627Z</time>
      </trkpt>
      <trkpt lat="43.65283" lon="6.1879">
        <ele>611.2</ele>
        <time>2025-01-12T09:33:01.194Z</time>
      </trkpt>
      <trkpt lat="43.65279" lon="6.18795">
        <ele>611.3</ele>
        <time>2025-01-12T09:33:08.304Z</time>
      </trkpt>
      <trkpt lat="43.65273" lon="6.18803">
        <ele>611.3</ele>
        <time>2025-01-12T09:33:18.679Z</time>
      </trkpt>
      <trkpt lat="43.6527" lon="6.18806">
        <ele>611.3</ele>
        <time>2025-01-12T09:33:23.287Z</time>
      </trkpt>
      <trkpt lat="43.65266" lon="6.18811">
        <ele>611.2</ele>
        <time>2025-01-12T09:33:29.631Z</time>
      </trkpt>
      <trkpt lat="43.65262" lon="6.18816">
        <ele>611.2</ele>
        <time>2025-01-12T09:33:36.342Z</time>
      </trkpt>
      <trkpt lat="43.65258" lon="6.18821">
        <ele>611.2</ele>
        <time>2025-01-12T09:33:43.054Z</time>
      </trkpt>
      <trkpt lat="43.65254" lon="6.18826">
        <ele>611.1</ele>
        <time>2025-01-12T09:33:49.398Z</time>
      </trkpt>
      <trkpt lat="43.6525" lon="6.1883">
        <ele>611.1</ele>
        <time>2025-01-12T09:33:55.542Z</time>
      </trkpt>
      <trkpt lat="43.65246" lon="6.18835">
        <ele>611.3</ele>
        <time>2025-01-12T09:34:03.085Z</time>
      </trkpt>
      <trkpt lat="43.65242" lon="6.1884">
        <ele>611.5</ele>
        <time>2025-01-12T09:34:10.628Z</time>
      </trkpt>
      <trkpt lat="43.65238" lon="6.18845">
        <ele>611.7</ele>
        <time>2025-01-12T09:34:18.172Z</time>
      </trkpt>
      <trkpt lat="43.65242" lon="6.1885">
        <ele>611.4</ele>
        <time>2025-01-12T09:34:24.045Z</time>
      </trkpt>
      <trkpt lat="43.65241" lon="6.18851">
        <ele>611.4</ele>
        <time>2025-01-12T09:34:25.581Z</time>
      </trkpt>
      <trkpt lat="43.65242" lon="6.1885">
        <ele>611.4</ele>
        <time>2025-01-12T09:34:27.117Z</time>
      </trkpt>
      <trkpt lat="43.65248" lon="6.18859">
        <ele>611.1</ele>
        <time>2025-01-12T09:34:37.066Z</time>
      </trkpt>
      <trkpt lat="43.65253" lon="6.18865">
        <ele>610.6</ele>
        <time>2025-01-12T09:34:44.276Z</time>
      </trkpt>
      <trkpt lat="43.65257" lon="6.18871">
        <ele>610.1</ele>
        <time>2025-01-12T09:34:50.704Z</time>
      </trkpt>
      <trkpt lat="43.65263" lon="6.18878">
        <ele>609.5</ele>
        <time>2025-01-12T09:34:59.254Z</time>
      </trkpt>
      <trkpt lat="43.65268" lon="6.18881">
        <ele>609</ele>
        <time>2025-01-12T09:35:05.189Z</time>
      </trkpt>
      <trkpt lat="43.65272" lon="6.18884">
        <ele>608.6</ele>
        <time>2025-01-12T09:35:10.144Z</time>
      </trkpt>
      <trkpt lat="43.65277" lon="6.18893">
        <ele>607.8</ele>
        <time>2025-01-12T09:35:19.084Z</time>
      </trkpt>
      <trkpt lat="43.6528" lon="6.18897">
        <ele>607.2</ele>
        <time>2025-01-12T09:35:23.623Z</time>
      </trkpt>
      <trkpt lat="43.65283" lon="6.18901">
        <ele>606.6</ele>
        <time>2025-01-12T09:35:28.162Z</time>
      </trkpt>
      <trkpt lat="43.65287" lon="6.18905">
        <ele>606</ele>
        <time>2025-01-12T09:35:33.538Z</time>
      </trkpt>
      <trkpt lat="43.65291" lon="6.18909">
        <ele>605.5</ele>
        <time>2025-01-12T09:35:38.914Z</time>
      </trkpt>
      <trkpt lat="43.65296" lon="6.18916">
        <ele>604.7</ele>
        <time>2025-01-12T09:35:46.664Z</time>
      </trkpt>
      <trkpt lat="43.65301" lon="6.18921">
        <ele>604.2</ele>
        <time>2025-01-12T09:35:53.384Z</time>
      </trkpt>
      <trkpt lat="43.65306" lon="6.18927">
        <ele>603.6</ele>
        <time>2025-01-12T09:36:00.594Z</time>
      </trkpt>
      <trkpt lat="43.65311" lon="6.18933">
        <ele>603</ele>
        <time>2025-01-12T09:36:07.804Z</time>
      </trkpt>
      <trkpt lat="43.65317" lon="6.18938">
        <ele>602.4</ele>
        <time>2025-01-12T09:36:15.433Z</time>
      </trkpt>
      <trkpt lat="43.65322" lon="6.18943">
        <ele>601.9</ele>
        <time>2025-01-12T09:36:22.153Z</time>
      </trkpt>
      <trkpt lat="43.65329" lon="6.18948">
        <ele>601.1</ele>
        <time>2025-01-12T09:36:30.733Z</time>
      </trkpt>
      <trkpt lat="43.65335" lon="6.18953">
        <ele>600.3</ele>
        <time>2025-01-12T09:36:38.362Z</time>
      </trkpt>
      <trkpt lat="43.65342" lon="6.18958">
        <ele>599.4</ele>
        <time>2025-01-12T09:36:46.942Z</time>
      </trkpt>
      <trkpt lat="43.65349" lon="6.18963">
        <ele>598.5</ele>
        <time>2025-01-12T09:36:55.522Z</time>
      </trkpt>
      <trkpt lat="43.6535" lon="6.18963">
        <ele>598.5</ele>
        <time>2025-01-12T09:36:56.767Z</time>
      </trkpt>
      <trkpt lat="43.65355" lon="6.18968">
        <ele>597.7</ele>
        <time>2025-01-12T09:37:03.487Z</time>
      </trkpt>
      <trkpt lat="43.6536" lon="6.18973">
        <ele>597.1</ele>
        <time>2025-01-12T09:37:10.207Z</time>
      </trkpt>
      <trkpt lat="43.65367" lon="6.18979">
        <ele>596.2</ele>
        <time>2025-01-12T09:37:19.176Z</time>
      </trkpt>
      <trkpt lat="43.65374" lon="6.18984">
        <ele>595.3</ele>
        <time>2025-01-12T09:37:27.756Z</time>
      </trkpt>
      <trkpt lat="43.65381" lon="6.18988">
        <ele>594.2</ele>
        <time>2025-01-12T09:37:36.004Z</time>
      </trkpt>
      <trkpt lat="43.65386" lon="6.18991">
        <ele>593.3</ele>
        <time>2025-01-12T09:37:41.939Z</time>
      </trkpt>
      <trkpt lat="43.65391" lon="6.18994">
        <ele>592.6</ele>
        <time>2025-01-12T09:37:47.874Z</time>
      </trkpt>
      <trkpt lat="43.65398" lon="6.18998">
        <ele>591.9</ele>
        <time>2025-01-12T09:37:56.122Z</time>
      </trkpt>
      <trkpt lat="43.65405" lon="6.19005">
        <ele>591</ele>
        <time>2025-01-12T09:38:05.530Z</time>
      </trkpt>
      <trkpt lat="43.65411" lon="6.19013">
        <ele>590</ele>
        <time>2025-01-12T09:38:14.608Z</time>
      </trkpt>
      <trkpt lat="43.65417" lon="6.1902">
        <ele>588.8</ele>
        <time>2025-01-12T09:38:23.158Z</time>
      </trkpt>
      <trkpt lat="43.65421" lon="6.19027">
        <ele>587.8</ele>
        <time>2025-01-12T09:38:30.185Z</time>
      </trkpt>
      <trkpt lat="43.65425" lon="6.19037">
        <ele>586.8</ele>
        <time>2025-01-12T09:38:39.188Z</time>
      </trkpt>
      <trkpt lat="43.65428" lon="6.19043">
        <ele>586.4</ele>
        <time>2025-01-12T09:38:44.933Z</time>
      </trkpt>
      <trkpt lat="43.65431" lon="6.19048">
        <ele>586.3</ele>
        <time>2025-01-12T09:38:50.081Z</time>
      </trkpt>
      <trkpt lat="43.65429" lon="6.19049">
        <ele>586.2</ele>
        <time>2025-01-12T09:38:52.397Z</time>
      </trkpt>
      <trkpt lat="43.65429" lon="6.1905">
        <ele>586.1</ele>
        <time>2025-01-12T09:38:53.185Z</time>
      </trkpt>
      <trkpt lat="43.65429" lon="6.19049">
        <ele>586.2</ele>
        <time>2025-01-12T09:38:54.617Z</time>
      </trkpt>
      <trkpt lat="43.65425" lon="6.19051">
        <ele>585.9</ele>
        <time>2025-01-12T09:38:59.249Z</time>
      </trkpt>
      <trkpt lat="43.65421" lon="6.19055">
        <ele>585.4</ele>
        <time>2025-01-12T09:39:04.625Z</time>
      </trkpt>
      <trkpt lat="43.65418" lon="6.19058">
        <ele>585.3</ele>
        <time>2025-01-12T09:39:08.872Z</time>
      </trkpt>
      <trkpt lat="43.65414" lon="6.19061">
        <ele>585.5</ele>
        <time>2025-01-12T09:39:15.380Z</time>
      </trkpt>
      <trkpt lat="43.65412" lon="6.19064">
        <ele>585.7</ele>
        <time>2025-01-12T09:39:19.946Z</time>
      </trkpt>
      <trkpt lat="43.6541" lon="6.19066">
        <ele>585.9</ele>
        <time>2025-01-12T09:39:23.940Z</time>
      </trkpt>
      <trkpt lat="43.65407" lon="6.19069">
        <ele>586</ele>
        <time>2025-01-12T09:39:28.955Z</time>
      </trkpt>
      <trkpt lat="43.65405" lon="6.19072">
        <ele>586</ele>
        <time>2025-01-12T09:39:32.627Z</time>
      </trkpt>
      <trkpt lat="43.65405" lon="6.19075">
        <ele>586.1</ele>
        <time>2025-01-12T09:39:35.753Z</time>
      </trkpt>
      <trkpt lat="43.65405" lon="6.19079">
        <ele>586.1</ele>
        <time>2025-01-12T09:39:39.355Z</time>
      </trkpt>
      <trkpt lat="43.65404" lon="6.19082">
        <ele>586.1</ele>
        <time>2025-01-12T09:39:42.329Z</time>
      </trkpt>
      <trkpt lat="43.65403" lon="6.19086">
        <ele>586</ele>
        <time>2025-01-12T09:39:45.782Z</time>
      </trkpt>
      <trkpt lat="43.65402" lon="6.19089">
        <ele>585.9</ele>
        <time>2025-01-12T09:39:48.405Z</time>
      </trkpt>
      <trkpt lat="43.654" lon="6.19092">
        <ele>585.7</ele>
        <time>2025-01-12T09:39:51.619Z</time>
      </trkpt>
      <trkpt lat="43.65397" lon="6.19094">
        <ele>585.4</ele>
        <time>2025-01-12T09:39:55.245Z</time>
      </trkpt>
      <trkpt lat="43.65396" lon="6.19098">
        <ele>585.3</ele>
        <time>2025-01-12T09:39:58.698Z</time>
      </trkpt>
      <trkpt lat="43.65394" lon="6.19102">
        <ele>584.9</ele>
        <time>2025-01-12T09:40:02.529Z</time>
      </trkpt>
      <trkpt lat="43.65392" lon="6.19107">
        <ele>584.6</ele>
        <time>2025-01-12T09:40:07.030Z</time>
      </trkpt>
      <trkpt lat="43.65389" lon="6.19114">
        <ele>583.9</ele>
        <time>2025-01-12T09:40:13.440Z</time>
      </trkpt>
      <trkpt lat="43.65389" lon="6.19118">
        <ele>583.8</ele>
        <time>2025-01-12T09:40:16.685Z</time>
      </trkpt>
      <trkpt lat="43.65389" lon="6.19121">
        <ele>583.7</ele>
        <time>2025-01-12T09:40:19.049Z</time>
      </trkpt>
      <trkpt lat="43.65389" lon="6.19126">
        <ele>583.5</ele>
        <time>2025-01-12T09:40:22.988Z</time>
      </trkpt>
      <trkpt lat="43.6539" lon="6.19133">
        <ele>583.4</ele>
        <time>2025-01-12T09:40:29.045Z</time>
      </trkpt>
      <trkpt lat="43.65389" lon="6.1914">
        <ele>583</ele>
        <time>2025-01-12T09:40:34.666Z</time>
      </trkpt>
      <trkpt lat="43.65388" lon="6.19146">
        <ele>583.2</ele>
        <time>2025-01-12T09:40:41.056Z</time>
      </trkpt>
      <trkpt lat="43.65386" lon="6.19151">
        <ele>583.5</ele>
        <time>2025-01-12T09:40:47.556Z</time>
      </trkpt>
      <trkpt lat="43.65383" lon="6.19155">
        <ele>583.9</ele>
        <time>2025-01-12T09:40:54.655Z</time>
      </trkpt>
      <trkpt lat="43.65379" lon="6.19161">
        <ele>584.3</ele>
        <time>2025-01-12T09:41:03.788Z</time>
      </trkpt>
      <trkpt lat="43.65377" lon="6.19168">
        <ele>584.2</ele>
        <time>2025-01-12T09:41:10.196Z</time>
      </trkpt>
      <trkpt lat="43.65375" lon="6.19175">
        <ele>584.2</ele>
        <time>2025-01-12T09:41:16.972Z</time>
      </trkpt>
      <trkpt lat="43.65373" lon="6.19181">
        <ele>584.1</ele>
        <time>2025-01-12T09:41:22.554Z</time>
      </trkpt>
      <trkpt lat="43.65372" lon="6.19187">
        <ele>583.9</ele>
        <time>2025-01-12T09:41:27.732Z</time>
      </trkpt>
      <trkpt lat="43.6537" lon="6.19193">
        <ele>583.8</ele>
        <time>2025-01-12T09:41:32.979Z</time>
      </trkpt>
      <trkpt lat="43.65369" lon="6.192">
        <ele>583.7</ele>
        <time>2025-01-12T09:41:39.035Z</time>
      </trkpt>
      <trkpt lat="43.65368" lon="6.19206">
        <ele>583.6</ele>
        <time>2025-01-12T09:41:44.214Z</time>
      </trkpt>
      <trkpt lat="43.65368" lon="6.19213">
        <ele>583.6</ele>
        <time>2025-01-12T09:41:50.517Z</time>
      </trkpt>
      <trkpt lat="43.65368" lon="6.1922">
        <ele>583.5</ele>
        <time>2025-01-12T09:41:56.452Z</time>
      </trkpt>
      <trkpt lat="43.65368" lon="6.19224">
        <ele>583.5</ele>
        <time>2025-01-12T09:42:00.054Z</time>
      </trkpt>
      <trkpt lat="43.65367" lon="6.19227">
        <ele>583.3</ele>
        <time>2025-01-12T09:42:02.656Z</time>
      </trkpt>
      <trkpt lat="43.65362" lon="6.19237">
        <ele>582.6</ele>
        <time>2025-01-12T09:42:12.233Z</time>
      </trkpt>
      <trkpt lat="43.65359" lon="6.19242">
        <ele>582.4</ele>
        <time>2025-01-12T09:42:17.380Z</time>
      </trkpt>
      <trkpt lat="43.65356" lon="6.19247">
        <ele>582.3</ele>
        <time>2025-01-12T09:42:22.863Z</time>
      </trkpt>
      <trkpt lat="43.65353" lon="6.19253">
        <ele>582.3</ele>
        <time>2025-01-12T09:42:29.430Z</time>
      </trkpt>
      <trkpt lat="43.65349" lon="6.19259">
        <ele>582.3</ele>
        <time>2025-01-12T09:42:36.776Z</time>
      </trkpt>
      <trkpt lat="43.65346" lon="6.19265">
        <ele>582.2</ele>
        <time>2025-01-12T09:42:42.974Z</time>
      </trkpt>
      <trkpt lat="43.65342" lon="6.19271">
        <ele>581.9</ele>
        <time>2025-01-12T09:42:49.402Z</time>
      </trkpt>
      <trkpt lat="43.65338" lon="6.19279">
        <ele>581.4</ele>
        <time>2025-01-12T09:42:57.064Z</time>
      </trkpt>
      <trkpt lat="43.65334" lon="6.19286">
        <ele>581.1</ele>
        <time>2025-01-12T09:43:04.377Z</time>
      </trkpt>
      <trkpt lat="43.6533" lon="6.19294">
        <ele>581.1</ele>
        <time>2025-01-12T09:43:13.133Z</time>
      </trkpt>
      <trkpt lat="43.65326" lon="6.19302">
        <ele>581.3</ele>
        <time>2025-01-12T09:43:22.704Z</time>
      </trkpt>
      <trkpt lat="43.65323" lon="6.19308">
        <ele>581.3</ele>
        <time>2025-01-12T09:43:29.271Z</time>
      </trkpt>
      <trkpt lat="43.6532" lon="6.19314">
        <ele>581.2</ele>
        <time>2025-01-12T09:43:35.470Z</time>
      </trkpt>
      <trkpt lat="43.65317" lon="6.19322">
        <ele>580.9</ele>
        <time>2025-01-12T09:43:42.569Z</time>
      </trkpt>
      <trkpt lat="43.65317" lon="6.19328">
        <ele>580.6</ele>
        <time>2025-01-12T09:43:47.296Z</time>
      </trkpt>
      <trkpt lat="43.65316" lon="6.19337">
        <ele>580.3</ele>
        <time>2025-01-12T09:43:54.470Z</time>
      </trkpt>
      <trkpt lat="43.65313" lon="6.19345">
        <ele>580.2</ele>
        <time>2025-01-12T09:44:02.212Z</time>
      </trkpt>
      <trkpt lat="43.65313" lon="6.19347">
        <ele>580.1</ele>
        <time>2025-01-12T09:44:03.788Z</time>
      </trkpt>
      <trkpt lat="43.6531" lon="6.19354">
        <ele>580</ele>
        <time>2025-01-12T09:44:10.744Z</time>
      </trkpt>
      <trkpt lat="43.65307" lon="6.19361">
        <ele>580</ele>
        <time>2025-01-12T09:44:18.070Z</time>
      </trkpt>
      <trkpt lat="43.65305" lon="6.19369">
        <ele>579.8</ele>
        <time>2025-01-12T09:44:24.976Z</time>
      </trkpt>
      <trkpt lat="43.65304" lon="6.19375">
        <ele>579.8</ele>
        <time>2025-01-12T09:44:30.519Z</time>
      </trkpt>
      <trkpt lat="43.65303" lon="6.19382">
        <ele>579.7</ele>
        <time>2025-01-12T09:44:36.576Z</time>
      </trkpt>
      <trkpt lat="43.65304" lon="6.19389">
        <ele>579.3</ele>
        <time>2025-01-12T09:44:42.198Z</time>
      </trkpt>
      <trkpt lat="43.65307" lon="6.19396">
        <ele>579.2</ele>
        <time>2025-01-12T09:44:49.154Z</time>
      </trkpt>
      <trkpt lat="43.6531" lon="6.19404">
        <ele>579.7</ele>
        <time>2025-01-12T09:44:59.548Z</time>
      </trkpt>
      <trkpt lat="43.65311" lon="6.19412">
        <ele>579.9</ele>
        <time>2025-01-12T09:45:07.684Z</time>
      </trkpt>
      <trkpt lat="43.6531" lon="6.1942">
        <ele>579.6</ele>
        <time>2025-01-12T09:45:14.080Z</time>
      </trkpt>
      <trkpt lat="43.65309" lon="6.19427">
        <ele>579.2</ele>
        <time>2025-01-12T09:45:19.701Z</time>
      </trkpt>
      <trkpt lat="43.65308" lon="6.19433">
        <ele>578.7</ele>
        <time>2025-01-12T09:45:24.552Z</time>
      </trkpt>
      <trkpt lat="43.65307" lon="6.19441">
        <ele>578.3</ele>
        <time>2025-01-12T09:45:30.948Z</time>
      </trkpt>
      <trkpt lat="43.65305" lon="6.19448">
        <ele>578.1</ele>
        <time>2025-01-12T09:45:37.016Z</time>
      </trkpt>
      <trkpt lat="43.65302" lon="6.19457">
        <ele>578.3</ele>
        <time>2025-01-12T09:45:46.753Z</time>
      </trkpt>
      <trkpt lat="43.65299" lon="6.19466">
        <ele>578.3</ele>
        <time>2025-01-12T09:45:55.675Z</time>
      </trkpt>
      <trkpt lat="43.65296" lon="6.19473">
        <ele>578</ele>
        <time>2025-01-12T09:46:02.084Z</time>
      </trkpt>
      <trkpt lat="43.65293" lon="6.19479">
        <ele>578</ele>
        <time>2025-01-12T09:46:08.651Z</time>
      </trkpt>
      <trkpt lat="43.65289" lon="6.19482">
        <ele>577.4</ele>
        <time>2025-01-12T09:46:13.607Z</time>
      </trkpt>
      <trkpt lat="43.65285" lon="6.19485">
        <ele>576.6</ele>
        <time>2025-01-12T09:46:18.562Z</time>
      </trkpt>
      <trkpt lat="43.65282" lon="6.19489">
        <ele>575.8</ele>
        <time>2025-01-12T09:46:23.101Z</time>
      </trkpt>
      <trkpt lat="43.65278" lon="6.19493">
        <ele>574.6</ele>
        <time>2025-01-12T09:46:28.477Z</time>
      </trkpt>
      <trkpt lat="43.65275" lon="6.19498">
        <ele>574.6</ele>
        <time>2025-01-12T09:46:34.326Z</time>
      </trkpt>
      <trkpt lat="43.65272" lon="6.19503">
        <ele>575</ele>
        <time>2025-01-12T09:46:42.037Z</time>
      </trkpt>
      <trkpt lat="43.6527" lon="6.19509">
        <ele>575.5</ele>
        <time>2025-01-12T09:46:50.427Z</time>
      </trkpt>
      <trkpt lat="43.65268" lon="6.19514">
        <ele>575.9</ele>
        <time>2025-01-12T09:46:57.488Z</time>
      </trkpt>
      <trkpt lat="43.65265" lon="6.1952">
        <ele>576</ele>
        <time>2025-01-12T09:47:04.454Z</time>
      </trkpt>
      <trkpt lat="43.65263" lon="6.19525">
        <ele>576</ele>
        <time>2025-01-12T09:47:09.598Z</time>
      </trkpt>
      <trkpt lat="43.65259" lon="6.19533">
        <ele>575.6</ele>
        <time>2025-01-12T09:47:17.259Z</time>
      </trkpt>
      <trkpt lat="43.65255" lon="6.1954">
        <ele>574.9</ele>
        <time>2025-01-12T09:47:24.287Z</time>
      </trkpt>
      <trkpt lat="43.65251" lon="6.19549">
        <ele>573.7</ele>
        <time>2025-01-12T09:47:32.608Z</time>
      </trkpt>
      <trkpt lat="43.65247" lon="6.19557">
        <ele>573.2</ele>
        <time>2025-01-12T09:47:40.270Z</time>
      </trkpt>
      <trkpt lat="43.65243" lon="6.19564">
        <ele>573.4</ele>
        <time>2025-01-12T09:47:49.121Z</time>
      </trkpt>
      <trkpt lat="43.65238" lon="6.1957">
        <ele>573.3</ele>
        <time>2025-01-12T09:47:56.991Z</time>
      </trkpt>
      <trkpt lat="43.65233" lon="6.19574">
        <ele>572.9</ele>
        <time>2025-01-12T09:48:03.282Z</time>
      </trkpt>
      <trkpt lat="43.65228" lon="6.19577">
        <ele>572.3</ele>
        <time>2025-01-12T09:48:09.217Z</time>
      </trkpt>
      <trkpt lat="43.65223" lon="6.19581">
        <ele>571.4</ele>
        <time>2025-01-12T09:48:15.508Z</time>
      </trkpt>
      <trkpt lat="43.65217" lon="6.19585">
        <ele>571.6</ele>
        <time>2025-01-12T09:48:24.616Z</time>
      </trkpt>
      <trkpt lat="43.6521" lon="6.1959">
        <ele>572.3</ele>
        <time>2025-01-12T09:48:37.711Z</time>
      </trkpt>
      <trkpt lat="43.65205" lon="6.19594">
        <ele>572.5</ele>
        <time>2025-01-12T09:48:45.727Z</time>
      </trkpt>
      <trkpt lat="43.65201" lon="6.19604">
        <ele>572.3</ele>
        <time>2025-01-12T09:48:54.951Z</time>
      </trkpt>
      <trkpt lat="43.65196" lon="6.19613">
        <ele>571.3</ele>
        <time>2025-01-12T09:49:03.891Z</time>
      </trkpt>
      <trkpt lat="43.65196" lon="6.19613">
        <ele>571.3</ele>
        <time>2025-01-12T09:49:03.891Z</time>
      </trkpt>
      <trkpt lat="43.65193" lon="6.19611">
        <ele>571.3</ele>
        <time>2025-01-12T09:49:08.036Z</time>
      </trkpt>
      <trkpt lat="43.65196" lon="6.19613">
        <ele>571.3</ele>
        <time>2025-01-12T09:49:12.181Z</time>
      </trkpt>
      <trkpt lat="43.65196" lon="6.19621">
        <ele>571.3</ele>
        <time>2025-01-12T09:49:19.015Z</time>
      </trkpt>
      <trkpt lat="43.65195" lon="6.19628">
        <ele>571.1</ele>
        <time>2025-01-12T09:49:25.072Z</time>
      </trkpt>
      <trkpt lat="43.65196" lon="6.19638">
        <ele>571.4</ele>
        <time>2025-01-12T09:49:34.975Z</time>
      </trkpt>
      <trkpt lat="43.65196" lon="6.19648">
        <ele>571.1</ele>
        <time>2025-01-12T09:49:43.257Z</time>
      </trkpt>
      <trkpt lat="43.65196" lon="6.19655">
        <ele>570.8</ele>
        <time>2025-01-12T09:49:48.772Z</time>
      </trkpt>
      <trkpt lat="43.65196" lon="6.19661">
        <ele>570.6</ele>
        <time>2025-01-12T09:49:53.499Z</time>
      </trkpt>
      <trkpt lat="43.65195" lon="6.19668">
        <ele>570.1</ele>
        <time>2025-01-12T09:49:59.120Z</time>
      </trkpt>
      <trkpt lat="43.65195" lon="6.19674">
        <ele>570.1</ele>
        <time>2025-01-12T09:50:04.158Z</time>
      </trkpt>
      <trkpt lat="43.65194" lon="6.19684">
        <ele>570.1</ele>
        <time>2025-01-12T09:50:13.248Z</time>
      </trkpt>
      <trkpt lat="43.65193" lon="6.19693">
        <ele>570.2</ele>
        <time>2025-01-12T09:50:21.842Z</time>
      </trkpt>
      <trkpt lat="43.65192" lon="6.19703">
        <ele>570.2</ele>
        <time>2025-01-12T09:50:30.932Z</time>
      </trkpt>
      <trkpt lat="43.65191" lon="6.19712">
        <ele>570.1</ele>
        <time>2025-01-12T09:50:38.760Z</time>
      </trkpt>
      <trkpt lat="43.65186" lon="6.19721">
        <ele>569.7</ele>
        <time>2025-01-12T09:50:47.700Z</time>
      </trkpt>
      <trkpt lat="43.65181" lon="6.1973">
        <ele>569.8</ele>
        <time>2025-01-12T09:50:58.310Z</time>
      </trkpt>
      <trkpt lat="43.65177" lon="6.19737">
        <ele>569.6</ele>
        <time>2025-01-12T09:51:05.624Z</time>
      </trkpt>
      <trkpt lat="43.65173" lon="6.19744">
        <ele>569.2</ele>
        <time>2025-01-12T09:51:12.652Z</time>
      </trkpt>
      <trkpt lat="43.65169" lon="6.19748">
        <ele>568.5</ele>
        <time>2025-01-12T09:51:18.028Z</time>
      </trkpt>
      <trkpt lat="43.65165" lon="6.19752">
        <ele>568.2</ele>
        <time>2025-01-12T09:51:23.404Z</time>
      </trkpt>
      <trkpt lat="43.6516" lon="6.19755">
        <ele>568.2</ele>
        <time>2025-01-12T09:51:31.018Z</time>
      </trkpt>
      <trkpt lat="43.65156" lon="6.19759">
        <ele>568.4</ele>
        <time>2025-01-12T09:51:37.563Z</time>
      </trkpt>
      <trkpt lat="43.65149" lon="6.19765">
        <ele>568.5</ele>
        <time>2025-01-12T09:51:47.813Z</time>
      </trkpt>
      <trkpt lat="43.65141" lon="6.1977">
        <ele>568.4</ele>
        <time>2025-01-12T09:51:58.739Z</time>
      </trkpt>
      <trkpt lat="43.65136" lon="6.19772">
        <ele>568.3</ele>
        <time>2025-01-12T09:52:04.849Z</time>
      </trkpt>
      <trkpt lat="43.65132" lon="6.19774">
        <ele>568.4</ele>
        <time>2025-01-12T09:52:10.546Z</time>
      </trkpt>
      <trkpt lat="43.65127" lon="6.19775">
        <ele>568.4</ele>
        <time>2025-01-12T09:52:16.833Z</time>
      </trkpt>
      <trkpt lat="43.65122" lon="6.19777">
        <ele>568.3</ele>
        <time>2025-01-12T09:52:22.943Z</time>
      </trkpt>
      <trkpt lat="43.65117" lon="6.19777">
        <ele>568.2</ele>
        <time>2025-01-12T09:52:28.798Z</time>
      </trkpt>
      <trkpt lat="43.65111" lon="6.19778">
        <ele>568.1</ele>
        <time>2025-01-12T09:52:35.604Z</time>
      </trkpt>
      <trkpt lat="43.65106" lon="6.19778">
        <ele>568.1</ele>
        <time>2025-01-12T09:52:41.827Z</time>
      </trkpt>
      <trkpt lat="43.651" lon="6.19778">
        <ele>568.1</ele>
        <time>2025-01-12T09:52:49.691Z</time>
      </trkpt>
      <trkpt lat="43.65095" lon="6.19775">
        <ele>567.8</ele>
        <time>2025-01-12T09:52:55.626Z</time>
      </trkpt>
      <trkpt lat="43.6509" lon="6.19773">
        <ele>567.6</ele>
        <time>2025-01-12T09:53:01.294Z</time>
      </trkpt>
      <trkpt lat="43.65084" lon="6.1977">
        <ele>567.2</ele>
        <time>2025-01-12T09:53:08.242Z</time>
      </trkpt>
      <trkpt lat="43.65079" lon="6.19767">
        <ele>567.2</ele>
        <time>2025-01-12T09:53:15.025Z</time>
      </trkpt>
      <trkpt lat="43.65076" lon="6.19762">
        <ele>566.8</ele>
        <time>2025-01-12T09:53:20.142Z</time>
      </trkpt>
      <trkpt lat="43.65072" lon="6.19758">
        <ele>566.3</ele>
        <time>2025-01-12T09:53:25.519Z</time>
      </trkpt>
      <trkpt lat="43.65069" lon="6.19753">
        <ele>565.5</ele>
        <time>2025-01-12T09:53:30.636Z</time>
      </trkpt>
      <trkpt lat="43.65065" lon="6.19748">
        <ele>565.3</ele>
        <time>2025-01-12T09:53:36.639Z</time>
      </trkpt>
      <trkpt lat="43.6506" lon="6.19746">
        <ele>565.6</ele>
        <time>2025-01-12T09:53:44.425Z</time>
      </trkpt>
      <trkpt lat="43.65054" lon="6.19744">
        <ele>565.8</ele>
        <time>2025-01-12T09:53:52.929Z</time>
      </trkpt>
      <trkpt lat="43.65049" lon="6.19746">
        <ele>565.2</ele>
        <time>2025-01-12T09:53:58.597Z</time>
      </trkpt>
      <trkpt lat="43.65043" lon="6.19747">
        <ele>564.7</ele>
        <time>2025-01-12T09:54:05.177Z</time>
      </trkpt>
      <trkpt lat="43.65038" lon="6.1975">
        <ele>563.7</ele>
        <time>2025-01-12T09:54:11.113Z</time>
      </trkpt>
      <trkpt lat="43.65033" lon="6.19752">
        <ele>563.8</ele>
        <time>2025-01-12T09:54:17.223Z</time>
      </trkpt>
      <trkpt lat="43.65029" lon="6.19757">
        <ele>564.6</ele>
        <time>2025-01-12T09:54:27.579Z</time>
      </trkpt>
      <trkpt lat="43.65024" lon="6.19761">
        <ele>566.2</ele>
        <time>2025-01-12T09:54:48.788Z</time>
      </trkpt>
      <trkpt lat="43.65021" lon="6.19768">
        <ele>567.5</ele>
        <time>2025-01-12T09:55:05.912Z</time>
      </trkpt>
      <trkpt lat="43.65017" lon="6.19775">
        <ele>568.1</ele>
        <time>2025-01-12T09:55:16.229Z</time>
      </trkpt>
      <trkpt lat="43.65016" lon="6.19782">
        <ele>568.1</ele>
        <time>2025-01-12T09:55:22.654Z</time>
      </trkpt>
      <trkpt lat="43.65015" lon="6.19789">
        <ele>567.9</ele>
        <time>2025-01-12T09:55:28.372Z</time>
      </trkpt>
      <trkpt lat="43.65013" lon="6.19796">
        <ele>567.5</ele>
        <time>2025-01-12T09:55:34.302Z</time>
      </trkpt>
      <trkpt lat="43.65012" lon="6.19803">
        <ele>567.2</ele>
        <time>2025-01-12T09:55:39.923Z</time>
      </trkpt>
      <trkpt lat="43.65012" lon="6.19805">
        <ele>567.2</ele>
        <time>2025-01-12T09:55:41.724Z</time>
      </trkpt>
      <trkpt lat="43.65011" lon="6.19817">
        <ele>566.8</ele>
        <time>2025-01-12T09:55:51.241Z</time>
      </trkpt>
      <trkpt lat="43.65014" lon="6.19826">
        <ele>566.8</ele>
        <time>2025-01-12T09:56:00.164Z</time>
      </trkpt>
      <trkpt lat="43.65017" lon="6.19835">
        <ele>566.3</ele>
        <time>2025-01-12T09:56:07.971Z</time>
      </trkpt>
      <trkpt lat="43.65019" lon="6.19843">
        <ele>565.5</ele>
        <time>2025-01-12T09:56:14.640Z</time>
      </trkpt>
      <trkpt lat="43.65022" lon="6.19852">
        <ele>564.2</ele>
        <time>2025-01-12T09:56:22.447Z</time>
      </trkpt>
      <trkpt lat="43.65024" lon="6.19859">
        <ele>563.1</ele>
        <time>2025-01-12T09:56:28.377Z</time>
      </trkpt>
      <trkpt lat="43.65026" lon="6.19867">
        <ele>562</ele>
        <time>2025-01-12T09:56:35.045Z</time>
      </trkpt>
      <trkpt lat="43.65028" lon="6.19874">
        <ele>561.1</ele>
        <time>2025-01-12T09:56:40.975Z</time>
      </trkpt>
      <trkpt lat="43.6503" lon="6.19881">
        <ele>561.3</ele>
        <time>2025-01-12T09:56:48.150Z</time>
      </trkpt>
      <trkpt lat="43.65031" lon="6.1989">
        <ele>561</ele>
        <time>2025-01-12T09:56:55.324Z</time>
      </trkpt>
      <trkpt lat="43.65032" lon="6.19899">
        <ele>561.4</ele>
        <time>2025-01-12T09:57:05.280Z</time>
      </trkpt>
      <trkpt lat="43.65031" lon="6.19911">
        <ele>561.1</ele>
        <time>2025-01-12T09:57:15.088Z</time>
      </trkpt>
      <trkpt lat="43.65028" lon="6.19916">
        <ele>560.1</ele>
        <time>2025-01-12T09:57:20.206Z</time>
      </trkpt>
      <trkpt lat="43.65024" lon="6.19921">
        <ele>561</ele>
        <time>2025-01-12T09:57:32.955Z</time>
      </trkpt>
      <trkpt lat="43.65018" lon="6.19922">
        <ele>561.3</ele>
        <time>2025-01-12T09:57:41.760Z</time>
      </trkpt>
      <trkpt lat="43.65011" lon="6.19923">
        <ele>561.5</ele>
        <time>2025-01-12T09:57:51.333Z</time>
      </trkpt>
      <trkpt lat="43.65008" lon="6.19927">
        <ele>561.5</ele>
        <time>2025-01-12T09:57:56.619Z</time>
      </trkpt>
      <trkpt lat="43.65004" lon="6.19931">
        <ele>561.3</ele>
        <time>2025-01-12T09:58:01.906Z</time>
      </trkpt>
      <trkpt lat="43.64997" lon="6.19938">
        <ele>561.2</ele>
        <time>2025-01-12T09:58:12.284Z</time>
      </trkpt>
      <trkpt lat="43.64995" lon="6.19944">
        <ele>561.1</ele>
        <time>2025-01-12T09:58:17.866Z</time>
      </trkpt>
      <trkpt lat="43.64993" lon="6.19951">
        <ele>561.8</ele>
        <time>2025-01-12T09:58:28.276Z</time>
      </trkpt>
      <trkpt lat="43.6499" lon="6.19957">
        <ele>562.2</ele>
        <time>2025-01-12T09:58:36.664Z</time>
      </trkpt>
      <trkpt lat="43.64988" lon="6.19963">
        <ele>562.1</ele>
        <time>2025-01-12T09:58:42.246Z</time>
      </trkpt>
      <trkpt lat="43.64983" lon="6.19972">
        <ele>561</ele>
        <time>2025-01-12T09:58:51.186Z</time>
      </trkpt>
      <trkpt lat="43.64979" lon="6.1998">
        <ele>560.1</ele>
        <time>2025-01-12T09:58:58.847Z</time>
      </trkpt>
      <trkpt lat="43.64974" lon="6.19989">
        <ele>558.4</ele>
        <time>2025-01-12T09:59:07.787Z</time>
      </trkpt>
      <trkpt lat="43.64969" lon="6.19997">
        <ele>557.9</ele>
        <time>2025-01-12T09:59:16.116Z</time>
      </trkpt>
      <trkpt lat="43.64962" lon="6.20003">
        <ele>559.3</ele>
        <time>2025-01-12T09:59:34.471Z</time>
      </trkpt>
      <trkpt lat="43.64955" lon="6.20009">
        <ele>560.2</ele>
        <time>2025-01-12T09:59:49.169Z</time>
      </trkpt>
      <trkpt lat="43.64948" lon="6.20013">
        <ele>559.9</ele>
        <time>2025-01-12T09:59:57.417Z</time>
      </trkpt>
      <trkpt lat="43.6494" lon="6.20017">
        <ele>558.8</ele>
        <time>2025-01-12T10:00:06.680Z</time>
      </trkpt>
      <trkpt lat="43.64935" lon="6.20019">
        <ele>558.2</ele>
        <time>2025-01-12T10:00:12.348Z</time>
      </trkpt>
      <trkpt lat="43.6493" lon="6.2002">
        <ele>557.9</ele>
        <time>2025-01-12T10:00:17.930Z</time>
      </trkpt>
      <trkpt lat="43.64925" lon="6.2002">
        <ele>557.7</ele>
        <time>2025-01-12T10:00:23.375Z</time>
      </trkpt>
      <trkpt lat="43.64925" lon="6.20018">
        <ele>558.1</ele>
        <time>2025-01-12T10:00:28.307Z</time>
      </trkpt>
      <trkpt lat="43.64925" lon="6.2002">
        <ele>557.7</ele>
        <time>2025-01-12T10:00:29.883Z</time>
      </trkpt>
      <trkpt lat="43.64924" lon="6.2002">
        <ele>557.7</ele>
        <time>2025-01-12T10:00:31.127Z</time>
      </trkpt>
      <trkpt lat="43.64919" lon="6.20021">
        <ele>557.3</ele>
        <time>2025-01-12T10:00:36.628Z</time>
      </trkpt>
      <trkpt lat="43.64913" lon="6.20022">
        <ele>557</ele>
        <time>2025-01-12T10:00:43.209Z</time>
      </trkpt>
      <trkpt lat="43.64906" lon="6.20023">
        <ele>556.7</ele>
        <time>2025-01-12T10:00:50.916Z</time>
      </trkpt>
      <trkpt lat="43.64902" lon="6.20026">
        <ele>555.6</ele>
        <time>2025-01-12T10:00:55.871Z</time>
      </trkpt>
      <trkpt lat="43.64898" lon="6.20029">
        <ele>554.8</ele>
        <time>2025-01-12T10:01:00.827Z</time>
      </trkpt>
      <trkpt lat="43.64894" lon="6.20035">
        <ele>554.7</ele>
        <time>2025-01-12T10:01:07.460Z</time>
      </trkpt>
      <trkpt lat="43.64889" lon="6.20041">
        <ele>553.6</ele>
        <time>2025-01-12T10:01:14.670Z</time>
      </trkpt>
      <trkpt lat="43.64886" lon="6.20049">
        <ele>554.4</ele>
        <time>2025-01-12T10:01:28.321Z</time>
      </trkpt>
      <trkpt lat="43.64882" lon="6.20056">
        <ele>555.3</ele>
        <time>2025-01-12T10:01:39.805Z</time>
      </trkpt>
      <trkpt lat="43.64879" lon="6.20066">
        <ele>556.8</ele>
        <time>2025-01-12T10:01:59.732Z</time>
      </trkpt>
      <trkpt lat="43.64875" lon="6.20075">
        <ele>557.1</ele>
        <time>2025-01-12T10:02:10.054Z</time>
      </trkpt>
      <trkpt lat="43.64872" lon="6.20081">
        <ele>556.5</ele>
        <time>2025-01-12T10:02:15.801Z</time>
      </trkpt>
      <trkpt lat="43.64868" lon="6.20091">
        <ele>554.4</ele>
        <time>2025-01-12T10:02:24.803Z</time>
      </trkpt>
      <trkpt lat="43.64864" lon="6.201">
        <ele>551.2</ele>
        <time>2025-01-12T10:02:33.125Z</time>
      </trkpt>
      <trkpt lat="43.6486" lon="6.2011">
        <ele>547.6</ele>
        <time>2025-01-12T10:02:42.128Z</time>
      </trkpt>
      <trkpt lat="43.64855" lon="6.2012">
        <ele>549.8</ele>
        <time>2025-01-12T10:03:07.810Z</time>
      </trkpt>
      <trkpt lat="43.64851" lon="6.20126">
        <ele>550.6</ele>
        <time>2025-01-12T10:03:19.384Z</time>
      </trkpt>
      <trkpt lat="43.64846" lon="6.20132">
        <ele>550.3</ele>
        <time>2025-01-12T10:03:26.594Z</time>
      </trkpt>
      <trkpt lat="43.64844" lon="6.20139">
        <ele>549.7</ele>
        <time>2025-01-12T10:03:32.524Z</time>
      </trkpt>
      <trkpt lat="43.64842" lon="6.20146">
        <ele>550.5</ele>
        <time>2025-01-12T10:03:43.655Z</time>
      </trkpt>
      <trkpt lat="43.64841" lon="6.20157">
        <ele>552.5</ele>
        <time>2025-01-12T10:04:08.108Z</time>
      </trkpt>
      <trkpt lat="43.64839" lon="6.20155">
        <ele>552</ele>
        <time>2025-01-12T10:04:10.796Z</time>
      </trkpt>
      <trkpt lat="43.64838" lon="6.20157">
        <ele>552.4</ele>
        <time>2025-01-12T10:04:15.702Z</time>
      </trkpt>
      <trkpt lat="43.64839" lon="6.20155">
        <ele>552</ele>
        <time>2025-01-12T10:04:17.617Z</time>
      </trkpt>
      <trkpt lat="43.64841" lon="6.20157">
        <ele>552.5</ele>
        <time>2025-01-12T10:04:23.855Z</time>
      </trkpt>
      <trkpt lat="43.64844" lon="6.20162">
        <ele>553.5</ele>
        <time>2025-01-12T10:04:36.220Z</time>
      </trkpt>
      <trkpt lat="43.64847" lon="6.20167">
        <ele>554.1</ele>
        <time>2025-01-12T10:04:45.175Z</time>
      </trkpt>
      <trkpt lat="43.6485" lon="6.20174">
        <ele>555.1</ele>
        <time>2025-01-12T10:04:58.288Z</time>
      </trkpt>
      <trkpt lat="43.64854" lon="6.20178">
        <ele>555.3</ele>
        <time>2025-01-12T10:05:05.271Z</time>
      </trkpt>
      <trkpt lat="43.64858" lon="6.20181">
        <ele>555.1</ele>
        <time>2025-01-12T10:05:10.236Z</time>
      </trkpt>
      <trkpt lat="43.64863" lon="6.20182">
        <ele>554.8</ele>
        <time>2025-01-12T10:05:15.737Z</time>
      </trkpt>
      <trkpt lat="43.64868" lon="6.20183">
        <ele>555.1</ele>
        <time>2025-01-12T10:05:23.337Z</time>
      </trkpt>
      <trkpt lat="43.64876" lon="6.20182">
        <ele>555.4</ele>
        <time>2025-01-12T10:05:34.582Z</time>
      </trkpt>
      <trkpt lat="43.64883" lon="6.20181">
        <ele>555.7</ele>
        <time>2025-01-12T10:05:44.603Z</time>
      </trkpt>
      <trkpt lat="43.64888" lon="6.20179">
        <ele>555.8</ele>
        <time>2025-01-12T10:05:51.480Z</time>
      </trkpt>
      <trkpt lat="43.64893" lon="6.20177">
        <ele>555.8</ele>
        <time>2025-01-12T10:05:57.958Z</time>
      </trkpt>
      <trkpt lat="43.64901" lon="6.20174">
        <ele>555.6</ele>
        <time>2025-01-12T10:06:07.545Z</time>
      </trkpt>
      <trkpt lat="43.64906" lon="6.20173">
        <ele>555.4</ele>
        <time>2025-01-12T10:06:13.047Z</time>
      </trkpt>
      <trkpt lat="43.6491" lon="6.20171">
        <ele>555</ele>
        <time>2025-01-12T10:06:17.678Z</time>
      </trkpt>
      <trkpt lat="43.64915" lon="6.20171">
        <ele>555</ele>
        <time>2025-01-12T10:06:23.901Z</time>
      </trkpt>
      <trkpt lat="43.6492" lon="6.20171">
        <ele>555.8</ele>
        <time>2025-01-12T10:06:34.631Z</time>
      </trkpt>
      <trkpt lat="43.64925" lon="6.20173">
        <ele>557.4</ele>
        <time>2025-01-12T10:06:54.818Z</time>
      </trkpt>
      <trkpt lat="43.64929" lon="6.20175">
        <ele>558.5</ele>
        <time>2025-01-12T10:07:08.287Z</time>
      </trkpt>
      <trkpt lat="43.64931" lon="6.20178">
        <ele>559</ele>
        <time>2025-01-12T10:07:14.850Z</time>
      </trkpt>
      <trkpt lat="43.64931" lon="6.20178">
        <ele>559</ele>
        <time>2025-01-12T10:07:14.850Z</time>
      </trkpt>
      <trkpt lat="43.64933" lon="6.20181">
        <ele>559.4</ele>
        <time>2025-01-12T10:07:20.636Z</time>
      </trkpt>
      <trkpt lat="43.64935" lon="6.20185">
        <ele>559.5</ele>
        <time>2025-01-12T10:07:25.422Z</time>
      </trkpt>
      <trkpt lat="43.64935" lon="6.20189">
        <ele>559.5</ele>
        <time>2025-01-12T10:07:29.024Z</time>
      </trkpt>
      <trkpt lat="43.64935" lon="6.20194">
        <ele>559.3</ele>
        <time>2025-01-12T10:07:32.964Z</time>
      </trkpt>
      <trkpt lat="43.64934" lon="6.20201">
        <ele>560</ele>
        <time>2025-01-12T10:07:43.088Z</time>
      </trkpt>
      <trkpt lat="43.64933" lon="6.20207">
        <ele>560.6</ele>
        <time>2025-01-12T10:07:51.795Z</time>
      </trkpt>
      <trkpt lat="43.64933" lon="6.20212">
        <ele>561.1</ele>
        <time>2025-01-12T10:07:58.958Z</time>
      </trkpt>
      <trkpt lat="43.64933" lon="6.20215">
        <ele>561.4</ele>
        <time>2025-01-12T10:08:03.256Z</time>
      </trkpt>
      <trkpt lat="43.64936" lon="6.20225">
        <ele>562.1</ele>
        <time>2025-01-12T10:08:16.296Z</time>
      </trkpt>
      <trkpt lat="43.64943" lon="6.20232">
        <ele>562.1</ele>
        <time>2025-01-12T10:08:27.049Z</time>
      </trkpt>
      <trkpt lat="43.6495" lon="6.20236">
        <ele>562.9</ele>
        <time>2025-01-12T10:08:39.793Z</time>
      </trkpt>
      <trkpt lat="43.64956" lon="6.20239">
        <ele>563.3</ele>
        <time>2025-01-12T10:08:50.023Z</time>
      </trkpt>
      <trkpt lat="43.64963" lon="6.20243">
        <ele>563.1</ele>
        <time>2025-01-12T10:08:59.077Z</time>
      </trkpt>
      <trkpt lat="43.64969" lon="6.20246">
        <ele>562.3</ele>
        <time>2025-01-12T10:09:06.025Z</time>
      </trkpt>
      <trkpt lat="43.64973" lon="6.20249">
        <ele>561.3</ele>
        <time>2025-01-12T10:09:10.980Z</time>
      </trkpt>
      <trkpt lat="43.64978" lon="6.20252">
        <ele>562.2</ele>
        <time>2025-01-12T10:09:22.906Z</time>
      </trkpt>
      <trkpt lat="43.64983" lon="6.20253">
        <ele>563</ele>
        <time>2025-01-12T10:09:34.519Z</time>
      </trkpt>
      <trkpt lat="43.64989" lon="6.20255">
        <ele>563.9</ele>
        <time>2025-01-12T10:09:45.078Z</time>
      </trkpt>
      <trkpt lat="43.64994" lon="6.20256">
        <ele>564.3</ele>
        <time>2025-01-12T10:09:54.402Z</time>
      </trkpt>
      <trkpt lat="43.64999" lon="6.20257">
        <ele>564.7</ele>
        <time>2025-01-12T10:10:02.524Z</time>
      </trkpt>
      <trkpt lat="43.65004" lon="6.2026">
        <ele>565.4</ele>
        <time>2025-01-12T10:10:12.939Z</time>
      </trkpt>
      <trkpt lat="43.65009" lon="6.20263">
        <ele>565.8</ele>
        <time>2025-01-12T10:10:21.533Z</time>
      </trkpt>
      <trkpt lat="43.65014" lon="6.20265">
        <ele>566</ele>
        <time>2025-01-12T10:10:28.845Z</time>
      </trkpt>
      <trkpt lat="43.65019" lon="6.20268">
        <ele>565.8</ele>
        <time>2025-01-12T10:10:34.919Z</time>
      </trkpt>
      <trkpt lat="43.65024" lon="6.20272">
        <ele>565.2</ele>
        <time>2025-01-12T10:10:41.210Z</time>
      </trkpt>
      <trkpt lat="43.65029" lon="6.20275">
        <ele>564.6</ele>
        <time>2025-01-12T10:10:47.145Z</time>
      </trkpt>
      <trkpt lat="43.65037" lon="6.20276">
        <ele>565</ele>
        <time>2025-01-12T10:10:58.854Z</time>
      </trkpt>
      <trkpt lat="43.65044" lon="6.20276">
        <ele>565.5</ele>
        <time>2025-01-12T10:11:09.818Z</time>
      </trkpt>
      <trkpt lat="43.6505" lon="6.20276">
        <ele>566</ele>
        <time>2025-01-12T10:11:19.602Z</time>
      </trkpt>
      <trkpt lat="43.65055" lon="6.20279">
        <ele>566.2</ele>
        <time>2025-01-12T10:11:26.784Z</time>
      </trkpt>
      <trkpt lat="43.65059" lon="6.20282">
        <ele>567.3</ele>
        <time>2025-01-12T10:11:41.499Z</time>
      </trkpt>
      <trkpt lat="43.65063" lon="6.20287">
        <ele>568.5</ele>
        <time>2025-01-12T10:11:56.249Z</time>
      </trkpt>
      <trkpt lat="43.65067" lon="6.20292">
        <ele>569.1</ele>
        <time>2025-01-12T10:12:05.940Z</time>
      </trkpt>
      <trkpt lat="43.65072" lon="6.20302">
        <ele>569.3</ele>
        <time>2025-01-12T10:12:17.691Z</time>
      </trkpt>
      <trkpt lat="43.65077" lon="6.20311">
        <ele>569.6</ele>
        <time>2025-01-12T10:12:29.154Z</time>
      </trkpt>
      <trkpt lat="43.65082" lon="6.20318">
        <ele>569.6</ele>
        <time>2025-01-12T10:12:38.406Z</time>
      </trkpt>
      <trkpt lat="43.65086" lon="6.20324">
        <ele>570.2</ele>
        <time>2025-01-12T10:12:48.077Z</time>
      </trkpt>
      <trkpt lat="43.65089" lon="6.20326">
        <ele>570.4</ele>
        <time>2025-01-12T10:12:53.099Z</time>
      </trkpt>
      <trkpt lat="43.65094" lon="6.20325">
        <ele>570.6</ele>
        <time>2025-01-12T10:13:00.223Z</time>
      </trkpt>
      <trkpt lat="43.65102" lon="6.20323">
        <ele>571.2</ele>
        <time>2025-01-12T10:13:13.058Z</time>
      </trkpt>
      <trkpt lat="43.65103" lon="6.20326">
        <ele>571</ele>
        <time>2025-01-12T10:13:15.661Z</time>
      </trkpt>
      <trkpt lat="43.65107" lon="6.20337">
        <ele>571.1</ele>
        <time>2025-01-12T10:13:27.139Z</time>
      </trkpt>
      <trkpt lat="43.65114" lon="6.20342">
        <ele>572.4</ele>
        <time>2025-01-12T10:13:44.369Z</time>
      </trkpt>
      <trkpt lat="43.65119" lon="6.20346">
        <ele>573.5</ele>
        <time>2025-01-12T10:13:57.396Z</time>
      </trkpt>
      <trkpt lat="43.65124" lon="6.2035">
        <ele>573.9</ele>
        <time>2025-01-12T10:14:06.922Z</time>
      </trkpt>
      <trkpt lat="43.65128" lon="6.20353">
        <ele>573.7</ele>
        <time>2025-01-12T10:14:11.887Z</time>
      </trkpt>
      <trkpt lat="43.65133" lon="6.20357">
        <ele>572.8</ele>
        <time>2025-01-12T10:14:18.177Z</time>
      </trkpt>
      <trkpt lat="43.65136" lon="6.20362">
        <ele>571.8</ele>
        <time>2025-01-12T10:14:23.295Z</time>
      </trkpt>
      <trkpt lat="43.6514" lon="6.20367">
        <ele>572.8</ele>
        <time>2025-01-12T10:14:36.044Z</time>
      </trkpt>
      <trkpt lat="43.65143" lon="6.20372">
        <ele>574.7</ele>
        <time>2025-01-12T10:15:05.001Z</time>
      </trkpt>
      <trkpt lat="43.65146" lon="6.20377">
        <ele>576.2</ele>
        <time>2025-01-12T10:15:24.146Z</time>
      </trkpt>
      <trkpt lat="43.6515" lon="6.20384">
        <ele>577.5</ele>
        <time>2025-01-12T10:15:40.383Z</time>
      </trkpt>
      <trkpt lat="43.65153" lon="6.20391">
        <ele>578.1</ele>
        <time>2025-01-12T10:15:50.619Z</time>
      </trkpt>
      <trkpt lat="43.65157" lon="6.20398">
        <ele>577.9</ele>
        <time>2025-01-12T10:15:58.280Z</time>
      </trkpt>
      <trkpt lat="43.6516" lon="6.20405">
        <ele>577.4</ele>
        <time>2025-01-12T10:16:04.690Z</time>
      </trkpt>
      <trkpt lat="43.65163" lon="6.20412">
        <ele>576.4</ele>
        <time>2025-01-12T10:16:11.100Z</time>
      </trkpt>
      <trkpt lat="43.65166" lon="6.20419">
        <ele>575.4</ele>
        <time>2025-01-12T10:16:17.510Z</time>
      </trkpt>
      <trkpt lat="43.65169" lon="6.20425">
        <ele>576.2</ele>
        <time>2025-01-12T10:16:29.295Z</time>
      </trkpt>
      <trkpt lat="43.65172" lon="6.20432">
        <ele>577</ele>
        <time>2025-01-12T10:16:40.852Z</time>
      </trkpt>
      <trkpt lat="43.65176" lon="6.20435">
        <ele>577.5</ele>
        <time>2025-01-12T10:16:48.113Z</time>
      </trkpt>
      <trkpt lat="43.6518" lon="6.20438">
        <ele>577.6</ele>
        <time>2025-01-12T10:16:55.374Z</time>
      </trkpt>
      <trkpt lat="43.65187" lon="6.20443">
        <ele>577.3</ele>
        <time>2025-01-12T10:17:03.954Z</time>
      </trkpt>
      <trkpt lat="43.65194" lon="6.20446">
        <ele>577.5</ele>
        <time>2025-01-12T10:17:13.074Z</time>
      </trkpt>
      <trkpt lat="43.65201" lon="6.20448">
        <ele>578.7</ele>
        <time>2025-01-12T10:17:30.670Z</time>
      </trkpt>
      <trkpt lat="43.65204" lon="6.20448">
        <ele>579</ele>
        <time>2025-01-12T10:17:35.852Z</time>
      </trkpt>
      <trkpt lat="43.65205" lon="6.20448">
        <ele>579.2</ele>
        <time>2025-01-12T10:17:38.354Z</time>
      </trkpt>
      <trkpt lat="43.6521" lon="6.20449">
        <ele>579.8</ele>
        <time>2025-01-12T10:17:47.677Z</time>
      </trkpt>
      <trkpt lat="43.65215" lon="6.20454">
        <ele>580.7</ele>
        <time>2025-01-12T10:18:00.243Z</time>
      </trkpt>
      <trkpt lat="43.65219" lon="6.2046">
        <ele>581.1</ele>
        <time>2025-01-12T10:18:09.375Z</time>
      </trkpt>
      <trkpt lat="43.65223" lon="6.2046">
        <ele>581.1</ele>
        <time>2025-01-12T10:18:14.353Z</time>
      </trkpt>
      <trkpt lat="43.65227" lon="6.2046">
        <ele>581.4</ele>
        <time>2025-01-12T10:18:20.694Z</time>
      </trkpt>
      <trkpt lat="43.65231" lon="6.20458">
        <ele>581.6</ele>
        <time>2025-01-12T10:18:26.838Z</time>
      </trkpt>
      <trkpt lat="43.65237" lon="6.20452">
        <ele>581.6</ele>
        <time>2025-01-12T10:18:36.054Z</time>
      </trkpt>
      <trkpt lat="43.65243" lon="6.20449">
        <ele>581.5</ele>
        <time>2025-01-12T10:18:43.624Z</time>
      </trkpt>
      <trkpt lat="43.65246" lon="6.20448">
        <ele>581.4</ele>
        <time>2025-01-12T10:18:47.107Z</time>
      </trkpt>
      <trkpt lat="43.6525" lon="6.20449">
        <ele>581.7</ele>
        <time>2025-01-12T10:18:53.525Z</time>
      </trkpt>
      <trkpt lat="43.65255" lon="6.20454">
        <ele>583.4</ele>
        <time>2025-01-12T10:19:14.476Z</time>
      </trkpt>
      <trkpt lat="43.65258" lon="6.20461">
        <ele>584.7</ele>
        <time>2025-01-12T10:19:29.427Z</time>
      </trkpt>
      <trkpt lat="43.6526" lon="6.20468">
        <ele>585.4</ele>
        <time>2025-01-12T10:19:40.558Z</time>
      </trkpt>
      <trkpt lat="43.65262" lon="6.20473">
        <ele>585.9</ele>
        <time>2025-01-12T10:19:48.248Z</time>
      </trkpt>
      <trkpt lat="43.65265" lon="6.20483">
        <ele>586.8</ele>
        <time>2025-01-12T10:20:02.506Z</time>
      </trkpt>
      <trkpt lat="43.65268" lon="6.20492">
        <ele>587.1</ele>
        <time>2025-01-12T10:20:12.689Z</time>
      </trkpt>
      <trkpt lat="43.6527" lon="6.20499">
        <ele>587.1</ele>
        <time>2025-01-12T10:20:19.466Z</time>
      </trkpt>
      <trkpt lat="43.65273" lon="6.2051">
        <ele>586.7</ele>
        <time>2025-01-12T10:20:28.727Z</time>
      </trkpt>
      <trkpt lat="43.65275" lon="6.20516">
        <ele>586.2</ele>
        <time>2025-01-12T10:20:33.932Z</time>
      </trkpt>
      <trkpt lat="43.65281" lon="6.20524">
        <ele>585.7</ele>
        <time>2025-01-12T10:20:43.010Z</time>
      </trkpt>
      <trkpt lat="43.65286" lon="6.2053">
        <ele>586.5</ele>
        <time>2025-01-12T10:20:55.321Z</time>
      </trkpt>
      <trkpt lat="43.65292" lon="6.20535">
        <ele>587.5</ele>
        <time>2025-01-12T10:21:09.424Z</time>
      </trkpt>
      <trkpt lat="43.65298" lon="6.2054">
        <ele>588</ele>
        <time>2025-01-12T10:21:20.395Z</time>
      </trkpt>
      <trkpt lat="43.65303" lon="6.20544">
        <ele>587.9</ele>
        <time>2025-01-12T10:21:27.215Z</time>
      </trkpt>
      <trkpt lat="43.65307" lon="6.20547">
        <ele>588</ele>
        <time>2025-01-12T10:21:33.280Z</time>
      </trkpt>
      <trkpt lat="43.65313" lon="6.20554">
        <ele>588.6</ele>
        <time>2025-01-12T10:21:45.787Z</time>
      </trkpt>
      <trkpt lat="43.65318" lon="6.20559">
        <ele>589.5</ele>
        <time>2025-01-12T10:21:57.630Z</time>
      </trkpt>
      <trkpt lat="43.65322" lon="6.20563">
        <ele>590.1</ele>
        <time>2025-01-12T10:22:07.534Z</time>
      </trkpt>
      <trkpt lat="43.65325" lon="6.20568">
        <ele>590.4</ele>
        <time>2025-01-12T10:22:14.710Z</time>
      </trkpt>
      <trkpt lat="43.65329" lon="6.20578">
        <ele>589.9</ele>
        <time>2025-01-12T10:22:23.712Z</time>
      </trkpt>
      <trkpt lat="43.65331" lon="6.20583">
        <ele>589.4</ele>
        <time>2025-01-12T10:22:28.213Z</time>
      </trkpt>
      <trkpt lat="43.65333" lon="6.20587">
        <ele>589.2</ele>
        <time>2025-01-12T10:22:32.044Z</time>
      </trkpt>
      <trkpt lat="43.65335" lon="6.20595">
        <ele>590</ele>
        <time>2025-01-12T10:22:43.839Z</time>
      </trkpt>
      <trkpt lat="43.65336" lon="6.20603">
        <ele>590.4</ele>
        <time>2025-01-12T10:22:52.936Z</time>
      </trkpt>
      <trkpt lat="43.65338" lon="6.20602">
        <ele>591</ele>
        <time>2025-01-12T10:23:00.359Z</time>
      </trkpt>
      <trkpt lat="43.65336" lon="6.20603">
        <ele>590.4</ele>
        <time>2025-01-12T10:23:02.675Z</time>
      </trkpt>
      <trkpt lat="43.65336" lon="6.20603">
        <ele>590.4</ele>
        <time>2025-01-12T10:23:02.675Z</time>
      </trkpt>
      <trkpt lat="43.65335" lon="6.20606">
        <ele>590.2</ele>
        <time>2025-01-12T10:23:05.277Z</time>
      </trkpt>
      <trkpt lat="43.65333" lon="6.20609">
        <ele>590</ele>
        <time>2025-01-12T10:23:08.491Z</time>
      </trkpt>
      <trkpt lat="43.65338" lon="6.20614">
        <ele>591.4</ele>
        <time>2025-01-12T10:23:25.666Z</time>
      </trkpt>
      <trkpt lat="43.65342" lon="6.20623">
        <ele>593.2</ele>
        <time>2025-01-12T10:23:46.561Z</time>
      </trkpt>
      <trkpt lat="43.65345" lon="6.20632">
        <ele>594.4</ele>
        <time>2025-01-12T10:24:03.245Z</time>
      </trkpt>
      <trkpt lat="43.65347" lon="6.20638">
        <ele>594.9</ele>
        <time>2025-01-12T10:24:12.283Z</time>
      </trkpt>
      <trkpt lat="43.65349" lon="6.20645">
        <ele>595.3</ele>
        <time>2025-01-12T10:24:20.359Z</time>
      </trkpt>
      <trkpt lat="43.6535" lon="6.20651">
        <ele>595.4</ele>
        <time>2025-01-12T10:24:26.306Z</time>
      </trkpt>
      <trkpt lat="43.65352" lon="6.20657">
        <ele>595.4</ele>
        <time>2025-01-12T10:24:32.254Z</time>
      </trkpt>
      <trkpt lat="43.65354" lon="6.20665">
        <ele>595.3</ele>
        <time>2025-01-12T10:24:39.505Z</time>
      </trkpt>
      <trkpt lat="43.65356" lon="6.20672">
        <ele>595.1</ele>
        <time>2025-01-12T10:24:45.572Z</time>
      </trkpt>
      <trkpt lat="43.65359" lon="6.20682">
        <ele>594.6</ele>
        <time>2025-01-12T10:24:54.101Z</time>
      </trkpt>
      <trkpt lat="43.65363" lon="6.20691">
        <ele>594.2</ele>
        <time>2025-01-12T10:25:02.422Z</time>
      </trkpt>
      <trkpt lat="43.65367" lon="6.20695">
        <ele>594.6</ele>
        <time>2025-01-12T10:25:10.410Z</time>
      </trkpt>
      <trkpt lat="43.65371" lon="6.20699">
        <ele>595.8</ele>
        <time>2025-01-12T10:25:25.080Z</time>
      </trkpt>
      <trkpt lat="43.65377" lon="6.20704">
        <ele>596.8</ele>
        <time>2025-01-12T10:25:39.183Z</time>
      </trkpt>
      <trkpt lat="43.65382" lon="6.20707">
        <ele>597</ele>
        <time>2025-01-12T10:25:46.797Z</time>
      </trkpt>
      <trkpt lat="43.65389" lon="6.20708">
        <ele>596.5</ele>
        <time>2025-01-12T10:25:54.460Z</time>
      </trkpt>
      <trkpt lat="43.65395" lon="6.20708">
        <ele>597.1</ele>
        <time>2025-01-12T10:26:04.824Z</time>
      </trkpt>
      <trkpt lat="43.65401" lon="6.20708">
        <ele>597.8</ele>
        <time>2025-01-12T10:26:15.815Z</time>
      </trkpt>
      <trkpt lat="43.65403" lon="6.20707">
        <ele>597.9</ele>
        <time>2025-01-12T10:26:18.887Z</time>
      </trkpt>
      <trkpt lat="43.65404" lon="6.20707">
        <ele>598</ele>
        <time>2025-01-12T10:26:20.615Z</time>
      </trkpt>
      <trkpt lat="43.65411" lon="6.20704">
        <ele>598.2</ele>
        <time>2025-01-12T10:26:30.548Z</time>
      </trkpt>
      <trkpt lat="43.65416" lon="6.20703">
        <ele>598.5</ele>
        <time>2025-01-12T10:26:37.672Z</time>
      </trkpt>
      <trkpt lat="43.6542" lon="6.20701">
        <ele>598.4</ele>
        <time>2025-01-12T10:26:42.965Z</time>
      </trkpt>
      <trkpt lat="43.65428" lon="6.20699">
        <ele>598.7</ele>
        <time>2025-01-12T10:26:54.330Z</time>
      </trkpt>
      <trkpt lat="43.65433" lon="6.20699">
        <ele>599.1</ele>
        <time>2025-01-12T10:27:02.391Z</time>
      </trkpt>
      <trkpt lat="43.65437" lon="6.20703">
        <ele>599.6</ele>
        <time>2025-01-12T10:27:10.957Z</time>
      </trkpt>
      <trkpt lat="43.65441" lon="6.20709">
        <ele>600</ele>
        <time>2025-01-12T10:27:20.090Z</time>
      </trkpt>
      <trkpt lat="43.65444" lon="6.20718">
        <ele>600</ele>
        <time>2025-01-12T10:27:29.012Z</time>
      </trkpt>
      <trkpt lat="43.65447" lon="6.20726">
        <ele>600.9</ele>
        <time>2025-01-12T10:27:41.911Z</time>
      </trkpt>
      <trkpt lat="43.6545" lon="6.20731">
        <ele>601.9</ele>
        <time>2025-01-12T10:27:54.276Z</time>
      </trkpt>
      <trkpt lat="43.65451" lon="6.20734">
        <ele>602.1</ele>
        <time>2025-01-12T10:27:58.178Z</time>
      </trkpt>
      <trkpt lat="43.65453" lon="6.20739">
        <ele>602.6</ele>
        <time>2025-01-12T10:28:05.867Z</time>
      </trkpt>
      <trkpt lat="43.65457" lon="6.20745">
        <ele>603</ele>
        <time>2025-01-12T10:28:14.999Z</time>
      </trkpt>
      <trkpt lat="43.65459" lon="6.20746">
        <ele>603.2</ele>
        <time>2025-01-12T10:28:18.598Z</time>
      </trkpt>
      <trkpt lat="43.65464" lon="6.2075">
        <ele>603.4</ele>
        <time>2025-01-12T10:28:26.614Z</time>
      </trkpt>
      <trkpt lat="43.65468" lon="6.20753">
        <ele>604</ele>
        <time>2025-01-12T10:28:35.418Z</time>
      </trkpt>
      <trkpt lat="43.65473" lon="6.20755">
        <ele>604.4</ele>
        <time>2025-01-12T10:28:43.721Z</time>
      </trkpt>
      <trkpt lat="43.65474" lon="6.20756">
        <ele>604.6</ele>
        <time>2025-01-12T10:28:46.390Z</time>
      </trkpt>
      <trkpt lat="43.6548" lon="6.20758">
        <ele>605.2</ele>
        <time>2025-01-12T10:28:56.948Z</time>
      </trkpt>
      <trkpt lat="43.65486" lon="6.20758">
        <ele>605.6</ele>
        <time>2025-01-12T10:29:06.197Z</time>
      </trkpt>
      <trkpt lat="43.65491" lon="6.20758">
        <ele>606</ele>
        <time>2025-01-12T10:29:13.734Z</time>
      </trkpt>
      <trkpt lat="43.65496" lon="6.20757">
        <ele>606.2</ele>
        <time>2025-01-12T10:29:21.335Z</time>
      </trkpt>
      <trkpt lat="43.65503" lon="6.20755">
        <ele>606.3</ele>
        <time>2025-01-12T10:29:30.625Z</time>
      </trkpt>
      <trkpt lat="43.65511" lon="6.20753">
        <ele>606.7</ele>
        <time>2025-01-12T10:29:42.453Z</time>
      </trkpt>
      <trkpt lat="43.65518" lon="6.20753">
        <ele>607.4</ele>
        <time>2025-01-12T10:29:54.544Z</time>
      </trkpt>
      <trkpt lat="43.65523" lon="6.20755">
        <ele>608.1</ele>
        <time>2025-01-12T10:30:04.710Z</time>
      </trkpt>
      <trkpt lat="43.65527" lon="6.20758">
        <ele>608.8</ele>
        <time>2025-01-12T10:30:14.254Z</time>
      </trkpt>
      <trkpt lat="43.6553" lon="6.20763">
        <ele>609.6</ele>
        <time>2025-01-12T10:30:24.737Z</time>
      </trkpt>
      <trkpt lat="43.65534" lon="6.20768">
        <ele>610.3</ele>
        <time>2025-01-12T10:30:34.428Z</time>
      </trkpt>
      <trkpt lat="43.65537" lon="6.20772">
        <ele>610.5</ele>
        <time>2025-01-12T10:30:40.969Z</time>
      </trkpt>
      <trkpt lat="43.6554" lon="6.20777">
        <ele>610.6</ele>
        <time>2025-01-12T10:30:47.219Z</time>
      </trkpt>
      <trkpt lat="43.65545" lon="6.20782">
        <ele>611.2</ele>
        <time>2025-01-12T10:30:58.394Z</time>
      </trkpt>
      <trkpt lat="43.65549" lon="6.20787">
        <ele>611.8</ele>
        <time>2025-01-12T10:31:07.477Z</time>
      </trkpt>
      <trkpt lat="43.65555" lon="6.20792">
        <ele>611.6</ele>
        <time>2025-01-12T10:31:15.824Z</time>
      </trkpt>
      <trkpt lat="43.6556" lon="6.20797">
        <ele>612.5</ele>
        <time>2025-01-12T10:31:27.667Z</time>
      </trkpt>
      <trkpt lat="43.65567" lon="6.20802">
        <ele>612.8</ele>
        <time>2025-01-12T10:31:38.723Z</time>
      </trkpt>
      <trkpt lat="43.65568" lon="6.20803">
        <ele>612.7</ele>
        <time>2025-01-12T10:31:40.067Z</time>
      </trkpt>
      <trkpt lat="43.65572" lon="6.20805">
        <ele>612.5</ele>
        <time>2025-01-12T10:31:44.699Z</time>
      </trkpt>
      <trkpt lat="43.65577" lon="6.20808">
        <ele>612.7</ele>
        <time>2025-01-12T10:31:52.313Z</time>
      </trkpt>
      <trkpt lat="43.65585" lon="6.2081">
        <ele>613</ele>
        <time>2025-01-12T10:32:03.239Z</time>
      </trkpt>
      <trkpt lat="43.65593" lon="6.20811">
        <ele>613.9</ele>
        <time>2025-01-12T10:32:18.371Z</time>
      </trkpt>
      <trkpt lat="43.65599" lon="6.20812">
        <ele>614.6</ele>
        <time>2025-01-12T10:32:28.784Z</time>
      </trkpt>
      <trkpt lat="43.65604" lon="6.20812">
        <ele>615</ele>
        <time>2025-01-12T10:32:37.421Z</time>
      </trkpt>
      <trkpt lat="43.6561" lon="6.20815">
        <ele>615.9</ele>
        <time>2025-01-12T10:32:50.186Z</time>
      </trkpt>
      <trkpt lat="43.65614" lon="6.20819">
        <ele>616.7</ele>
        <time>2025-01-12T10:33:00.863Z</time>
      </trkpt>
      <trkpt lat="43.65619" lon="6.20824">
        <ele>617.2</ele>
        <time>2025-01-12T10:33:10.848Z</time>
      </trkpt>
      <trkpt lat="43.65624" lon="6.20829">
        <ele>617.2</ele>
        <time>2025-01-12T10:33:18.528Z</time>
      </trkpt>
      <trkpt lat="43.65628" lon="6.20834">
        <ele>617</ele>
        <time>2025-01-12T10:33:24.530Z</time>
      </trkpt>
      <trkpt lat="43.65633" lon="6.20839">
        <ele>618.2</ele>
        <time>2025-01-12T10:33:39.639Z</time>
      </trkpt>
      <trkpt lat="43.65639" lon="6.20847">
        <ele>619.9</ele>
        <time>2025-01-12T10:34:00.818Z</time>
      </trkpt>
      <trkpt lat="43.65643" lon="6.20848">
        <ele>620.6</ele>
        <time>2025-01-12T10:34:09.953Z</time>
      </trkpt>
      <trkpt lat="43.65649" lon="6.20848">
        <ele>621.1</ele>
        <time>2025-01-12T10:34:19.738Z</time>
      </trkpt>
      <trkpt lat="43.65653" lon="6.20846">
        <ele>620.9</ele>
        <time>2025-01-12T10:34:24.370Z</time>
      </trkpt>
      <trkpt lat="43.6566" lon="6.2084">
        <ele>620</ele>
        <time>2025-01-12T10:34:33.338Z</time>
      </trkpt>
      <trkpt lat="43.65662" lon="6.20838">
        <ele>619.7</ele>
        <time>2025-01-12T10:34:36.026Z</time>
      </trkpt>
      <trkpt lat="43.65664" lon="6.20836">
        <ele>619.4</ele>
        <time>2025-01-12T10:34:38.714Z</time>
      </trkpt>
      <trkpt lat="43.65667" lon="6.20834">
        <ele>619.2</ele>
        <time>2025-01-12T10:34:42.341Z</time>
      </trkpt>
      <trkpt lat="43.65673" lon="6.20827">
        <ele>621.8</ele>
        <time>2025-01-12T10:35:15.959Z</time>
      </trkpt>
      <trkpt lat="43.65679" lon="6.20822">
        <ele>623.4</ele>
        <time>2025-01-12T10:35:35.576Z</time>
      </trkpt>
      <trkpt lat="43.65685" lon="6.20818">
        <ele>624.4</ele>
        <time>2025-01-12T10:35:49.356Z</time>
      </trkpt>
      <trkpt lat="43.65689" lon="6.20818">
        <ele>624.4</ele>
        <time>2025-01-12T10:35:54.334Z</time>
      </trkpt>
      <trkpt lat="43.65693" lon="6.2082">
        <ele>624.4</ele>
        <time>2025-01-12T10:35:59.627Z</time>
      </trkpt>
      <trkpt lat="43.65697" lon="6.20823">
        <ele>624.7</ele>
        <time>2025-01-12T10:36:06.624Z</time>
      </trkpt>
      <trkpt lat="43.65699" lon="6.2083">
        <ele>624.5</ele>
        <time>2025-01-12T10:36:12.691Z</time>
      </trkpt>
      <trkpt lat="43.65701" lon="6.20838">
        <ele>625.2</ele>
        <time>2025-01-12T10:36:23.815Z</time>
      </trkpt>
      <trkpt lat="43.65702" lon="6.20846">
        <ele>626.5</ele>
        <time>2025-01-12T10:36:39.803Z</time>
      </trkpt>
      <trkpt lat="43.65705" lon="6.20852">
        <ele>627.7</ele>
        <time>2025-01-12T10:36:54.521Z</time>
      </trkpt>
      <trkpt lat="43.65709" lon="6.20853">
        <ele>628.3</ele>
        <time>2025-01-12T10:37:02.852Z</time>
      </trkpt>
      <trkpt lat="43.65713" lon="6.20853">
        <ele>628.6</ele>
        <time>2025-01-12T10:37:09.193Z</time>
      </trkpt>
      <trkpt lat="43.65718" lon="6.20851">
        <ele>628.8</ele>
        <time>2025-01-12T10:37:16.504Z</time>
      </trkpt>
      <trkpt lat="43.65718" lon="6.2085">
        <ele>628.6</ele>
        <time>2025-01-12T10:37:17.292Z</time>
      </trkpt>
      <trkpt lat="43.6572" lon="6.20848">
        <ele>628.4</ele>
        <time>2025-01-12T10:37:19.980Z</time>
      </trkpt>
      <trkpt lat="43.65721" lon="6.20842">
        <ele>627.5</ele>
        <time>2025-01-12T10:37:24.831Z</time>
      </trkpt>
      <trkpt lat="43.65723" lon="6.20835">
        <ele>626.6</ele>
        <time>2025-01-12T10:37:30.760Z</time>
      </trkpt>
      <trkpt lat="43.65725" lon="6.20828">
        <ele>627.7</ele>
        <time>2025-01-12T10:37:44.490Z</time>
      </trkpt>
      <trkpt lat="43.65727" lon="6.20817">
        <ele>629.4</ele>
        <time>2025-01-12T10:38:05.606Z</time>
      </trkpt>
      <trkpt lat="43.65729" lon="6.20811">
        <ele>630.3</ele>
        <time>2025-01-12T10:38:17.031Z</time>
      </trkpt>
      <trkpt lat="43.65732" lon="6.20805">
        <ele>631.2</ele>
        <time>2025-01-12T10:38:28.816Z</time>
      </trkpt>
      <trkpt lat="43.65738" lon="6.208">
        <ele>632.3</ele>
        <time>2025-01-12T10:38:43.684Z</time>
      </trkpt>
      <trkpt lat="43.65744" lon="6.20794">
        <ele>632.5</ele>
        <time>2025-01-12T10:38:53.713Z</time>
      </trkpt>
      <trkpt lat="43.65749" lon="6.20791">
        <ele>632.1</ele>
        <time>2025-01-12T10:38:59.648Z</time>
      </trkpt>
      <trkpt lat="43.65754" lon="6.20787">
        <ele>632.1</ele>
        <time>2025-01-12T10:39:07.236Z</time>
      </trkpt>
      <trkpt lat="43.65761" lon="6.20783">
        <ele>632.4</ele>
        <time>2025-01-12T10:39:17.917Z</time>
      </trkpt>
      <trkpt lat="43.65765" lon="6.20778">
        <ele>632.1</ele>
        <time>2025-01-12T10:39:23.789Z</time>
      </trkpt>
      <trkpt lat="43.6577" lon="6.20772">
        <ele>632.6</ele>
        <time>2025-01-12T10:39:34.304Z</time>
      </trkpt>
      <trkpt lat="43.65774" lon="6.20765">
        <ele>632.4</ele>
        <time>2025-01-12T10:39:41.617Z</time>
      </trkpt>
      <trkpt lat="43.65776" lon="6.20757">
        <ele>631.9</ele>
        <time>2025-01-12T10:39:48.285Z</time>
      </trkpt>
      <trkpt lat="43.65777" lon="6.2075">
        <ele>631.2</ele>
        <time>2025-01-12T10:39:53.906Z</time>
      </trkpt>
      <trkpt lat="43.65777" lon="6.20748">
        <ele>631.4</ele>
        <time>2025-01-12T10:39:56.771Z</time>
      </trkpt>
      <trkpt lat="43.65776" lon="6.20743">
        <ele>632.3</ele>
        <time>2025-01-12T10:40:07.776Z</time>
      </trkpt>
      <trkpt lat="43.65774" lon="6.20735">
        <ele>633.8</ele>
        <time>2025-01-12T10:40:26.113Z</time>
      </trkpt>
      <trkpt lat="43.65774" lon="6.20726">
        <ele>634.8</ele>
        <time>2025-01-12T10:40:39.756Z</time>
      </trkpt>
      <trkpt lat="43.65774" lon="6.2072">
        <ele>635.5</ele>
        <time>2025-01-12T10:40:49.116Z</time>
      </trkpt>
      <trkpt lat="43.65776" lon="6.20715">
        <ele>635.4</ele>
        <time>2025-01-12T10:40:53.896Z</time>
      </trkpt>
      <trkpt lat="43.65778" lon="6.20713">
        <ele>635</ele>
        <time>2025-01-12T10:40:56.584Z</time>
      </trkpt>
      <trkpt lat="43.65782" lon="6.20711">
        <ele>635.7</ele>
        <time>2025-01-12T10:41:05.871Z</time>
      </trkpt>
      <trkpt lat="43.65787" lon="6.2071">
        <ele>636.4</ele>
        <time>2025-01-12T10:41:15.886Z</time>
      </trkpt>
      <trkpt lat="43.6579" lon="6.2071">
        <ele>636.7</ele>
        <time>2025-01-12T10:41:21.068Z</time>
      </trkpt>
      <trkpt lat="43.65796" lon="6.2071">
        <ele>637.4</ele>
        <time>2025-01-12T10:41:32.059Z</time>
      </trkpt>
      <trkpt lat="43.65798" lon="6.20711">
        <ele>637.5</ele>
        <time>2025-01-12T10:41:35.131Z</time>
      </trkpt>
      <trkpt lat="43.65803" lon="6.20712">
        <ele>638.1</ele>
        <time>2025-01-12T10:41:44.455Z</time>
      </trkpt>
      <trkpt lat="43.65807" lon="6.20712">
        <ele>638.6</ele>
        <time>2025-01-12T10:41:52.004Z</time>
      </trkpt>
      <trkpt lat="43.65812" lon="6.20711">
        <ele>639.3</ele>
        <time>2025-01-12T10:42:02.019Z</time>
      </trkpt>
      <trkpt lat="43.65816" lon="6.20708">
        <ele>639.6</ele>
        <time>2025-01-12T10:42:09.016Z</time>
      </trkpt>
      <trkpt lat="43.65819" lon="6.20705">
        <ele>639.6</ele>
        <time>2025-01-12T10:42:13.624Z</time>
      </trkpt>
      <trkpt lat="43.65823" lon="6.20698">
        <ele>638.9</ele>
        <time>2025-01-12T10:42:20.651Z</time>
      </trkpt>
      <trkpt lat="43.65827" lon="6.20689">
        <ele>638.9</ele>
        <time>2025-01-12T10:42:30.161Z</time>
      </trkpt>
      <trkpt lat="43.65832" lon="6.20682">
        <ele>639.1</ele>
        <time>2025-01-12T10:42:39.832Z</time>
      </trkpt>
      <trkpt lat="43.65836" lon="6.20674">
        <ele>640.1</ele>
        <time>2025-01-12T10:42:53.963Z</time>
      </trkpt>
      <trkpt lat="43.65839" lon="6.20669">
        <ele>640.8</ele>
        <time>2025-01-12T10:43:03.642Z</time>
      </trkpt>
      <trkpt lat="43.65846" lon="6.20662">
        <ele>642.3</ele>
        <time>2025-01-12T10:43:24.049Z</time>
      </trkpt>
      <trkpt lat="43.6585" lon="6.20658">
        <ele>642.8</ele>
        <time>2025-01-12T10:43:30.784Z</time>
      </trkpt>
      <trkpt lat="43.65853" lon="6.20654">
        <ele>642.9</ele>
        <time>2025-01-12T10:43:37.519Z</time>
      </trkpt>
      <trkpt lat="43.65857" lon="6.20651">
        <ele>642.6</ele>
        <time>2025-01-12T10:43:42.474Z</time>
      </trkpt>
      <trkpt lat="43.65861" lon="6.20648">
        <ele>642</ele>
        <time>2025-01-12T10:43:47.430Z</time>
      </trkpt>
      <trkpt lat="43.65865" lon="6.20644">
        <ele>642</ele>
        <time>2025-01-12T10:43:53.974Z</time>
      </trkpt>
      <trkpt lat="43.65869" lon="6.20641">
        <ele>641.9</ele>
        <time>2025-01-12T10:43:59.272Z</time>
      </trkpt>
      <trkpt lat="43.65874" lon="6.20638">
        <ele>642.2</ele>
        <time>2025-01-12T10:44:07.865Z</time>
      </trkpt>
      <trkpt lat="43.65879" lon="6.20634">
        <ele>643.4</ele>
        <time>2025-01-12T10:44:21.788Z</time>
      </trkpt>
      <trkpt lat="43.65885" lon="6.2063">
        <ele>644.3</ele>
        <time>2025-01-12T10:44:34.828Z</time>
      </trkpt>
      <trkpt lat="43.6589" lon="6.20627">
        <ele>644.8</ele>
        <time>2025-01-12T10:44:43.977Z</time>
      </trkpt>
      <trkpt lat="43.65896" lon="6.20626">
        <ele>645.2</ele>
        <time>2025-01-12T10:44:53.277Z</time>
      </trkpt>
      <trkpt lat="43.65901" lon="6.20627">
        <ele>645.3</ele>
        <time>2025-01-12T10:44:59.964Z</time>
      </trkpt>
      <trkpt lat="43.65906" lon="6.2063">
        <ele>645.1</ele>
        <time>2025-01-12T10:45:06.038Z</time>
      </trkpt>
      <trkpt lat="43.65911" lon="6.20633">
        <ele>644.8</ele>
        <time>2025-01-12T10:45:11.974Z</time>
      </trkpt>
      <trkpt lat="43.65913" lon="6.20635">
        <ele>644.5</ele>
        <time>2025-01-12T10:45:14.662Z</time>
      </trkpt>
      <trkpt lat="43.65917" lon="6.20637">
        <ele>644.4</ele>
        <time>2025-01-12T10:45:19.591Z</time>
      </trkpt>
      <trkpt lat="43.65922" lon="6.20643">
        <ele>645.9</ele>
        <time>2025-01-12T10:45:37.994Z</time>
      </trkpt>
      <trkpt lat="43.65928" lon="6.20646">
        <ele>647.2</ele>
        <time>2025-01-12T10:45:54.193Z</time>
      </trkpt>
      <trkpt lat="43.6593" lon="6.20646">
        <ele>647.3</ele>
        <time>2025-01-12T10:45:57.110Z</time>
      </trkpt>
      <trkpt lat="43.65935" lon="6.20645">
        <ele>647.2</ele>
        <time>2025-01-12T10:46:03.030Z</time>
      </trkpt>
      <trkpt lat="43.65942" lon="6.20643">
        <ele>646.9</ele>
        <time>2025-01-12T10:46:10.873Z</time>
      </trkpt>
      <trkpt lat="43.65948" lon="6.20641">
        <ele>646.9</ele>
        <time>2025-01-12T10:46:18.554Z</time>
      </trkpt>
      <trkpt lat="43.65954" lon="6.20639">
        <ele>647.1</ele>
        <time>2025-01-12T10:46:27.057Z</time>
      </trkpt>
      <trkpt lat="43.6596" lon="6.20638">
        <ele>647.8</ele>
        <time>2025-01-12T10:46:38.095Z</time>
      </trkpt>
      <trkpt lat="43.65965" lon="6.20637">
        <ele>648.4</ele>
        <time>2025-01-12T10:46:47.419Z</time>
      </trkpt>
      <trkpt lat="43.65968" lon="6.20635">
        <ele>648.9</ele>
        <time>2025-01-12T10:46:54.309Z</time>
      </trkpt>
      <trkpt lat="43.65974" lon="6.20633">
        <ele>649.5</ele>
        <time>2025-01-12T10:47:04.867Z</time>
      </trkpt>
      <trkpt lat="43.65981" lon="6.2063">
        <ele>650.2</ele>
        <time>2025-01-12T10:47:17.330Z</time>
      </trkpt>
      <trkpt lat="43.65986" lon="6.2063">
        <ele>650.5</ele>
        <time>2025-01-12T10:47:24.868Z</time>
      </trkpt>
      <trkpt lat="43.65992" lon="6.20631">
        <ele>650.7</ele>
        <time>2025-01-12T10:47:33.213Z</time>
      </trkpt>
      <trkpt lat="43.65999" lon="6.20634">
        <ele>650.7</ele>
        <time>2025-01-12T10:47:42.333Z</time>
      </trkpt>
      <trkpt lat="43.66002" lon="6.20635">
        <ele>650.8</ele>
        <time>2025-01-12T10:47:46.585Z</time>
      </trkpt>
      <trkpt lat="43.66005" lon="6.20636">
        <ele>651</ele>
        <time>2025-01-12T10:47:51.312Z</time>
      </trkpt>
      <trkpt lat="43.66011" lon="6.20637">
        <ele>651.7</ele>
        <time>2025-01-12T10:48:02.349Z</time>
      </trkpt>
      <trkpt lat="43.66015" lon="6.20636">
        <ele>652.3</ele>
        <time>2025-01-12T10:48:10.680Z</time>
      </trkpt>
      <trkpt lat="43.66019" lon="6.20633">
        <ele>652.9</ele>
        <time>2025-01-12T10:48:19.484Z</time>
      </trkpt>
      <trkpt lat="43.66021" lon="6.20631">
        <ele>653.1</ele>
        <time>2025-01-12T10:48:23.477Z</time>
      </trkpt>
      <trkpt lat="43.66025" lon="6.20624">
        <ele>653.3</ele>
        <time>2025-01-12T10:48:32.329Z</time>
      </trkpt>
      <trkpt lat="43.66029" lon="6.20617">
        <ele>653.3</ele>
        <time>2025-01-12T10:48:40.359Z</time>
      </trkpt>
      <trkpt lat="43.66034" lon="6.20612">
        <ele>653.5</ele>
        <time>2025-01-12T10:48:48.862Z</time>
      </trkpt>
      <trkpt lat="43.66038" lon="6.20607">
        <ele>654.8</ele>
        <time>2025-01-12T10:49:04.757Z</time>
      </trkpt>
      <trkpt lat="43.66042" lon="6.20604">
        <ele>655.7</ele>
        <time>2025-01-12T10:49:16.043Z</time>
      </trkpt>
      <trkpt lat="43.66046" lon="6.20601">
        <ele>656.3</ele>
        <time>2025-01-12T10:49:24.846Z</time>
      </trkpt>
      <trkpt lat="43.6605" lon="6.20599">
        <ele>656.5</ele>
        <time>2025-01-12T10:49:30.991Z</time>
      </trkpt>
      <trkpt lat="43.66058" lon="6.20598">
        <ele>656.6</ele>
        <time>2025-01-12T10:49:41.381Z</time>
      </trkpt>
      <trkpt lat="43.66065" lon="6.20601">
        <ele>656.8</ele>
        <time>2025-01-12T10:49:51.314Z</time>
      </trkpt>
      <trkpt lat="43.66073" lon="6.20604">
        <ele>657</ele>
        <time>2025-01-12T10:50:02.437Z</time>
      </trkpt>
      <trkpt lat="43.66081" lon="6.20606">
        <ele>657.4</ele>
        <time>2025-01-12T10:50:14.265Z</time>
      </trkpt>
      <trkpt lat="43.66086" lon="6.20605">
        <ele>658</ele>
        <time>2025-01-12T10:50:22.960Z</time>
      </trkpt>
      <trkpt lat="43.6609" lon="6.20604">
        <ele>658.6</ele>
        <time>2025-01-12T10:50:32.095Z</time>
      </trkpt>
      <trkpt lat="43.66096" lon="6.206">
        <ele>659.4</ele>
        <time>2025-01-12T10:50:44.448Z</time>
      </trkpt>
      <trkpt lat="43.66101" lon="6.20594">
        <ele>659.7</ele>
        <time>2025-01-12T10:50:53.959Z</time>
      </trkpt>
      <trkpt lat="43.66106" lon="6.20589">
        <ele>659.6</ele>
        <time>2025-01-12T10:51:01.269Z</time>
      </trkpt>
      <trkpt lat="43.66111" lon="6.20584">
        <ele>659.1</ele>
        <time>2025-01-12T10:51:07.989Z</time>
      </trkpt>
      <trkpt lat="43.66118" lon="6.20577">
        <ele>661.5</ele>
        <time>2025-01-12T10:51:37.604Z</time>
      </trkpt>
      <trkpt lat="43.66125" lon="6.20573">
        <ele>662.4</ele>
        <time>2025-01-12T10:51:51.586Z</time>
      </trkpt>
      <trkpt lat="43.66132" lon="6.20568">
        <ele>662.6</ele>
        <time>2025-01-12T10:52:02.202Z</time>
      </trkpt>
      <trkpt lat="43.66137" lon="6.20566">
        <ele>662.2</ele>
        <time>2025-01-12T10:52:07.870Z</time>
      </trkpt>
      <trkpt lat="43.66142" lon="6.20563">
        <ele>662</ele>
        <time>2025-01-12T10:52:13.943Z</time>
      </trkpt>
      <trkpt lat="43.6615" lon="6.20561">
        <ele>661.9</ele>
        <time>2025-01-12T10:52:23.333Z</time>
      </trkpt>
      <trkpt lat="43.66157" lon="6.20558">
        <ele>661.2</ele>
        <time>2025-01-12T10:52:31.314Z</time>
      </trkpt>
      <trkpt lat="43.66163" lon="6.20557">
        <ele>660.7</ele>
        <time>2025-01-12T10:52:37.894Z</time>
      </trkpt>
      <trkpt lat="43.66168" lon="6.20555">
        <ele>660.3</ele>
        <time>2025-01-12T10:52:43.562Z</time>
      </trkpt>
      <trkpt lat="43.66174" lon="6.20554">
        <ele>661.1</ele>
        <time>2025-01-12T10:52:55.276Z</time>
      </trkpt>
      <trkpt lat="43.66179" lon="6.20553">
        <ele>661.8</ele>
        <time>2025-01-12T10:53:05.291Z</time>
      </trkpt>
      <trkpt lat="43.66184" lon="6.20553">
        <ele>662.1</ele>
        <time>2025-01-12T10:53:12.828Z</time>
      </trkpt>
      <trkpt lat="43.66189" lon="6.20553">
        <ele>662.3</ele>
        <time>2025-01-12T10:53:19.888Z</time>
      </trkpt>
      <trkpt lat="43.66195" lon="6.20553">
        <ele>662.7</ele>
        <time>2025-01-12T10:53:29.136Z</time>
      </trkpt>
      <trkpt lat="43.66201" lon="6.20553">
        <ele>663.1</ele>
        <time>2025-01-12T10:53:38.385Z</time>
      </trkpt>
      <trkpt lat="43.66208" lon="6.20549">
        <ele>664.3</ele>
        <time>2025-01-12T10:53:54.545Z</time>
      </trkpt>
      <trkpt lat="43.66213" lon="6.20546">
        <ele>665.1</ele>
        <time>2025-01-12T10:54:05.681Z</time>
      </trkpt>
      <trkpt lat="43.66217" lon="6.20542">
        <ele>665.9</ele>
        <time>2025-01-12T10:54:16.358Z</time>
      </trkpt>
      <trkpt lat="43.66222" lon="6.20537">
        <ele>666.7</ele>
        <time>2025-01-12T10:54:28.201Z</time>
      </trkpt>
      <trkpt lat="43.66226" lon="6.20532">
        <ele>667.8</ele>
        <time>2025-01-12T10:54:41.905Z</time>
      </trkpt>
      <trkpt lat="43.66226" lon="6.20532">
        <ele>667.8</ele>
        <time>2025-01-12T10:54:41.905Z</time>
      </trkpt>
      <trkpt lat="43.66228" lon="6.20535">
        <ele>667.6</ele>
        <time>2025-01-12T10:54:45.119Z</time>
      </trkpt>
      <trkpt lat="43.66226" lon="6.20532">
        <ele>667.8</ele>
        <time>2025-01-12T10:54:49.684Z</time>
      </trkpt>
      <trkpt lat="43.66229" lon="6.20526">
        <ele>669.1</ele>
        <time>2025-01-12T10:55:05.576Z</time>
      </trkpt>
      <trkpt lat="43.66229" lon="6.20523">
        <ele>669.6</ele>
        <time>2025-01-12T10:55:11.702Z</time>
      </trkpt>
      <trkpt lat="43.66228" lon="6.20514">
        <ele>671.1</ele>
        <time>2025-01-12T10:55:30.098Z</time>
      </trkpt>
      <trkpt lat="43.66225" lon="6.20503">
        <ele>672.8</ele>
        <time>2025-01-12T10:55:51.365Z</time>
      </trkpt>
      <trkpt lat="43.66224" lon="6.20491">
        <ele>674.5</ele>
        <time>2025-01-12T10:56:12.766Z</time>
      </trkpt>
      <trkpt lat="43.66225" lon="6.20483">
        <ele>675.7</ele>
        <time>2025-01-12T10:56:27.710Z</time>
      </trkpt>
      <trkpt lat="43.66228" lon="6.20475">
        <ele>677</ele>
        <time>2025-01-12T10:56:43.982Z</time>
      </trkpt>
      <trkpt lat="43.66232" lon="6.2047">
        <ele>678.1</ele>
        <time>2025-01-12T10:56:57.686Z</time>
      </trkpt>
      <trkpt lat="43.66236" lon="6.20466">
        <ele>679.1</ele>
        <time>2025-01-12T10:57:11.204Z</time>
      </trkpt>
      <trkpt lat="43.66239" lon="6.20461">
        <ele>680.1</ele>
        <time>2025-01-12T10:57:23.569Z</time>
      </trkpt>
      <trkpt lat="43.66243" lon="6.20456">
        <ele>681.1</ele>
        <time>2025-01-12T10:57:35.446Z</time>
      </trkpt>
      <trkpt lat="43.66247" lon="6.20451">
        <ele>682</ele>
        <time>2025-01-12T10:57:47.324Z</time>
      </trkpt>
      <trkpt lat="43.66251" lon="6.20447">
        <ele>682.8</ele>
        <time>2025-01-12T10:57:58.001Z</time>
      </trkpt>
      <trkpt lat="43.66254" lon="6.20442">
        <ele>684</ele>
        <time>2025-01-12T10:58:14.033Z</time>
      </trkpt>
      <trkpt lat="43.66258" lon="6.20437">
        <ele>685.3</ele>
        <time>2025-01-12T10:58:28.782Z</time>
      </trkpt>
      <trkpt lat="43.66263" lon="6.20431">
        <ele>686.8</ele>
        <time>2025-01-12T10:58:48.344Z</time>
      </trkpt>
      <trkpt lat="43.66268" lon="6.20424">
        <ele>688.3</ele>
        <time>2025-01-12T10:59:05.921Z</time>
      </trkpt>
      <trkpt lat="43.66273" lon="6.20417">
        <ele>689.6</ele>
        <time>2025-01-12T10:59:22.568Z</time>
      </trkpt>
      <trkpt lat="43.66277" lon="6.20411">
        <ele>691</ele>
        <time>2025-01-12T10:59:39.693Z</time>
      </trkpt>
      <trkpt lat="43.6628" lon="6.20405">
        <ele>691.5</ele>
        <time>2025-01-12T10:59:49.258Z</time>
      </trkpt>
      <trkpt lat="43.66284" lon="6.20398">
        <ele>691.9</ele>
        <time>2025-01-12T10:59:58.563Z</time>
      </trkpt>
      <trkpt lat="43.66287" lon="6.20392">
        <ele>692.4</ele>
        <time>2025-01-12T11:00:07.512Z</time>
      </trkpt>
      <trkpt lat="43.66292" lon="6.20385">
        <ele>692.8</ele>
        <time>2025-01-12T11:00:18.107Z</time>
      </trkpt>
      <trkpt lat="43.66297" lon="6.20378">
        <ele>693.2</ele>
        <time>2025-01-12T11:00:28.701Z</time>
      </trkpt>
      <trkpt lat="43.663" lon="6.20369">
        <ele>694.5</ele>
        <time>2025-01-12T11:00:45.384Z</time>
      </trkpt>
      <trkpt lat="43.663" lon="6.20364">
        <ele>695.6</ele>
        <time>2025-01-12T11:00:59.221Z</time>
      </trkpt>
      <trkpt lat="43.66299" lon="6.20362">
        <ele>696.2</ele>
        <time>2025-01-12T11:01:07.070Z</time>
      </trkpt>
      <trkpt lat="43.66296" lon="6.20362">
        <ele>696.9</ele>
        <time>2025-01-12T11:01:15.639Z</time>
      </trkpt>
      <trkpt lat="43.66291" lon="6.20362">
        <ele>698</ele>
        <time>2025-01-12T11:01:29.177Z</time>
      </trkpt>
      <trkpt lat="43.66285" lon="6.20362">
        <ele>699.2</ele>
        <time>2025-01-12T11:01:45.209Z</time>
      </trkpt>
      <trkpt lat="43.66279" lon="6.20362">
        <ele>700.5</ele>
        <time>2025-01-12T11:02:02.348Z</time>
      </trkpt>
      <trkpt lat="43.66272" lon="6.20362">
        <ele>701.4</ele>
        <time>2025-01-12T11:02:14.439Z</time>
      </trkpt>
      <trkpt lat="43.66266" lon="6.20362">
        <ele>702.1</ele>
        <time>2025-01-12T11:02:25.430Z</time>
      </trkpt>
      <trkpt lat="43.6626" lon="6.20362">
        <ele>702.7</ele>
        <time>2025-01-12T11:02:36.421Z</time>
      </trkpt>
      <trkpt lat="43.66253" lon="6.20362">
        <ele>703.4</ele>
        <time>2025-01-12T11:02:49.136Z</time>
      </trkpt>
      <trkpt lat="43.66247" lon="6.20361">
        <ele>704.4</ele>
        <time>2025-01-12T11:03:00.173Z</time>
      </trkpt>
      <trkpt lat="43.6624" lon="6.20361">
        <ele>705.1</ele>
        <time>2025-01-12T11:03:12.888Z</time>
      </trkpt>
      <trkpt lat="43.66234" lon="6.2036">
        <ele>706</ele>
        <time>2025-01-12T11:03:25.334Z</time>
      </trkpt>
      <trkpt lat="43.66229" lon="6.20359">
        <ele>706.8</ele>
        <time>2025-01-12T11:03:36.948Z</time>
      </trkpt>
      <trkpt lat="43.66223" lon="6.20358">
        <ele>707.7</ele>
        <time>2025-01-12T11:03:48.661Z</time>
      </trkpt>
      <trkpt lat="43.66217" lon="6.20357">
        <ele>708.4</ele>
        <time>2025-01-12T11:03:59.699Z</time>
      </trkpt>
      <trkpt lat="43.66213" lon="6.20356">
        <ele>709</ele>
        <time>2025-01-12T11:04:08.029Z</time>
      </trkpt>
      <trkpt lat="43.66208" lon="6.20355">
        <ele>709.6</ele>
        <time>2025-01-12T11:04:17.353Z</time>
      </trkpt>
      <trkpt lat="43.66204" lon="6.20354">
        <ele>710.1</ele>
        <time>2025-01-12T11:04:24.970Z</time>
      </trkpt>
      <trkpt lat="43.66199" lon="6.20353">
        <ele>710.7</ele>
        <time>2025-01-12T11:04:34.294Z</time>
      </trkpt>
      <trkpt lat="43.66195" lon="6.20352">
        <ele>711.3</ele>
        <time>2025-01-12T11:04:42.624Z</time>
      </trkpt>
      <trkpt lat="43.6619" lon="6.20351">
        <ele>712</ele>
        <time>2025-01-12T11:04:52.639Z</time>
      </trkpt>
      <trkpt lat="43.66186" lon="6.2035">
        <ele>712.7</ele>
        <time>2025-01-12T11:05:02.683Z</time>
      </trkpt>
      <trkpt lat="43.66181" lon="6.20349">
        <ele>713.5</ele>
        <time>2025-01-12T11:05:12.698Z</time>
      </trkpt>
      <trkpt lat="43.66175" lon="6.20349">
        <ele>714.2</ele>
        <time>2025-01-12T11:05:23.689Z</time>
      </trkpt>
      <trkpt lat="43.66169" lon="6.20349">
        <ele>714.8</ele>
        <time>2025-01-12T11:05:34.679Z</time>
      </trkpt>
      <trkpt lat="43.66163" lon="6.20348">
        <ele>715.8</ele>
        <time>2025-01-12T11:05:46.393Z</time>
      </trkpt>
      <trkpt lat="43.66157" lon="6.20348">
        <ele>716.5</ele>
        <time>2025-01-12T11:05:58.063Z</time>
      </trkpt>
      <trkpt lat="43.66153" lon="6.20348">
        <ele>717</ele>
        <time>2025-01-12T11:06:06.333Z</time>
      </trkpt>
      <trkpt lat="43.66148" lon="6.20348">
        <ele>717.7</ele>
        <time>2025-01-12T11:06:15.602Z</time>
      </trkpt>
      <trkpt lat="43.66152" lon="6.20342">
        <ele>718.6</ele>
        <time>2025-01-12T11:06:27.919Z</time>
      </trkpt>
      <trkpt lat="43.66158" lon="6.20336">
        <ele>719.3</ele>
        <time>2025-01-12T11:06:40.470Z</time>
      </trkpt>
      <trkpt lat="43.66164" lon="6.20333">
        <ele>719.4</ele>
        <time>2025-01-12T11:06:49.231Z</time>
      </trkpt>
      <trkpt lat="43.66169" lon="6.20329">
        <ele>719.7</ele>
        <time>2025-01-12T11:06:57.247Z</time>
      </trkpt>
      <trkpt lat="43.66173" lon="6.20326">
        <ele>720</ele>
        <time>2025-01-12T11:07:04.244Z</time>
      </trkpt>
      <trkpt lat="43.66177" lon="6.20323">
        <ele>720.4</ele>
        <time>2025-01-12T11:07:11.782Z</time>
      </trkpt>
      <trkpt lat="43.66182" lon="6.2032">
        <ele>720.8</ele>
        <time>2025-01-12T11:07:20.376Z</time>
      </trkpt>
      <trkpt lat="43.66186" lon="6.20317">
        <ele>721.3</ele>
        <time>2025-01-12T11:07:28.514Z</time>
      </trkpt>
      <trkpt lat="43.66192" lon="6.2031">
        <ele>722.8</ele>
        <time>2025-01-12T11:07:47.483Z</time>
      </trkpt>
      <trkpt lat="43.66197" lon="6.20304">
        <ele>724.2</ele>
        <time>2025-01-12T11:08:04.811Z</time>
      </trkpt>
      <trkpt lat="43.662" lon="6.20297">
        <ele>725.5</ele>
        <time>2025-01-12T11:08:20.803Z</time>
      </trkpt>
      <trkpt lat="43.66202" lon="6.20292">
        <ele>726.4</ele>
        <time>2025-01-12T11:08:31.894Z</time>
      </trkpt>
      <trkpt lat="43.66207" lon="6.20289">
        <ele>727.1</ele>
        <time>2025-01-12T11:08:42.309Z</time>
      </trkpt>
      <trkpt lat="43.66213" lon="6.20286">
        <ele>727.8</ele>
        <time>2025-01-12T11:08:53.712Z</time>
      </trkpt>
      <trkpt lat="43.66218" lon="6.20283">
        <ele>728.6</ele>
        <time>2025-01-12T11:09:04.848Z</time>
      </trkpt>
      <trkpt lat="43.66226" lon="6.20279">
        <ele>729.4</ele>
        <time>2025-01-12T11:09:19.242Z</time>
      </trkpt>
      <trkpt lat="43.66233" lon="6.20274">
        <ele>729.8</ele>
        <time>2025-01-12T11:09:30.763Z</time>
      </trkpt>
      <trkpt lat="43.66238" lon="6.20269">
        <ele>730.5</ele>
        <time>2025-01-12T11:09:41.939Z</time>
      </trkpt>
      <trkpt lat="43.6624" lon="6.20264">
        <ele>731.5</ele>
        <time>2025-01-12T11:09:54.164Z</time>
      </trkpt>
      <trkpt lat="43.66242" lon="6.20255">
        <ele>733.4</ele>
        <time>2025-01-12T11:10:17.625Z</time>
      </trkpt>
      <trkpt lat="43.66242" lon="6.20252">
        <ele>734</ele>
        <time>2025-01-12T11:10:25.024Z</time>
      </trkpt>
      <trkpt lat="43.66246" lon="6.20245">
        <ele>735.3</ele>
        <time>2025-01-12T11:10:41.260Z</time>
      </trkpt>
      <trkpt lat="43.66251" lon="6.20237">
        <ele>736.8</ele>
        <time>2025-01-12T11:11:00.107Z</time>
      </trkpt>
      <trkpt lat="43.66255" lon="6.20231">
        <ele>737.8</ele>
        <time>2025-01-12T11:11:13.232Z</time>
      </trkpt>
      <trkpt lat="43.66259" lon="6.20227">
        <ele>738.6</ele>
        <time>2025-01-12T11:11:23.909Z</time>
      </trkpt>
      <trkpt lat="43.66261" lon="6.20221">
        <ele>739.9</ele>
        <time>2025-01-12T11:11:39.904Z</time>
      </trkpt>
      <trkpt lat="43.66263" lon="6.20217">
        <ele>740.6</ele>
        <time>2025-01-12T11:11:48.670Z</time>
      </trkpt>
      <trkpt lat="43.66267" lon="6.2021">
        <ele>742.1</ele>
        <time>2025-01-12T11:12:07.037Z</time>
      </trkpt>
      <trkpt lat="43.66272" lon="6.202">
        <ele>745</ele>
        <time>2025-01-12T11:12:44.477Z</time>
      </trkpt>
      <trkpt lat="43.66275" lon="6.20194">
        <ele>747.1</ele>
        <time>2025-01-12T11:13:13.968Z</time>
      </trkpt>
      <trkpt lat="43.66278" lon="6.20187">
        <ele>748.3</ele>
        <time>2025-01-12T11:13:28.919Z</time>
      </trkpt>
      <trkpt lat="43.66281" lon="6.20177">
        <ele>748.6</ele>
        <time>2025-01-12T11:13:39.916Z</time>
      </trkpt>
      <trkpt lat="43.66284" lon="6.20169">
        <ele>749.3</ele>
        <time>2025-01-12T11:13:51.471Z</time>
      </trkpt>
      <trkpt lat="43.66288" lon="6.20163">
        <ele>749.2</ele>
        <time>2025-01-12T11:13:58.447Z</time>
      </trkpt>
      <trkpt lat="43.66292" lon="6.2016">
        <ele>749.2</ele>
        <time>2025-01-12T11:14:04.110Z</time>
      </trkpt>
      <trkpt lat="43.66297" lon="6.20157">
        <ele>749.5</ele>
        <time>2025-01-12T11:14:12.194Z</time>
      </trkpt>
      <trkpt lat="43.66303" lon="6.20155">
        <ele>750.2</ele>
        <time>2025-01-12T11:14:23.370Z</time>
      </trkpt>
      <trkpt lat="43.66308" lon="6.20152">
        <ele>750.7</ele>
        <time>2025-01-12T11:14:32.519Z</time>
      </trkpt>
      <trkpt lat="43.66313" lon="6.2015">
        <ele>751.3</ele>
        <time>2025-01-12T11:14:42.006Z</time>
      </trkpt>
      <trkpt lat="43.66317" lon="6.20146">
        <ele>752</ele>
        <time>2025-01-12T11:14:51.909Z</time>
      </trkpt>
      <trkpt lat="43.6632" lon="6.20139">
        <ele>753.1</ele>
        <time>2025-01-12T11:15:05.903Z</time>
      </trkpt>
      <trkpt lat="43.66322" lon="6.20134">
        <ele>753.7</ele>
        <time>2025-01-12T11:15:14.297Z</time>
      </trkpt>
      <trkpt lat="43.66327" lon="6.20129">
        <ele>755.1</ele>
        <time>2025-01-12T11:15:31.472Z</time>
      </trkpt>
      <trkpt lat="43.6633" lon="6.20127">
        <ele>756</ele>
        <time>2025-01-12T11:15:42.536Z</time>
      </trkpt>
      <trkpt lat="43.66336" lon="6.20125">
        <ele>757.4</ele>
        <time>2025-01-12T11:15:59.711Z</time>
      </trkpt>
      <trkpt lat="43.66341" lon="6.20124">
        <ele>758.4</ele>
        <time>2025-01-12T11:16:12.248Z</time>
      </trkpt>
      <trkpt lat="43.66344" lon="6.20122">
        <ele>759.2</ele>
        <time>2025-01-12T11:16:22.030Z</time>
      </trkpt>
      <trkpt lat="43.66345" lon="6.20119">
        <ele>759.8</ele>
        <time>2025-01-12T11:16:29.367Z</time>
      </trkpt>
      <trkpt lat="43.66347" lon="6.20116">
        <ele>760.7</ele>
        <time>2025-01-12T11:16:40.697Z</time>
      </trkpt>
      <trkpt lat="43.66348" lon="6.20115">
        <ele>761</ele>
        <time>2025-01-12T11:16:44.364Z</time>
      </trkpt>
      <trkpt lat="43.66353" lon="6.20112">
        <ele>762.8</ele>
        <time>2025-01-12T11:17:07.615Z</time>
      </trkpt>
      <trkpt lat="43.66358" lon="6.20111">
        <ele>764.2</ele>
        <time>2025-01-12T11:17:24.884Z</time>
      </trkpt>
      <trkpt lat="43.66363" lon="6.2011">
        <ele>765.3</ele>
        <time>2025-01-12T11:17:38.440Z</time>
      </trkpt>
      <trkpt lat="43.66365" lon="6.2011">
        <ele>765.5</ele>
        <time>2025-01-12T11:17:41.895Z</time>
      </trkpt>
      <trkpt lat="43.66369" lon="6.20108">
        <ele>766.2</ele>
        <time>2025-01-12T11:17:51.182Z</time>
      </trkpt>
      <trkpt lat="43.66376" lon="6.20106">
        <ele>767.4</ele>
        <time>2025-01-12T11:18:06.984Z</time>
      </trkpt>
      <trkpt lat="43.66382" lon="6.20101">
        <ele>769.1</ele>
        <time>2025-01-12T11:18:27.767Z</time>
      </trkpt>
      <trkpt lat="43.66388" lon="6.20098">
        <ele>770.7</ele>
        <time>2025-01-12T11:18:47.332Z</time>
      </trkpt>
      <trkpt lat="43.66395" lon="6.20095">
        <ele>773.2</ele>
        <time>2025-01-12T11:19:20.034Z</time>
      </trkpt>
      <trkpt lat="43.66403" lon="6.20093">
        <ele>776</ele>
        <time>2025-01-12T11:19:56.805Z</time>
      </trkpt>
      <trkpt lat="43.66408" lon="6.2009">
        <ele>778.1</ele>
        <time>2025-01-12T11:20:25.837Z</time>
      </trkpt>
      <trkpt lat="43.66414" lon="6.20087">
        <ele>780.4</ele>
        <time>2025-01-12T11:20:56.648Z</time>
      </trkpt>
      <trkpt lat="43.66421" lon="6.20084">
        <ele>780.5</ele>
        <time>2025-01-12T11:21:06.163Z</time>
      </trkpt>
      <trkpt lat="43.66428" lon="6.20084">
        <ele>778.2</ele>
        <time>2025-01-12T11:21:13.785Z</time>
      </trkpt>
      <trkpt lat="43.66431" lon="6.20085">
        <ele>777.1</ele>
        <time>2025-01-12T11:21:17.146Z</time>
      </trkpt>
      <trkpt lat="43.66433" lon="6.20081">
        <ele>776.5</ele>
        <time>2025-01-12T11:21:20.976Z</time>
      </trkpt>
      <trkpt lat="43.66433" lon="6.20077">
        <ele>776.2</ele>
        <time>2025-01-12T11:21:24.127Z</time>
      </trkpt>
      <trkpt lat="43.66432" lon="6.20073">
        <ele>776.1</ele>
        <time>2025-01-12T11:21:27.579Z</time>
      </trkpt>
      <trkpt lat="43.66433" lon="6.2007">
        <ele>775.7</ele>
        <time>2025-01-12T11:21:30.181Z</time>
      </trkpt>
      <trkpt lat="43.66439" lon="6.20069">
        <ele>774.8</ele>
        <time>2025-01-12T11:21:36.762Z</time>
      </trkpt>
      <trkpt lat="43.66441" lon="6.2007">
        <ele>774.5</ele>
        <time>2025-01-12T11:21:39.077Z</time>
      </trkpt>
      <trkpt lat="43.66441" lon="6.20072">
        <ele>774.4</ele>
        <time>2025-01-12T11:21:40.653Z</time>
      </trkpt>
      <trkpt lat="43.66443" lon="6.20075">
        <ele>773.9</ele>
        <time>2025-01-12T11:21:43.866Z</time>
      </trkpt>
      <trkpt lat="43.66445" lon="6.20076">
        <ele>773.2</ele>
        <time>2025-01-12T11:21:46.182Z</time>
      </trkpt>
      <trkpt lat="43.66452" lon="6.20073">
        <ele>770</ele>
        <time>2025-01-12T11:21:54.162Z</time>
      </trkpt>
      <trkpt lat="43.6646" lon="6.20068">
        <ele>766.6</ele>
        <time>2025-01-12T11:22:03.722Z</time>
      </trkpt>
      <trkpt lat="43.66468" lon="6.20063">
        <ele>763.6</ele>
        <time>2025-01-12T11:22:13.282Z</time>
      </trkpt>
      <trkpt lat="43.66476" lon="6.20058">
        <ele>761.4</ele>
        <time>2025-01-12T11:22:22.842Z</time>
      </trkpt>
      <trkpt lat="43.66481" lon="6.20055">
        <ele>760.5</ele>
        <time>2025-01-12T11:22:28.778Z</time>
      </trkpt>
      <trkpt lat="43.66485" lon="6.20052">
        <ele>759.9</ele>
        <time>2025-01-12T11:22:33.733Z</time>
      </trkpt>
      <trkpt lat="43.66491" lon="6.20049">
        <ele>759</ele>
        <time>2025-01-12T11:22:40.680Z</time>
      </trkpt>
      <trkpt lat="43.66497" lon="6.20046">
        <ele>758.4</ele>
        <time>2025-01-12T11:22:47.628Z</time>
      </trkpt>
      <trkpt lat="43.66502" lon="6.20043">
        <ele>758.1</ele>
        <time>2025-01-12T11:22:53.702Z</time>
      </trkpt>
      <trkpt lat="43.66507" lon="6.20039">
        <ele>758.1</ele>
        <time>2025-01-12T11:23:00.522Z</time>
      </trkpt>
      <trkpt lat="43.66515" lon="6.20035">
        <ele>757.7</ele>
        <time>2025-01-12T11:23:09.785Z</time>
      </trkpt>
      <trkpt lat="43.6652" lon="6.20033">
        <ele>757.4</ele>
        <time>2025-01-12T11:23:16.263Z</time>
      </trkpt>
      <trkpt lat="43.66524" lon="6.2003">
        <ele>757.8</ele>
        <time>2025-01-12T11:23:22.328Z</time>
      </trkpt>
      <trkpt lat="43.6653" lon="6.20027">
        <ele>758</ele>
        <time>2025-01-12T11:23:31.089Z</time>
      </trkpt>
      <trkpt lat="43.66535" lon="6.20024">
        <ele>758.4</ele>
        <time>2025-01-12T11:23:39.682Z</time>
      </trkpt>
      <trkpt lat="43.66542" lon="6.20019">
        <ele>759.6</ele>
        <time>2025-01-12T11:23:56.113Z</time>
      </trkpt>
      <trkpt lat="43.66549" lon="6.20015">
        <ele>761.1</ele>
        <time>2025-01-12T11:24:14.918Z</time>
      </trkpt>
      <trkpt lat="43.66556" lon="6.20011">
        <ele>763.1</ele>
        <time>2025-01-12T11:24:38.151Z</time>
      </trkpt>
      <trkpt lat="43.66562" lon="6.20007">
        <ele>765.6</ele>
        <time>2025-01-12T11:25:14.322Z</time>
      </trkpt>
      <trkpt lat="43.66568" lon="6.20005">
        <ele>767.4</ele>
        <time>2025-01-12T11:25:36.734Z</time>
      </trkpt>
      <trkpt lat="43.66573" lon="6.20003">
        <ele>769.1</ele>
        <time>2025-01-12T11:25:58.605Z</time>
      </trkpt>
      <trkpt lat="43.66578" lon="6.20001">
        <ele>770.7</ele>
        <time>2025-01-12T11:26:17.235Z</time>
      </trkpt>
      <trkpt lat="43.66582" lon="6.19999">
        <ele>771.9</ele>
        <time>2025-01-12T11:26:33.610Z</time>
      </trkpt>
      <trkpt lat="43.66587" lon="6.19997">
        <ele>773.2</ele>
        <time>2025-01-12T11:26:48.312Z</time>
      </trkpt>
      <trkpt lat="43.66591" lon="6.19995">
        <ele>774.4</ele>
        <time>2025-01-12T11:27:04.687Z</time>
      </trkpt>
      <trkpt lat="43.66597" lon="6.19992">
        <ele>776.4</ele>
        <time>2025-01-12T11:27:30.067Z</time>
      </trkpt>
      <trkpt lat="43.66603" lon="6.19989">
        <ele>778.6</ele>
        <time>2025-01-12T11:27:58.972Z</time>
      </trkpt>
      <trkpt lat="43.66611" lon="6.19984">
        <ele>782</ele>
        <time>2025-01-12T11:28:42.058Z</time>
      </trkpt>
      <trkpt lat="43.66618" lon="6.19979">
        <ele>784.3</ele>
        <time>2025-01-12T11:29:13.905Z</time>
      </trkpt>
      <trkpt lat="43.66625" lon="6.19975">
        <ele>786.6</ele>
        <time>2025-01-12T11:29:42.825Z</time>
      </trkpt>
      <trkpt lat="43.66632" lon="6.19971">
        <ele>788.8</ele>
        <time>2025-01-12T11:30:10.194Z</time>
      </trkpt>
      <trkpt lat="43.66639" lon="6.19967">
        <ele>790.4</ele>
        <time>2025-01-12T11:30:30.000Z</time>
      </trkpt>
      <trkpt lat="43.66646" lon="6.19963">
        <ele>790.6</ele>
        <time>2025-01-12T11:30:40.238Z</time>
      </trkpt>
      <trkpt lat="43.66652" lon="6.1996">
        <ele>791.1</ele>
        <time>2025-01-12T11:30:50.469Z</time>
      </trkpt>
      <trkpt lat="43.66658" lon="6.19957">
        <ele>792</ele>
        <time>2025-01-12T11:31:03.233Z</time>
      </trkpt>
      <trkpt lat="43.66663" lon="6.19953">
        <ele>793.6</ele>
        <time>2025-01-12T11:31:24.443Z</time>
      </trkpt>
      <trkpt lat="43.66667" lon="6.19948">
        <ele>795.7</ele>
        <time>2025-01-12T11:31:51.592Z</time>
      </trkpt>
      <trkpt lat="43.66673" lon="6.1994">
        <ele>797.2</ele>
        <time>2025-01-12T11:32:10.887Z</time>
      </trkpt>
      <trkpt lat="43.66677" lon="6.19936">
        <ele>797.6</ele>
        <time>2025-01-12T11:32:18.706Z</time>
      </trkpt>
      <trkpt lat="43.6668" lon="6.19932">
        <ele>798.1</ele>
        <time>2025-01-12T11:32:26.526Z</time>
      </trkpt>
      <trkpt lat="43.66686" lon="6.19923">
        <ele>799.5</ele>
        <time>2025-01-12T11:32:45.394Z</time>
      </trkpt>
      <trkpt lat="43.66691" lon="6.19916">
        <ele>800.8</ele>
        <time>2025-01-12T11:33:02.040Z</time>
      </trkpt>
      <trkpt lat="43.66696" lon="6.19909">
        <ele>802.1</ele>
        <time>2025-01-12T11:33:18.686Z</time>
      </trkpt>
      <trkpt lat="43.667" lon="6.19904">
        <ele>802.9</ele>
        <time>2025-01-12T11:33:29.768Z</time>
      </trkpt>
      <trkpt lat="43.66703" lon="6.19899">
        <ele>803.7</ele>
        <time>2025-01-12T11:33:40.250Z</time>
      </trkpt>
      <trkpt lat="43.66707" lon="6.19894">
        <ele>804.6</ele>
        <time>2025-01-12T11:33:52.128Z</time>
      </trkpt>
      <trkpt lat="43.6671" lon="6.19889">
        <ele>805.5</ele>
        <time>2025-01-12T11:34:03.502Z</time>
      </trkpt>
      <trkpt lat="43.66714" lon="6.19883">
        <ele>806.3</ele>
        <time>2025-01-12T11:34:15.075Z</time>
      </trkpt>
      <trkpt lat="43.66718" lon="6.19876">
        <ele>807.2</ele>
        <time>2025-01-12T11:34:27.909Z</time>
      </trkpt>
      <trkpt lat="43.66718" lon="6.19875">
        <ele>807.3</ele>
        <time>2025-01-12T11:34:29.342Z</time>
      </trkpt>
      <trkpt lat="43.66719" lon="6.19876">
        <ele>807.2</ele>
        <time>2025-01-12T11:34:30.686Z</time>
      </trkpt>
      <trkpt lat="43.6672" lon="6.19876">
        <ele>807.3</ele>
        <time>2025-01-12T11:34:32.413Z</time>
      </trkpt>
      <trkpt lat="43.6672" lon="6.19875">
        <ele>807.4</ele>
        <time>2025-01-12T11:34:33.845Z</time>
      </trkpt>
      <trkpt lat="43.6672" lon="6.19874">
        <ele>807.5</ele>
        <time>2025-01-12T11:34:35.278Z</time>
      </trkpt>
      <trkpt lat="43.6672" lon="6.19873">
        <ele>807.6</ele>
        <time>2025-01-12T11:34:36.710Z</time>
      </trkpt>
      <trkpt lat="43.66721" lon="6.19873">
        <ele>807.6</ele>
        <time>2025-01-12T11:34:37.954Z</time>
      </trkpt>
      <trkpt lat="43.66721" lon="6.19873">
        <ele>807.6</ele>
        <time>2025-01-12T11:34:37.954Z</time>
      </trkpt>
      <trkpt lat="43.66722" lon="6.19872">
        <ele>807.8</ele>
        <time>2025-01-12T11:34:40.624Z</time>
      </trkpt>
      <trkpt lat="43.66722" lon="6.19872">
        <ele>807.8</ele>
        <time>2025-01-12T11:34:40.624Z</time>
      </trkpt>
      <trkpt lat="43.66722" lon="6.19872">
        <ele>807.8</ele>
        <time>2025-01-12T11:34:40.624Z</time>
      </trkpt>
      <trkpt lat="43.66722" lon="6.19872">
        <ele>807.8</ele>
        <time>2025-01-12T11:34:40.624Z</time>
      </trkpt>
      <trkpt lat="43.66722" lon="6.19872">
        <ele>807.8</ele>
        <time>2025-01-12T11:34:40.624Z</time>
      </trkpt>
      <trkpt lat="43.66721" lon="6.19872">
        <ele>807.8</ele>
        <time>2025-01-12T11:34:41.868Z</time>
      </trkpt>
      <trkpt lat="43.66721" lon="6.19872">
        <ele>807.8</ele>
        <time>2025-01-12T11:34:41.868Z</time>
      </trkpt>
      <trkpt lat="43.66721" lon="6.19872">
        <ele>807.8</ele>
        <time>2025-01-12T11:34:41.868Z</time>
      </trkpt>
      <trkpt lat="43.66721" lon="6.19872">
        <ele>807.8</ele>
        <time>2025-01-12T11:34:41.868Z</time>
      </trkpt>
      <trkpt lat="43.66721" lon="6.19872">
        <ele>807.8</ele>
        <time>2025-01-12T11:34:41.868Z</time>
      </trkpt>
      <trkpt lat="43.66721" lon="6.19872">
        <ele>807.8</ele>
        <time>2025-01-12T11:34:41.868Z</time>
      </trkpt>
      <trkpt lat="43.66721" lon="6.19872">
        <ele>807.8</ele>
        <time>2025-01-12T11:34:41.868Z</time>
      </trkpt>
      <trkpt lat="43.66721" lon="6.19872">
        <ele>807.8</ele>
        <time>2025-01-12T11:34:41.868Z</time>
      </trkpt>
      <trkpt lat="43.66721" lon="6.19872">
        <ele>807.8</ele>
        <time>2025-01-12T11:34:41.868Z</time>
      </trkpt>
      <trkpt lat="43.66721" lon="6.19872">
        <ele>807.8</ele>
        <time>2025-01-12T11:34:41.868Z</time>
      </trkpt>
      <trkpt lat="43.66721" lon="6.19872">
        <ele>807.8</ele>
        <time>2025-01-12T11:34:41.868Z</time>
      </trkpt>
      <trkpt lat="43.66721" lon="6.19872">
        <ele>807.8</ele>
        <time>2025-01-12T11:34:41.868Z</time>
      </trkpt>
      <trkpt lat="43.66721" lon="6.19872">
        <ele>807.8</ele>
        <time>2025-01-12T11:34:41.868Z</time>
      </trkpt>
      <trkpt lat="43.66721" lon="6.19872">
        <ele>807.8</ele>
        <time>2025-01-12T11:34:41.868Z</time>
      </trkpt>
      <trkpt lat="43.66721" lon="6.19872">
        <ele>807.8</ele>
        <time>2025-01-12T11:34:41.868Z</time>
      </trkpt>
      <trkpt lat="43.66721" lon="6.19872">
        <ele>807.8</ele>
        <time>2025-01-12T11:34:41.868Z</time>
      </trkpt>
      <trkpt lat="43.66721" lon="6.19872">
        <ele>807.8</ele>
        <time>2025-01-12T11:34:41.868Z</time>
      </trkpt>
      <trkpt lat="43.66721" lon="6.19872">
        <ele>807.8</ele>
        <time>2025-01-12T11:34:41.868Z</time>
      </trkpt>
      <trkpt lat="43.66721" lon="6.19872">
        <ele>807.8</ele>
        <time>2025-01-12T11:34:41.868Z</time>
      </trkpt>
      <trkpt lat="43.66721" lon="6.19872">
        <ele>807.8</ele>
        <time>2025-01-12T11:34:41.868Z</time>
      </trkpt>
      <trkpt lat="43.66721" lon="6.19872">
        <ele>807.8</ele>
        <time>2025-01-12T11:34:41.868Z</time>
      </trkpt>
      <trkpt lat="43.66721" lon="6.19872">
        <ele>807.8</ele>
        <time>2025-01-12T11:34:41.868Z</time>
      </trkpt>
      <trkpt lat="43.66721" lon="6.19872">
        <ele>807.8</ele>
        <time>2025-01-12T11:34:41.868Z</time>
      </trkpt>
      <trkpt lat="43.66721" lon="6.19872">
        <ele>807.8</ele>
        <time>2025-01-12T11:34:41.868Z</time>
      </trkpt>
      <trkpt lat="43.66721" lon="6.19872">
        <ele>807.8</ele>
        <time>2025-01-12T11:34:41.868Z</time>
      </trkpt>
      <trkpt lat="43.66721" lon="6.19872">
        <ele>807.8</ele>
        <time>2025-01-12T11:34:41.868Z</time>
      </trkpt>
      <trkpt lat="43.66721" lon="6.19872">
        <ele>807.8</ele>
        <time>2025-01-12T11:34:41.868Z</time>
      </trkpt>
      <trkpt lat="43.66721" lon="6.19872">
        <ele>807.8</ele>
        <time>2025-01-12T11:34:41.868Z</time>
      </trkpt>
      <trkpt lat="43.66721" lon="6.19872">
        <ele>807.8</ele>
        <time>2025-01-12T11:34:41.868Z</time>
      </trkpt>
      <trkpt lat="43.66721" lon="6.19872">
        <ele>807.8</ele>
        <time>2025-01-12T11:34:41.868Z</time>
      </trkpt>
      <trkpt lat="43.66721" lon="6.19872">
        <ele>807.8</ele>
        <time>2025-01-12T11:34:41.868Z</time>
      </trkpt>
      <trkpt lat="43.66721" lon="6.19872">
        <ele>807.8</ele>
        <time>2025-01-12T11:34:41.868Z</time>
      </trkpt>
      <trkpt lat="43.66721" lon="6.19872">
        <ele>807.8</ele>
        <time>2025-01-12T11:34:41.868Z</time>
      </trkpt>
      <trkpt lat="43.66721" lon="6.19872">
        <ele>807.8</ele>
        <time>2025-01-12T11:34:41.868Z</time>
      </trkpt>
      <trkpt lat="43.66721" lon="6.19872">
        <ele>807.8</ele>
        <time>2025-01-12T11:34:41.868Z</time>
      </trkpt>
      <trkpt lat="43.66721" lon="6.19872">
        <ele>807.8</ele>
        <time>2025-01-12T11:34:41.868Z</time>
      </trkpt>
      <trkpt lat="43.66721" lon="6.19872">
        <ele>807.8</ele>
        <time>2025-01-12T11:34:41.868Z</time>
      </trkpt>
      <trkpt lat="43.66721" lon="6.19872">
        <ele>807.8</ele>
        <time>2025-01-12T11:34:41.868Z</time>
      </trkpt>
      <trkpt lat="43.66721" lon="6.19872">
        <ele>807.8</ele>
        <time>2025-01-12T11:34:41.868Z</time>
      </trkpt>
      <trkpt lat="43.66721" lon="6.19871">
        <ele>807.9</ele>
        <time>2025-01-12T11:34:43.300Z</time>
      </trkpt>
      <trkpt lat="43.66721" lon="6.19871">
        <ele>807.9</ele>
        <time>2025-01-12T11:34:43.300Z</time>
      </trkpt>
      <trkpt lat="43.66721" lon="6.19871">
        <ele>807.9</ele>
        <time>2025-01-12T11:34:43.300Z</time>
      </trkpt>
      <trkpt lat="43.66721" lon="6.19872">
        <ele>807.8</ele>
        <time>2025-01-12T11:34:44.088Z</time>
      </trkpt>
      <trkpt lat="43.66721" lon="6.19871">
        <ele>807.9</ele>
        <time>2025-01-12T11:34:45.520Z</time>
      </trkpt>
      <trkpt lat="43.66722" lon="6.19871">
        <ele>807.9</ele>
        <time>2025-01-12T11:34:46.765Z</time>
      </trkpt>
      <trkpt lat="43.66721" lon="6.19872">
        <ele>807.8</ele>
        <time>2025-01-12T11:34:48.109Z</time>
      </trkpt>
      <trkpt lat="43.66722" lon="6.19872">
        <ele>807.8</ele>
        <time>2025-01-12T11:34:49.353Z</time>
      </trkpt>
      <trkpt lat="43.66722" lon="6.19872">
        <ele>807.8</ele>
        <time>2025-01-12T11:34:49.353Z</time>
      </trkpt>
      <trkpt lat="43.66722" lon="6.19872">
        <ele>807.8</ele>
        <time>2025-01-12T11:34:49.353Z</time>
      </trkpt>
      <trkpt lat="43.66722" lon="6.19872">
        <ele>807.8</ele>
        <time>2025-01-12T11:34:49.353Z</time>
      </trkpt>
      <trkpt lat="43.66722" lon="6.19872">
        <ele>807.8</ele>
        <time>2025-01-12T11:34:49.353Z</time>
      </trkpt>
      <trkpt lat="43.66722" lon="6.19872">
        <ele>807.8</ele>
        <time>2025-01-12T11:34:49.353Z</time>
      </trkpt>
      <trkpt lat="43.66722" lon="6.19872">
        <ele>807.8</ele>
        <time>2025-01-12T11:34:49.353Z</time>
      </trkpt>
      <trkpt lat="43.66722" lon="6.19872">
        <ele>807.8</ele>
        <time>2025-01-12T11:34:49.353Z</time>
      </trkpt>
      <trkpt lat="43.66722" lon="6.19872">
        <ele>807.8</ele>
        <time>2025-01-12T11:34:49.353Z</time>
      </trkpt>
      <trkpt lat="43.66722" lon="6.19872">
        <ele>807.8</ele>
        <time>2025-01-12T11:34:49.353Z</time>
      </trkpt>
      <trkpt lat="43.66722" lon="6.19872">
        <ele>807.8</ele>
        <time>2025-01-12T11:34:49.353Z</time>
      </trkpt>
      <trkpt lat="43.66722" lon="6.19872">
        <ele>807.8</ele>
        <time>2025-01-12T11:34:49.353Z</time>
      </trkpt>
      <trkpt lat="43.66722" lon="6.19872">
        <ele>807.8</ele>
        <time>2025-01-12T11:34:49.353Z</time>
      </trkpt>
      <trkpt lat="43.66722" lon="6.19872">
        <ele>807.8</ele>
        <time>2025-01-12T11:34:49.353Z</time>
      </trkpt>
      <trkpt lat="43.66722" lon="6.19872">
        <ele>807.8</ele>
        <time>2025-01-12T11:34:49.353Z</time>
      </trkpt>
      <trkpt lat="43.66722" lon="6.19872">
        <ele>807.8</ele>
        <time>2025-01-12T11:34:49.353Z</time>
      </trkpt>
      <trkpt lat="43.66722" lon="6.19872">
        <ele>807.8</ele>
        <time>2025-01-12T11:34:49.353Z</time>
      </trkpt>
      <trkpt lat="43.66722" lon="6.19872">
        <ele>807.8</ele>
        <time>2025-01-12T11:34:49.353Z</time>
      </trkpt>
      <trkpt lat="43.66722" lon="6.19872">
        <ele>807.8</ele>
        <time>2025-01-12T11:34:49.353Z</time>
      </trkpt>
      <trkpt lat="43.66722" lon="6.19872">
        <ele>807.8</ele>
        <time>2025-01-12T11:34:49.353Z</time>
      </trkpt>
      <trkpt lat="43.66722" lon="6.19872">
        <ele>807.8</ele>
        <time>2025-01-12T11:34:49.353Z</time>
      </trkpt>
      <trkpt lat="43.66722" lon="6.19872">
        <ele>807.8</ele>
        <time>2025-01-12T11:34:49.353Z</time>
      </trkpt>
      <trkpt lat="43.66722" lon="6.19872">
        <ele>807.8</ele>
        <time>2025-01-12T11:34:49.353Z</time>
      </trkpt>
      <trkpt lat="43.66722" lon="6.19872">
        <ele>807.8</ele>
        <time>2025-01-12T11:34:49.353Z</time>
      </trkpt>
      <trkpt lat="43.66722" lon="6.19872">
        <ele>807.8</ele>
        <time>2025-01-12T11:34:49.353Z</time>
      </trkpt>
      <trkpt lat="43.66722" lon="6.19872">
        <ele>807.8</ele>
        <time>2025-01-12T11:34:49.353Z</time>
      </trkpt>
      <trkpt lat="43.66722" lon="6.19872">
        <ele>807.8</ele>
        <time>2025-01-12T11:34:49.353Z</time>
      </trkpt>
      <trkpt lat="43.66722" lon="6.19872">
        <ele>807.8</ele>
        <time>2025-01-12T11:34:49.353Z</time>
      </trkpt>
      <trkpt lat="43.66722" lon="6.19872">
        <ele>807.8</ele>
        <time>2025-01-12T11:34:49.353Z</time>
      </trkpt>
      <trkpt lat="43.66722" lon="6.19872">
        <ele>807.8</ele>
        <time>2025-01-12T11:34:49.353Z</time>
      </trkpt>
      <trkpt lat="43.66722" lon="6.19872">
        <ele>807.8</ele>
        <time>2025-01-12T11:34:49.353Z</time>
      </trkpt>
      <trkpt lat="43.66722" lon="6.19872">
        <ele>807.8</ele>
        <time>2025-01-12T11:34:49.353Z</time>
      </trkpt>
      <trkpt lat="43.66722" lon="6.19872">
        <ele>807.8</ele>
        <time>2025-01-12T11:34:49.353Z</time>
      </trkpt>
      <trkpt lat="43.66722" lon="6.19872">
        <ele>807.8</ele>
        <time>2025-01-12T11:34:49.353Z</time>
      </trkpt>
      <trkpt lat="43.66722" lon="6.19872">
        <ele>807.8</ele>
        <time>2025-01-12T11:34:49.353Z</time>
      </trkpt>
      <trkpt lat="43.66722" lon="6.19872">
        <ele>807.8</ele>
        <time>2025-01-12T11:34:49.353Z</time>
      </trkpt>
      <trkpt lat="43.66722" lon="6.19872">
        <ele>807.8</ele>
        <time>2025-01-12T11:34:49.353Z</time>
      </trkpt>
      <trkpt lat="43.66721" lon="6.19872">
        <ele>807.8</ele>
        <time>2025-01-12T11:34:50.598Z</time>
      </trkpt>
      <trkpt lat="43.66721" lon="6.19872">
        <ele>807.8</ele>
        <time>2025-01-12T11:34:50.598Z</time>
      </trkpt>
      <trkpt lat="43.66721" lon="6.19872">
        <ele>807.8</ele>
        <time>2025-01-12T11:34:50.598Z</time>
      </trkpt>
      <trkpt lat="43.66721" lon="6.19872">
        <ele>807.8</ele>
        <time>2025-01-12T11:34:50.598Z</time>
      </trkpt>
      <trkpt lat="43.66721" lon="6.19872">
        <ele>807.8</ele>
        <time>2025-01-12T11:34:50.598Z</time>
      </trkpt>
      <trkpt lat="43.66721" lon="6.19872">
        <ele>807.8</ele>
        <time>2025-01-12T11:34:50.598Z</time>
      </trkpt>
      <trkpt lat="43.66721" lon="6.19872">
        <ele>807.8</ele>
        <time>2025-01-12T11:34:50.598Z</time>
      </trkpt>
      <trkpt lat="43.66721" lon="6.19872">
        <ele>807.8</ele>
        <time>2025-01-12T11:34:50.598Z</time>
      </trkpt>
      <trkpt lat="43.66721" lon="6.19872">
        <ele>807.8</ele>
        <time>2025-01-12T11:34:50.598Z</time>
      </trkpt>
      <trkpt lat="43.66721" lon="6.19872">
        <ele>807.8</ele>
        <time>2025-01-12T11:34:50.598Z</time>
      </trkpt>
      <trkpt lat="43.66721" lon="6.19872">
        <ele>807.8</ele>
        <time>2025-01-12T11:34:50.598Z</time>
      </trkpt>
      <trkpt lat="43.66721" lon="6.19872">
        <ele>807.8</ele>
        <time>2025-01-12T11:34:50.598Z</time>
      </trkpt>
      <trkpt lat="43.66721" lon="6.19872">
        <ele>807.8</ele>
        <time>2025-01-12T11:34:50.598Z</time>
      </trkpt>
      <trkpt lat="43.66721" lon="6.19872">
        <ele>807.8</ele>
        <time>2025-01-12T11:34:50.598Z</time>
      </trkpt>
      <trkpt lat="43.66721" lon="6.19872">
        <ele>807.8</ele>
        <time>2025-01-12T11:34:50.598Z</time>
      </trkpt>
      <trkpt lat="43.66721" lon="6.19872">
        <ele>807.8</ele>
        <time>2025-01-12T11:34:50.598Z</time>
      </trkpt>
      <trkpt lat="43.66721" lon="6.19872">
        <ele>807.8</ele>
        <time>2025-01-12T11:34:50.598Z</time>
      </trkpt>
      <trkpt lat="43.66721" lon="6.19872">
        <ele>807.8</ele>
        <time>2025-01-12T11:34:50.598Z</time>
      </trkpt>
      <trkpt lat="43.66721" lon="6.19872">
        <ele>807.8</ele>
        <time>2025-01-12T11:34:50.598Z</time>
      </trkpt>
      <trkpt lat="43.66721" lon="6.19872">
        <ele>807.8</ele>
        <time>2025-01-12T11:34:50.598Z</time>
      </trkpt>
      <trkpt lat="43.66721" lon="6.19872">
        <ele>807.8</ele>
        <time>2025-01-12T11:34:50.598Z</time>
      </trkpt>
      <trkpt lat="43.66721" lon="6.19872">
        <ele>807.8</ele>
        <time>2025-01-12T11:34:50.598Z</time>
      </trkpt>
      <trkpt lat="43.66721" lon="6.19872">
        <ele>807.8</ele>
        <time>2025-01-12T11:34:50.598Z</time>
      </trkpt>
      <trkpt lat="43.66721" lon="6.19872">
        <ele>807.8</ele>
        <time>2025-01-12T11:34:50.598Z</time>
      </trkpt>
      <trkpt lat="43.66721" lon="6.19872">
        <ele>807.8</ele>
        <time>2025-01-12T11:34:50.598Z</time>
      </trkpt>
      <trkpt lat="43.66721" lon="6.19872">
        <ele>807.8</ele>
        <time>2025-01-12T11:34:50.598Z</time>
      </trkpt>
      <trkpt lat="43.66721" lon="6.19872">
        <ele>807.8</ele>
        <time>2025-01-12T11:34:50.598Z</time>
      </trkpt>
      <trkpt lat="43.66721" lon="6.19872">
        <ele>807.8</ele>
        <time>2025-01-12T11:34:50.598Z</time>
      </trkpt>
      <trkpt lat="43.66721" lon="6.19872">
        <ele>807.8</ele>
        <time>2025-01-12T11:34:50.598Z</time>
      </trkpt>
      <trkpt lat="43.66721" lon="6.19872">
        <ele>807.8</ele>
        <time>2025-01-12T11:34:50.598Z</time>
      </trkpt>
      <trkpt lat="43.66721" lon="6.19872">
        <ele>807.8</ele>
        <time>2025-01-12T11:34:50.598Z</time>
      </trkpt>
      <trkpt lat="43.66721" lon="6.19872">
        <ele>807.8</ele>
        <time>2025-01-12T11:34:50.598Z</time>
      </trkpt>
      <trkpt lat="43.66721" lon="6.19872">
        <ele>807.8</ele>
        <time>2025-01-12T11:34:50.598Z</time>
      </trkpt>
      <trkpt lat="43.66721" lon="6.19872">
        <ele>807.8</ele>
        <time>2025-01-12T11:34:50.598Z</time>
      </trkpt>
      <trkpt lat="43.66721" lon="6.19872">
        <ele>807.8</ele>
        <time>2025-01-12T11:34:50.598Z</time>
      </trkpt>
      <trkpt lat="43.66721" lon="6.19872">
        <ele>807.8</ele>
        <time>2025-01-12T11:34:50.598Z</time>
      </trkpt>
      <trkpt lat="43.66721" lon="6.19872">
        <ele>807.8</ele>
        <time>2025-01-12T11:34:50.598Z</time>
      </trkpt>
      <trkpt lat="43.66721" lon="6.19872">
        <ele>807.8</ele>
        <time>2025-01-12T11:34:50.598Z</time>
      </trkpt>
      <trkpt lat="43.66721" lon="6.19872">
        <ele>807.8</ele>
        <time>2025-01-12T11:34:50.598Z</time>
      </trkpt>
      <trkpt lat="43.66721" lon="6.19872">
        <ele>807.8</ele>
        <time>2025-01-12T11:34:50.598Z</time>
      </trkpt>
      <trkpt lat="43.66721" lon="6.19872">
        <ele>807.8</ele>
        <time>2025-01-12T11:34:50.598Z</time>
      </trkpt>
      <trkpt lat="43.66721" lon="6.19872">
        <ele>807.8</ele>
        <time>2025-01-12T11:34:50.598Z</time>
      </trkpt>
      <trkpt lat="43.66721" lon="6.19872">
        <ele>807.8</ele>
        <time>2025-01-12T11:34:50.598Z</time>
      </trkpt>
      <trkpt lat="43.66721" lon="6.19872">
        <ele>807.8</ele>
        <time>2025-01-12T11:34:50.598Z</time>
      </trkpt>
      <trkpt lat="43.66721" lon="6.19872">
        <ele>807.8</ele>
        <time>2025-01-12T11:34:50.598Z</time>
      </trkpt>
      <trkpt lat="43.66721" lon="6.19872">
        <ele>807.8</ele>
        <time>2025-01-12T11:34:50.598Z</time>
      </trkpt>
      <trkpt lat="43.66721" lon="6.19872">
        <ele>807.8</ele>
        <time>2025-01-12T11:34:50.598Z</time>
      </trkpt>
      <trkpt lat="43.66721" lon="6.19872">
        <ele>807.8</ele>
        <time>2025-01-12T11:34:50.598Z</time>
      </trkpt>
      <trkpt lat="43.66721" lon="6.19872">
        <ele>807.8</ele>
        <time>2025-01-12T11:34:50.598Z</time>
      </trkpt>
      <trkpt lat="43.66721" lon="6.19872">
        <ele>807.8</ele>
        <time>2025-01-12T11:34:50.598Z</time>
      </trkpt>
      <trkpt lat="43.66721" lon="6.19872">
        <ele>807.8</ele>
        <time>2025-01-12T11:34:50.598Z</time>
      </trkpt>
      <trkpt lat="43.66721" lon="6.19872">
        <ele>807.8</ele>
        <time>2025-01-12T11:34:50.598Z</time>
      </trkpt>
      <trkpt lat="43.66721" lon="6.19872">
        <ele>807.8</ele>
        <time>2025-01-12T11:34:50.598Z</time>
      </trkpt>
      <trkpt lat="43.66721" lon="6.19872">
        <ele>807.8</ele>
        <time>2025-01-12T11:34:50.598Z</time>
      </trkpt>
      <trkpt lat="43.66721" lon="6.19872">
        <ele>807.8</ele>
        <time>2025-01-12T11:34:50.598Z</time>
      </trkpt>
      <trkpt lat="43.66721" lon="6.19872">
        <ele>807.8</ele>
        <time>2025-01-12T11:34:50.598Z</time>
      </trkpt>
      <trkpt lat="43.66721" lon="6.19872">
        <ele>807.8</ele>
        <time>2025-01-12T11:34:50.598Z</time>
      </trkpt>
      <trkpt lat="43.66721" lon="6.19872">
        <ele>807.8</ele>
        <time>2025-01-12T11:34:50.598Z</time>
      </trkpt>
      <trkpt lat="43.66721" lon="6.19872">
        <ele>807.8</ele>
        <time>2025-01-12T11:34:50.598Z</time>
      </trkpt>
      <trkpt lat="43.66721" lon="6.19872">
        <ele>807.8</ele>
        <time>2025-01-12T11:34:50.598Z</time>
      </trkpt>
      <trkpt lat="43.66721" lon="6.19872">
        <ele>807.8</ele>
        <time>2025-01-12T11:34:50.598Z</time>
      </trkpt>
      <trkpt lat="43.66721" lon="6.19872">
        <ele>807.8</ele>
        <time>2025-01-12T11:34:50.598Z</time>
      </trkpt>
      <trkpt lat="43.66721" lon="6.19872">
        <ele>807.8</ele>
        <time>2025-01-12T11:34:50.598Z</time>
      </trkpt>
      <trkpt lat="43.66721" lon="6.19872">
        <ele>807.8</ele>
        <time>2025-01-12T11:34:50.598Z</time>
      </trkpt>
      <trkpt lat="43.66721" lon="6.19872">
        <ele>807.8</ele>
        <time>2025-01-12T11:34:50.598Z</time>
      </trkpt>
      <trkpt lat="43.66721" lon="6.19872">
        <ele>807.8</ele>
        <time>2025-01-12T11:34:50.598Z</time>
      </trkpt>
      <trkpt lat="43.66722" lon="6.19872">
        <ele>807.8</ele>
        <time>2025-01-12T11:34:51.842Z</time>
      </trkpt>
      <trkpt lat="43.66722" lon="6.19872">
        <ele>807.8</ele>
        <time>2025-01-12T11:34:51.842Z</time>
      </trkpt>
      <trkpt lat="43.66722" lon="6.19872">
        <ele>807.8</ele>
        <time>2025-01-12T11:34:51.842Z</time>
      </trkpt>
      <trkpt lat="43.66722" lon="6.19872">
        <ele>807.8</ele>
        <time>2025-01-12T11:34:51.842Z</time>
      </trkpt>
      <trkpt lat="43.66722" lon="6.19872">
        <ele>807.8</ele>
        <time>2025-01-12T11:34:51.842Z</time>
      </trkpt>
      <trkpt lat="43.66722" lon="6.19872">
        <ele>807.8</ele>
        <time>2025-01-12T11:34:51.842Z</time>
      </trkpt>
      <trkpt lat="43.66722" lon="6.19872">
        <ele>807.8</ele>
        <time>2025-01-12T11:34:51.842Z</time>
      </trkpt>
      <trkpt lat="43.66722" lon="6.19872">
        <ele>807.8</ele>
        <time>2025-01-12T11:34:51.842Z</time>
      </trkpt>
      <trkpt lat="43.66722" lon="6.19872">
        <ele>807.8</ele>
        <time>2025-01-12T11:34:51.842Z</time>
      </trkpt>
      <trkpt lat="43.66722" lon="6.19872">
        <ele>807.8</ele>
        <time>2025-01-12T11:34:51.842Z</time>
      </trkpt>
      <trkpt lat="43.66722" lon="6.19872">
        <ele>807.8</ele>
        <time>2025-01-12T11:34:51.842Z</time>
      </trkpt>
      <trkpt lat="43.66722" lon="6.19872">
        <ele>807.8</ele>
        <time>2025-01-12T11:34:51.842Z</time>
      </trkpt>
      <trkpt lat="43.66722" lon="6.19872">
        <ele>807.8</ele>
        <time>2025-01-12T11:34:51.842Z</time>
      </trkpt>
      <trkpt lat="43.66722" lon="6.19872">
        <ele>807.8</ele>
        <time>2025-01-12T11:34:51.842Z</time>
      </trkpt>
      <trkpt lat="43.66722" lon="6.19872">
        <ele>807.8</ele>
        <time>2025-01-12T11:34:51.842Z</time>
      </trkpt>
      <trkpt lat="43.66722" lon="6.19872">
        <ele>807.8</ele>
        <time>2025-01-12T11:34:51.842Z</time>
      </trkpt>
      <trkpt lat="43.66722" lon="6.19872">
        <ele>807.8</ele>
        <time>2025-01-12T11:34:51.842Z</time>
      </trkpt>
      <trkpt lat="43.66722" lon="6.19872">
        <ele>807.8</ele>
        <time>2025-01-12T11:34:51.842Z</time>
      </trkpt>
      <trkpt lat="43.66722" lon="6.19872">
        <ele>807.8</ele>
        <time>2025-01-12T11:34:51.842Z</time>
      </trkpt>
      <trkpt lat="43.66722" lon="6.19872">
        <ele>807.8</ele>
        <time>2025-01-12T11:34:51.842Z</time>
      </trkpt>
      <trkpt lat="43.66722" lon="6.19872">
        <ele>807.8</ele>
        <time>2025-01-12T11:34:51.842Z</time>
      </trkpt>
      <trkpt lat="43.66722" lon="6.19872">
        <ele>807.8</ele>
        <time>2025-01-12T11:34:51.842Z</time>
      </trkpt>
      <trkpt lat="43.66722" lon="6.19872">
        <ele>807.8</ele>
        <time>2025-01-12T11:34:51.842Z</time>
      </trkpt>
      <trkpt lat="43.66722" lon="6.19872">
        <ele>807.8</ele>
        <time>2025-01-12T11:34:51.842Z</time>
      </trkpt>
      <trkpt lat="43.66722" lon="6.19872">
        <ele>807.8</ele>
        <time>2025-01-12T11:34:51.842Z</time>
      </trkpt>
      <trkpt lat="43.66722" lon="6.19872">
        <ele>807.8</ele>
        <time>2025-01-12T11:34:51.842Z</time>
      </trkpt>
      <trkpt lat="43.66722" lon="6.19872">
        <ele>807.8</ele>
        <time>2025-01-12T11:34:51.842Z</time>
      </trkpt>
      <trkpt lat="43.66722" lon="6.19872">
        <ele>807.8</ele>
        <time>2025-01-12T11:34:51.842Z</time>
      </trkpt>
      <trkpt lat="43.66722" lon="6.19872">
        <ele>807.8</ele>
        <time>2025-01-12T11:34:51.842Z</time>
      </trkpt>
      <trkpt lat="43.66722" lon="6.19872">
        <ele>807.8</ele>
        <time>2025-01-12T11:34:51.842Z</time>
      </trkpt>
      <trkpt lat="43.66722" lon="6.19872">
        <ele>807.8</ele>
        <time>2025-01-12T11:34:51.842Z</time>
      </trkpt>
      <trkpt lat="43.66722" lon="6.19872">
        <ele>807.8</ele>
        <time>2025-01-12T11:34:51.842Z</time>
      </trkpt>
      <trkpt lat="43.66722" lon="6.19872">
        <ele>807.8</ele>
        <time>2025-01-12T11:34:51.842Z</time>
      </trkpt>
      <trkpt lat="43.66722" lon="6.19872">
        <ele>807.8</ele>
        <time>2025-01-12T11:34:51.842Z</time>
      </trkpt>
      <trkpt lat="43.66722" lon="6.19872">
        <ele>807.8</ele>
        <time>2025-01-12T11:34:51.842Z</time>
      </trkpt>
      <trkpt lat="43.66722" lon="6.19872">
        <ele>807.8</ele>
        <time>2025-01-12T11:34:51.842Z</time>
      </trkpt>
      <trkpt lat="43.66722" lon="6.19872">
        <ele>807.8</ele>
        <time>2025-01-12T11:34:51.842Z</time>
      </trkpt>
      <trkpt lat="43.66722" lon="6.19872">
        <ele>807.8</ele>
        <time>2025-01-12T11:34:51.842Z</time>
      </trkpt>
      <trkpt lat="43.66722" lon="6.19872">
        <ele>807.8</ele>
        <time>2025-01-12T11:34:51.842Z</time>
      </trkpt>
      <trkpt lat="43.66722" lon="6.19872">
        <ele>807.8</ele>
        <time>2025-01-12T11:34:51.842Z</time>
      </trkpt>
      <trkpt lat="43.66722" lon="6.19872">
        <ele>807.8</ele>
        <time>2025-01-12T11:34:51.842Z</time>
      </trkpt>
      <trkpt lat="43.66722" lon="6.19872">
        <ele>807.8</ele>
        <time>2025-01-12T11:34:51.842Z</time>
      </trkpt>
      <trkpt lat="43.66722" lon="6.19872">
        <ele>807.8</ele>
        <time>2025-01-12T11:34:51.842Z</time>
      </trkpt>
      <trkpt lat="43.66722" lon="6.19872">
        <ele>807.8</ele>
        <time>2025-01-12T11:34:51.842Z</time>
      </trkpt>
      <trkpt lat="43.66722" lon="6.19872">
        <ele>807.8</ele>
        <time>2025-01-12T11:34:51.842Z</time>
      </trkpt>
      <trkpt lat="43.66722" lon="6.19872">
        <ele>807.8</ele>
        <time>2025-01-12T11:34:51.842Z</time>
      </trkpt>
      <trkpt lat="43.66722" lon="6.19872">
        <ele>807.8</ele>
        <time>2025-01-12T11:34:51.842Z</time>
      </trkpt>
      <trkpt lat="43.66722" lon="6.19872">
        <ele>807.8</ele>
        <time>2025-01-12T11:34:51.842Z</time>
      </trkpt>
      <trkpt lat="43.66722" lon="6.19872">
        <ele>807.8</ele>
        <time>2025-01-12T11:34:51.842Z</time>
      </trkpt>
      <trkpt lat="43.66722" lon="6.19872">
        <ele>807.8</ele>
        <time>2025-01-12T11:34:51.842Z</time>
      </trkpt>
      <trkpt lat="43.66722" lon="6.19872">
        <ele>807.8</ele>
        <time>2025-01-12T11:34:51.842Z</time>
      </trkpt>
      <trkpt lat="43.66722" lon="6.19872">
        <ele>807.8</ele>
        <time>2025-01-12T11:34:51.842Z</time>
      </trkpt>
      <trkpt lat="43.66722" lon="6.19872">
        <ele>807.8</ele>
        <time>2025-01-12T11:34:51.842Z</time>
      </trkpt>
      <trkpt lat="43.66722" lon="6.19872">
        <ele>807.8</ele>
        <time>2025-01-12T11:34:51.842Z</time>
      </trkpt>
      <trkpt lat="43.66722" lon="6.19872">
        <ele>807.8</ele>
        <time>2025-01-12T11:34:51.842Z</time>
      </trkpt>
      <trkpt lat="43.66722" lon="6.19872">
        <ele>807.8</ele>
        <time>2025-01-12T11:34:51.842Z</time>
      </trkpt>
      <trkpt lat="43.66722" lon="6.19872">
        <ele>807.8</ele>
        <time>2025-01-12T11:34:51.842Z</time>
      </trkpt>
      <trkpt lat="43.66722" lon="6.19872">
        <ele>807.8</ele>
        <time>2025-01-12T11:34:51.842Z</time>
      </trkpt>
      <trkpt lat="43.66721" lon="6.19873">
        <ele>807.6</ele>
        <time>2025-01-12T11:34:53.186Z</time>
      </trkpt>
      <trkpt lat="43.66721" lon="6.19873">
        <ele>807.6</ele>
        <time>2025-01-12T11:34:53.186Z</time>
      </trkpt>
      <trkpt lat="43.66721" lon="6.19873">
        <ele>807.6</ele>
        <time>2025-01-12T11:34:53.186Z</time>
      </trkpt>
      <trkpt lat="43.6672" lon="6.19873">
        <ele>807.6</ele>
        <time>2025-01-12T11:34:54.430Z</time>
      </trkpt>
      <trkpt lat="43.6672" lon="6.19873">
        <ele>807.6</ele>
        <time>2025-01-12T11:34:54.430Z</time>
      </trkpt>
      <trkpt lat="43.6672" lon="6.19873">
        <ele>807.6</ele>
        <time>2025-01-12T11:34:54.430Z</time>
      </trkpt>
      <trkpt lat="43.6672" lon="6.19873">
        <ele>807.6</ele>
        <time>2025-01-12T11:34:54.430Z</time>
      </trkpt>
      <trkpt lat="43.6672" lon="6.19873">
        <ele>807.6</ele>
        <time>2025-01-12T11:34:54.430Z</time>
      </trkpt>
      <trkpt lat="43.6672" lon="6.19873">
        <ele>807.6</ele>
        <time>2025-01-12T11:34:54.430Z</time>
      </trkpt>
      <trkpt lat="43.6672" lon="6.19873">
        <ele>807.6</ele>
        <time>2025-01-12T11:34:54.430Z</time>
      </trkpt>
      <trkpt lat="43.6672" lon="6.19872">
        <ele>807.7</ele>
        <time>2025-01-12T11:34:55.863Z</time>
      </trkpt>
      <trkpt lat="43.6672" lon="6.19871">
        <ele>807.8</ele>
        <time>2025-01-12T11:34:57.295Z</time>
      </trkpt>
      <trkpt lat="43.6672" lon="6.19871">
        <ele>807.8</ele>
        <time>2025-01-12T11:34:57.295Z</time>
      </trkpt>
      <trkpt lat="43.6672" lon="6.19871">
        <ele>807.8</ele>
        <time>2025-01-12T11:34:57.295Z</time>
      </trkpt>
      <trkpt lat="43.6672" lon="6.1987">
        <ele>807.9</ele>
        <time>2025-01-12T11:34:58.727Z</time>
      </trkpt>
      <trkpt lat="43.6672" lon="6.19869">
        <ele>808</ele>
        <time>2025-01-12T11:35:00.160Z</time>
      </trkpt>
      <trkpt lat="43.6672" lon="6.19869">
        <ele>808</ele>
        <time>2025-01-12T11:35:00.160Z</time>
      </trkpt>
      <trkpt lat="43.6672" lon="6.19869">
        <ele>808</ele>
        <time>2025-01-12T11:35:00.160Z</time>
      </trkpt>
      <trkpt lat="43.66719" lon="6.19868">
        <ele>808.1</ele>
        <time>2025-01-12T11:35:02.157Z</time>
      </trkpt>
      <trkpt lat="43.66718" lon="6.19868">
        <ele>808</ele>
        <time>2025-01-12T11:35:03.245Z</time>
      </trkpt>
      <trkpt lat="43.66717" lon="6.19867">
        <ele>808</ele>
        <time>2025-01-12T11:35:04.781Z</time>
      </trkpt>
      <trkpt lat="43.66717" lon="6.19867">
        <ele>808</ele>
        <time>2025-01-12T11:35:04.781Z</time>
      </trkpt>
      <trkpt lat="43.66717" lon="6.19867">
        <ele>808</ele>
        <time>2025-01-12T11:35:04.781Z</time>
      </trkpt>
      <trkpt lat="43.66716" lon="6.19867">
        <ele>808</ele>
        <time>2025-01-12T11:35:06.026Z</time>
      </trkpt>
      <trkpt lat="43.66715" lon="6.19866">
        <ele>808</ele>
        <time>2025-01-12T11:35:07.562Z</time>
      </trkpt>
      <trkpt lat="43.66714" lon="6.19865">
        <ele>808</ele>
        <time>2025-01-12T11:35:09.098Z</time>
      </trkpt>
      <trkpt lat="43.66712" lon="6.19863">
        <ele>808.1</ele>
        <time>2025-01-12T11:35:12.588Z</time>
      </trkpt>
      <trkpt lat="43.66712" lon="6.19863">
        <ele>808.1</ele>
        <time>2025-01-12T11:35:12.588Z</time>
      </trkpt>
      <trkpt lat="43.66712" lon="6.19861">
        <ele>808.3</ele>
        <time>2025-01-12T11:35:15.453Z</time>
      </trkpt>
      <trkpt lat="43.66711" lon="6.19861">
        <ele>808.2</ele>
        <time>2025-01-12T11:35:16.542Z</time>
      </trkpt>
      <trkpt lat="43.6671" lon="6.1986">
        <ele>808</ele>
        <time>2025-01-12T11:35:17.886Z</time>
      </trkpt>
      <trkpt lat="43.66709" lon="6.19859">
        <ele>807.9</ele>
        <time>2025-01-12T11:35:19.230Z</time>
      </trkpt>
      <trkpt lat="43.66708" lon="6.19858">
        <ele>807.7</ele>
        <time>2025-01-12T11:35:20.574Z</time>
      </trkpt>
      <trkpt lat="43.66707" lon="6.19858">
        <ele>807.6</ele>
        <time>2025-01-12T11:35:21.663Z</time>
      </trkpt>
      <trkpt lat="43.66706" lon="6.19858">
        <ele>807.5</ele>
        <time>2025-01-12T11:35:22.751Z</time>
      </trkpt>
      <trkpt lat="43.66705" lon="6.19858">
        <ele>807.5</ele>
        <time>2025-01-12T11:35:23.996Z</time>
      </trkpt>
      <trkpt lat="43.66704" lon="6.19858">
        <ele>807.4</ele>
        <time>2025-01-12T11:35:25.085Z</time>
      </trkpt>
      <trkpt lat="43.66704" lon="6.19857">
        <ele>807.3</ele>
        <time>2025-01-12T11:35:25.872Z</time>
      </trkpt>
      <trkpt lat="43.66703" lon="6.19856">
        <ele>807.1</ele>
        <time>2025-01-12T11:35:27.216Z</time>
      </trkpt>
      <trkpt lat="43.66702" lon="6.19856">
        <ele>807</ele>
        <time>2025-01-12T11:35:28.305Z</time>
      </trkpt>
      <trkpt lat="43.66702" lon="6.19855">
        <ele>806.9</ele>
        <time>2025-01-12T11:35:29.093Z</time>
      </trkpt>
      <trkpt lat="43.66702" lon="6.19855">
        <ele>806.9</ele>
        <time>2025-01-12T11:35:29.093Z</time>
      </trkpt>
      <trkpt lat="43.66702" lon="6.19855">
        <ele>806.9</ele>
        <time>2025-01-12T11:35:29.093Z</time>
      </trkpt>
      <trkpt lat="43.66702" lon="6.19855">
        <ele>806.9</ele>
        <time>2025-01-12T11:35:29.093Z</time>
      </trkpt>
      <trkpt lat="43.66701" lon="6.19855">
        <ele>806.9</ele>
        <time>2025-01-12T11:35:30.337Z</time>
      </trkpt>
      <trkpt lat="43.66701" lon="6.19855">
        <ele>806.9</ele>
        <time>2025-01-12T11:35:30.337Z</time>
      </trkpt>
      <trkpt lat="43.66701" lon="6.19855">
        <ele>806.9</ele>
        <time>2025-01-12T11:35:30.337Z</time>
      </trkpt>
      <trkpt lat="43.66701" lon="6.19855">
        <ele>806.9</ele>
        <time>2025-01-12T11:35:30.337Z</time>
      </trkpt>
      <trkpt lat="43.66701" lon="6.19855">
        <ele>806.9</ele>
        <time>2025-01-12T11:35:30.337Z</time>
      </trkpt>
      <trkpt lat="43.66701" lon="6.19855">
        <ele>806.9</ele>
        <time>2025-01-12T11:35:30.337Z</time>
      </trkpt>
      <trkpt lat="43.667" lon="6.19855">
        <ele>806.8</ele>
        <time>2025-01-12T11:35:31.426Z</time>
      </trkpt>
      <trkpt lat="43.667" lon="6.19855">
        <ele>806.8</ele>
        <time>2025-01-12T11:35:31.426Z</time>
      </trkpt>
      <trkpt lat="43.667" lon="6.19855">
        <ele>806.8</ele>
        <time>2025-01-12T11:35:31.426Z</time>
      </trkpt>
      <trkpt lat="43.667" lon="6.19854">
        <ele>806.7</ele>
        <time>2025-01-12T11:35:32.214Z</time>
      </trkpt>
      <trkpt lat="43.667" lon="6.19854">
        <ele>806.7</ele>
        <time>2025-01-12T11:35:32.214Z</time>
      </trkpt>
      <trkpt lat="43.667" lon="6.19854">
        <ele>806.7</ele>
        <time>2025-01-12T11:35:32.214Z</time>
      </trkpt>
      <trkpt lat="43.66699" lon="6.19854">
        <ele>806.6</ele>
        <time>2025-01-12T11:35:33.303Z</time>
      </trkpt>
      <trkpt lat="43.66699" lon="6.19854">
        <ele>806.6</ele>
        <time>2025-01-12T11:35:33.303Z</time>
      </trkpt>
      <trkpt lat="43.66698" lon="6.19853">
        <ele>806.4</ele>
        <time>2025-01-12T11:35:34.647Z</time>
      </trkpt>
      <trkpt lat="43.66697" lon="6.19852">
        <ele>806.2</ele>
        <time>2025-01-12T11:35:35.991Z</time>
      </trkpt>
      <trkpt lat="43.66697" lon="6.19851">
        <ele>806.1</ele>
        <time>2025-01-12T11:35:36.778Z</time>
      </trkpt>
      <trkpt lat="43.66696" lon="6.1985">
        <ele>805.9</ele>
        <time>2025-01-12T11:35:38.122Z</time>
      </trkpt>
      <trkpt lat="43.66696" lon="6.1985">
        <ele>805.9</ele>
        <time>2025-01-12T11:35:38.122Z</time>
      </trkpt>
      <trkpt lat="43.66695" lon="6.1985">
        <ele>805.8</ele>
        <time>2025-01-12T11:35:39.211Z</time>
      </trkpt>
      <trkpt lat="43.66695" lon="6.1985">
        <ele>805.8</ele>
        <time>2025-01-12T11:35:39.211Z</time>
      </trkpt>
      <trkpt lat="43.66695" lon="6.1985">
        <ele>805.8</ele>
        <time>2025-01-12T11:35:39.211Z</time>
      </trkpt>
      <trkpt lat="43.66694" lon="6.1985">
        <ele>805.7</ele>
        <time>2025-01-12T11:35:40.300Z</time>
      </trkpt>
      <trkpt lat="43.66693" lon="6.1985">
        <ele>805.5</ele>
        <time>2025-01-12T11:35:41.389Z</time>
      </trkpt>
      <trkpt lat="43.66692" lon="6.19849">
        <ele>805.2</ele>
        <time>2025-01-12T11:35:42.733Z</time>
      </trkpt>
      <trkpt lat="43.66688" lon="6.19842">
        <ele>803.6</ele>
        <time>2025-01-12T11:35:49.759Z</time>
      </trkpt>
      <trkpt lat="43.66685" lon="6.19842">
        <ele>803</ele>
        <time>2025-01-12T11:35:53.026Z</time>
      </trkpt>
      <trkpt lat="43.66687" lon="6.19845">
        <ele>803.7</ele>
        <time>2025-01-12T11:36:01.589Z</time>
      </trkpt>
      <trkpt lat="43.66691" lon="6.19849">
        <ele>804.9</ele>
        <time>2025-01-12T11:36:16.259Z</time>
      </trkpt>
      <trkpt lat="43.66695" lon="6.19852">
        <ele>806.1</ele>
        <time>2025-01-12T11:36:30.974Z</time>
      </trkpt>
      <trkpt lat="43.66699" lon="6.19856">
        <ele>806.8</ele>
        <time>2025-01-12T11:36:40.877Z</time>
      </trkpt>
      <trkpt lat="43.66704" lon="6.19859">
        <ele>807.5</ele>
        <time>2025-01-12T11:36:50.631Z</time>
      </trkpt>
      <trkpt lat="43.66708" lon="6.19863">
        <ele>807.8</ele>
        <time>2025-01-12T11:36:58.618Z</time>
      </trkpt>
      <trkpt lat="43.66712" lon="6.19866">
        <ele>807.8</ele>
        <time>2025-01-12T11:37:04.282Z</time>
      </trkpt>
      <trkpt lat="43.66716" lon="6.1987">
        <ele>807.7</ele>
        <time>2025-01-12T11:37:10.058Z</time>
      </trkpt>
      <trkpt lat="43.6672" lon="6.19873">
        <ele>807.6</ele>
        <time>2025-01-12T11:37:15.356Z</time>
      </trkpt>
      <trkpt lat="43.6672" lon="6.19872">
        <ele>807.7</ele>
        <time>2025-01-12T11:37:16.788Z</time>
      </trkpt>
      <trkpt lat="43.6672" lon="6.19872">
        <ele>807.7</ele>
        <time>2025-01-12T11:37:16.788Z</time>
      </trkpt>
      <trkpt lat="43.66723" lon="6.19871">
        <ele>807.8</ele>
        <time>2025-01-12T11:37:21.040Z</time>
      </trkpt>
      <trkpt lat="43.66724" lon="6.1987">
        <ele>807.8</ele>
        <time>2025-01-12T11:37:22.576Z</time>
      </trkpt>
      <trkpt lat="43.66724" lon="6.19869">
        <ele>807.9</ele>
        <time>2025-01-12T11:37:24.008Z</time>
      </trkpt>
      <trkpt lat="43.66725" lon="6.19868">
        <ele>807.9</ele>
        <time>2025-01-12T11:37:25.544Z</time>
      </trkpt>
      <trkpt lat="43.66725" lon="6.19867">
        <ele>808</ele>
        <time>2025-01-12T11:37:26.976Z</time>
      </trkpt>
      <trkpt lat="43.6673" lon="6.19868">
        <ele>807.3</ele>
        <time>2025-01-12T11:37:32.478Z</time>
      </trkpt>
      <trkpt lat="43.66734" lon="6.19868">
        <ele>806.8</ele>
        <time>2025-01-12T11:37:36.833Z</time>
      </trkpt>
      <trkpt lat="43.66734" lon="6.19872">
        <ele>806.5</ele>
        <time>2025-01-12T11:37:39.984Z</time>
      </trkpt>
      <trkpt lat="43.66738" lon="6.19873">
        <ele>805.9</ele>
        <time>2025-01-12T11:37:44.410Z</time>
      </trkpt>
      <trkpt lat="43.66741" lon="6.19875">
        <ele>805.5</ele>
        <time>2025-01-12T11:37:48.037Z</time>
      </trkpt>
      <trkpt lat="43.66744" lon="6.19878">
        <ele>805</ele>
        <time>2025-01-12T11:37:52.068Z</time>
      </trkpt>
      <trkpt lat="43.66747" lon="6.19881">
        <ele>804.6</ele>
        <time>2025-01-12T11:37:56.100Z</time>
      </trkpt>
      <trkpt lat="43.66753" lon="6.19885">
        <ele>804</ele>
        <time>2025-01-12T11:38:03.353Z</time>
      </trkpt>
      <trkpt lat="43.66757" lon="6.19886">
        <ele>803.8</ele>
        <time>2025-01-12T11:38:07.780Z</time>
      </trkpt>
      <trkpt lat="43.66762" lon="6.19887">
        <ele>803.5</ele>
        <time>2025-01-12T11:38:13.362Z</time>
      </trkpt>
      <trkpt lat="43.66766" lon="6.19888">
        <ele>803.4</ele>
        <time>2025-01-12T11:38:17.788Z</time>
      </trkpt>
      <trkpt lat="43.66772" lon="6.19889">
        <ele>803.2</ele>
        <time>2025-01-12T11:38:24.594Z</time>
      </trkpt>
      <trkpt lat="43.66777" lon="6.1989">
        <ele>802.8</ele>
        <time>2025-01-12T11:38:30.095Z</time>
      </trkpt>
      <trkpt lat="43.66781" lon="6.1989">
        <ele>802.5</ele>
        <time>2025-01-12T11:38:34.451Z</time>
      </trkpt>
      <trkpt lat="43.66785" lon="6.19891">
        <ele>802.1</ele>
        <time>2025-01-12T11:38:38.877Z</time>
      </trkpt>
      <trkpt lat="43.6679" lon="6.19893">
        <ele>801.4</ele>
        <time>2025-01-12T11:38:44.545Z</time>
      </trkpt>
      <trkpt lat="43.66795" lon="6.19895">
        <ele>800.7</ele>
        <time>2025-01-12T11:38:50.212Z</time>
      </trkpt>
      <trkpt lat="43.668" lon="6.19897">
        <ele>800.1</ele>
        <time>2025-01-12T11:38:55.880Z</time>
      </trkpt>
      <trkpt lat="43.66805" lon="6.19899">
        <ele>799.6</ele>
        <time>2025-01-12T11:39:01.548Z</time>
      </trkpt>
      <trkpt lat="43.66809" lon="6.199">
        <ele>799</ele>
        <time>2025-01-12T11:39:05.974Z</time>
      </trkpt>
      <trkpt lat="43.66814" lon="6.19902">
        <ele>798.2</ele>
        <time>2025-01-12T11:39:11.642Z</time>
      </trkpt>
      <trkpt lat="43.66819" lon="6.19904">
        <ele>797.5</ele>
        <time>2025-01-12T11:39:17.310Z</time>
      </trkpt>
      <trkpt lat="43.66824" lon="6.19906">
        <ele>796.9</ele>
        <time>2025-01-12T11:39:22.977Z</time>
      </trkpt>
      <trkpt lat="43.66829" lon="6.19907">
        <ele>796.4</ele>
        <time>2025-01-12T11:39:28.478Z</time>
      </trkpt>
      <trkpt lat="43.66834" lon="6.19908">
        <ele>796.1</ele>
        <time>2025-01-12T11:39:33.980Z</time>
      </trkpt>
      <trkpt lat="43.66838" lon="6.19909">
        <ele>796.4</ele>
        <time>2025-01-12T11:39:40.962Z</time>
      </trkpt>
      <trkpt lat="43.66845" lon="6.19911">
        <ele>797.1</ele>
        <time>2025-01-12T11:39:52.643Z</time>
      </trkpt>
      <trkpt lat="43.66851" lon="6.19912">
        <ele>797.7</ele>
        <time>2025-01-12T11:40:03.680Z</time>
      </trkpt>
      <trkpt lat="43.66851" lon="6.19918">
        <ele>797.7</ele>
        <time>2025-01-12T11:40:09.081Z</time>
      </trkpt>
      <trkpt lat="43.66854" lon="6.19928">
        <ele>796.8</ele>
        <time>2025-01-12T11:40:17.608Z</time>
      </trkpt>
      <trkpt lat="43.66855" lon="6.19931">
        <ele>796.6</ele>
        <time>2025-01-12T11:40:20.210Z</time>
      </trkpt>
      <trkpt lat="43.66858" lon="6.1994">
        <ele>796.4</ele>
        <time>2025-01-12T11:40:28.758Z</time>
      </trkpt>
      <trkpt lat="43.66861" lon="6.19948">
        <ele>796.4</ele>
        <time>2025-01-12T11:40:36.499Z</time>
      </trkpt>
      <trkpt lat="43.66864" lon="6.19958">
        <ele>796.1</ele>
        <time>2025-01-12T11:40:45.519Z</time>
      </trkpt>
      <trkpt lat="43.66867" lon="6.19967">
        <ele>796</ele>
        <time>2025-01-12T11:40:53.717Z</time>
      </trkpt>
      <trkpt lat="43.66869" lon="6.19978">
        <ele>795.2</ele>
        <time>2025-01-12T11:41:02.650Z</time>
      </trkpt>
      <trkpt lat="43.66871" lon="6.19988">
        <ele>794.4</ele>
        <time>2025-01-12T11:41:10.822Z</time>
      </trkpt>
      <trkpt lat="43.66874" lon="6.19999">
        <ele>793.8</ele>
        <time>2025-01-12T11:41:20.082Z</time>
      </trkpt>
      <trkpt lat="43.66878" lon="6.20009">
        <ele>793.3</ele>
        <time>2025-01-12T11:41:29.082Z</time>
      </trkpt>
      <trkpt lat="43.66881" lon="6.20018">
        <ele>792.7</ele>
        <time>2025-01-12T11:41:36.887Z</time>
      </trkpt>
      <trkpt lat="43.66885" lon="6.20029">
        <ele>792.2</ele>
        <time>2025-01-12T11:41:46.585Z</time>
      </trkpt>
      <trkpt lat="43.66888" lon="6.20039">
        <ele>791.6</ele>
        <time>2025-01-12T11:41:55.111Z</time>
      </trkpt>
      <trkpt lat="43.66892" lon="6.2005">
        <ele>791.3</ele>
        <time>2025-01-12T11:42:05.124Z</time>
      </trkpt>
      <trkpt lat="43.66896" lon="6.20057">
        <ele>791.5</ele>
        <time>2025-01-12T11:42:13.154Z</time>
      </trkpt>
      <trkpt lat="43.66899" lon="6.20064">
        <ele>791.1</ele>
        <time>2025-01-12T11:42:19.765Z</time>
      </trkpt>
      <trkpt lat="43.66902" lon="6.20069">
        <ele>791.1</ele>
        <time>2025-01-12T11:42:25.612Z</time>
      </trkpt>
      <trkpt lat="43.66905" lon="6.20074">
        <ele>791</ele>
        <time>2025-01-12T11:42:31.094Z</time>
      </trkpt>
      <trkpt lat="43.66909" lon="6.2008">
        <ele>791</ele>
        <time>2025-01-12T11:42:38.439Z</time>
      </trkpt>
      <trkpt lat="43.66913" lon="6.20086">
        <ele>790.9</ele>
        <time>2025-01-12T11:42:45.414Z</time>
      </trkpt>
      <trkpt lat="43.66917" lon="6.2009">
        <ele>791.2</ele>
        <time>2025-01-12T11:42:51.958Z</time>
      </trkpt>
      <trkpt lat="43.6692" lon="6.20094">
        <ele>791.1</ele>
        <time>2025-01-12T11:42:57.549Z</time>
      </trkpt>
      <trkpt lat="43.66925" lon="6.20099">
        <ele>791.4</ele>
        <time>2025-01-12T11:43:05.625Z</time>
      </trkpt>
      <trkpt lat="43.66929" lon="6.20104">
        <ele>791.4</ele>
        <time>2025-01-12T11:43:13.168Z</time>
      </trkpt>
      <trkpt lat="43.66933" lon="6.20108">
        <ele>791.7</ele>
        <time>2025-01-12T11:43:21.155Z</time>
      </trkpt>
      <trkpt lat="43.66937" lon="6.20112">
        <ele>792.1</ele>
        <time>2025-01-12T11:43:29.142Z</time>
      </trkpt>
      <trkpt lat="43.66941" lon="6.20115">
        <ele>792.9</ele>
        <time>2025-01-12T11:43:37.946Z</time>
      </trkpt>
      <trkpt lat="43.66945" lon="6.20119">
        <ele>793.5</ele>
        <time>2025-01-12T11:43:47.849Z</time>
      </trkpt>
      <trkpt lat="43.66949" lon="6.20124">
        <ele>794</ele>
        <time>2025-01-12T11:43:56.931Z</time>
      </trkpt>
      <trkpt lat="43.66953" lon="6.20129">
        <ele>794.4</ele>
        <time>2025-01-12T11:44:05.456Z</time>
      </trkpt>
      <trkpt lat="43.66957" lon="6.20134">
        <ele>794.7</ele>
        <time>2025-01-12T11:44:13.469Z</time>
      </trkpt>
      <trkpt lat="43.66961" lon="6.20139">
        <ele>794.9</ele>
        <time>2025-01-12T11:44:21.011Z</time>
      </trkpt>
      <trkpt lat="43.66967" lon="6.20147">
        <ele>795.4</ele>
        <time>2025-01-12T11:44:34.091Z</time>
      </trkpt>
      <trkpt lat="43.66973" lon="6.20154">
        <ele>796.1</ele>
        <time>2025-01-12T11:44:46.597Z</time>
      </trkpt>
      <trkpt lat="43.66978" lon="6.20164">
        <ele>796.7</ele>
        <time>2025-01-12T11:45:00.222Z</time>
      </trkpt>
      <trkpt lat="43.66982" lon="6.20173">
        <ele>797.7</ele>
        <time>2025-01-12T11:45:14.951Z</time>
      </trkpt>
      <trkpt lat="43.66984" lon="6.2018">
        <ele>798.2</ele>
        <time>2025-01-12T11:45:23.027Z</time>
      </trkpt>
      <trkpt lat="43.66985" lon="6.20186">
        <ele>798.2</ele>
        <time>2025-01-12T11:45:29.416Z</time>
      </trkpt>
      <trkpt lat="43.66987" lon="6.20193">
        <ele>798.6</ele>
        <time>2025-01-12T11:45:38.001Z</time>
      </trkpt>
      <trkpt lat="43.66989" lon="6.202">
        <ele>798.9</ele>
        <time>2025-01-12T11:45:46.076Z</time>
      </trkpt>
      <trkpt lat="43.66992" lon="6.20207">
        <ele>799.6</ele>
        <time>2025-01-12T11:45:57.632Z</time>
      </trkpt>
      <trkpt lat="43.66995" lon="6.20213">
        <ele>800.5</ele>
        <time>2025-01-12T11:46:08.607Z</time>
      </trkpt>
      <trkpt lat="43.66999" lon="6.2022">
        <ele>801.7</ele>
        <time>2025-01-12T11:46:22.198Z</time>
      </trkpt>
      <trkpt lat="43.67002" lon="6.20227">
        <ele>802.1</ele>
        <time>2025-01-12T11:46:32.433Z</time>
      </trkpt>
      <trkpt lat="43.67005" lon="6.20233">
        <ele>802.6</ele>
        <time>2025-01-12T11:46:41.997Z</time>
      </trkpt>
      <trkpt lat="43.67008" lon="6.20238">
        <ele>803.2</ele>
        <time>2025-01-12T11:46:50.298Z</time>
      </trkpt>
      <trkpt lat="43.67011" lon="6.20243">
        <ele>803.8</ele>
        <time>2025-01-12T11:46:59.252Z</time>
      </trkpt>
      <trkpt lat="43.67014" lon="6.20248">
        <ele>804.4</ele>
        <time>2025-01-12T11:47:08.207Z</time>
      </trkpt>
      <trkpt lat="43.67017" lon="6.20253">
        <ele>805.1</ele>
        <time>2025-01-12T11:47:17.885Z</time>
      </trkpt>
      <trkpt lat="43.6702" lon="6.20258">
        <ele>805.8</ele>
        <time>2025-01-12T11:47:27.564Z</time>
      </trkpt>
      <trkpt lat="43.67023" lon="6.20264">
        <ele>806.5</ele>
        <time>2025-01-12T11:47:37.128Z</time>
      </trkpt>
      <trkpt lat="43.67026" lon="6.20269">
        <ele>807.3</ele>
        <time>2025-01-12T11:47:46.807Z</time>
      </trkpt>
      <trkpt lat="43.67028" lon="6.20275">
        <ele>807.5</ele>
        <time>2025-01-12T11:47:55.843Z</time>
      </trkpt>
      <trkpt lat="43.67031" lon="6.2028">
        <ele>807.9</ele>
        <time>2025-01-12T11:48:02.533Z</time>
      </trkpt>
      <trkpt lat="43.67037" lon="6.20288">
        <ele>808.4</ele>
        <time>2025-01-12T11:48:15.099Z</time>
      </trkpt>
      <trkpt lat="43.67041" lon="6.20292">
        <ele>808.9</ele>
        <time>2025-01-12T11:48:23.665Z</time>
      </trkpt>
      <trkpt lat="43.67045" lon="6.20296">
        <ele>809.3</ele>
        <time>2025-01-12T11:48:31.652Z</time>
      </trkpt>
      <trkpt lat="43.6705" lon="6.20299">
        <ele>810.2</ele>
        <time>2025-01-12T11:48:43.577Z</time>
      </trkpt>
      <trkpt lat="43.67054" lon="6.20301">
        <ele>810.9</ele>
        <time>2025-01-12T11:48:52.864Z</time>
      </trkpt>
      <trkpt lat="43.67059" lon="6.20303">
        <ele>811.6</ele>
        <time>2025-01-12T11:49:02.351Z</time>
      </trkpt>
      <trkpt lat="43.67063" lon="6.20305">
        <ele>811.8</ele>
        <time>2025-01-12T11:49:08.993Z</time>
      </trkpt>
      <trkpt lat="43.67069" lon="6.20308">
        <ele>812.2</ele>
        <time>2025-01-12T11:49:18.698Z</time>
      </trkpt>
      <trkpt lat="43.67074" lon="6.2031">
        <ele>812.7</ele>
        <time>2025-01-12T11:49:27.567Z</time>
      </trkpt>
      <trkpt lat="43.67078" lon="6.20314">
        <ele>812.4</ele>
        <time>2025-01-12T11:49:33.007Z</time>
      </trkpt>
      <trkpt lat="43.67082" lon="6.20317">
        <ele>812.4</ele>
        <time>2025-01-12T11:49:38.304Z</time>
      </trkpt>
      <trkpt lat="43.67087" lon="6.20323">
        <ele>812</ele>
        <time>2025-01-12T11:49:45.514Z</time>
      </trkpt>
      <trkpt lat="43.67091" lon="6.20329">
        <ele>811.5</ele>
        <time>2025-01-12T11:49:51.940Z</time>
      </trkpt>
      <trkpt lat="43.67098" lon="6.20335">
        <ele>812.3</ele>
        <time>2025-01-12T11:50:06.025Z</time>
      </trkpt>
      <trkpt lat="43.67104" lon="6.2034">
        <ele>814.1</ele>
        <time>2025-01-12T11:50:28.057Z</time>
      </trkpt>
      <trkpt lat="43.67107" lon="6.20344">
        <ele>814.8</ele>
        <time>2025-01-12T11:50:37.274Z</time>
      </trkpt>
      <trkpt lat="43.67108" lon="6.20348">
        <ele>814.9</ele>
        <time>2025-01-12T11:50:41.495Z</time>
      </trkpt>
      <trkpt lat="43.67108" lon="6.20351">
        <ele>814.9</ele>
        <time>2025-01-12T11:50:44.196Z</time>
      </trkpt>
      <trkpt lat="43.67108" lon="6.20353">
        <ele>814.9</ele>
        <time>2025-01-12T11:50:45.996Z</time>
      </trkpt>
      <trkpt lat="43.67108" lon="6.20354">
        <ele>814.9</ele>
        <time>2025-01-12T11:50:46.896Z</time>
      </trkpt>
      <trkpt lat="43.67107" lon="6.20357">
        <ele>814.7</ele>
        <time>2025-01-12T11:50:49.498Z</time>
      </trkpt>
      <trkpt lat="43.67107" lon="6.20358">
        <ele>814.7</ele>
        <time>2025-01-12T11:50:50.398Z</time>
      </trkpt>
      <trkpt lat="43.67105" lon="6.20362">
        <ele>814.8</ele>
        <time>2025-01-12T11:50:55.183Z</time>
      </trkpt>
      <trkpt lat="43.67102" lon="6.20367">
        <ele>816.1</ele>
        <time>2025-01-12T11:51:11.215Z</time>
      </trkpt>
      <trkpt lat="43.67099" lon="6.20369">
        <ele>816.5</ele>
        <time>2025-01-12T11:51:17.391Z</time>
      </trkpt>
      <trkpt lat="43.67092" lon="6.20373">
        <ele>817.3</ele>
        <time>2025-01-12T11:51:30.134Z</time>
      </trkpt>
      <trkpt lat="43.67084" lon="6.20376">
        <ele>817.9</ele>
        <time>2025-01-12T11:51:43.703Z</time>
      </trkpt>
      <trkpt lat="43.6708" lon="6.20378">
        <ele>818.2</ele>
        <time>2025-01-12T11:51:49.847Z</time>
      </trkpt>
      <trkpt lat="43.67075" lon="6.2038">
        <ele>818.5</ele>
        <time>2025-01-12T11:51:57.633Z</time>
      </trkpt>
      <trkpt lat="43.67071" lon="6.20381">
        <ele>818.6</ele>
        <time>2025-01-12T11:52:03.547Z</time>
      </trkpt>
      <trkpt lat="43.67066" lon="6.20383">
        <ele>818.8</ele>
        <time>2025-01-12T11:52:10.858Z</time>
      </trkpt>
      <trkpt lat="43.67061" lon="6.20386">
        <ele>819.5</ele>
        <time>2025-01-12T11:52:21.273Z</time>
      </trkpt>
      <trkpt lat="43.67056" lon="6.20389">
        <ele>820.1</ele>
        <time>2025-01-12T11:52:31.027Z</time>
      </trkpt>
      <trkpt lat="43.67051" lon="6.20392">
        <ele>820.8</ele>
        <time>2025-01-12T11:52:41.441Z</time>
      </trkpt>
      <trkpt lat="43.67046" lon="6.20395">
        <ele>821.5</ele>
        <time>2025-01-12T11:52:51.856Z</time>
      </trkpt>
      <trkpt lat="43.6704" lon="6.204">
        <ele>822.6</ele>
        <time>2025-01-12T11:53:05.244Z</time>
      </trkpt>
      <trkpt lat="43.67033" lon="6.20404">
        <ele>823.2</ele>
        <time>2025-01-12T11:53:18.587Z</time>
      </trkpt>
      <trkpt lat="43.6703" lon="6.20406">
        <ele>823.5</ele>
        <time>2025-01-12T11:53:24.146Z</time>
      </trkpt>
      <trkpt lat="43.67028" lon="6.2041">
        <ele>824.3</ele>
        <time>2025-01-12T11:53:33.957Z</time>
      </trkpt>
      <trkpt lat="43.67025" lon="6.20418">
        <ele>825.1</ele>
        <time>2025-01-12T11:53:46.159Z</time>
      </trkpt>
      <trkpt lat="43.67024" lon="6.20424">
        <ele>824.7</ele>
        <time>2025-01-12T11:53:51.009Z</time>
      </trkpt>
      <trkpt lat="43.67025" lon="6.20432">
        <ele>825</ele>
        <time>2025-01-12T11:53:59.605Z</time>
      </trkpt>
      <trkpt lat="43.67025" lon="6.2044">
        <ele>825</ele>
        <time>2025-01-12T11:54:06.806Z</time>
      </trkpt>
      <trkpt lat="43.67025" lon="6.20451">
        <ele>825.3</ele>
        <time>2025-01-12T11:54:17.957Z</time>
      </trkpt>
      <trkpt lat="43.67025" lon="6.20458">
        <ele>825.7</ele>
        <time>2025-01-12T11:54:26.093Z</time>
      </trkpt>
      <trkpt lat="43.67025" lon="6.20465">
        <ele>826</ele>
        <time>2025-01-12T11:54:33.707Z</time>
      </trkpt>
      <trkpt lat="43.67024" lon="6.2047">
        <ele>826.1</ele>
        <time>2025-01-12T11:54:38.783Z</time>
      </trkpt>
      <trkpt lat="43.67022" lon="6.20475">
        <ele>826.2</ele>
        <time>2025-01-12T11:54:44.330Z</time>
      </trkpt>
      <trkpt lat="43.6702" lon="6.2048">
        <ele>826.7</ele>
        <time>2025-01-12T11:54:52.018Z</time>
      </trkpt>
      <trkpt lat="43.67016" lon="6.20485">
        <ele>826.9</ele>
        <time>2025-01-12T11:54:59.560Z</time>
      </trkpt>
      <trkpt lat="43.67013" lon="6.20487">
        <ele>826.8</ele>
        <time>2025-01-12T11:55:03.346Z</time>
      </trkpt>
      <trkpt lat="43.67008" lon="6.20491">
        <ele>826.9</ele>
        <time>2025-01-12T11:55:10.932Z</time>
      </trkpt>
      <trkpt lat="43.67003" lon="6.20492">
        <ele>826.4</ele>
        <time>2025-01-12T11:55:16.433Z</time>
      </trkpt>
      <trkpt lat="43.66997" lon="6.20493">
        <ele>825.7</ele>
        <time>2025-01-12T11:55:23.014Z</time>
      </trkpt>
      <trkpt lat="43.66993" lon="6.20495">
        <ele>825.5</ele>
        <time>2025-01-12T11:55:27.646Z</time>
      </trkpt>
      <trkpt lat="43.6699" lon="6.20496">
        <ele>825.2</ele>
        <time>2025-01-12T11:55:31.006Z</time>
      </trkpt>
      <trkpt lat="43.66988" lon="6.205">
        <ele>825.8</ele>
        <time>2025-01-12T11:55:38.862Z</time>
      </trkpt>
      <trkpt lat="43.66985" lon="6.20504">
        <ele>825.6</ele>
        <time>2025-01-12T11:55:43.400Z</time>
      </trkpt>
      <trkpt lat="43.66984" lon="6.20511">
        <ele>825.9</ele>
        <time>2025-01-12T11:55:51.133Z</time>
      </trkpt>
      <trkpt lat="43.66984" lon="6.20519">
        <ele>826.5</ele>
        <time>2025-01-12T11:56:01.258Z</time>
      </trkpt>
      <trkpt lat="43.66985" lon="6.20526">
        <ele>827.4</ele>
        <time>2025-01-12T11:56:10.698Z</time>
      </trkpt>
      <trkpt lat="43.66985" lon="6.20532">
        <ele>827.9</ele>
        <time>2025-01-12T11:56:20.915Z</time>
      </trkpt>
      <trkpt lat="43.66985" lon="6.2054">
        <ele>828.6</ele>
        <time>2025-01-12T11:56:31.040Z</time>
      </trkpt>
      <trkpt lat="43.66985" lon="6.20547">
        <ele>829.2</ele>
        <time>2025-01-12T11:56:41.066Z</time>
      </trkpt>
      <trkpt lat="43.66986" lon="6.20554">
        <ele>830.3</ele>
        <time>2025-01-12T11:56:51.938Z</time>
      </trkpt>
      <trkpt lat="43.66986" lon="6.2056">
        <ele>830.6</ele>
        <time>2025-01-12T11:57:00.532Z</time>
      </trkpt>
      <trkpt lat="43.66987" lon="6.20567">
        <ele>831.4</ele>
        <time>2025-01-12T11:57:11.403Z</time>
      </trkpt>
      <trkpt lat="43.66988" lon="6.20574">
        <ele>832.2</ele>
        <time>2025-01-12T11:57:22.275Z</time>
      </trkpt>
      <trkpt lat="43.66989" lon="6.20579">
        <ele>832.9</ele>
        <time>2025-01-12T11:57:31.184Z</time>
      </trkpt>
      <trkpt lat="43.66989" lon="6.20586">
        <ele>833.6</ele>
        <time>2025-01-12T11:57:41.210Z</time>
      </trkpt>
      <trkpt lat="43.66989" lon="6.20588">
        <ele>833.9</ele>
        <time>2025-01-12T11:57:44.936Z</time>
      </trkpt>
      <trkpt lat="43.66989" lon="6.20591">
        <ele>834.5</ele>
        <time>2025-01-12T11:57:52.334Z</time>
      </trkpt>
      <trkpt lat="43.66987" lon="6.20597">
        <ele>834.8</ele>
        <time>2025-01-12T11:57:59.605Z</time>
      </trkpt>
      <trkpt lat="43.66985" lon="6.20602">
        <ele>835.1</ele>
        <time>2025-01-12T11:58:06.104Z</time>
      </trkpt>
      <trkpt lat="43.66984" lon="6.20603">
        <ele>835</ele>
        <time>2025-01-12T11:58:07.447Z</time>
      </trkpt>
      <trkpt lat="43.66981" lon="6.20607">
        <ele>835.1</ele>
        <time>2025-01-12T11:58:13.038Z</time>
      </trkpt>
      <trkpt lat="43.66974" lon="6.20614">
        <ele>835.5</ele>
        <time>2025-01-12T11:58:25.488Z</time>
      </trkpt>
      <trkpt lat="43.66969" lon="6.20618">
        <ele>836.1</ele>
        <time>2025-01-12T11:58:33.968Z</time>
      </trkpt>
      <trkpt lat="43.66963" lon="6.20621">
        <ele>836.5</ele>
        <time>2025-01-12T11:58:45.371Z</time>
      </trkpt>
      <trkpt lat="43.66956" lon="6.20626">
        <ele>837.7</ele>
        <time>2025-01-12T11:58:59.679Z</time>
      </trkpt>
      <trkpt lat="43.66948" lon="6.2063">
        <ele>838.5</ele>
        <time>2025-01-12T11:59:15.986Z</time>
      </trkpt>
      <trkpt lat="43.66944" lon="6.20633">
        <ele>839.4</ele>
        <time>2025-01-12T11:59:26.353Z</time>
      </trkpt>
      <trkpt lat="43.66939" lon="6.20636">
        <ele>840</ele>
        <time>2025-01-12T11:59:36.768Z</time>
      </trkpt>
      <trkpt lat="43.66935" lon="6.20639">
        <ele>840.7</ele>
        <time>2025-01-12T11:59:45.571Z</time>
      </trkpt>
      <trkpt lat="43.6693" lon="6.20642">
        <ele>841</ele>
        <time>2025-01-12T11:59:54.165Z</time>
      </trkpt>
      <trkpt lat="43.66926" lon="6.20647">
        <ele>842.2</ele>
        <time>2025-01-12T12:00:07.868Z</time>
      </trkpt>
      <trkpt lat="43.66921" lon="6.20652">
        <ele>843</ele>
        <time>2025-01-12T12:00:20.433Z</time>
      </trkpt>
      <trkpt lat="43.66917" lon="6.20657">
        <ele>843.9</ele>
        <time>2025-01-12T12:00:31.515Z</time>
      </trkpt>
      <trkpt lat="43.66912" lon="6.20662">
        <ele>844.5</ele>
        <time>2025-01-12T12:00:42.690Z</time>
      </trkpt>
      <trkpt lat="43.66907" lon="6.20668">
        <ele>845.4</ele>
        <time>2025-01-12T12:00:55.000Z</time>
      </trkpt>
      <trkpt lat="43.66901" lon="6.20674">
        <ele>846.1</ele>
        <time>2025-01-12T12:01:08.156Z</time>
      </trkpt>
      <trkpt lat="43.66897" lon="6.20679">
        <ele>846.9</ele>
        <time>2025-01-12T12:01:18.512Z</time>
      </trkpt>
      <trkpt lat="43.66892" lon="6.20684">
        <ele>847.4</ele>
        <time>2025-01-12T12:01:29.069Z</time>
      </trkpt>
      <trkpt lat="43.66888" lon="6.20689">
        <ele>847.9</ele>
        <time>2025-01-12T12:01:38.151Z</time>
      </trkpt>
      <trkpt lat="43.66883" lon="6.20694">
        <ele>847.7</ele>
        <time>2025-01-12T12:01:45.115Z</time>
      </trkpt>
      <trkpt lat="43.66878" lon="6.20702">
        <ele>847.1</ele>
        <time>2025-01-12T12:01:53.442Z</time>
      </trkpt>
      <trkpt lat="43.66875" lon="6.20707">
        <ele>846.6</ele>
        <time>2025-01-12T12:01:58.559Z</time>
      </trkpt>
      <trkpt lat="43.66874" lon="6.20713">
        <ele>846.9</ele>
        <time>2025-01-12T12:02:05.440Z</time>
      </trkpt>
      <trkpt lat="43.66873" lon="6.2072">
        <ele>847.3</ele>
        <time>2025-01-12T12:02:13.172Z</time>
      </trkpt>
      <trkpt lat="43.66872" lon="6.20726">
        <ele>847.1</ele>
        <time>2025-01-12T12:02:18.350Z</time>
      </trkpt>
      <trkpt lat="43.66872" lon="6.20736">
        <ele>847</ele>
        <time>2025-01-12T12:02:26.226Z</time>
      </trkpt>
      <trkpt lat="43.66871" lon="6.20746">
        <ele>846.4</ele>
        <time>2025-01-12T12:02:34.259Z</time>
      </trkpt>
      <trkpt lat="43.66871" lon="6.20748">
        <ele>846.4</ele>
        <time>2025-01-12T12:02:36.059Z</time>
      </trkpt>
      <trkpt lat="43.66871" lon="6.20755">
        <ele>845.9</ele>
        <time>2025-01-12T12:02:41.573Z</time>
      </trkpt>
      <trkpt lat="43.66871" lon="6.20763">
        <ele>845.3</ele>
        <time>2025-01-12T12:02:47.874Z</time>
      </trkpt>
      <trkpt lat="43.66872" lon="6.20771">
        <ele>845.2</ele>
        <time>2025-01-12T12:02:54.813Z</time>
      </trkpt>
      <trkpt lat="43.66873" lon="6.20779">
        <ele>845.3</ele>
        <time>2025-01-12T12:03:02.518Z</time>
      </trkpt>
      <trkpt lat="43.66873" lon="6.20785">
        <ele>845.7</ele>
        <time>2025-01-12T12:03:09.814Z</time>
      </trkpt>
      <trkpt lat="43.66873" lon="6.20786">
        <ele>845.7</ele>
        <time>2025-01-12T12:03:10.714Z</time>
      </trkpt>
      <trkpt lat="43.66873" lon="6.20787">
        <ele>845.8</ele>
        <time>2025-01-12T12:03:12.146Z</time>
      </trkpt>
      <trkpt lat="43.66872" lon="6.20795">
        <ele>845.7</ele>
        <time>2025-01-12T12:03:19.085Z</time>
      </trkpt>
      <trkpt lat="43.66871" lon="6.20803">
        <ele>845.5</ele>
        <time>2025-01-12T12:03:25.680Z</time>
      </trkpt>
      <trkpt lat="43.66869" lon="6.20811">
        <ele>845.3</ele>
        <time>2025-01-12T12:03:32.584Z</time>
      </trkpt>
      <trkpt lat="43.66868" lon="6.20818">
        <ele>845.8</ele>
        <time>2025-01-12T12:03:39.407Z</time>
      </trkpt>
      <trkpt lat="43.66866" lon="6.20824">
        <ele>845.5</ele>
        <time>2025-01-12T12:03:45.755Z</time>
      </trkpt>
      <trkpt lat="43.66865" lon="6.20836">
        <ele>846.5</ele>
        <time>2025-01-12T12:03:59.848Z</time>
      </trkpt>
      <trkpt lat="43.66863" lon="6.20847">
        <ele>846.6</ele>
        <time>2025-01-12T12:04:11.766Z</time>
      </trkpt>
      <trkpt lat="43.66861" lon="6.20858">
        <ele>846.6</ele>
        <time>2025-01-12T12:04:20.912Z</time>
      </trkpt>
      <trkpt lat="43.66858" lon="6.20869">
        <ele>845.9</ele>
        <time>2025-01-12T12:04:30.171Z</time>
      </trkpt>
      <trkpt lat="43.66856" lon="6.20878">
        <ele>845.7</ele>
        <time>2025-01-12T12:04:37.927Z</time>
      </trkpt>
      <trkpt lat="43.66854" lon="6.20886">
        <ele>845.5</ele>
        <time>2025-01-12T12:04:44.831Z</time>
      </trkpt>
      <trkpt lat="43.66853" lon="6.20894">
        <ele>846.2</ele>
        <time>2025-01-12T12:04:53.927Z</time>
      </trkpt>
      <trkpt lat="43.66851" lon="6.20902">
        <ele>846.4</ele>
        <time>2025-01-12T12:05:03.854Z</time>
      </trkpt>
      <trkpt lat="43.6685" lon="6.20909">
        <ele>847.1</ele>
        <time>2025-01-12T12:05:11.587Z</time>
      </trkpt>
      <trkpt lat="43.66848" lon="6.20915">
        <ele>847.1</ele>
        <time>2025-01-12T12:05:19.390Z</time>
      </trkpt>
      <trkpt lat="43.66847" lon="6.20922">
        <ele>847.8</ele>
        <time>2025-01-12T12:05:27.641Z</time>
      </trkpt>
      <trkpt lat="43.66845" lon="6.20928">
        <ele>847.9</ele>
        <time>2025-01-12T12:05:35.444Z</time>
      </trkpt>
      <trkpt lat="43.66843" lon="6.20936">
        <ele>848.4</ele>
        <time>2025-01-12T12:05:45.946Z</time>
      </trkpt>
      <trkpt lat="43.66842" lon="6.20944">
        <ele>849.3</ele>
        <time>2025-01-12T12:05:55.582Z</time>
      </trkpt>
      <trkpt lat="43.6684" lon="6.20952">
        <ele>849.8</ele>
        <time>2025-01-12T12:06:06.084Z</time>
      </trkpt>
      <trkpt lat="43.66838" lon="6.2096">
        <ele>850.1</ele>
        <time>2025-01-12T12:06:16.012Z</time>
      </trkpt>
      <trkpt lat="43.66836" lon="6.20968">
        <ele>850.1</ele>
        <time>2025-01-12T12:06:23.632Z</time>
      </trkpt>
      <trkpt lat="43.66834" lon="6.20975">
        <ele>850.2</ele>
        <time>2025-01-12T12:06:30.805Z</time>
      </trkpt>
      <trkpt lat="43.66832" lon="6.20983">
        <ele>851.1</ele>
        <time>2025-01-12T12:06:41.928Z</time>
      </trkpt>
      <trkpt lat="43.6683" lon="6.2099">
        <ele>851.8</ele>
        <time>2025-01-12T12:06:53.848Z</time>
      </trkpt>
      <trkpt lat="43.66828" lon="6.20997">
        <ele>852.6</ele>
        <time>2025-01-12T12:07:04.978Z</time>
      </trkpt>
      <trkpt lat="43.66827" lon="6.21">
        <ele>852.8</ele>
        <time>2025-01-12T12:07:08.879Z</time>
      </trkpt>
      <trkpt lat="43.66823" lon="6.2101">
        <ele>853.9</ele>
        <time>2025-01-12T12:07:24.941Z</time>
      </trkpt>
      <trkpt lat="43.66819" lon="6.2102">
        <ele>854.9</ele>
        <time>2025-01-12T12:07:40.318Z</time>
      </trkpt>
      <trkpt lat="43.66814" lon="6.2103">
        <ele>855.2</ele>
        <time>2025-01-12T12:07:52.066Z</time>
      </trkpt>
      <trkpt lat="43.66809" lon="6.21039">
        <ele>855.4</ele>
        <time>2025-01-12T12:08:03.527Z</time>
      </trkpt>
      <trkpt lat="43.66806" lon="6.21045">
        <ele>855.8</ele>
        <time>2025-01-12T12:08:10.093Z</time>
      </trkpt>
      <trkpt lat="43.66802" lon="6.2105">
        <ele>856</ele>
        <time>2025-01-12T12:08:19.784Z</time>
      </trkpt>
      <trkpt lat="43.66798" lon="6.21056">
        <ele>856.7</ele>
        <time>2025-01-12T12:08:29.454Z</time>
      </trkpt>
      <trkpt lat="43.66794" lon="6.21061">
        <ele>857.3</ele>
        <time>2025-01-12T12:08:40.537Z</time>
      </trkpt>
      <trkpt lat="43.6679" lon="6.21066">
        <ele>857.9</ele>
        <time>2025-01-12T12:08:48.550Z</time>
      </trkpt>
      <trkpt lat="43.66785" lon="6.2107">
        <ele>857.9</ele>
        <time>2025-01-12T12:08:57.029Z</time>
      </trkpt>
      <trkpt lat="43.6678" lon="6.21073">
        <ele>857.6</ele>
        <time>2025-01-12T12:09:02.964Z</time>
      </trkpt>
      <trkpt lat="43.66773" lon="6.21079">
        <ele>857.5</ele>
        <time>2025-01-12T12:09:12.841Z</time>
      </trkpt>
      <trkpt lat="43.66767" lon="6.21083">
        <ele>856.3</ele>
        <time>2025-01-12T12:09:20.094Z</time>
      </trkpt>
      <trkpt lat="43.66763" lon="6.2109">
        <ele>855.8</ele>
        <time>2025-01-12T12:09:27.121Z</time>
      </trkpt>
      <trkpt lat="43.66758" lon="6.211">
        <ele>854.9</ele>
        <time>2025-01-12T12:09:36.696Z</time>
      </trkpt>
      <trkpt lat="43.66753" lon="6.2111">
        <ele>853.6</ele>
        <time>2025-01-12T12:09:46.271Z</time>
      </trkpt>
      <trkpt lat="43.6675" lon="6.21116">
        <ele>852.9</ele>
        <time>2025-01-12T12:09:52.016Z</time>
      </trkpt>
      <trkpt lat="43.66747" lon="6.21122">
        <ele>852.3</ele>
        <time>2025-01-12T12:09:57.761Z</time>
      </trkpt>
      <trkpt lat="43.66742" lon="6.21131">
        <ele>851.5</ele>
        <time>2025-01-12T12:10:06.699Z</time>
      </trkpt>
      <trkpt lat="43.66738" lon="6.21137">
        <ele>850.9</ele>
        <time>2025-01-12T12:10:13.126Z</time>
      </trkpt>
      <trkpt lat="43.66734" lon="6.21144">
        <ele>850.4</ele>
        <time>2025-01-12T12:10:20.153Z</time>
      </trkpt>
      <trkpt lat="43.6673" lon="6.2115">
        <ele>849.5</ele>
        <time>2025-01-12T12:10:26.579Z</time>
      </trkpt>
      <trkpt lat="43.66726" lon="6.21156">
        <ele>848.8</ele>
        <time>2025-01-12T12:10:33.006Z</time>
      </trkpt>
      <trkpt lat="43.66723" lon="6.21161">
        <ele>848.3</ele>
        <time>2025-01-12T12:10:38.123Z</time>
      </trkpt>
      <trkpt lat="43.6672" lon="6.21166">
        <ele>847.8</ele>
        <time>2025-01-12T12:10:43.240Z</time>
      </trkpt>
      <trkpt lat="43.66717" lon="6.21171">
        <ele>847.2</ele>
        <time>2025-01-12T12:10:48.357Z</time>
      </trkpt>
      <trkpt lat="43.66714" lon="6.21176">
        <ele>846.5</ele>
        <time>2025-01-12T12:10:53.473Z</time>
      </trkpt>
      <trkpt lat="43.66711" lon="6.2118">
        <ele>845.7</ele>
        <time>2025-01-12T12:10:58.012Z</time>
      </trkpt>
      <trkpt lat="43.66708" lon="6.21185">
        <ele>845</ele>
        <time>2025-01-12T12:11:03.129Z</time>
      </trkpt>
      <trkpt lat="43.66705" lon="6.2119">
        <ele>844.3</ele>
        <time>2025-01-12T12:11:08.245Z</time>
      </trkpt>
      <trkpt lat="43.66702" lon="6.21195">
        <ele>843.6</ele>
        <time>2025-01-12T12:11:13.362Z</time>
      </trkpt>
      <trkpt lat="43.66696" lon="6.21203">
        <ele>841.9</ele>
        <time>2025-01-12T12:11:22.439Z</time>
      </trkpt>
      <trkpt lat="43.6669" lon="6.21211">
        <ele>840.4</ele>
        <time>2025-01-12T12:11:31.516Z</time>
      </trkpt>
      <trkpt lat="43.66687" lon="6.21215">
        <ele>839.6</ele>
        <time>2025-01-12T12:11:36.460Z</time>
      </trkpt>
      <trkpt lat="43.66683" lon="6.21219">
        <ele>838.9</ele>
        <time>2025-01-12T12:11:41.406Z</time>
      </trkpt>
      <trkpt lat="43.66677" lon="6.21227">
        <ele>837.8</ele>
        <time>2025-01-12T12:11:50.483Z</time>
      </trkpt>
      <trkpt lat="43.66672" lon="6.21233">
        <ele>836.8</ele>
        <time>2025-01-12T12:11:57.692Z</time>
      </trkpt>
      <trkpt lat="43.66667" lon="6.21239">
        <ele>836.1</ele>
        <time>2025-01-12T12:12:04.902Z</time>
      </trkpt>
      <trkpt lat="43.66661" lon="6.21245">
        <ele>835.4</ele>
        <time>2025-01-12T12:12:12.965Z</time>
      </trkpt>
      <trkpt lat="43.66656" lon="6.21251">
        <ele>835</ele>
        <time>2025-01-12T12:12:20.175Z</time>
      </trkpt>
      <trkpt lat="43.66652" lon="6.21256">
        <ele>834.4</ele>
        <time>2025-01-12T12:12:26.047Z</time>
      </trkpt>
      <trkpt lat="43.66648" lon="6.21261">
        <ele>833.9</ele>
        <time>2025-01-12T12:12:31.919Z</time>
      </trkpt>
      <trkpt lat="43.66644" lon="6.21266">
        <ele>833.6</ele>
        <time>2025-01-12T12:12:37.791Z</time>
      </trkpt>
      <trkpt lat="43.6664" lon="6.21271">
        <ele>833.3</ele>
        <time>2025-01-12T12:12:43.663Z</time>
      </trkpt>
      <trkpt lat="43.66634" lon="6.21279">
        <ele>833.3</ele>
        <time>2025-01-12T12:12:53.309Z</time>
      </trkpt>
      <trkpt lat="43.66627" lon="6.21286">
        <ele>833</ele>
        <time>2025-01-12T12:13:03.686Z</time>
      </trkpt>
      <trkpt lat="43.66626" lon="6.21287">
        <ele>833</ele>
        <time>2025-01-12T12:13:05.222Z</time>
      </trkpt>
      <trkpt lat="43.66622" lon="6.21292">
        <ele>833.1</ele>
        <time>2025-01-12T12:13:11.933Z</time>
      </trkpt>
      <trkpt lat="43.66618" lon="6.21296">
        <ele>833.2</ele>
        <time>2025-01-12T12:13:18.915Z</time>
      </trkpt>
      <trkpt lat="43.66613" lon="6.21303">
        <ele>833.8</ele>
        <time>2025-01-12T12:13:30.559Z</time>
      </trkpt>
      <trkpt lat="43.66612" lon="6.21308">
        <ele>834.3</ele>
        <time>2025-01-12T12:13:37.855Z</time>
      </trkpt>
      <trkpt lat="43.66608" lon="6.21317">
        <ele>834.4</ele>
        <time>2025-01-12T12:13:47.364Z</time>
      </trkpt>
      <trkpt lat="43.66604" lon="6.21325">
        <ele>834.4</ele>
        <time>2025-01-12T12:13:56.513Z</time>
      </trkpt>
      <trkpt lat="43.66601" lon="6.21331">
        <ele>834.4</ele>
        <time>2025-01-12T12:14:03.079Z</time>
      </trkpt>
      <trkpt lat="43.66603" lon="6.2133">
        <ele>834.6</ele>
        <time>2025-01-12T12:14:06.678Z</time>
      </trkpt>
      <trkpt lat="43.66606" lon="6.21329">
        <ele>835</ele>
        <time>2025-01-12T12:14:12.600Z</time>
      </trkpt>
      <trkpt lat="43.66614" lon="6.21326">
        <ele>835.6</ele>
        <time>2025-01-12T12:14:25.624Z</time>
      </trkpt>
      <trkpt lat="43.66619" lon="6.21325">
        <ele>835.6</ele>
        <time>2025-01-12T12:14:31.580Z</time>
      </trkpt>
      <trkpt lat="43.66623" lon="6.21323">
        <ele>835.7</ele>
        <time>2025-01-12T12:14:37.537Z</time>
      </trkpt>
      <trkpt lat="43.66631" lon="6.2132">
        <ele>836.1</ele>
        <time>2025-01-12T12:14:49.559Z</time>
      </trkpt>
      <trkpt lat="43.66636" lon="6.21318">
        <ele>836.4</ele>
        <time>2025-01-12T12:14:57.345Z</time>
      </trkpt>
      <trkpt lat="43.66641" lon="6.21315">
        <ele>836.7</ele>
        <time>2025-01-12T12:15:05.428Z</time>
      </trkpt>
      <trkpt lat="43.66647" lon="6.21308">
        <ele>837.4</ele>
        <time>2025-01-12T12:15:18.490Z</time>
      </trkpt>
      <trkpt lat="43.66654" lon="6.21303">
        <ele>838</ele>
        <time>2025-01-12T12:15:31.029Z</time>
      </trkpt>
      <trkpt lat="43.6666" lon="6.21298">
        <ele>838.5</ele>
        <time>2025-01-12T12:15:41.999Z</time>
      </trkpt>
      <trkpt lat="43.66665" lon="6.21294">
        <ele>839.2</ele>
        <time>2025-01-12T12:15:52.113Z</time>
      </trkpt>
      <trkpt lat="43.66669" lon="6.21289">
        <ele>839.8</ele>
        <time>2025-01-12T12:16:02.469Z</time>
      </trkpt>
      <trkpt lat="43.66675" lon="6.21282">
        <ele>840.9</ele>
        <time>2025-01-12T12:16:17.413Z</time>
      </trkpt>
      <trkpt lat="43.6668" lon="6.21274">
        <ele>841.9</ele>
        <time>2025-01-12T12:16:32.870Z</time>
      </trkpt>
      <trkpt lat="43.66683" lon="6.21269">
        <ele>842.5</ele>
        <time>2025-01-12T12:16:41.824Z</time>
      </trkpt>
      <trkpt lat="43.66686" lon="6.21264">
        <ele>843.2</ele>
        <time>2025-01-12T12:16:51.503Z</time>
      </trkpt>
      <trkpt lat="43.66689" lon="6.21263">
        <ele>843.9</ele>
        <time>2025-01-12T12:17:00.091Z</time>
      </trkpt>
      <trkpt lat="43.66696" lon="6.21258">
        <ele>845.6</ele>
        <time>2025-01-12T12:17:21.067Z</time>
      </trkpt>
      <trkpt lat="43.66699" lon="6.21254">
        <ele>846.3</ele>
        <time>2025-01-12T12:17:30.284Z</time>
      </trkpt>
      <trkpt lat="43.66702" lon="6.21249">
        <ele>847.1</ele>
        <time>2025-01-12T12:17:40.766Z</time>
      </trkpt>
      <trkpt lat="43.66705" lon="6.21243">
        <ele>847.6</ele>
        <time>2025-01-12T12:17:49.715Z</time>
      </trkpt>
      <trkpt lat="43.66711" lon="6.21236">
        <ele>849.2</ele>
        <time>2025-01-12T12:18:08.684Z</time>
      </trkpt>
      <trkpt lat="43.66716" lon="6.21228">
        <ele>851.2</ele>
        <time>2025-01-12T12:18:34.554Z</time>
      </trkpt>
      <trkpt lat="43.6672" lon="6.21223">
        <ele>853.1</ele>
        <time>2025-01-12T12:19:01.703Z</time>
      </trkpt>
      <trkpt lat="43.66724" lon="6.21217">
        <ele>854.1</ele>
        <time>2025-01-12T12:19:14.019Z</time>
      </trkpt>
      <trkpt lat="43.6673" lon="6.21208">
        <ele>855</ele>
        <time>2025-01-12T12:19:29.401Z</time>
      </trkpt>
      <trkpt lat="43.66734" lon="6.21204">
        <ele>856</ele>
        <time>2025-01-12T12:19:41.876Z</time>
      </trkpt>
      <trkpt lat="43.66738" lon="6.212">
        <ele>857.2</ele>
        <time>2025-01-12T12:19:56.546Z</time>
      </trkpt>
      <trkpt lat="43.66742" lon="6.21195">
        <ele>858.6</ele>
        <time>2025-01-12T12:20:13.693Z</time>
      </trkpt>
      <trkpt lat="43.66745" lon="6.2119">
        <ele>859.4</ele>
        <time>2025-01-12T12:20:24.175Z</time>
      </trkpt>
      <trkpt lat="43.66748" lon="6.21185">
        <ele>860.3</ele>
        <time>2025-01-12T12:20:35.549Z</time>
      </trkpt>
      <trkpt lat="43.66751" lon="6.21182">
        <ele>861.1</ele>
        <time>2025-01-12T12:20:45.418Z</time>
      </trkpt>
      <trkpt lat="43.66756" lon="6.21178">
        <ele>861.7</ele>
        <time>2025-01-12T12:20:55.533Z</time>
      </trkpt>
      <trkpt lat="43.66761" lon="6.21172">
        <ele>862.7</ele>
        <time>2025-01-12T12:21:09.275Z</time>
      </trkpt>
      <trkpt lat="43.66766" lon="6.21168">
        <ele>863.8</ele>
        <time>2025-01-12T12:21:23.198Z</time>
      </trkpt>
      <trkpt lat="43.66771" lon="6.21163">
        <ele>865</ele>
        <time>2025-01-12T12:21:38.306Z</time>
      </trkpt>
      <trkpt lat="43.66774" lon="6.21157">
        <ele>866</ele>
        <time>2025-01-12T12:21:50.978Z</time>
      </trkpt>
      <trkpt lat="43.66777" lon="6.21151">
        <ele>867.4</ele>
        <time>2025-01-12T12:22:08.156Z</time>
      </trkpt>
      <trkpt lat="43.6678" lon="6.21147">
        <ele>868.2</ele>
        <time>2025-01-12T12:22:18.260Z</time>
      </trkpt>
      <trkpt lat="43.66784" lon="6.21142">
        <ele>868.8</ele>
        <time>2025-01-12T12:22:27.951Z</time>
      </trkpt>
      <trkpt lat="43.66787" lon="6.21138">
        <ele>869.3</ele>
        <time>2025-01-12T12:22:35.676Z</time>
      </trkpt>
      <trkpt lat="43.66791" lon="6.21134">
        <ele>869.6</ele>
        <time>2025-01-12T12:22:43.138Z</time>
      </trkpt>
      <trkpt lat="43.66794" lon="6.21129">
        <ele>870.1</ele>
        <time>2025-01-12T12:22:50.848Z</time>
      </trkpt>
      <trkpt lat="43.66797" lon="6.21125">
        <ele>870.6</ele>
        <time>2025-01-12T12:22:59.275Z</time>
      </trkpt>
      <trkpt lat="43.66801" lon="6.2112">
        <ele>871.4</ele>
        <time>2025-01-12T12:23:09.631Z</time>
      </trkpt>
      <trkpt lat="43.66804" lon="6.21116">
        <ele>872.2</ele>
        <time>2025-01-12T12:23:20.735Z</time>
      </trkpt>
      <trkpt lat="43.66808" lon="6.21113">
        <ele>872.9</ele>
        <time>2025-01-12T12:23:28.772Z</time>
      </trkpt>
      <trkpt lat="43.66812" lon="6.21109">
        <ele>873.1</ele>
        <time>2025-01-12T12:23:36.810Z</time>
      </trkpt>
      <trkpt lat="43.66819" lon="6.21103">
        <ele>873.4</ele>
        <time>2025-01-12T12:23:48.305Z</time>
      </trkpt>
      <trkpt lat="43.66823" lon="6.211">
        <ele>874.1</ele>
        <time>2025-01-12T12:23:58.405Z</time>
      </trkpt>
      <trkpt lat="43.66827" lon="6.21096">
        <ele>875</ele>
        <time>2025-01-12T12:24:08.506Z</time>
      </trkpt>
      <trkpt lat="43.66834" lon="6.21089">
        <ele>877.3</ele>
        <time>2025-01-12T12:24:38.121Z</time>
      </trkpt>
      <trkpt lat="43.6684" lon="6.21085">
        <ele>878.7</ele>
        <time>2025-01-12T12:24:55.467Z</time>
      </trkpt>
      <trkpt lat="43.66846" lon="6.21081">
        <ele>879.7</ele>
        <time>2025-01-12T12:25:09.246Z</time>
      </trkpt>
      <trkpt lat="43.66852" lon="6.21077">
        <ele>880.7</ele>
        <time>2025-01-12T12:25:23.025Z</time>
      </trkpt>
      <trkpt lat="43.66858" lon="6.21073">
        <ele>882.3</ele>
        <time>2025-01-12T12:25:42.589Z</time>
      </trkpt>
      <trkpt lat="43.66864" lon="6.21069">
        <ele>883.8</ele>
        <time>2025-01-12T12:26:01.003Z</time>
      </trkpt>
      <trkpt lat="43.6687" lon="6.21065">
        <ele>884.8</ele>
        <time>2025-01-12T12:26:14.783Z</time>
      </trkpt>
      <trkpt lat="43.66876" lon="6.21061">
        <ele>885.9</ele>
        <time>2025-01-12T12:26:29.357Z</time>
      </trkpt>
      <trkpt lat="43.66882" lon="6.21057">
        <ele>887.1</ele>
        <time>2025-01-12T12:26:44.788Z</time>
      </trkpt>
      <trkpt lat="43.66889" lon="6.21051">
        <ele>888.5</ele>
        <time>2025-01-12T12:27:03.142Z</time>
      </trkpt>
      <trkpt lat="43.66896" lon="6.21044">
        <ele>888.1</ele>
        <time>2025-01-12T12:27:12.549Z</time>
      </trkpt>
      <trkpt lat="43.669" lon="6.21037">
        <ele>888.3</ele>
        <time>2025-01-12T12:27:21.854Z</time>
      </trkpt>
      <trkpt lat="43.66903" lon="6.21029">
        <ele>888.8</ele>
        <time>2025-01-12T12:27:31.725Z</time>
      </trkpt>
      <trkpt lat="43.66906" lon="6.21021">
        <ele>888.9</ele>
        <time>2025-01-12T12:27:39.837Z</time>
      </trkpt>
      <trkpt lat="43.66909" lon="6.21014">
        <ele>889.1</ele>
        <time>2025-01-12T12:27:48.948Z</time>
      </trkpt>
      <trkpt lat="43.66912" lon="6.21006">
        <ele>889.9</ele>
        <time>2025-01-12T12:28:00.502Z</time>
      </trkpt>
      <trkpt lat="43.66915" lon="6.20998">
        <ele>891</ele>
        <time>2025-01-12T12:28:14.961Z</time>
      </trkpt>
      <trkpt lat="43.66918" lon="6.20993">
        <ele>891.4</ele>
        <time>2025-01-12T12:28:23.915Z</time>
      </trkpt>
      <trkpt lat="43.6692" lon="6.20987">
        <ele>891.6</ele>
        <time>2025-01-12T12:28:29.862Z</time>
      </trkpt>
      <trkpt lat="43.66923" lon="6.20982">
        <ele>891.6</ele>
        <time>2025-01-12T12:28:36.111Z</time>
      </trkpt>
      <trkpt lat="43.66925" lon="6.20976">
        <ele>892</ele>
        <time>2025-01-12T12:28:43.382Z</time>
      </trkpt>
      <trkpt lat="43.66928" lon="6.20971">
        <ele>892.1</ele>
        <time>2025-01-12T12:28:50.072Z</time>
      </trkpt>
      <trkpt lat="43.6693" lon="6.20965">
        <ele>892.5</ele>
        <time>2025-01-12T12:28:57.343Z</time>
      </trkpt>
      <trkpt lat="43.66933" lon="6.2096">
        <ele>892.8</ele>
        <time>2025-01-12T12:29:05.052Z</time>
      </trkpt>
      <trkpt lat="43.66935" lon="6.20954">
        <ele>893.5</ele>
        <time>2025-01-12T12:29:14.089Z</time>
      </trkpt>
      <trkpt lat="43.66938" lon="6.20947">
        <ele>894.6</ele>
        <time>2025-01-12T12:29:28.082Z</time>
      </trkpt>
      <trkpt lat="43.6694" lon="6.2094">
        <ele>895.4</ele>
        <time>2025-01-12T12:29:39.212Z</time>
      </trkpt>
      <trkpt lat="43.66943" lon="6.20933">
        <ele>896.4</ele>
        <time>2025-01-12T12:29:53.205Z</time>
      </trkpt>
      <trkpt lat="43.66946" lon="6.20926">
        <ele>897.3</ele>
        <time>2025-01-12T12:30:06.317Z</time>
      </trkpt>
      <trkpt lat="43.66948" lon="6.20918">
        <ele>898.1</ele>
        <time>2025-01-12T12:30:16.819Z</time>
      </trkpt>
      <trkpt lat="43.66951" lon="6.20911">
        <ele>898.3</ele>
        <time>2025-01-12T12:30:24.969Z</time>
      </trkpt>
      <trkpt lat="43.66953" lon="6.20904">
        <ele>898.8</ele>
        <time>2025-01-12T12:30:33.554Z</time>
      </trkpt>
      <trkpt lat="43.66956" lon="6.20897">
        <ele>899.4</ele>
        <time>2025-01-12T12:30:44.423Z</time>
      </trkpt>
      <trkpt lat="43.66961" lon="6.20887">
        <ele>900.8</ele>
        <time>2025-01-12T12:31:03.239Z</time>
      </trkpt>
      <trkpt lat="43.66966" lon="6.20877">
        <ele>902.5</ele>
        <time>2025-01-12T12:31:24.673Z</time>
      </trkpt>
      <trkpt lat="43.66971" lon="6.20867">
        <ele>905.4</ele>
        <time>2025-01-12T12:32:02.113Z</time>
      </trkpt>
      <trkpt lat="43.66976" lon="6.20857">
        <ele>907.4</ele>
        <time>2025-01-12T12:32:26.643Z</time>
      </trkpt>
      <trkpt lat="43.66981" lon="6.20853">
        <ele>907.7</ele>
        <time>2025-01-12T12:32:35.624Z</time>
      </trkpt>
      <trkpt lat="43.66987" lon="6.20848">
        <ele>908.3</ele>
        <time>2025-01-12T12:32:46.595Z</time>
      </trkpt>
      <trkpt lat="43.66992" lon="6.20844">
        <ele>908.8</ele>
        <time>2025-01-12T12:32:57.348Z</time>
      </trkpt>
      <trkpt lat="43.66997" lon="6.20839">
        <ele>909.7</ele>
        <time>2025-01-12T12:33:08.523Z</time>
      </trkpt>
      <trkpt lat="43.67004" lon="6.20833">
        <ele>910.8</ele>
        <time>2025-01-12T12:33:24.555Z</time>
      </trkpt>
      <trkpt lat="43.67011" lon="6.20827">
        <ele>911.7</ele>
        <time>2025-01-12T12:33:39.253Z</time>
      </trkpt>
      <trkpt lat="43.67018" lon="6.20821">
        <ele>912.7</ele>
        <time>2025-01-12T12:33:54.598Z</time>
      </trkpt>
      <trkpt lat="43.67025" lon="6.20815">
        <ele>913.8</ele>
        <time>2025-01-12T12:34:10.630Z</time>
      </trkpt>
      <trkpt lat="43.6703" lon="6.20811">
        <ele>914.4</ele>
        <time>2025-01-12T12:34:21.384Z</time>
      </trkpt>
      <trkpt lat="43.67035" lon="6.20807">
        <ele>914.8</ele>
        <time>2025-01-12T12:34:30.909Z</time>
      </trkpt>
      <trkpt lat="43.67039" lon="6.20802">
        <ele>915.1</ele>
        <time>2025-01-12T12:34:38.018Z</time>
      </trkpt>
      <trkpt lat="43.67044" lon="6.20798">
        <ele>915.2</ele>
        <time>2025-01-12T12:34:45.605Z</time>
      </trkpt>
      <trkpt lat="43.67048" lon="6.20793">
        <ele>915.6</ele>
        <time>2025-01-12T12:34:53.618Z</time>
      </trkpt>
      <trkpt lat="43.67052" lon="6.20789">
        <ele>916.1</ele>
        <time>2025-01-12T12:35:02.820Z</time>
      </trkpt>
      <trkpt lat="43.67056" lon="6.20784">
        <ele>916.7</ele>
        <time>2025-01-12T12:35:13.175Z</time>
      </trkpt>
      <trkpt lat="43.6706" lon="6.20779">
        <ele>916.5</ele>
        <time>2025-01-12T12:35:19.047Z</time>
      </trkpt>
      <trkpt lat="43.67064" lon="6.20773">
        <ele>915.5</ele>
        <time>2025-01-12T12:35:25.474Z</time>
      </trkpt>
      <trkpt lat="43.67068" lon="6.20768">
        <ele>914.6</ele>
        <time>2025-01-12T12:35:31.346Z</time>
      </trkpt>
      <trkpt lat="43.67072" lon="6.20762">
        <ele>914.3</ele>
        <time>2025-01-12T12:35:37.772Z</time>
      </trkpt>
      <trkpt lat="43.67076" lon="6.20757">
        <ele>914.3</ele>
        <time>2025-01-12T12:35:44.882Z</time>
      </trkpt>
      <trkpt lat="43.6708" lon="6.20751">
        <ele>914.9</ele>
        <time>2025-01-12T12:35:55.136Z</time>
      </trkpt>
      <trkpt lat="43.67084" lon="6.20745">
        <ele>915</ele>
        <time>2025-01-12T12:36:02.878Z</time>
      </trkpt>
      <trkpt lat="43.67088" lon="6.2074">
        <ele>914.5</ele>
        <time>2025-01-12T12:36:08.750Z</time>
      </trkpt>
      <trkpt lat="43.67092" lon="6.20734">
        <ele>914.5</ele>
        <time>2025-01-12T12:36:16.095Z</time>
      </trkpt>
      <trkpt lat="43.67097" lon="6.20729">
        <ele>914.8</ele>
        <time>2025-01-12T12:36:25.056Z</time>
      </trkpt>
      <trkpt lat="43.67101" lon="6.20724">
        <ele>915.6</ele>
        <time>2025-01-12T12:36:36.138Z</time>
      </trkpt>
      <trkpt lat="43.67106" lon="6.20718">
        <ele>916.5</ele>
        <time>2025-01-12T12:36:49.137Z</time>
      </trkpt>
      <trkpt lat="43.67111" lon="6.20711">
        <ele>918</ele>
        <time>2025-01-12T12:37:07.713Z</time>
      </trkpt>
      <trkpt lat="43.67115" lon="6.20707">
        <ele>918.8</ele>
        <time>2025-01-12T12:37:18.389Z</time>
      </trkpt>
      <trkpt lat="43.67118" lon="6.20703">
        <ele>919.7</ele>
        <time>2025-01-12T12:37:29.493Z</time>
      </trkpt>
      <trkpt lat="43.67119" lon="6.20701">
        <ele>920.3</ele>
        <time>2025-01-12T12:37:37.342Z</time>
      </trkpt>
      <trkpt lat="43.67123" lon="6.20698">
        <ele>921.3</ele>
        <time>2025-01-12T12:37:49.651Z</time>
      </trkpt>
      <trkpt lat="43.67127" lon="6.20695">
        <ele>922.5</ele>
        <time>2025-01-12T12:38:04.366Z</time>
      </trkpt>
      <trkpt lat="43.67131" lon="6.20692">
        <ele>923.1</ele>
        <time>2025-01-12T12:38:13.170Z</time>
      </trkpt>
      <trkpt lat="43.67135" lon="6.20689">
        <ele>923.8</ele>
        <time>2025-01-12T12:38:22.714Z</time>
      </trkpt>
      <trkpt lat="43.67141" lon="6.20687">
        <ele>924.8</ele>
        <time>2025-01-12T12:38:35.279Z</time>
      </trkpt>
      <trkpt lat="43.67146" lon="6.20685">
        <ele>925.5</ele>
        <time>2025-01-12T12:38:46.190Z</time>
      </trkpt>
      <trkpt lat="43.67151" lon="6.20683">
        <ele>926.4</ele>
        <time>2025-01-12T12:38:57.919Z</time>
      </trkpt>
      <trkpt lat="43.67156" lon="6.20681">
        <ele>927.4</ele>
        <time>2025-01-12T12:39:10.547Z</time>
      </trkpt>
      <trkpt lat="43.67161" lon="6.20677">
        <ele>928.8</ele>
        <time>2025-01-12T12:39:27.663Z</time>
      </trkpt>
      <trkpt lat="43.67164" lon="6.20674">
        <ele>929.9</ele>
        <time>2025-01-12T12:39:41.417Z</time>
      </trkpt>
      <trkpt lat="43.67168" lon="6.20671">
        <ele>931.1</ele>
        <time>2025-01-12T12:39:56.132Z</time>
      </trkpt>
      <trkpt lat="43.67171" lon="6.2067">
        <ele>931.6</ele>
        <time>2025-01-12T12:40:02.806Z</time>
      </trkpt>
      <trkpt lat="43.67173" lon="6.20667">
        <ele>932.4</ele>
        <time>2025-01-12T12:40:12.644Z</time>
      </trkpt>
      <trkpt lat="43.67174" lon="6.20661">
        <ele>932</ele>
        <time>2025-01-12T12:40:17.494Z</time>
      </trkpt>
      <trkpt lat="43.67176" lon="6.20658">
        <ele>932.2</ele>
        <time>2025-01-12T12:40:22.059Z</time>
      </trkpt>
      <trkpt lat="43.67181" lon="6.20655">
        <ele>933.1</ele>
        <time>2025-01-12T12:40:33.985Z</time>
      </trkpt>
      <trkpt lat="43.67183" lon="6.20653">
        <ele>933.6</ele>
        <time>2025-01-12T12:40:40.222Z</time>
      </trkpt>
      <trkpt lat="43.67189" lon="6.20651">
        <ele>935.3</ele>
        <time>2025-01-12T12:41:02.635Z</time>
      </trkpt>
      <trkpt lat="43.67195" lon="6.20648">
        <ele>937.4</ele>
        <time>2025-01-12T12:41:28.014Z</time>
      </trkpt>
      <trkpt lat="43.672" lon="6.20645">
        <ele>938.2</ele>
        <time>2025-01-12T12:41:39.150Z</time>
      </trkpt>
      <trkpt lat="43.67202" lon="6.20643">
        <ele>938.7</ele>
        <time>2025-01-12T12:41:45.388Z</time>
      </trkpt>
      <trkpt lat="43.67203" lon="6.20638">
        <ele>939.6</ele>
        <time>2025-01-12T12:41:56.393Z</time>
      </trkpt>
      <trkpt lat="43.67204" lon="6.20633">
        <ele>939.3</ele>
        <time>2025-01-12T12:42:00.479Z</time>
      </trkpt>
      <trkpt lat="43.67206" lon="6.20628">
        <ele>939.3</ele>
        <time>2025-01-12T12:42:05.622Z</time>
      </trkpt>
      <trkpt lat="43.67206" lon="6.20625">
        <ele>939.2</ele>
        <time>2025-01-12T12:42:07.985Z</time>
      </trkpt>
      <trkpt lat="43.6721" lon="6.20622">
        <ele>939.7</ele>
        <time>2025-01-12T12:42:16.122Z</time>
      </trkpt>
      <trkpt lat="43.67215" lon="6.20619">
        <ele>940.5</ele>
        <time>2025-01-12T12:42:27.258Z</time>
      </trkpt>
      <trkpt lat="43.67219" lon="6.20614">
        <ele>941.2</ele>
        <time>2025-01-12T12:42:37.614Z</time>
      </trkpt>
      <trkpt lat="43.67223" lon="6.2061">
        <ele>941.6</ele>
        <time>2025-01-12T12:42:45.601Z</time>
      </trkpt>
      <trkpt lat="43.67227" lon="6.20606">
        <ele>940.2</ele>
        <time>2025-01-12T12:42:50.976Z</time>
      </trkpt>
      <trkpt lat="43.67231" lon="6.20603">
        <ele>939.1</ele>
        <time>2025-01-12T12:42:55.932Z</time>
      </trkpt>
      <trkpt lat="43.67235" lon="6.206">
        <ele>937.9</ele>
        <time>2025-01-12T12:43:00.887Z</time>
      </trkpt>
      <trkpt lat="43.67241" lon="6.20602">
        <ele>938.4</ele>
        <time>2025-01-12T12:43:10.872Z</time>
      </trkpt>
      <trkpt lat="43.67246" lon="6.206">
        <ele>937.5</ele>
        <time>2025-01-12T12:43:16.540Z</time>
      </trkpt>
      <trkpt lat="43.6725" lon="6.20597">
        <ele>936.4</ele>
        <time>2025-01-12T12:43:21.495Z</time>
      </trkpt>
      <trkpt lat="43.67253" lon="6.20593">
        <ele>934.8</ele>
        <time>2025-01-12T12:43:26.033Z</time>
      </trkpt>
      <trkpt lat="43.6726" lon="6.20589">
        <ele>933</ele>
        <time>2025-01-12T12:43:34.281Z</time>
      </trkpt>
      <trkpt lat="43.67267" lon="6.20585">
        <ele>931.7</ele>
        <time>2025-01-12T12:43:42.529Z</time>
      </trkpt>
      <trkpt lat="43.67274" lon="6.20582">
        <ele>930.8</ele>
        <time>2025-01-12T12:43:50.509Z</time>
      </trkpt>
      <trkpt lat="43.67278" lon="6.20581">
        <ele>930.3</ele>
        <time>2025-01-12T12:43:54.935Z</time>
      </trkpt>
      <trkpt lat="43.67282" lon="6.20577">
        <ele>929</ele>
        <time>2025-01-12T12:44:00.310Z</time>
      </trkpt>
      <trkpt lat="43.67284" lon="6.20577">
        <ele>928.9</ele>
        <time>2025-01-12T12:44:02.488Z</time>
      </trkpt>
      <trkpt lat="43.67286" lon="6.20578">
        <ele>929</ele>
        <time>2025-01-12T12:44:05.560Z</time>
      </trkpt>
      <trkpt lat="43.67289" lon="6.20576">
        <ele>928.4</ele>
        <time>2025-01-12T12:44:09.187Z</time>
      </trkpt>
      <trkpt lat="43.67294" lon="6.20576">
        <ele>928.2</ele>
        <time>2025-01-12T12:44:14.631Z</time>
      </trkpt>
      <trkpt lat="43.67298" lon="6.20575">
        <ele>927.8</ele>
        <time>2025-01-12T12:44:19.057Z</time>
      </trkpt>
      <trkpt lat="43.67305" lon="6.20576">
        <ele>927.7</ele>
        <time>2025-01-12T12:44:27.443Z</time>
      </trkpt>
      <trkpt lat="43.67312" lon="6.20577">
        <ele>927.7</ele>
        <time>2025-01-12T12:44:36.201Z</time>
      </trkpt>
      <trkpt lat="43.67317" lon="6.20576">
        <ele>927.5</ele>
        <time>2025-01-12T12:44:41.783Z</time>
      </trkpt>
      <trkpt lat="43.67322" lon="6.2057">
        <ele>927.7</ele>
        <time>2025-01-12T12:44:50.841Z</time>
      </trkpt>
      <trkpt lat="43.67326" lon="6.20562">
        <ele>928.6</ele>
        <time>2025-01-12T12:45:04.258Z</time>
      </trkpt>
      <trkpt lat="43.67332" lon="6.20556">
        <ele>930.6</ele>
        <time>2025-01-12T12:45:28.844Z</time>
      </trkpt>
      <trkpt lat="43.67335" lon="6.2055">
        <ele>929.9</ele>
        <time>2025-01-12T12:45:34.588Z</time>
      </trkpt>
      <trkpt lat="43.67338" lon="6.20543">
        <ele>928.8</ele>
        <time>2025-01-12T12:45:40.996Z</time>
      </trkpt>
      <trkpt lat="43.67339" lon="6.20541">
        <ele>928.6</ele>
        <time>2025-01-12T12:45:42.911Z</time>
      </trkpt>
      <trkpt lat="43.67342" lon="6.20535">
        <ele>928.2</ele>
        <time>2025-01-12T12:45:48.656Z</time>
      </trkpt>
      <trkpt lat="43.67346" lon="6.20526">
        <ele>928.6</ele>
        <time>2025-01-12T12:45:59.887Z</time>
      </trkpt>
      <trkpt lat="43.67347" lon="6.2052">
        <ele>929</ele>
        <time>2025-01-12T12:46:07.313Z</time>
      </trkpt>
      <trkpt lat="43.67349" lon="6.20515">
        <ele>929.7</ele>
        <time>2025-01-12T12:46:16.501Z</time>
      </trkpt>
      <trkpt lat="43.6735" lon="6.20511">
        <ele>930.3</ele>
        <time>2025-01-12T12:46:24.041Z</time>
      </trkpt>
      <trkpt lat="43.67353" lon="6.20508">
        <ele>931.3</ele>
        <time>2025-01-12T12:46:36.334Z</time>
      </trkpt>
      <trkpt lat="43.67357" lon="6.20505">
        <ele>932.8</ele>
        <time>2025-01-12T12:46:55.696Z</time>
      </trkpt>
      <trkpt lat="43.67359" lon="6.20502">
        <ele>933.9</ele>
        <time>2025-01-12T12:47:10.663Z</time>
      </trkpt>
      <trkpt lat="43.67362" lon="6.20497">
        <ele>935</ele>
        <time>2025-01-12T12:47:24.127Z</time>
      </trkpt>
      <trkpt lat="43.67364" lon="6.20492">
        <ele>935.1</ele>
        <time>2025-01-12T12:47:29.674Z</time>
      </trkpt>
      <trkpt lat="43.67365" lon="6.20488">
        <ele>935.3</ele>
        <time>2025-01-12T12:47:34.372Z</time>
      </trkpt>
      <trkpt lat="43.67366" lon="6.20483">
        <ele>935.7</ele>
        <time>2025-01-12T12:47:41.004Z</time>
      </trkpt>
      <trkpt lat="43.67368" lon="6.20474">
        <ele>936.8</ele>
        <time>2025-01-12T12:47:55.704Z</time>
      </trkpt>
      <trkpt lat="43.6737" lon="6.20468">
        <ele>937.1</ele>
        <time>2025-01-12T12:48:02.974Z</time>
      </trkpt>
      <trkpt lat="43.67371" lon="6.20463">
        <ele>937.4</ele>
        <time>2025-01-12T12:48:09.023Z</time>
      </trkpt>
      <trkpt lat="43.67373" lon="6.20457">
        <ele>938</ele>
        <time>2025-01-12T12:48:18.059Z</time>
      </trkpt>
      <trkpt lat="43.67376" lon="6.20451">
        <ele>939.2</ele>
        <time>2025-01-12T12:48:32.777Z</time>
      </trkpt>
      <trkpt lat="43.67379" lon="6.20445">
        <ele>940.7</ele>
        <time>2025-01-12T12:48:52.889Z</time>
      </trkpt>
      <trkpt lat="43.67382" lon="6.20438">
        <ele>941.2</ele>
        <time>2025-01-12T12:49:01.999Z</time>
      </trkpt>
      <trkpt lat="43.67385" lon="6.20432">
        <ele>941.7</ele>
        <time>2025-01-12T12:49:10.948Z</time>
      </trkpt>
      <trkpt lat="43.67389" lon="6.20426">
        <ele>942.7</ele>
        <time>2025-01-12T12:49:22.520Z</time>
      </trkpt>
      <trkpt lat="43.67392" lon="6.20419">
        <ele>942.4</ele>
        <time>2025-01-12T12:49:29.474Z</time>
      </trkpt>
      <trkpt lat="43.67396" lon="6.20412">
        <ele>942.7</ele>
        <time>2025-01-12T12:49:38.779Z</time>
      </trkpt>
      <trkpt lat="43.674" lon="6.20405">
        <ele>943.3</ele>
        <time>2025-01-12T12:49:49.656Z</time>
      </trkpt>
      <trkpt lat="43.67403" lon="6.204">
        <ele>943.8</ele>
        <time>2025-01-12T12:49:57.957Z</time>
      </trkpt>
      <trkpt lat="43.67406" lon="6.20394">
        <ele>944.5</ele>
        <time>2025-01-12T12:50:08.194Z</time>
      </trkpt>
      <trkpt lat="43.6741" lon="6.20384">
        <ele>946</ele>
        <time>2025-01-12T12:50:27.439Z</time>
      </trkpt>
      <trkpt lat="43.67415" lon="6.20378">
        <ele>947.8</ele>
        <time>2025-01-12T12:50:49.584Z</time>
      </trkpt>
      <trkpt lat="43.67417" lon="6.20377">
        <ele>948.2</ele>
        <time>2025-01-12T12:50:54.663Z</time>
      </trkpt>
      <trkpt lat="43.67421" lon="6.20375">
        <ele>947</ele>
        <time>2025-01-12T12:50:59.295Z</time>
      </trkpt>
      <trkpt lat="43.67429" lon="6.20371">
        <ele>944.9</ele>
        <time>2025-01-12T12:51:08.558Z</time>
      </trkpt>
      <trkpt lat="43.67433" lon="6.20366">
        <ele>944.5</ele>
        <time>2025-01-12T12:51:14.430Z</time>
      </trkpt>
      <trkpt lat="43.67437" lon="6.20361">
        <ele>944.2</ele>
        <time>2025-01-12T12:51:20.301Z</time>
      </trkpt>
      <trkpt lat="43.67439" lon="6.20357">
        <ele>944.7</ele>
        <time>2025-01-12T12:51:27.366Z</time>
      </trkpt>
      <trkpt lat="43.67442" lon="6.20348">
        <ele>946.4</ele>
        <time>2025-01-12T12:51:48.162Z</time>
      </trkpt>
      <trkpt lat="43.67447" lon="6.20338">
        <ele>947.6</ele>
        <time>2025-01-12T12:52:05.460Z</time>
      </trkpt>
      <trkpt lat="43.6745" lon="6.20336">
        <ele>947</ele>
        <time>2025-01-12T12:52:09.087Z</time>
      </trkpt>
      <trkpt lat="43.67453" lon="6.20334">
        <ele>946.4</ele>
        <time>2025-01-12T12:52:12.713Z</time>
      </trkpt>
      <trkpt lat="43.67458" lon="6.20329">
        <ele>946.3</ele>
        <time>2025-01-12T12:52:20.022Z</time>
      </trkpt>
      <trkpt lat="43.67462" lon="6.20326">
        <ele>945.9</ele>
        <time>2025-01-12T12:52:24.987Z</time>
      </trkpt>
      <trkpt lat="43.67466" lon="6.20322">
        <ele>946.1</ele>
        <time>2025-01-12T12:52:31.130Z</time>
      </trkpt>
      <trkpt lat="43.6747" lon="6.20319">
        <ele>945.9</ele>
        <time>2025-01-12T12:52:37.195Z</time>
      </trkpt>
      <trkpt lat="43.67474" lon="6.20315">
        <ele>946.6</ele>
        <time>2025-01-12T12:52:45.182Z</time>
      </trkpt>
      <trkpt lat="43.67479" lon="6.20312">
        <ele>947</ele>
        <time>2025-01-12T12:52:54.936Z</time>
      </trkpt>
      <trkpt lat="43.67484" lon="6.20308">
        <ele>947.8</ele>
        <time>2025-01-12T12:53:05.050Z</time>
      </trkpt>
      <trkpt lat="43.67491" lon="6.20303">
        <ele>948.5</ele>
        <time>2025-01-12T12:53:19.358Z</time>
      </trkpt>
      <trkpt lat="43.67497" lon="6.20297">
        <ele>949.3</ele>
        <time>2025-01-12T12:53:31.339Z</time>
      </trkpt>
      <trkpt lat="43.67503" lon="6.20293">
        <ele>949.3</ele>
        <time>2025-01-12T12:53:39.629Z</time>
      </trkpt>
      <trkpt lat="43.67504" lon="6.20292">
        <ele>949.4</ele>
        <time>2025-01-12T12:53:41.625Z</time>
      </trkpt>
      <trkpt lat="43.6751" lon="6.20288">
        <ele>949.3</ele>
        <time>2025-01-12T12:53:50.311Z</time>
      </trkpt>
      <trkpt lat="43.67515" lon="6.20284">
        <ele>949.5</ele>
        <time>2025-01-12T12:53:58.326Z</time>
      </trkpt>
      <trkpt lat="43.67521" lon="6.20279">
        <ele>950</ele>
        <time>2025-01-12T12:54:08.308Z</time>
      </trkpt>
      <trkpt lat="43.67526" lon="6.20275">
        <ele>949.8</ele>
        <time>2025-01-12T12:54:14.785Z</time>
      </trkpt>
      <trkpt lat="43.67527" lon="6.20274">
        <ele>949.7</ele>
        <time>2025-01-12T12:54:16.129Z</time>
      </trkpt>
      <trkpt lat="43.67532" lon="6.2027">
        <ele>949.9</ele>
        <time>2025-01-12T12:54:24.145Z</time>
      </trkpt>
      <trkpt lat="43.67536" lon="6.2027">
        <ele>949.6</ele>
        <time>2025-01-12T12:54:28.500Z</time>
      </trkpt>
      <trkpt lat="43.67543" lon="6.2027">
        <ele>949.2</ele>
        <time>2025-01-12T12:54:36.122Z</time>
      </trkpt>
      <trkpt lat="43.67544" lon="6.20269">
        <ele>949.3</ele>
        <time>2025-01-12T12:54:38.119Z</time>
      </trkpt>
      <trkpt lat="43.67546" lon="6.20268">
        <ele>949.3</ele>
        <time>2025-01-12T12:54:40.766Z</time>
      </trkpt>
      <trkpt lat="43.67553" lon="6.20264">
        <ele>949.6</ele>
        <time>2025-01-12T12:54:51.447Z</time>
      </trkpt>
      <trkpt lat="43.67561" lon="6.20259">
        <ele>950.7</ele>
        <time>2025-01-12T12:55:08.033Z</time>
      </trkpt>
      <trkpt lat="43.67565" lon="6.20259">
        <ele>950.9</ele>
        <time>2025-01-12T12:55:13.868Z</time>
      </trkpt>
      <trkpt lat="43.67571" lon="6.2026">
        <ele>951.1</ele>
        <time>2025-01-12T12:55:22.213Z</time>
      </trkpt>
      <trkpt lat="43.67575" lon="6.20258">
        <ele>951.8</ele>
        <time>2025-01-12T12:55:31.499Z</time>
      </trkpt>
      <trkpt lat="43.6758" lon="6.20256">
        <ele>952.5</ele>
        <time>2025-01-12T12:55:41.666Z</time>
      </trkpt>
      <trkpt lat="43.67587" lon="6.20256">
        <ele>952.6</ele>
        <time>2025-01-12T12:55:50.772Z</time>
      </trkpt>
      <trkpt lat="43.67592" lon="6.20255">
        <ele>952.6</ele>
        <time>2025-01-12T12:55:57.059Z</time>
      </trkpt>
      <trkpt lat="43.67598" lon="6.20253">
        <ele>952.8</ele>
        <time>2025-01-12T12:56:05.562Z</time>
      </trkpt>
      <trkpt lat="43.67602" lon="6.2025">
        <ele>953.3</ele>
        <time>2025-01-12T12:56:11.038Z</time>
      </trkpt>
      <trkpt lat="43.67606" lon="6.20247">
        <ele>952.8</ele>
        <time>2025-01-12T12:56:16.514Z</time>
      </trkpt>
      <trkpt lat="43.67613" lon="6.2024">
        <ele>951.5</ele>
        <time>2025-01-12T12:56:25.921Z</time>
      </trkpt>
      <trkpt lat="43.6762" lon="6.20234">
        <ele>949.9</ele>
        <time>2025-01-12T12:56:34.889Z</time>
      </trkpt>
      <trkpt lat="43.67623" lon="6.20228">
        <ele>949.5</ele>
        <time>2025-01-12T12:56:40.634Z</time>
      </trkpt>
      <trkpt lat="43.67626" lon="6.20221">
        <ele>949.3</ele>
        <time>2025-01-12T12:56:47.244Z</time>
      </trkpt>
      <trkpt lat="43.67632" lon="6.20214">
        <ele>949</ele>
        <time>2025-01-12T12:56:55.953Z</time>
      </trkpt>
      <trkpt lat="43.67636" lon="6.20213">
        <ele>949.4</ele>
        <time>2025-01-12T12:57:02.935Z</time>
      </trkpt>
      <trkpt lat="43.67641" lon="6.20211">
        <ele>949.6</ele>
        <time>2025-01-12T12:57:10.721Z</time>
      </trkpt>
      <trkpt lat="43.67645" lon="6.20209">
        <ele>949.5</ele>
        <time>2025-01-12T12:57:15.353Z</time>
      </trkpt>
      <trkpt lat="43.6765" lon="6.20207">
        <ele>949.4</ele>
        <time>2025-01-12T12:57:21.830Z</time>
      </trkpt>
      <trkpt lat="43.67654" lon="6.20204">
        <ele>949.7</ele>
        <time>2025-01-12T12:57:28.338Z</time>
      </trkpt>
      <trkpt lat="43.67659" lon="6.20201">
        <ele>950.2</ele>
        <time>2025-01-12T12:57:37.486Z</time>
      </trkpt>
      <trkpt lat="43.6766" lon="6.20201">
        <ele>950.2</ele>
        <time>2025-01-12T12:57:38.731Z</time>
      </trkpt>
      <trkpt lat="43.67667" lon="6.202">
        <ele>950.3</ele>
        <time>2025-01-12T12:57:47.883Z</time>
      </trkpt>
      <trkpt lat="43.67668" lon="6.20191">
        <ele>951.7</ele>
        <time>2025-01-12T12:58:05.197Z</time>
      </trkpt>
      <trkpt lat="43.67667" lon="6.20184">
        <ele>952.3</ele>
        <time>2025-01-12T12:58:14.636Z</time>
      </trkpt>
      <trkpt lat="43.67667" lon="6.20175">
        <ele>952.6</ele>
        <time>2025-01-12T12:58:24.010Z</time>
      </trkpt>
      <trkpt lat="43.67668" lon="6.2017">
        <ele>952.3</ele>
        <time>2025-01-12T12:58:28.096Z</time>
      </trkpt>
      <trkpt lat="43.67666" lon="6.20167">
        <ele>952.9</ele>
        <time>2025-01-12T12:58:35.575Z</time>
      </trkpt>
      <trkpt lat="43.67666" lon="6.20163">
        <ele>952.7</ele>
        <time>2025-01-12T12:58:38.725Z</time>
      </trkpt>
      <trkpt lat="43.67667" lon="6.20159">
        <ele>952.3</ele>
        <time>2025-01-12T12:58:42.058Z</time>
      </trkpt>
      <trkpt lat="43.67668" lon="6.20155">
        <ele>951.6</ele>
        <time>2025-01-12T12:58:45.391Z</time>
      </trkpt>
      <trkpt lat="43.67669" lon="6.20145">
        <ele>950.4</ele>
        <time>2025-01-12T12:58:53.342Z</time>
      </trkpt>
      <trkpt lat="43.67671" lon="6.20134">
        <ele>949.2</ele>
        <time>2025-01-12T12:59:02.274Z</time>
      </trkpt>
      <trkpt lat="43.67673" lon="6.20123">
        <ele>948.5</ele>
        <time>2025-01-12T12:59:11.207Z</time>
      </trkpt>
      <trkpt lat="43.67675" lon="6.20116">
        <ele>947.9</ele>
        <time>2025-01-12T12:59:17.134Z</time>
      </trkpt>
      <trkpt lat="43.67677" lon="6.20109">
        <ele>947.4</ele>
        <time>2025-01-12T12:59:23.061Z</time>
      </trkpt>
      <trkpt lat="43.67679" lon="6.20103">
        <ele>947</ele>
        <time>2025-01-12T12:59:28.306Z</time>
      </trkpt>
      <trkpt lat="43.6768" lon="6.20097">
        <ele>947.2</ele>
        <time>2025-01-12T12:59:33.847Z</time>
      </trkpt>
      <trkpt lat="43.67682" lon="6.20092">
        <ele>947.1</ele>
        <time>2025-01-12T12:59:38.626Z</time>
      </trkpt>
      <trkpt lat="43.67683" lon="6.20086">
        <ele>947.4</ele>
        <time>2025-01-12T12:59:45.506Z</time>
      </trkpt>
      <trkpt lat="43.67681" lon="6.20078">
        <ele>948.1</ele>
        <time>2025-01-12T12:59:56.628Z</time>
      </trkpt>
      <trkpt lat="43.67681" lon="6.20074">
        <ele>948.3</ele>
        <time>2025-01-12T13:00:01.125Z</time>
      </trkpt>
      <trkpt lat="43.67682" lon="6.20071">
        <ele>948.3</ele>
        <time>2025-01-12T13:00:04.098Z</time>
      </trkpt>
      <trkpt lat="43.67684" lon="6.20068">
        <ele>948.3</ele>
        <time>2025-01-12T13:00:07.770Z</time>
      </trkpt>
      <trkpt lat="43.67685" lon="6.20065">
        <ele>948.4</ele>
        <time>2025-01-12T13:00:11.163Z</time>
      </trkpt>
      <trkpt lat="43.67687" lon="6.20061">
        <ele>948.6</ele>
        <time>2025-01-12T13:00:16.411Z</time>
      </trkpt>
      <trkpt lat="43.67686" lon="6.20057">
        <ele>948.9</ele>
        <time>2025-01-12T13:00:21.661Z</time>
      </trkpt>
      <trkpt lat="43.67685" lon="6.20054">
        <ele>949.4</ele>
        <time>2025-01-12T13:00:27.861Z</time>
      </trkpt>
      <trkpt lat="43.67685" lon="6.20051">
        <ele>950.3</ele>
        <time>2025-01-12T13:00:40.747Z</time>
      </trkpt>
      <trkpt lat="43.67684" lon="6.20048">
        <ele>951.1</ele>
        <time>2025-01-12T13:00:51.135Z</time>
      </trkpt>
      <trkpt lat="43.67683" lon="6.20045">
        <ele>951.9</ele>
        <time>2025-01-12T13:01:01.523Z</time>
      </trkpt>
      <trkpt lat="43.67682" lon="6.20042">
        <ele>952.7</ele>
        <time>2025-01-12T13:01:11.911Z</time>
      </trkpt>
      <trkpt lat="43.67683" lon="6.20038">
        <ele>953.8</ele>
        <time>2025-01-12T13:01:26.626Z</time>
      </trkpt>
      <trkpt lat="43.67682" lon="6.20035">
        <ele>954.6</ele>
        <time>2025-01-12T13:01:37.014Z</time>
      </trkpt>
      <trkpt lat="43.67681" lon="6.20034">
        <ele>954.8</ele>
        <time>2025-01-12T13:01:39.684Z</time>
      </trkpt>
      <trkpt lat="43.67681" lon="6.2003">
        <ele>955.9</ele>
        <time>2025-01-12T13:01:54.794Z</time>
      </trkpt>
      <trkpt lat="43.67681" lon="6.20027">
        <ele>956.8</ele>
        <time>2025-01-12T13:02:07.680Z</time>
      </trkpt>
      <trkpt lat="43.67679" lon="6.20024">
        <ele>957.8</ele>
        <time>2025-01-12T13:02:20.727Z</time>
      </trkpt>
      <trkpt lat="43.6768" lon="6.20021">
        <ele>958.9</ele>
        <time>2025-01-12T13:02:36.335Z</time>
      </trkpt>
      <trkpt lat="43.67681" lon="6.20019">
        <ele>959.7</ele>
        <time>2025-01-12T13:02:47.824Z</time>
      </trkpt>
      <trkpt lat="43.67683" lon="6.20017">
        <ele>960.4</ele>
        <time>2025-01-12T13:02:56.492Z</time>
      </trkpt>
      <trkpt lat="43.67683" lon="6.20014">
        <ele>961.5</ele>
        <time>2025-01-12T13:03:10.668Z</time>
      </trkpt>
      <trkpt lat="43.67684" lon="6.20011">
        <ele>962.5</ele>
        <time>2025-01-12T13:03:25.044Z</time>
      </trkpt>
      <trkpt lat="43.67684" lon="6.20009">
        <ele>963.2</ele>
        <time>2025-01-12T13:03:34.494Z</time>
      </trkpt>
      <trkpt lat="43.67684" lon="6.20006">
        <ele>964.3</ele>
        <time>2025-01-12T13:03:48.670Z</time>
      </trkpt>
      <trkpt lat="43.67683" lon="6.20005">
        <ele>964.6</ele>
        <time>2025-01-12T13:03:52.337Z</time>
      </trkpt>
      <trkpt lat="43.67681" lon="6.20003">
        <ele>965.4</ele>
        <time>2025-01-12T13:04:02.601Z</time>
      </trkpt>
      <trkpt lat="43.67679" lon="6.20001">
        <ele>966.2</ele>
        <time>2025-01-12T13:04:12.865Z</time>
      </trkpt>
      <trkpt lat="43.6768" lon="6.19997">
        <ele>967.5</ele>
        <time>2025-01-12T13:04:31.671Z</time>
      </trkpt>
      <trkpt lat="43.6768" lon="6.19994">
        <ele>968.5</ele>
        <time>2025-01-12T13:04:45.847Z</time>
      </trkpt>
      <trkpt lat="43.67681" lon="6.19992">
        <ele>969.1</ele>
        <time>2025-01-12T13:04:53.696Z</time>
      </trkpt>
      <trkpt lat="43.67682" lon="6.19989">
        <ele>970.1</ele>
        <time>2025-01-12T13:05:08.072Z</time>
      </trkpt>
      <trkpt lat="43.67683" lon="6.19987">
        <ele>970.7</ele>
        <time>2025-01-12T13:05:15.922Z</time>
      </trkpt>
      <trkpt lat="43.67684" lon="6.19985">
        <ele>971.4</ele>
        <time>2025-01-12T13:05:25.753Z</time>
      </trkpt>
      <trkpt lat="43.67683" lon="6.19982">
        <ele>972.4</ele>
        <time>2025-01-12T13:05:40.129Z</time>
      </trkpt>
      <trkpt lat="43.67683" lon="6.19981">
        <ele>972.7</ele>
        <time>2025-01-12T13:05:44.424Z</time>
      </trkpt>
      <trkpt lat="43.67682" lon="6.19978">
        <ele>973.7</ele>
        <time>2025-01-12T13:05:58.800Z</time>
      </trkpt>
      <trkpt lat="43.67682" lon="6.19975">
        <ele>974.6</ele>
        <time>2025-01-12T13:06:11.686Z</time>
      </trkpt>
      <trkpt lat="43.67683" lon="6.19974">
        <ele>975</ele>
        <time>2025-01-12T13:06:16.819Z</time>
      </trkpt>
      <trkpt lat="43.67683" lon="6.19974">
        <ele>975</ele>
        <time>2025-01-12T13:06:16.819Z</time>
      </trkpt>
      <trkpt lat="43.67683" lon="6.19974">
        <ele>975</ele>
        <time>2025-01-12T13:06:16.819Z</time>
      </trkpt>
      <trkpt lat="43.67683" lon="6.19969">
        <ele>975.9</ele>
        <time>2025-01-12T13:06:27.822Z</time>
      </trkpt>
      <trkpt lat="43.67684" lon="6.19966">
        <ele>976.2</ele>
        <time>2025-01-12T13:06:32.340Z</time>
      </trkpt>
      <trkpt lat="43.67681" lon="6.19963">
        <ele>976.3</ele>
        <time>2025-01-12T13:06:37.354Z</time>
      </trkpt>
      <trkpt lat="43.67677" lon="6.19965">
        <ele>976.1</ele>
        <time>2025-01-12T13:06:41.985Z</time>
      </trkpt>
      <trkpt lat="43.67673" lon="6.19966">
        <ele>975.8</ele>
        <time>2025-01-12T13:06:46.412Z</time>
      </trkpt>
      <trkpt lat="43.67668" lon="6.19967">
        <ele>975.6</ele>
        <time>2025-01-12T13:06:51.994Z</time>
      </trkpt>
      <trkpt lat="43.67663" lon="6.19965">
        <ele>974.2</ele>
        <time>2025-01-12T13:06:57.661Z</time>
      </trkpt>
      <trkpt lat="43.67658" lon="6.19963">
        <ele>972.3</ele>
        <time>2025-01-12T13:07:03.329Z</time>
      </trkpt>
      <trkpt lat="43.67656" lon="6.19957">
        <ele>972</ele>
        <time>2025-01-12T13:07:08.532Z</time>
      </trkpt>
      <trkpt lat="43.67654" lon="6.19951">
        <ele>971.8</ele>
        <time>2025-01-12T13:07:13.776Z</time>
      </trkpt>
      <trkpt lat="43.67651" lon="6.19946">
        <ele>971.1</ele>
        <time>2025-01-12T13:07:18.893Z</time>
      </trkpt>
      <trkpt lat="43.67648" lon="6.1994">
        <ele>969.1</ele>
        <time>2025-01-12T13:07:24.637Z</time>
      </trkpt>
      <trkpt lat="43.67646" lon="6.19934">
        <ele>967.5</ele>
        <time>2025-01-12T13:07:29.840Z</time>
      </trkpt>
      <trkpt lat="43.67644" lon="6.19927">
        <ele>965.9</ele>
        <time>2025-01-12T13:07:35.767Z</time>
      </trkpt>
      <trkpt lat="43.67641" lon="6.19922">
        <ele>964.7</ele>
        <time>2025-01-12T13:07:40.884Z</time>
      </trkpt>
      <trkpt lat="43.67638" lon="6.19916">
        <ele>963.4</ele>
        <time>2025-01-12T13:07:46.628Z</time>
      </trkpt>
      <trkpt lat="43.67634" lon="6.19912">
        <ele>960.3</ele>
        <time>2025-01-12T13:07:52.004Z</time>
      </trkpt>
      <trkpt lat="43.6763" lon="6.19908">
        <ele>957.6</ele>
        <time>2025-01-12T13:07:57.379Z</time>
      </trkpt>
      <trkpt lat="43.67622" lon="6.19904">
        <ele>954.2</ele>
        <time>2025-01-12T13:08:06.642Z</time>
      </trkpt>
      <trkpt lat="43.67614" lon="6.19899">
        <ele>951.4</ele>
        <time>2025-01-12T13:08:16.202Z</time>
      </trkpt>
      <trkpt lat="43.67606" lon="6.19894">
        <ele>948.5</ele>
        <time>2025-01-12T13:08:25.762Z</time>
      </trkpt>
      <trkpt lat="43.676" lon="6.19889">
        <ele>946.4</ele>
        <time>2025-01-12T13:08:33.390Z</time>
      </trkpt>
      <trkpt lat="43.67595" lon="6.19887">
        <ele>944.3</ele>
        <time>2025-01-12T13:08:39.057Z</time>
      </trkpt>
      <trkpt lat="43.67591" lon="6.1989">
        <ele>943.4</ele>
        <time>2025-01-12T13:08:44.013Z</time>
      </trkpt>
      <trkpt lat="43.67587" lon="6.19893">
        <ele>941.7</ele>
        <time>2025-01-12T13:08:48.968Z</time>
      </trkpt>
      <trkpt lat="43.67582" lon="6.19886">
        <ele>940</ele>
        <time>2025-01-12T13:08:56.716Z</time>
      </trkpt>
      <trkpt lat="43.67579" lon="6.19883">
        <ele>938.4</ele>
        <time>2025-01-12T13:09:00.747Z</time>
      </trkpt>
      <trkpt lat="43.67571" lon="6.19882">
        <ele>935.5</ele>
        <time>2025-01-12T13:09:09.494Z</time>
      </trkpt>
      <trkpt lat="43.67567" lon="6.1988">
        <ele>934.2</ele>
        <time>2025-01-12T13:09:14.126Z</time>
      </trkpt>
      <trkpt lat="43.67562" lon="6.19878">
        <ele>932.8</ele>
        <time>2025-01-12T13:09:19.793Z</time>
      </trkpt>
      <trkpt lat="43.67559" lon="6.19872">
        <ele>932.8</ele>
        <time>2025-01-12T13:09:26.358Z</time>
      </trkpt>
      <trkpt lat="43.67556" lon="6.19866">
        <ele>933.2</ele>
        <time>2025-01-12T13:09:34.745Z</time>
      </trkpt>
      <trkpt lat="43.67553" lon="6.19861">
        <ele>933.1</ele>
        <time>2025-01-12T13:09:40.226Z</time>
      </trkpt>
      <trkpt lat="43.67549" lon="6.19856">
        <ele>930.5</ele>
        <time>2025-01-12T13:09:46.097Z</time>
      </trkpt>
      <trkpt lat="43.67542" lon="6.19855">
        <ele>928.5</ele>
        <time>2025-01-12T13:09:53.760Z</time>
      </trkpt>
      <trkpt lat="43.67535" lon="6.1985">
        <ele>926.3</ele>
        <time>2025-01-12T13:10:02.339Z</time>
      </trkpt>
      <trkpt lat="43.67529" lon="6.19842">
        <ele>925.1</ele>
        <time>2025-01-12T13:10:11.416Z</time>
      </trkpt>
      <trkpt lat="43.67527" lon="6.19836">
        <ele>924.6</ele>
        <time>2025-01-12T13:10:16.619Z</time>
      </trkpt>
      <trkpt lat="43.67524" lon="6.1983">
        <ele>922.4</ele>
        <time>2025-01-12T13:10:22.363Z</time>
      </trkpt>
      <trkpt lat="43.6752" lon="6.19819">
        <ele>918.4</ele>
        <time>2025-01-12T13:10:32.060Z</time>
      </trkpt>
      <trkpt lat="43.67517" lon="6.19815">
        <ele>916.7</ele>
        <time>2025-01-12T13:10:36.598Z</time>
      </trkpt>
      <trkpt lat="43.67513" lon="6.1981">
        <ele>914.9</ele>
        <time>2025-01-12T13:10:42.470Z</time>
      </trkpt>
      <trkpt lat="43.67509" lon="6.19805">
        <ele>913.5</ele>
        <time>2025-01-12T13:10:48.341Z</time>
      </trkpt>
      <trkpt lat="43.67505" lon="6.198">
        <ele>911.5</ele>
        <time>2025-01-12T13:10:54.213Z</time>
      </trkpt>
      <trkpt lat="43.67501" lon="6.19798">
        <ele>910.5</ele>
        <time>2025-01-12T13:10:58.845Z</time>
      </trkpt>
      <trkpt lat="43.67494" lon="6.19797">
        <ele>906.7</ele>
        <time>2025-01-12T13:11:06.507Z</time>
      </trkpt>
      <trkpt lat="43.67491" lon="6.19793">
        <ele>904.3</ele>
        <time>2025-01-12T13:11:11.046Z</time>
      </trkpt>
      <trkpt lat="43.67486" lon="6.19785">
        <ele>900.7</ele>
        <time>2025-01-12T13:11:19.373Z</time>
      </trkpt>
      <trkpt lat="43.67481" lon="6.19784">
        <ele>898.2</ele>
        <time>2025-01-12T13:11:24.874Z</time>
      </trkpt>
      <trkpt lat="43.67484" lon="6.19778">
        <ele>899.1</ele>
        <time>2025-01-12T13:11:36.658Z</time>
      </trkpt>
      <trkpt lat="43.67481" lon="6.19773">
        <ele>897.4</ele>
        <time>2025-01-12T13:11:41.774Z</time>
      </trkpt>
      <trkpt lat="43.67477" lon="6.19767">
        <ele>895.9</ele>
        <time>2025-01-12T13:11:48.200Z</time>
      </trkpt>
      <trkpt lat="43.67477" lon="6.19766">
        <ele>895.9</ele>
        <time>2025-01-12T13:11:49.101Z</time>
      </trkpt>
      <trkpt lat="43.67475" lon="6.1976">
        <ele>895.6</ele>
        <time>2025-01-12T13:11:54.304Z</time>
      </trkpt>
      <trkpt lat="43.67473" lon="6.19754">
        <ele>895.7</ele>
        <time>2025-01-12T13:12:00.651Z</time>
      </trkpt>
      <trkpt lat="43.6747" lon="6.19746">
        <ele>893.6</ele>
        <time>2025-01-12T13:12:07.748Z</time>
      </trkpt>
      <trkpt lat="43.67465" lon="6.1975">
        <ele>893.1</ele>
        <time>2025-01-12T13:12:14.038Z</time>
      </trkpt>
      <trkpt lat="43.67461" lon="6.19748">
        <ele>891.1</ele>
        <time>2025-01-12T13:12:18.670Z</time>
      </trkpt>
      <trkpt lat="43.67459" lon="6.19742">
        <ele>889.2</ele>
        <time>2025-01-12T13:12:23.873Z</time>
      </trkpt>
      <trkpt lat="43.67457" lon="6.19736">
        <ele>887.8</ele>
        <time>2025-01-12T13:12:29.076Z</time>
      </trkpt>
      <trkpt lat="43.67453" lon="6.19735">
        <ele>887.1</ele>
        <time>2025-01-12T13:12:33.502Z</time>
      </trkpt>
      <trkpt lat="43.67452" lon="6.19734">
        <ele>887</ele>
        <time>2025-01-12T13:12:34.846Z</time>
      </trkpt>
      <trkpt lat="43.67451" lon="6.19734">
        <ele>886.8</ele>
        <time>2025-01-12T13:12:35.935Z</time>
      </trkpt>
      <trkpt lat="43.67448" lon="6.19735">
        <ele>886.5</ele>
        <time>2025-01-12T13:12:39.295Z</time>
      </trkpt>
      <trkpt lat="43.67448" lon="6.19724">
        <ele>886.6</ele>
        <time>2025-01-12T13:12:49.590Z</time>
      </trkpt>
      <trkpt lat="43.67447" lon="6.19714">
        <ele>886.9</ele>
        <time>2025-01-12T13:12:59.935Z</time>
      </trkpt>
      <trkpt lat="43.67447" lon="6.19703">
        <ele>887.1</ele>
        <time>2025-01-12T13:13:10.645Z</time>
      </trkpt>
      <trkpt lat="43.67446" lon="6.19692">
        <ele>887.5</ele>
        <time>2025-01-12T13:13:22.337Z</time>
      </trkpt>
      <trkpt lat="43.67441" lon="6.19691">
        <ele>886.4</ele>
        <time>2025-01-12T13:13:27.838Z</time>
      </trkpt>
      <trkpt lat="43.67436" lon="6.1969">
        <ele>884.2</ele>
        <time>2025-01-12T13:13:33.339Z</time>
      </trkpt>
      <trkpt lat="43.67432" lon="6.19695">
        <ele>882.1</ele>
        <time>2025-01-12T13:13:39.211Z</time>
      </trkpt>
      <trkpt lat="43.67429" lon="6.19701">
        <ele>879.4</ele>
        <time>2025-01-12T13:13:44.956Z</time>
      </trkpt>
      <trkpt lat="43.67425" lon="6.19706">
        <ele>875.9</ele>
        <time>2025-01-12T13:13:50.828Z</time>
      </trkpt>
      <trkpt lat="43.67422" lon="6.19712">
        <ele>872.3</ele>
        <time>2025-01-12T13:13:56.572Z</time>
      </trkpt>
      <trkpt lat="43.67427" lon="6.19707">
        <ele>876.8</ele>
        <time>2025-01-12T13:14:36.888Z</time>
      </trkpt>
      <trkpt lat="43.67432" lon="6.19701">
        <ele>881</ele>
        <time>2025-01-12T13:15:20.142Z</time>
      </trkpt>
      <trkpt lat="43.67437" lon="6.19696">
        <ele>884.3</ele>
        <time>2025-01-12T13:16:00.458Z</time>
      </trkpt>
      <trkpt lat="43.67443" lon="6.19691">
        <ele>887.2</ele>
        <time>2025-01-12T13:16:41.942Z</time>
      </trkpt>
      <trkpt lat="43.67448" lon="6.19701">
        <ele>886.9</ele>
        <time>2025-01-12T13:16:51.815Z</time>
      </trkpt>
      <trkpt lat="43.67449" lon="6.19708">
        <ele>886.6</ele>
        <time>2025-01-12T13:16:57.434Z</time>
      </trkpt>
      <trkpt lat="43.67451" lon="6.19716">
        <ele>886.3</ele>
        <time>2025-01-12T13:17:04.101Z</time>
      </trkpt>
      <trkpt lat="43.67449" lon="6.19725">
        <ele>886.5</ele>
        <time>2025-01-12T13:17:13.392Z</time>
      </trkpt>
      <trkpt lat="43.67448" lon="6.19735">
        <ele>886.5</ele>
        <time>2025-01-12T13:17:22.479Z</time>
      </trkpt>
      <trkpt lat="43.67451" lon="6.19734">
        <ele>886.8</ele>
        <time>2025-01-12T13:17:27.758Z</time>
      </trkpt>
      <trkpt lat="43.67452" lon="6.19734">
        <ele>887</ele>
        <time>2025-01-12T13:17:30.260Z</time>
      </trkpt>
      <trkpt lat="43.67454" lon="6.19737">
        <ele>887.5</ele>
        <time>2025-01-12T13:17:36.822Z</time>
      </trkpt>
      <trkpt lat="43.6745" lon="6.19739">
        <ele>886.9</ele>
        <time>2025-01-12T13:17:41.454Z</time>
      </trkpt>
      <trkpt lat="43.67454" lon="6.19741">
        <ele>887.9</ele>
        <time>2025-01-12T13:17:53.691Z</time>
      </trkpt>
      <trkpt lat="43.67453" lon="6.19744">
        <ele>887.9</ele>
        <time>2025-01-12T13:17:56.664Z</time>
      </trkpt>
      <trkpt lat="43.67455" lon="6.19746">
        <ele>888.7</ele>
        <time>2025-01-12T13:18:06.928Z</time>
      </trkpt>
      <trkpt lat="43.67458" lon="6.19735">
        <ele>887.8</ele>
        <time>2025-01-12T13:18:16.187Z</time>
      </trkpt>
      <trkpt lat="43.67453" lon="6.19735">
        <ele>887.1</ele>
        <time>2025-01-12T13:18:21.631Z</time>
      </trkpt>
      <trkpt lat="43.67457" lon="6.19736">
        <ele>887.8</ele>
        <time>2025-01-12T13:18:30.766Z</time>
      </trkpt>
      <trkpt lat="43.67459" lon="6.19742">
        <ele>889.2</ele>
        <time>2025-01-12T13:18:48.216Z</time>
      </trkpt>
      <trkpt lat="43.67461" lon="6.19748">
        <ele>891.1</ele>
        <time>2025-01-12T13:19:14.887Z</time>
      </trkpt>
      <trkpt lat="43.67465" lon="6.1975">
        <ele>893.1</ele>
        <time>2025-01-12T13:19:42.677Z</time>
      </trkpt>
      <trkpt lat="43.6747" lon="6.19746">
        <ele>893.6</ele>
        <time>2025-01-12T13:19:52.201Z</time>
      </trkpt>
      <trkpt lat="43.67473" lon="6.19754">
        <ele>895.7</ele>
        <time>2025-01-12T13:20:19.090Z</time>
      </trkpt>
      <trkpt lat="43.67475" lon="6.1976">
        <ele>895.6</ele>
        <time>2025-01-12T13:20:24.669Z</time>
      </trkpt>
      <trkpt lat="43.67477" lon="6.19766">
        <ele>895.9</ele>
        <time>2025-01-12T13:20:31.940Z</time>
      </trkpt>
      <trkpt lat="43.67477" lon="6.19767">
        <ele>895.9</ele>
        <time>2025-01-12T13:20:32.840Z</time>
      </trkpt>
      <trkpt lat="43.67481" lon="6.19773">
        <ele>897.4</ele>
        <time>2025-01-12T13:20:51.190Z</time>
      </trkpt>
      <trkpt lat="43.67484" lon="6.19778">
        <ele>899.1</ele>
        <time>2025-01-12T13:21:14.002Z</time>
      </trkpt>
      <trkpt lat="43.67481" lon="6.19784">
        <ele>898.2</ele>
        <time>2025-01-12T13:21:19.747Z</time>
      </trkpt>
      <trkpt lat="43.67486" lon="6.19785">
        <ele>900.7</ele>
        <time>2025-01-12T13:21:52.753Z</time>
      </trkpt>
      <trkpt lat="43.67491" lon="6.19793">
        <ele>904.3</ele>
        <time>2025-01-12T13:22:42.715Z</time>
      </trkpt>
      <trkpt lat="43.67494" lon="6.19797">
        <ele>906.7</ele>
        <time>2025-01-12T13:23:09.944Z</time>
      </trkpt>
      <trkpt lat="43.67501" lon="6.19798">
        <ele>910.5</ele>
        <time>2025-01-12T13:23:55.921Z</time>
      </trkpt>
      <trkpt lat="43.67505" lon="6.198">
        <ele>911.5</ele>
        <time>2025-01-12T13:24:08.158Z</time>
      </trkpt>
      <trkpt lat="43.67509" lon="6.19805">
        <ele>913.5</ele>
        <time>2025-01-12T13:24:35.308Z</time>
      </trkpt>
      <trkpt lat="43.67513" lon="6.1981">
        <ele>914.9</ele>
        <time>2025-01-12T13:24:52.454Z</time>
      </trkpt>
      <trkpt lat="43.67517" lon="6.19815">
        <ele>916.7</ele>
        <time>2025-01-12T13:25:15.799Z</time>
      </trkpt>
      <trkpt lat="43.6752" lon="6.19819">
        <ele>918.4</ele>
        <time>2025-01-12T13:25:39.953Z</time>
      </trkpt>
      <trkpt lat="43.67524" lon="6.1983">
        <ele>922.4</ele>
        <time>2025-01-12T13:26:38.131Z</time>
      </trkpt>
      <trkpt lat="43.67527" lon="6.19836">
        <ele>924.6</ele>
        <time>2025-01-12T13:27:09.707Z</time>
      </trkpt>
      <trkpt lat="43.67529" lon="6.19842">
        <ele>925.1</ele>
        <time>2025-01-12T13:27:18.095Z</time>
      </trkpt>
      <trkpt lat="43.67535" lon="6.1985">
        <ele>926.3</ele>
        <time>2025-01-12T13:27:34.950Z</time>
      </trkpt>
      <trkpt lat="43.67542" lon="6.19855">
        <ele>928.5</ele>
        <time>2025-01-12T13:28:02.120Z</time>
      </trkpt>
      <trkpt lat="43.67549" lon="6.19856">
        <ele>930.5</ele>
        <time>2025-01-12T13:28:26.894Z</time>
      </trkpt>
      <trkpt lat="43.67553" lon="6.19861">
        <ele>933.1</ele>
        <time>2025-01-12T13:29:02.124Z</time>
      </trkpt>
      <trkpt lat="43.67556" lon="6.19866">
        <ele>933.2</ele>
        <time>2025-01-12T13:29:08.373Z</time>
      </trkpt>
      <trkpt lat="43.67559" lon="6.19872">
        <ele>932.8</ele>
        <time>2025-01-12T13:29:14.117Z</time>
      </trkpt>
      <trkpt lat="43.67562" lon="6.19878">
        <ele>932.8</ele>
        <time>2025-01-12T13:29:20.683Z</time>
      </trkpt>
      <trkpt lat="43.67567" lon="6.1988">
        <ele>934.2</ele>
        <time>2025-01-12T13:29:37.884Z</time>
      </trkpt>
      <trkpt lat="43.67571" lon="6.19882">
        <ele>935.5</ele>
        <time>2025-01-12T13:29:54.259Z</time>
      </trkpt>
      <trkpt lat="43.67579" lon="6.19883">
        <ele>938.4</ele>
        <time>2025-01-12T13:30:33.136Z</time>
      </trkpt>
      <trkpt lat="43.67582" lon="6.19886">
        <ele>940</ele>
        <time>2025-01-12T13:30:56.445Z</time>
      </trkpt>
      <trkpt lat="43.67587" lon="6.19893">
        <ele>941.7</ele>
        <time>2025-01-12T13:31:17.235Z</time>
      </trkpt>
      <trkpt lat="43.67591" lon="6.1989">
        <ele>943.4</ele>
        <time>2025-01-12T13:31:40.392Z</time>
      </trkpt>
      <trkpt lat="43.67595" lon="6.19887">
        <ele>944.3</ele>
        <time>2025-01-12T13:31:51.678Z</time>
      </trkpt>
      <trkpt lat="43.676" lon="6.19889">
        <ele>946.4</ele>
        <time>2025-01-12T13:32:21.361Z</time>
      </trkpt>
      <trkpt lat="43.67606" lon="6.19894">
        <ele>948.5</ele>
        <time>2025-01-12T13:32:47.678Z</time>
      </trkpt>
      <trkpt lat="43.67614" lon="6.19899">
        <ele>951.4</ele>
        <time>2025-01-12T13:33:25.141Z</time>
      </trkpt>
      <trkpt lat="43.67622" lon="6.19904">
        <ele>954.2</ele>
        <time>2025-01-12T13:34:00.869Z</time>
      </trkpt>
      <trkpt lat="43.6763" lon="6.19908">
        <ele>957.6</ele>
        <time>2025-01-12T13:34:48.713Z</time>
      </trkpt>
      <trkpt lat="43.67634" lon="6.19912">
        <ele>960.3</ele>
        <time>2025-01-12T13:35:20.965Z</time>
      </trkpt>
      <trkpt lat="43.67638" lon="6.19916">
        <ele>963.4</ele>
        <time>2025-01-12T13:35:53.217Z</time>
      </trkpt>
      <trkpt lat="43.67641" lon="6.19922">
        <ele>964.7</ele>
        <time>2025-01-12T13:36:09.109Z</time>
      </trkpt>
      <trkpt lat="43.67644" lon="6.19927">
        <ele>965.9</ele>
        <time>2025-01-12T13:36:23.792Z</time>
      </trkpt>
      <trkpt lat="43.67646" lon="6.19934">
        <ele>967.5</ele>
        <time>2025-01-12T13:36:43.749Z</time>
      </trkpt>
      <trkpt lat="43.67648" lon="6.1994">
        <ele>969.1</ele>
        <time>2025-01-12T13:37:04.525Z</time>
      </trkpt>
      <trkpt lat="43.67651" lon="6.19946">
        <ele>971.1</ele>
        <time>2025-01-12T13:37:31.959Z</time>
      </trkpt>
      <trkpt lat="43.67654" lon="6.19951">
        <ele>971.8</ele>
        <time>2025-01-12T13:37:41.638Z</time>
      </trkpt>
      <trkpt lat="43.67656" lon="6.19957">
        <ele>972</ele>
        <time>2025-01-12T13:37:48.425Z</time>
      </trkpt>
      <trkpt lat="43.67658" lon="6.19963">
        <ele>972.3</ele>
        <time>2025-01-12T13:37:55.695Z</time>
      </trkpt>
      <trkpt lat="43.67663" lon="6.19965">
        <ele>974.2</ele>
        <time>2025-01-12T13:38:21.296Z</time>
      </trkpt>
      <trkpt lat="43.67668" lon="6.19967">
        <ele>975.6</ele>
        <time>2025-01-12T13:38:38.497Z</time>
      </trkpt>
      <trkpt lat="43.67675" lon="6.19963">
        <ele>976.2</ele>
        <time>2025-01-12T13:38:50.677Z</time>
      </trkpt>
      <trkpt lat="43.67677" lon="6.1996">
        <ele>976.5</ele>
        <time>2025-01-12T13:38:55.804Z</time>
      </trkpt>
      <trkpt lat="43.6768" lon="6.19958">
        <ele>976.8</ele>
        <time>2025-01-12T13:39:01.362Z</time>
      </trkpt>
      <trkpt lat="43.67687" lon="6.19961">
        <ele>976.6</ele>
        <time>2025-01-12T13:39:09.759Z</time>
      </trkpt>
      <trkpt lat="43.67689" lon="6.19959">
        <ele>976.8</ele>
        <time>2025-01-12T13:39:13.753Z</time>
      </trkpt>
      <trkpt lat="43.6769" lon="6.19957">
        <ele>977</ele>
        <time>2025-01-12T13:39:16.941Z</time>
      </trkpt>
      <trkpt lat="43.67691" lon="6.19954">
        <ele>977.3</ele>
        <time>2025-01-12T13:39:21.459Z</time>
      </trkpt>
      <trkpt lat="43.67693" lon="6.19952">
        <ele>977.4</ele>
        <time>2025-01-12T13:39:24.950Z</time>
      </trkpt>
      <trkpt lat="43.67694" lon="6.1995">
        <ele>977.6</ele>
        <time>2025-01-12T13:39:28.137Z</time>
      </trkpt>
      <trkpt lat="43.67696" lon="6.1995">
        <ele>976.8</ele>
        <time>2025-01-12T13:39:30.315Z</time>
      </trkpt>
      <trkpt lat="43.67698" lon="6.19951">
        <ele>975.8</ele>
        <time>2025-01-12T13:39:32.631Z</time>
      </trkpt>
      <trkpt lat="43.677" lon="6.19952">
        <ele>974.7</ele>
        <time>2025-01-12T13:39:34.947Z</time>
      </trkpt>
      <trkpt lat="43.67702" lon="6.1995">
        <ele>973.9</ele>
        <time>2025-01-12T13:39:37.634Z</time>
      </trkpt>
      <trkpt lat="43.67704" lon="6.19948">
        <ele>973.1</ele>
        <time>2025-01-12T13:39:40.322Z</time>
      </trkpt>
      <trkpt lat="43.67706" lon="6.19946">
        <ele>972.4</ele>
        <time>2025-01-12T13:39:43.010Z</time>
      </trkpt>
      <trkpt lat="43.67708" lon="6.19945">
        <ele>971.6</ele>
        <time>2025-01-12T13:39:45.326Z</time>
      </trkpt>
      <trkpt lat="43.67711" lon="6.19943">
        <ele>970.2</ele>
        <time>2025-01-12T13:39:48.952Z</time>
      </trkpt>
      <trkpt lat="43.67713" lon="6.19939">
        <ele>969.5</ele>
        <time>2025-01-12T13:39:52.782Z</time>
      </trkpt>
      <trkpt lat="43.67715" lon="6.19936">
        <ele>968.9</ele>
        <time>2025-01-12T13:39:55.995Z</time>
      </trkpt>
      <trkpt lat="43.67717" lon="6.19934">
        <ele>968.4</ele>
        <time>2025-01-12T13:39:58.683Z</time>
      </trkpt>
      <trkpt lat="43.67718" lon="6.19931">
        <ele>968.4</ele>
        <time>2025-01-12T13:40:01.656Z</time>
      </trkpt>
      <trkpt lat="43.67719" lon="6.19928">
        <ele>968.6</ele>
        <time>2025-01-12T13:40:05.557Z</time>
      </trkpt>
      <trkpt lat="43.6772" lon="6.19924">
        <ele>969</ele>
        <time>2025-01-12T13:40:11.453Z</time>
      </trkpt>
      <trkpt lat="43.67721" lon="6.19921">
        <ele>969.3</ele>
        <time>2025-01-12T13:40:15.971Z</time>
      </trkpt>
      <trkpt lat="43.67723" lon="6.19917">
        <ele>969.6</ele>
        <time>2025-01-12T13:40:21.745Z</time>
      </trkpt>
      <trkpt lat="43.67724" lon="6.19914">
        <ele>968.6</ele>
        <time>2025-01-12T13:40:24.347Z</time>
      </trkpt>
      <trkpt lat="43.67726" lon="6.19911">
        <ele>967.3</ele>
        <time>2025-01-12T13:40:27.560Z</time>
      </trkpt>
      <trkpt lat="43.67727" lon="6.19908">
        <ele>966.4</ele>
        <time>2025-01-12T13:40:30.161Z</time>
      </trkpt>
      <trkpt lat="43.67729" lon="6.19906">
        <ele>965.6</ele>
        <time>2025-01-12T13:40:32.849Z</time>
      </trkpt>
      <trkpt lat="43.67731" lon="6.19904">
        <ele>964.9</ele>
        <time>2025-01-12T13:40:35.537Z</time>
      </trkpt>
      <trkpt lat="43.67733" lon="6.19902">
        <ele>964.3</ele>
        <time>2025-01-12T13:40:38.224Z</time>
      </trkpt>
      <trkpt lat="43.67736" lon="6.19901">
        <ele>963.7</ele>
        <time>2025-01-12T13:40:41.585Z</time>
      </trkpt>
      <trkpt lat="43.67738" lon="6.199">
        <ele>963.4</ele>
        <time>2025-01-12T13:40:43.900Z</time>
      </trkpt>
      <trkpt lat="43.6774" lon="6.19897">
        <ele>963.3</ele>
        <time>2025-01-12T13:40:47.216Z</time>
      </trkpt>
      <trkpt lat="43.67742" lon="6.19895">
        <ele>963.2</ele>
        <time>2025-01-12T13:40:49.936Z</time>
      </trkpt>
      <trkpt lat="43.67744" lon="6.19893">
        <ele>963.3</ele>
        <time>2025-01-12T13:40:53.426Z</time>
      </trkpt>
      <trkpt lat="43.67746" lon="6.1989">
        <ele>963.7</ele>
        <time>2025-01-12T13:40:59.212Z</time>
      </trkpt>
      <trkpt lat="43.67748" lon="6.19887">
        <ele>963.7</ele>
        <time>2025-01-12T13:41:02.885Z</time>
      </trkpt>
      <trkpt lat="43.67751" lon="6.19882">
        <ele>962.9</ele>
        <time>2025-01-12T13:41:08.001Z</time>
      </trkpt>
      <trkpt lat="43.67752" lon="6.19879">
        <ele>962.3</ele>
        <time>2025-01-12T13:41:10.602Z</time>
      </trkpt>
      <trkpt lat="43.67754" lon="6.19876">
        <ele>961.6</ele>
        <time>2025-01-12T13:41:13.815Z</time>
      </trkpt>
      <trkpt lat="43.67755" lon="6.19874">
        <ele>961.3</ele>
        <time>2025-01-12T13:41:15.730Z</time>
      </trkpt>
      <trkpt lat="43.67758" lon="6.19873">
        <ele>960.6</ele>
        <time>2025-01-12T13:41:19.090Z</time>
      </trkpt>
      <trkpt lat="43.6776" lon="6.19871">
        <ele>960.3</ele>
        <time>2025-01-12T13:41:21.778Z</time>
      </trkpt>
      <trkpt lat="43.67764" lon="6.19869">
        <ele>959.8</ele>
        <time>2025-01-12T13:41:26.410Z</time>
      </trkpt>
      <trkpt lat="43.67767" lon="6.19869">
        <ele>959.3</ele>
        <time>2025-01-12T13:41:29.676Z</time>
      </trkpt>
      <trkpt lat="43.67772" lon="6.19868">
        <ele>958.8</ele>
        <time>2025-01-12T13:41:35.177Z</time>
      </trkpt>
      <trkpt lat="43.67773" lon="6.19866">
        <ele>959.1</ele>
        <time>2025-01-12T13:41:39.105Z</time>
      </trkpt>
      <trkpt lat="43.67775" lon="6.19864">
        <ele>959.4</ele>
        <time>2025-01-12T13:41:43.706Z</time>
      </trkpt>
      <trkpt lat="43.67777" lon="6.19862">
        <ele>959.8</ele>
        <time>2025-01-12T13:41:49.044Z</time>
      </trkpt>
      <trkpt lat="43.67781" lon="6.19858">
        <ele>958.9</ele>
        <time>2025-01-12T13:41:54.420Z</time>
      </trkpt>
      <trkpt lat="43.67782" lon="6.19856">
        <ele>958.7</ele>
        <time>2025-01-12T13:41:56.335Z</time>
      </trkpt>
      <trkpt lat="43.67784" lon="6.19854">
        <ele>958.2</ele>
        <time>2025-01-12T13:41:59.022Z</time>
      </trkpt>
      <trkpt lat="43.67786" lon="6.19851">
        <ele>957.9</ele>
        <time>2025-01-12T13:42:02.235Z</time>
      </trkpt>
      <trkpt lat="43.67789" lon="6.19848">
        <ele>957.4</ele>
        <time>2025-01-12T13:42:06.267Z</time>
      </trkpt>
      <trkpt lat="43.67791" lon="6.19846">
        <ele>957.2</ele>
        <time>2025-01-12T13:42:08.955Z</time>
      </trkpt>
      <trkpt lat="43.67793" lon="6.19842">
        <ele>957.4</ele>
        <time>2025-01-12T13:42:14.202Z</time>
      </trkpt>
      <trkpt lat="43.67796" lon="6.19839">
        <ele>957.4</ele>
        <time>2025-01-12T13:42:18.809Z</time>
      </trkpt>
      <trkpt lat="43.67798" lon="6.19839">
        <ele>956.9</ele>
        <time>2025-01-12T13:42:20.987Z</time>
      </trkpt>
      <trkpt lat="43.678" lon="6.19838">
        <ele>956.7</ele>
        <time>2025-01-12T13:42:23.303Z</time>
      </trkpt>
      <trkpt lat="43.67801" lon="6.19836">
        <ele>957.1</ele>
        <time>2025-01-12T13:42:28.209Z</time>
      </trkpt>
      <trkpt lat="43.67802" lon="6.19833">
        <ele>957.6</ele>
        <time>2025-01-12T13:42:34.408Z</time>
      </trkpt>
      <trkpt lat="43.67804" lon="6.1983">
        <ele>956.8</ele>
        <time>2025-01-12T13:42:37.621Z</time>
      </trkpt>
      <trkpt lat="43.67806" lon="6.19828">
        <ele>956.1</ele>
        <time>2025-01-12T13:42:40.309Z</time>
      </trkpt>
      <trkpt lat="43.67807" lon="6.19826">
        <ele>955.6</ele>
        <time>2025-01-12T13:42:42.223Z</time>
      </trkpt>
      <trkpt lat="43.67808" lon="6.19823">
        <ele>954.9</ele>
        <time>2025-01-12T13:42:44.825Z</time>
      </trkpt>
      <trkpt lat="43.67809" lon="6.19822">
        <ele>954.6</ele>
        <time>2025-01-12T13:42:46.169Z</time>
      </trkpt>
      <trkpt lat="43.67812" lon="6.19821">
        <ele>953.9</ele>
        <time>2025-01-12T13:42:49.529Z</time>
      </trkpt>
      <trkpt lat="43.67814" lon="6.19821">
        <ele>953.4</ele>
        <time>2025-01-12T13:42:51.707Z</time>
      </trkpt>
      <trkpt lat="43.67817" lon="6.19823">
        <ele>952.9</ele>
        <time>2025-01-12T13:42:55.333Z</time>
      </trkpt>
      <trkpt lat="43.6782" lon="6.1982">
        <ele>952.1</ele>
        <time>2025-01-12T13:42:59.365Z</time>
      </trkpt>
      <trkpt lat="43.67823" lon="6.19819">
        <ele>951.6</ele>
        <time>2025-01-12T13:43:02.725Z</time>
      </trkpt>
      <trkpt lat="43.67825" lon="6.19817">
        <ele>951.2</ele>
        <time>2025-01-12T13:43:05.413Z</time>
      </trkpt>
      <trkpt lat="43.67827" lon="6.19814">
        <ele>951</ele>
        <time>2025-01-12T13:43:08.626Z</time>
      </trkpt>
      <trkpt lat="43.67828" lon="6.1981">
        <ele>951.1</ele>
        <time>2025-01-12T13:43:12.847Z</time>
      </trkpt>
      <trkpt lat="43.6783" lon="6.19808">
        <ele>951</ele>
        <time>2025-01-12T13:43:15.566Z</time>
      </trkpt>
      <trkpt lat="43.67832" lon="6.19806">
        <ele>951.1</ele>
        <time>2025-01-12T13:43:19.057Z</time>
      </trkpt>
      <trkpt lat="43.67835" lon="6.19808">
        <ele>950.2</ele>
        <time>2025-01-12T13:43:22.684Z</time>
      </trkpt>
      <trkpt lat="43.67837" lon="6.19808">
        <ele>949.6</ele>
        <time>2025-01-12T13:43:24.861Z</time>
      </trkpt>
      <trkpt lat="43.6784" lon="6.19806">
        <ele>949</ele>
        <time>2025-01-12T13:43:28.488Z</time>
      </trkpt>
      <trkpt lat="43.67842" lon="6.19805">
        <ele>948.4</ele>
        <time>2025-01-12T13:43:30.804Z</time>
      </trkpt>
      <trkpt lat="43.67844" lon="6.19804">
        <ele>947.8</ele>
        <time>2025-01-12T13:43:33.119Z</time>
      </trkpt>
      <trkpt lat="43.67846" lon="6.19804">
        <ele>947.3</ele>
        <time>2025-01-12T13:43:35.297Z</time>
      </trkpt>
      <trkpt lat="43.67849" lon="6.19803">
        <ele>946.5</ele>
        <time>2025-01-12T13:43:38.658Z</time>
      </trkpt>
      <trkpt lat="43.6785" lon="6.19803">
        <ele>946.2</ele>
        <time>2025-01-12T13:43:39.746Z</time>
      </trkpt>
      <trkpt lat="43.67851" lon="6.19802">
        <ele>946</ele>
        <time>2025-01-12T13:43:41.090Z</time>
      </trkpt>
      <trkpt lat="43.67852" lon="6.198">
        <ele>945.8</ele>
        <time>2025-01-12T13:43:43.005Z</time>
      </trkpt>
      <trkpt lat="43.67854" lon="6.19799">
        <ele>945.4</ele>
        <time>2025-01-12T13:43:45.321Z</time>
      </trkpt>
      <trkpt lat="43.67857" lon="6.19798">
        <ele>944.9</ele>
        <time>2025-01-12T13:43:48.681Z</time>
      </trkpt>
      <trkpt lat="43.67858" lon="6.19796">
        <ele>944.9</ele>
        <time>2025-01-12T13:43:50.869Z</time>
      </trkpt>
      <trkpt lat="43.6786" lon="6.19794">
        <ele>944.8</ele>
        <time>2025-01-12T13:43:53.589Z</time>
      </trkpt>
      <trkpt lat="43.67862" lon="6.1979">
        <ele>945</ele>
        <time>2025-01-12T13:43:58.836Z</time>
      </trkpt>
      <trkpt lat="43.67863" lon="6.19787">
        <ele>945.1</ele>
        <time>2025-01-12T13:44:02.230Z</time>
      </trkpt>
      <trkpt lat="43.67864" lon="6.19784">
        <ele>945.3</ele>
        <time>2025-01-12T13:44:06.131Z</time>
      </trkpt>
      <trkpt lat="43.67866" lon="6.19781">
        <ele>945.2</ele>
        <time>2025-01-12T13:44:09.446Z</time>
      </trkpt>
      <trkpt lat="43.67867" lon="6.19778">
        <ele>945.5</ele>
        <time>2025-01-12T13:44:13.964Z</time>
      </trkpt>
      <trkpt lat="43.67869" lon="6.19775">
        <ele>944.8</ele>
        <time>2025-01-12T13:44:17.177Z</time>
      </trkpt>
      <trkpt lat="43.67871" lon="6.19772">
        <ele>944.1</ele>
        <time>2025-01-12T13:44:20.391Z</time>
      </trkpt>
      <trkpt lat="43.67872" lon="6.19769">
        <ele>943.8</ele>
        <time>2025-01-12T13:44:22.992Z</time>
      </trkpt>
      <trkpt lat="43.67875" lon="6.19766">
        <ele>943.5</ele>
        <time>2025-01-12T13:44:27.023Z</time>
      </trkpt>
      <trkpt lat="43.67876" lon="6.19763">
        <ele>943.5</ele>
        <time>2025-01-12T13:44:29.996Z</time>
      </trkpt>
      <trkpt lat="43.67877" lon="6.19761">
        <ele>943.5</ele>
        <time>2025-01-12T13:44:32.185Z</time>
      </trkpt>
      <trkpt lat="43.67879" lon="6.19757">
        <ele>943.8</ele>
        <time>2025-01-12T13:44:37.959Z</time>
      </trkpt>
      <trkpt lat="43.67879" lon="6.19754">
        <ele>944</ele>
        <time>2025-01-12T13:44:41.606Z</time>
      </trkpt>
      <trkpt lat="43.67881" lon="6.19751">
        <ele>944.5</ele>
        <time>2025-01-12T13:44:48.169Z</time>
      </trkpt>
      <trkpt lat="43.67883" lon="6.19749">
        <ele>944.9</ele>
        <time>2025-01-12T13:44:53.507Z</time>
      </trkpt>
      <trkpt lat="43.67886" lon="6.19748">
        <ele>945.4</ele>
        <time>2025-01-12T13:45:00.180Z</time>
      </trkpt>
      <trkpt lat="43.67889" lon="6.19741">
        <ele>945.7</ele>
        <time>2025-01-12T13:45:08.792Z</time>
      </trkpt>
      <trkpt lat="43.67891" lon="6.1974">
        <ele>945.3</ele>
        <time>2025-01-12T13:45:11.107Z</time>
      </trkpt>
      <trkpt lat="43.67892" lon="6.19738">
        <ele>945.2</ele>
        <time>2025-01-12T13:45:13.022Z</time>
      </trkpt>
      <trkpt lat="43.67893" lon="6.19734">
        <ele>945.1</ele>
        <time>2025-01-12T13:45:16.474Z</time>
      </trkpt>
      <trkpt lat="43.67895" lon="6.19731">
        <ele>945</ele>
        <time>2025-01-12T13:45:19.789Z</time>
      </trkpt>
      <trkpt lat="43.67896" lon="6.19728">
        <ele>945</ele>
        <time>2025-01-12T13:45:22.762Z</time>
      </trkpt>
      <trkpt lat="43.67898" lon="6.19725">
        <ele>945.2</ele>
        <time>2025-01-12T13:45:27.327Z</time>
      </trkpt>
      <trkpt lat="43.679" lon="6.19723">
        <ele>945.3</ele>
        <time>2025-01-12T13:45:30.818Z</time>
      </trkpt>
      <trkpt lat="43.67902" lon="6.19721">
        <ele>945.4</ele>
        <time>2025-01-12T13:45:34.309Z</time>
      </trkpt>
      <trkpt lat="43.67904" lon="6.19719">
        <ele>945.4</ele>
        <time>2025-01-12T13:45:37.380Z</time>
      </trkpt>
      <trkpt lat="43.67906" lon="6.19717">
        <ele>945.5</ele>
        <time>2025-01-12T13:45:40.871Z</time>
      </trkpt>
      <trkpt lat="43.67908" lon="6.19715">
        <ele>945.7</ele>
        <time>2025-01-12T13:45:44.865Z</time>
      </trkpt>
      <trkpt lat="43.6791" lon="6.19713">
        <ele>946</ele>
        <time>2025-01-12T13:45:49.466Z</time>
      </trkpt>
      <trkpt lat="43.67911" lon="6.19711">
        <ele>946.3</ele>
        <time>2025-01-12T13:45:53.393Z</time>
      </trkpt>
      <trkpt lat="43.67913" lon="6.19709">
        <ele>946.7</ele>
        <time>2025-01-12T13:45:58.732Z</time>
      </trkpt>
      <trkpt lat="43.67915" lon="6.19707">
        <ele>947.3</ele>
        <time>2025-01-12T13:46:06.067Z</time>
      </trkpt>
      <trkpt lat="43.67916" lon="6.19704">
        <ele>947.8</ele>
        <time>2025-01-12T13:46:12.266Z</time>
      </trkpt>
      <trkpt lat="43.67918" lon="6.19702">
        <ele>948.1</ele>
        <time>2025-01-12T13:46:16.867Z</time>
      </trkpt>
      <trkpt lat="43.6792" lon="6.19699">
        <ele>948.3</ele>
        <time>2025-01-12T13:46:21.432Z</time>
      </trkpt>
      <trkpt lat="43.67922" lon="6.19697">
        <ele>948.4</ele>
        <time>2025-01-12T13:46:24.923Z</time>
      </trkpt>
      <trkpt lat="43.67924" lon="6.19695">
        <ele>948.6</ele>
        <time>2025-01-12T13:46:28.916Z</time>
      </trkpt>
      <trkpt lat="43.67926" lon="6.19694">
        <ele>948.7</ele>
        <time>2025-01-12T13:46:31.988Z</time>
      </trkpt>
      <trkpt lat="43.67929" lon="6.19692">
        <ele>948.6</ele>
        <time>2025-01-12T13:46:35.774Z</time>
      </trkpt>
      <trkpt lat="43.6793" lon="6.19689">
        <ele>948.7</ele>
        <time>2025-01-12T13:46:39.167Z</time>
      </trkpt>
      <trkpt lat="43.67932" lon="6.19686">
        <ele>948.9</ele>
        <time>2025-01-12T13:46:43.732Z</time>
      </trkpt>
      <trkpt lat="43.67933" lon="6.19684">
        <ele>949.1</ele>
        <time>2025-01-12T13:46:46.920Z</time>
      </trkpt>
      <trkpt lat="43.67935" lon="6.19682">
        <ele>949.4</ele>
        <time>2025-01-12T13:46:51.521Z</time>
      </trkpt>
      <trkpt lat="43.67937" lon="6.19681">
        <ele>949.7</ele>
        <time>2025-01-12T13:46:55.776Z</time>
      </trkpt>
      <trkpt lat="43.67939" lon="6.1968">
        <ele>950</ele>
        <time>2025-01-12T13:47:00.031Z</time>
      </trkpt>
      <trkpt lat="43.67942" lon="6.19679">
        <ele>950.5</ele>
        <time>2025-01-12T13:47:06.704Z</time>
      </trkpt>
      <trkpt lat="43.67944" lon="6.19676">
        <ele>951.3</ele>
        <time>2025-01-12T13:47:16.543Z</time>
      </trkpt>
      <trkpt lat="43.67946" lon="6.19674">
        <ele>951.5</ele>
        <time>2025-01-12T13:47:20.536Z</time>
      </trkpt>
      <trkpt lat="43.67948" lon="6.19672">
        <ele>951.8</ele>
        <time>2025-01-12T13:47:25.137Z</time>
      </trkpt>
      <trkpt lat="43.6795" lon="6.1967">
        <ele>952.1</ele>
        <time>2025-01-12T13:47:29.738Z</time>
      </trkpt>
      <trkpt lat="43.67953" lon="6.19664">
        <ele>952.7</ele>
        <time>2025-01-12T13:47:39.301Z</time>
      </trkpt>
      <trkpt lat="43.67956" lon="6.19659">
        <ele>952.7</ele>
        <time>2025-01-12T13:47:45.148Z</time>
      </trkpt>
      <trkpt lat="43.67956" lon="6.19656">
        <ele>952.7</ele>
        <time>2025-01-12T13:47:47.848Z</time>
      </trkpt>
      <trkpt lat="43.67958" lon="6.19653">
        <ele>952.7</ele>
        <time>2025-01-12T13:47:51.520Z</time>
      </trkpt>
      <trkpt lat="43.6796" lon="6.19652">
        <ele>952.8</ele>
        <time>2025-01-12T13:47:54.592Z</time>
      </trkpt>
      <trkpt lat="43.67963" lon="6.19652">
        <ele>952.9</ele>
        <time>2025-01-12T13:47:58.738Z</time>
      </trkpt>
      <trkpt lat="43.67966" lon="6.19651">
        <ele>953</ele>
        <time>2025-01-12T13:48:02.990Z</time>
      </trkpt>
      <trkpt lat="43.67968" lon="6.19651">
        <ele>953</ele>
        <time>2025-01-12T13:48:05.479Z</time>
      </trkpt>
      <trkpt lat="43.67971" lon="6.1965">
        <ele>953.2</ele>
        <time>2025-01-12T13:48:10.206Z</time>
      </trkpt>
      <trkpt lat="43.67973" lon="6.1965">
        <ele>953.2</ele>
        <time>2025-01-12T13:48:12.695Z</time>
      </trkpt>
      <trkpt lat="43.67976" lon="6.19651">
        <ele>953</ele>
        <time>2025-01-12T13:48:16.055Z</time>
      </trkpt>
      <trkpt lat="43.67981" lon="6.19651">
        <ele>952.9</ele>
        <time>2025-01-12T13:48:21.910Z</time>
      </trkpt>
      <trkpt lat="43.67983" lon="6.19652">
        <ele>952.7</ele>
        <time>2025-01-12T13:48:24.226Z</time>
      </trkpt>
      <trkpt lat="43.67986" lon="6.19652">
        <ele>952.6</ele>
        <time>2025-01-12T13:48:27.602Z</time>
      </trkpt>
      <trkpt lat="43.67988" lon="6.19651">
        <ele>952.6</ele>
        <time>2025-01-12T13:48:30.249Z</time>
      </trkpt>
      <trkpt lat="43.67991" lon="6.19651">
        <ele>952.5</ele>
        <time>2025-01-12T13:48:33.625Z</time>
      </trkpt>
      <trkpt lat="43.67992" lon="6.1965">
        <ele>952.6</ele>
        <time>2025-01-12T13:48:35.622Z</time>
      </trkpt>
      <trkpt lat="43.67994" lon="6.19651">
        <ele>952.4</ele>
        <time>2025-01-12T13:48:37.938Z</time>
      </trkpt>
      <trkpt lat="43.67997" lon="6.1965">
        <ele>952.5</ele>
        <time>2025-01-12T13:48:42.190Z</time>
      </trkpt>
      <trkpt lat="43.67999" lon="6.19649">
        <ele>952.6</ele>
        <time>2025-01-12T13:48:45.262Z</time>
      </trkpt>
      <trkpt lat="43.68003" lon="6.19646">
        <ele>952.7</ele>
        <time>2025-01-12T13:48:51.326Z</time>
      </trkpt>
      <trkpt lat="43.68008" lon="6.19642">
        <ele>952.9</ele>
        <time>2025-01-12T13:48:59.342Z</time>
      </trkpt>
      <trkpt lat="43.68013" lon="6.19641">
        <ele>952.7</ele>
        <time>2025-01-12T13:49:04.924Z</time>
      </trkpt>
      <trkpt lat="43.68016" lon="6.1964">
        <ele>952.7</ele>
        <time>2025-01-12T13:49:08.764Z</time>
      </trkpt>
      <trkpt lat="43.68019" lon="6.1964">
        <ele>952.4</ele>
        <time>2025-01-12T13:49:12.031Z</time>
      </trkpt>
      <trkpt lat="43.68021" lon="6.19639">
        <ele>952.5</ele>
        <time>2025-01-12T13:49:15.103Z</time>
      </trkpt>
      <trkpt lat="43.68024" lon="6.19638">
        <ele>952.1</ele>
        <time>2025-01-12T13:49:18.463Z</time>
      </trkpt>
      <trkpt lat="43.68027" lon="6.19637">
        <ele>951.7</ele>
        <time>2025-01-12T13:49:21.824Z</time>
      </trkpt>
      <trkpt lat="43.68029" lon="6.19638">
        <ele>951.5</ele>
        <time>2025-01-12T13:49:24.139Z</time>
      </trkpt>
      <trkpt lat="43.68032" lon="6.19638">
        <ele>950.8</ele>
        <time>2025-01-12T13:49:27.406Z</time>
      </trkpt>
      <trkpt lat="43.68034" lon="6.19637">
        <ele>950.2</ele>
        <time>2025-01-12T13:49:29.722Z</time>
      </trkpt>
      <trkpt lat="43.68036" lon="6.19636">
        <ele>949.6</ele>
        <time>2025-01-12T13:49:32.038Z</time>
      </trkpt>
      <trkpt lat="43.68039" lon="6.19634">
        <ele>948.8</ele>
        <time>2025-01-12T13:49:35.664Z</time>
      </trkpt>
      <trkpt lat="43.68041" lon="6.19632">
        <ele>948.3</ele>
        <time>2025-01-12T13:49:38.352Z</time>
      </trkpt>
      <trkpt lat="43.68045" lon="6.19626">
        <ele>947.4</ele>
        <time>2025-01-12T13:49:44.778Z</time>
      </trkpt>
      <trkpt lat="43.68047" lon="6.19624">
        <ele>947.1</ele>
        <time>2025-01-12T13:49:47.466Z</time>
      </trkpt>
      <trkpt lat="43.68049" lon="6.19622">
        <ele>946.9</ele>
        <time>2025-01-12T13:49:50.153Z</time>
      </trkpt>
      <trkpt lat="43.68052" lon="6.1962">
        <ele>946.6</ele>
        <time>2025-01-12T13:49:53.780Z</time>
      </trkpt>
      <trkpt lat="43.68054" lon="6.19617">
        <ele>946.7</ele>
        <time>2025-01-12T13:49:57.865Z</time>
      </trkpt>
      <trkpt lat="43.68056" lon="6.19615">
        <ele>946.7</ele>
        <time>2025-01-12T13:50:00.936Z</time>
      </trkpt>
      <trkpt lat="43.68059" lon="6.19614">
        <ele>946.4</ele>
        <time>2025-01-12T13:50:04.296Z</time>
      </trkpt>
      <trkpt lat="43.68062" lon="6.19614">
        <ele>946</ele>
        <time>2025-01-12T13:50:07.563Z</time>
      </trkpt>
      <trkpt lat="43.68065" lon="6.19613">
        <ele>945.8</ele>
        <time>2025-01-12T13:50:10.923Z</time>
      </trkpt>
      <trkpt lat="43.68068" lon="6.19613">
        <ele>945.4</ele>
        <time>2025-01-12T13:50:14.190Z</time>
      </trkpt>
      <trkpt lat="43.6807" lon="6.19612">
        <ele>945.3</ele>
        <time>2025-01-12T13:50:16.506Z</time>
      </trkpt>
      <trkpt lat="43.68076" lon="6.19607">
        <ele>944.2</ele>
        <time>2025-01-12T13:50:24.134Z</time>
      </trkpt>
      <trkpt lat="43.68079" lon="6.19605">
        <ele>943.6</ele>
        <time>2025-01-12T13:50:27.760Z</time>
      </trkpt>
      <trkpt lat="43.68081" lon="6.19604">
        <ele>943.4</ele>
        <time>2025-01-12T13:50:30.076Z</time>
      </trkpt>
      <trkpt lat="43.68084" lon="6.19604">
        <ele>943.1</ele>
        <time>2025-01-12T13:50:33.343Z</time>
      </trkpt>
      <trkpt lat="43.68087" lon="6.19604">
        <ele>942.8</ele>
        <time>2025-01-12T13:50:36.609Z</time>
      </trkpt>
      <trkpt lat="43.68089" lon="6.19603">
        <ele>942.5</ele>
        <time>2025-01-12T13:50:38.925Z</time>
      </trkpt>
      <trkpt lat="43.68094" lon="6.19598">
        <ele>941.8</ele>
        <time>2025-01-12T13:50:45.644Z</time>
      </trkpt>
      <trkpt lat="43.68096" lon="6.19596">
        <ele>941.6</ele>
        <time>2025-01-12T13:50:48.332Z</time>
      </trkpt>
      <trkpt lat="43.68099" lon="6.19595">
        <ele>941.4</ele>
        <time>2025-01-12T13:50:51.692Z</time>
      </trkpt>
      <trkpt lat="43.68102" lon="6.19594">
        <ele>941.3</ele>
        <time>2025-01-12T13:50:55.175Z</time>
      </trkpt>
      <trkpt lat="43.68107" lon="6.19591">
        <ele>941.3</ele>
        <time>2025-01-12T13:51:01.957Z</time>
      </trkpt>
      <trkpt lat="43.68111" lon="6.19589">
        <ele>941.4</ele>
        <time>2025-01-12T13:51:07.654Z</time>
      </trkpt>
      <trkpt lat="43.68112" lon="6.19586">
        <ele>941.7</ele>
        <time>2025-01-12T13:51:12.172Z</time>
      </trkpt>
      <trkpt lat="43.68113" lon="6.19584">
        <ele>941.9</ele>
        <time>2025-01-12T13:51:15.360Z</time>
      </trkpt>
      <trkpt lat="43.68116" lon="6.19584">
        <ele>941.9</ele>
        <time>2025-01-12T13:51:19.093Z</time>
      </trkpt>
      <trkpt lat="43.68118" lon="6.19583">
        <ele>941.9</ele>
        <time>2025-01-12T13:51:21.740Z</time>
      </trkpt>
      <trkpt lat="43.68121" lon="6.19582">
        <ele>941.7</ele>
        <time>2025-01-12T13:51:25.100Z</time>
      </trkpt>
      <trkpt lat="43.68123" lon="6.19582">
        <ele>941.8</ele>
        <time>2025-01-12T13:51:28.017Z</time>
      </trkpt>
      <trkpt lat="43.68126" lon="6.19582">
        <ele>941.8</ele>
        <time>2025-01-12T13:51:31.750Z</time>
      </trkpt>
      <trkpt lat="43.68131" lon="6.19582">
        <ele>941.8</ele>
        <time>2025-01-12T13:51:37.973Z</time>
      </trkpt>
      <trkpt lat="43.68139" lon="6.1958">
        <ele>941.5</ele>
        <time>2025-01-12T13:51:47.026Z</time>
      </trkpt>
      <trkpt lat="43.68144" lon="6.19578">
        <ele>941.2</ele>
        <time>2025-01-12T13:51:52.694Z</time>
      </trkpt>
      <trkpt lat="43.68146" lon="6.19577">
        <ele>941.1</ele>
        <time>2025-01-12T13:51:55.010Z</time>
      </trkpt>
      <trkpt lat="43.68148" lon="6.19575">
        <ele>940.9</ele>
        <time>2025-01-12T13:51:57.697Z</time>
      </trkpt>
      <trkpt lat="43.6815" lon="6.19572">
        <ele>940.6</ele>
        <time>2025-01-12T13:52:00.910Z</time>
      </trkpt>
      <trkpt lat="43.68153" lon="6.19571">
        <ele>940.6</ele>
        <time>2025-01-12T13:52:04.751Z</time>
      </trkpt>
      <trkpt lat="43.68155" lon="6.19571">
        <ele>940.7</ele>
        <time>2025-01-12T13:52:07.668Z</time>
      </trkpt>
      <trkpt lat="43.68158" lon="6.19571">
        <ele>940.8</ele>
        <time>2025-01-12T13:52:11.814Z</time>
      </trkpt>
      <trkpt lat="43.68161" lon="6.1957">
        <ele>940.8</ele>
        <time>2025-01-12T13:52:15.654Z</time>
      </trkpt>
      <trkpt lat="43.68164" lon="6.19571">
        <ele>940.9</ele>
        <time>2025-01-12T13:52:19.906Z</time>
      </trkpt>
      <trkpt lat="43.68166" lon="6.19572">
        <ele>941</ele>
        <time>2025-01-12T13:52:22.978Z</time>
      </trkpt>
      <trkpt lat="43.68169" lon="6.19572">
        <ele>941.2</ele>
        <time>2025-01-12T13:52:27.602Z</time>
      </trkpt>
      <trkpt lat="43.68172" lon="6.19572">
        <ele>941.4</ele>
        <time>2025-01-12T13:52:32.226Z</time>
      </trkpt>
      <trkpt lat="43.68175" lon="6.19572">
        <ele>941.6</ele>
        <time>2025-01-12T13:52:36.850Z</time>
      </trkpt>
      <trkpt lat="43.68178" lon="6.19571">
        <ele>941.9</ele>
        <time>2025-01-12T13:52:42.129Z</time>
      </trkpt>
      <trkpt lat="43.68181" lon="6.19571">
        <ele>942.1</ele>
        <time>2025-01-12T13:52:46.753Z</time>
      </trkpt>
      <trkpt lat="43.68183" lon="6.19569">
        <ele>942.5</ele>
        <time>2025-01-12T13:52:52.092Z</time>
      </trkpt>
      <trkpt lat="43.68186" lon="6.19568">
        <ele>942.9</ele>
        <time>2025-01-12T13:52:58.014Z</time>
      </trkpt>
      <trkpt lat="43.68189" lon="6.19567">
        <ele>943.4</ele>
        <time>2025-01-12T13:53:04.687Z</time>
      </trkpt>
      <trkpt lat="43.6819" lon="6.19566">
        <ele>943.6</ele>
        <time>2025-01-12T13:53:07.356Z</time>
      </trkpt>
      <trkpt lat="43.68193" lon="6.19566">
        <ele>944</ele>
        <time>2025-01-12T13:53:13.191Z</time>
      </trkpt>
      <trkpt lat="43.68196" lon="6.19565">
        <ele>944.4</ele>
        <time>2025-01-12T13:53:19.113Z</time>
      </trkpt>
      <trkpt lat="43.68198" lon="6.19563">
        <ele>944.9</ele>
        <time>2025-01-12T13:53:25.351Z</time>
      </trkpt>
      <trkpt lat="43.682" lon="6.19562">
        <ele>945.3</ele>
        <time>2025-01-12T13:53:30.430Z</time>
      </trkpt>
      <trkpt lat="43.68202" lon="6.1956">
        <ele>945.8</ele>
        <time>2025-01-12T13:53:36.668Z</time>
      </trkpt>
      <trkpt lat="43.68205" lon="6.19559">
        <ele>946.3</ele>
        <time>2025-01-12T13:53:43.341Z</time>
      </trkpt>
      <trkpt lat="43.68207" lon="6.19557">
        <ele>947</ele>
        <time>2025-01-12T13:53:52.009Z</time>
      </trkpt>
      <trkpt lat="43.68209" lon="6.19555">
        <ele>947.5</ele>
        <time>2025-01-12T13:53:58.246Z</time>
      </trkpt>
      <trkpt lat="43.68211" lon="6.19554">
        <ele>947.5</ele>
        <time>2025-01-12T13:54:00.893Z</time>
      </trkpt>
      <trkpt lat="43.68214" lon="6.19552">
        <ele>947.6</ele>
        <time>2025-01-12T13:54:05.447Z</time>
      </trkpt>
      <trkpt lat="43.68217" lon="6.19551">
        <ele>947.8</ele>
        <time>2025-01-12T13:54:10.174Z</time>
      </trkpt>
      <trkpt lat="43.68219" lon="6.1955">
        <ele>948</ele>
        <time>2025-01-12T13:54:13.772Z</time>
      </trkpt>
      <trkpt lat="43.68221" lon="6.19548">
        <ele>948</ele>
        <time>2025-01-12T13:54:16.844Z</time>
      </trkpt>
      <trkpt lat="43.68224" lon="6.19547">
        <ele>948.3</ele>
        <time>2025-01-12T13:54:22.123Z</time>
      </trkpt>
      <trkpt lat="43.68226" lon="6.19545">
        <ele>948.3</ele>
        <time>2025-01-12T13:54:25.194Z</time>
      </trkpt>
      <trkpt lat="43.68228" lon="6.19543">
        <ele>948.4</ele>
        <time>2025-01-12T13:54:28.685Z</time>
      </trkpt>
      <trkpt lat="43.68231" lon="6.19541">
        <ele>948.5</ele>
        <time>2025-01-12T13:54:33.239Z</time>
      </trkpt>
      <trkpt lat="43.68233" lon="6.1954">
        <ele>948.7</ele>
        <time>2025-01-12T13:54:36.837Z</time>
      </trkpt>
      <trkpt lat="43.68236" lon="6.19538">
        <ele>948.9</ele>
        <time>2025-01-12T13:54:41.859Z</time>
      </trkpt>
      <trkpt lat="43.68239" lon="6.19537">
        <ele>949.2</ele>
        <time>2025-01-12T13:54:47.138Z</time>
      </trkpt>
      <trkpt lat="43.6824" lon="6.19536">
        <ele>949.3</ele>
        <time>2025-01-12T13:54:49.135Z</time>
      </trkpt>
      <trkpt lat="43.68241" lon="6.19535">
        <ele>949.3</ele>
        <time>2025-01-12T13:54:50.670Z</time>
      </trkpt>
      <trkpt lat="43.68243" lon="6.19534">
        <ele>949.5</ele>
        <time>2025-01-12T13:54:54.269Z</time>
      </trkpt>
      <trkpt lat="43.68245" lon="6.19532">
        <ele>949.6</ele>
        <time>2025-01-12T13:54:57.759Z</time>
      </trkpt>
      <trkpt lat="43.68247" lon="6.1953">
        <ele>949.7</ele>
        <time>2025-01-12T13:55:01.250Z</time>
      </trkpt>
      <trkpt lat="43.6825" lon="6.19529">
        <ele>950.1</ele>
        <time>2025-01-12T13:55:07.172Z</time>
      </trkpt>
      <trkpt lat="43.68252" lon="6.19527">
        <ele>949.9</ele>
        <time>2025-01-12T13:55:09.859Z</time>
      </trkpt>
      <trkpt lat="43.68255" lon="6.19526">
        <ele>949.7</ele>
        <time>2025-01-12T13:55:13.220Z</time>
      </trkpt>
      <trkpt lat="43.68257" lon="6.19525">
        <ele>949.6</ele>
        <time>2025-01-12T13:55:15.535Z</time>
      </trkpt>
      <trkpt lat="43.6826" lon="6.19523">
        <ele>949.3</ele>
        <time>2025-01-12T13:55:19.162Z</time>
      </trkpt>
      <trkpt lat="43.68262" lon="6.19521">
        <ele>949.1</ele>
        <time>2025-01-12T13:55:21.849Z</time>
      </trkpt>
      <trkpt lat="43.68264" lon="6.19519">
        <ele>948.9</ele>
        <time>2025-01-12T13:55:24.537Z</time>
      </trkpt>
      <trkpt lat="43.68267" lon="6.19516">
        <ele>948.7</ele>
        <time>2025-01-12T13:55:28.568Z</time>
      </trkpt>
      <trkpt lat="43.68269" lon="6.19513">
        <ele>948.4</ele>
        <time>2025-01-12T13:55:31.781Z</time>
      </trkpt>
      <trkpt lat="43.68273" lon="6.19509">
        <ele>948.3</ele>
        <time>2025-01-12T13:55:37.557Z</time>
      </trkpt>
      <trkpt lat="43.68278" lon="6.19509">
        <ele>948.6</ele>
        <time>2025-01-12T13:55:45.095Z</time>
      </trkpt>
      <trkpt lat="43.6828" lon="6.19509">
        <ele>948.4</ele>
        <time>2025-01-12T13:55:47.273Z</time>
      </trkpt>
      <trkpt lat="43.68281" lon="6.19507">
        <ele>948.2</ele>
        <time>2025-01-12T13:55:49.188Z</time>
      </trkpt>
      <trkpt lat="43.68282" lon="6.19505">
        <ele>948</ele>
        <time>2025-01-12T13:55:51.102Z</time>
      </trkpt>
      <trkpt lat="43.68283" lon="6.19502">
        <ele>947.7</ele>
        <time>2025-01-12T13:55:53.704Z</time>
      </trkpt>
      <trkpt lat="43.68283" lon="6.19498">
        <ele>947.5</ele>
        <time>2025-01-12T13:55:56.853Z</time>
      </trkpt>
      <trkpt lat="43.68284" lon="6.19495">
        <ele>947.3</ele>
        <time>2025-01-12T13:55:59.455Z</time>
      </trkpt>
      <trkpt lat="43.68285" lon="6.19493">
        <ele>947.1</ele>
        <time>2025-01-12T13:56:01.369Z</time>
      </trkpt>
      <trkpt lat="43.68286" lon="6.1949">
        <ele>946.9</ele>
        <time>2025-01-12T13:56:03.970Z</time>
      </trkpt>
      <trkpt lat="43.68287" lon="6.19487">
        <ele>946.7</ele>
        <time>2025-01-12T13:56:06.572Z</time>
      </trkpt>
      <trkpt lat="43.68287" lon="6.19484">
        <ele>946.6</ele>
        <time>2025-01-12T13:56:08.934Z</time>
      </trkpt>
      <trkpt lat="43.68288" lon="6.1948">
        <ele>946.4</ele>
        <time>2025-01-12T13:56:12.267Z</time>
      </trkpt>
      <trkpt lat="43.6829" lon="6.19478">
        <ele>946.2</ele>
        <time>2025-01-12T13:56:14.954Z</time>
      </trkpt>
      <trkpt lat="43.68292" lon="6.19477">
        <ele>946.2</ele>
        <time>2025-01-12T13:56:17.601Z</time>
      </trkpt>
      <trkpt lat="43.68295" lon="6.19477">
        <ele>946.1</ele>
        <time>2025-01-12T13:56:20.977Z</time>
      </trkpt>
      <trkpt lat="43.68298" lon="6.19476">
        <ele>946.1</ele>
        <time>2025-01-12T13:56:24.818Z</time>
      </trkpt>
      <trkpt lat="43.68301" lon="6.19475">
        <ele>946</ele>
        <time>2025-01-12T13:56:28.300Z</time>
      </trkpt>
      <trkpt lat="43.68303" lon="6.19472">
        <ele>946</ele>
        <time>2025-01-12T13:56:31.972Z</time>
      </trkpt>
      <trkpt lat="43.68304" lon="6.19469">
        <ele>945.8</ele>
        <time>2025-01-12T13:56:34.573Z</time>
      </trkpt>
      <trkpt lat="43.68306" lon="6.19464">
        <ele>945.4</ele>
        <time>2025-01-12T13:56:39.073Z</time>
      </trkpt>
      <trkpt lat="43.68307" lon="6.19461">
        <ele>945</ele>
        <time>2025-01-12T13:56:41.674Z</time>
      </trkpt>
      <trkpt lat="43.68308" lon="6.19457">
        <ele>944.6</ele>
        <time>2025-01-12T13:56:45.007Z</time>
      </trkpt>
      <trkpt lat="43.6831" lon="6.19454">
        <ele>944.3</ele>
        <time>2025-01-12T13:56:48.220Z</time>
      </trkpt>
      <trkpt lat="43.68311" lon="6.1945">
        <ele>943.9</ele>
        <time>2025-01-12T13:56:51.552Z</time>
      </trkpt>
      <trkpt lat="43.68311" lon="6.19446">
        <ele>943.7</ele>
        <time>2025-01-12T13:56:54.702Z</time>
      </trkpt>
      <trkpt lat="43.68314" lon="6.19442">
        <ele>943.2</ele>
        <time>2025-01-12T13:56:59.240Z</time>
      </trkpt>
      <trkpt lat="43.68316" lon="6.1944">
        <ele>943</ele>
        <time>2025-01-12T13:57:01.928Z</time>
      </trkpt>
      <trkpt lat="43.68318" lon="6.19438">
        <ele>942.7</ele>
        <time>2025-01-12T13:57:04.615Z</time>
      </trkpt>
      <trkpt lat="43.6832" lon="6.19435">
        <ele>942.5</ele>
        <time>2025-01-12T13:57:07.828Z</time>
      </trkpt>
      <trkpt lat="43.68322" lon="6.19432">
        <ele>942.2</ele>
        <time>2025-01-12T13:57:11.041Z</time>
      </trkpt>
      <trkpt lat="43.68324" lon="6.1943">
        <ele>942</ele>
        <time>2025-01-12T13:57:13.729Z</time>
      </trkpt>
      <trkpt lat="43.68327" lon="6.19427">
        <ele>941.7</ele>
        <time>2025-01-12T13:57:17.760Z</time>
      </trkpt>
      <trkpt lat="43.68329" lon="6.19425">
        <ele>941.5</ele>
        <time>2025-01-12T13:57:20.448Z</time>
      </trkpt>
      <trkpt lat="43.68332" lon="6.19423">
        <ele>941.3</ele>
        <time>2025-01-12T13:57:24.074Z</time>
      </trkpt>
      <trkpt lat="43.68332" lon="6.19419">
        <ele>941.1</ele>
        <time>2025-01-12T13:57:27.224Z</time>
      </trkpt>
      <trkpt lat="43.68335" lon="6.19417">
        <ele>940.8</ele>
        <time>2025-01-12T13:57:30.850Z</time>
      </trkpt>
      <trkpt lat="43.68337" lon="6.19415">
        <ele>940.5</ele>
        <time>2025-01-12T13:57:33.538Z</time>
      </trkpt>
      <trkpt lat="43.68339" lon="6.19413">
        <ele>940.2</ele>
        <time>2025-01-12T13:57:36.226Z</time>
      </trkpt>
      <trkpt lat="43.68341" lon="6.19411">
        <ele>939.9</ele>
        <time>2025-01-12T13:57:38.913Z</time>
      </trkpt>
      <trkpt lat="43.68343" lon="6.1941">
        <ele>939.6</ele>
        <time>2025-01-12T13:57:41.229Z</time>
      </trkpt>
      <trkpt lat="43.68346" lon="6.19408">
        <ele>939.3</ele>
        <time>2025-01-12T13:57:44.855Z</time>
      </trkpt>
      <trkpt lat="43.68348" lon="6.19406">
        <ele>939.1</ele>
        <time>2025-01-12T13:57:47.543Z</time>
      </trkpt>
      <trkpt lat="43.68351" lon="6.19404">
        <ele>938.8</ele>
        <time>2025-01-12T13:57:51.169Z</time>
      </trkpt>
      <trkpt lat="43.68353" lon="6.19401">
        <ele>938.5</ele>
        <time>2025-01-12T13:57:54.382Z</time>
      </trkpt>
      <trkpt lat="43.68355" lon="6.19399">
        <ele>938.4</ele>
        <time>2025-01-12T13:57:57.102Z</time>
      </trkpt>
      <trkpt lat="43.68357" lon="6.19397">
        <ele>938.2</ele>
        <time>2025-01-12T13:57:59.790Z</time>
      </trkpt>
      <trkpt lat="43.68359" lon="6.19394">
        <ele>938.1</ele>
        <time>2025-01-12T13:58:03.105Z</time>
      </trkpt>
      <trkpt lat="43.68361" lon="6.19391">
        <ele>938</ele>
        <time>2025-01-12T13:58:06.420Z</time>
      </trkpt>
      <trkpt lat="43.68363" lon="6.19388">
        <ele>937.7</ele>
        <time>2025-01-12T13:58:09.633Z</time>
      </trkpt>
      <trkpt lat="43.68366" lon="6.19387">
        <ele>937.3</ele>
        <time>2025-01-12T13:58:12.994Z</time>
      </trkpt>
      <trkpt lat="43.68368" lon="6.19385">
        <ele>937</ele>
        <time>2025-01-12T13:58:15.681Z</time>
      </trkpt>
      <trkpt lat="43.68371" lon="6.19384">
        <ele>936.6</ele>
        <time>2025-01-12T13:58:19.041Z</time>
      </trkpt>
      <trkpt lat="43.68374" lon="6.19383">
        <ele>936.3</ele>
        <time>2025-01-12T13:58:22.402Z</time>
      </trkpt>
      <trkpt lat="43.68377" lon="6.19382">
        <ele>935.9</ele>
        <time>2025-01-12T13:58:25.762Z</time>
      </trkpt>
      <trkpt lat="43.6838" lon="6.19381">
        <ele>935.6</ele>
        <time>2025-01-12T13:58:29.122Z</time>
      </trkpt>
      <trkpt lat="43.68383" lon="6.19377">
        <ele>935.1</ele>
        <time>2025-01-12T13:58:33.660Z</time>
      </trkpt>
      <trkpt lat="43.68384" lon="6.19376">
        <ele>935</ele>
        <time>2025-01-12T13:58:35.004Z</time>
      </trkpt>
      <trkpt lat="43.68385" lon="6.19374">
        <ele>934.8</ele>
        <time>2025-01-12T13:58:36.918Z</time>
      </trkpt>
      <trkpt lat="43.68387" lon="6.19373">
        <ele>934.6</ele>
        <time>2025-01-12T13:58:39.234Z</time>
      </trkpt>
      <trkpt lat="43.6839" lon="6.1937">
        <ele>934.2</ele>
        <time>2025-01-12T13:58:43.265Z</time>
      </trkpt>
      <trkpt lat="43.68392" lon="6.19367">
        <ele>933.8</ele>
        <time>2025-01-12T13:58:46.478Z</time>
      </trkpt>
      <trkpt lat="43.68395" lon="6.19365">
        <ele>933.4</ele>
        <time>2025-01-12T13:58:50.105Z</time>
      </trkpt>
      <trkpt lat="43.68397" lon="6.19365">
        <ele>933.2</ele>
        <time>2025-01-12T13:58:52.283Z</time>
      </trkpt>
      <trkpt lat="43.684" lon="6.19363">
        <ele>932.8</ele>
        <time>2025-01-12T13:58:55.909Z</time>
      </trkpt>
      <trkpt lat="43.68402" lon="6.19362">
        <ele>932.6</ele>
        <time>2025-01-12T13:58:58.225Z</time>
      </trkpt>
      <trkpt lat="43.68405" lon="6.19361">
        <ele>932.3</ele>
        <time>2025-01-12T13:59:01.585Z</time>
      </trkpt>
      <trkpt lat="43.68408" lon="6.19362">
        <ele>931.9</ele>
        <time>2025-01-12T13:59:04.945Z</time>
      </trkpt>
      <trkpt lat="43.68411" lon="6.19363">
        <ele>931.6</ele>
        <time>2025-01-12T13:59:08.306Z</time>
      </trkpt>
      <trkpt lat="43.68413" lon="6.19362">
        <ele>931.4</ele>
        <time>2025-01-12T13:59:10.621Z</time>
      </trkpt>
      <trkpt lat="43.68416" lon="6.19361">
        <ele>931.1</ele>
        <time>2025-01-12T13:59:13.982Z</time>
      </trkpt>
      <trkpt lat="43.68418" lon="6.19359">
        <ele>930.8</ele>
        <time>2025-01-12T13:59:16.669Z</time>
      </trkpt>
      <trkpt lat="43.6842" lon="6.19356">
        <ele>930.5</ele>
        <time>2025-01-12T13:59:19.882Z</time>
      </trkpt>
      <trkpt lat="43.68422" lon="6.19353">
        <ele>930.3</ele>
        <time>2025-01-12T13:59:23.095Z</time>
      </trkpt>
      <trkpt lat="43.68424" lon="6.1935">
        <ele>930</ele>
        <time>2025-01-12T13:59:26.308Z</time>
      </trkpt>
      <trkpt lat="43.68426" lon="6.19348">
        <ele>929.8</ele>
        <time>2025-01-12T13:59:28.996Z</time>
      </trkpt>
      <trkpt lat="43.68428" lon="6.19345">
        <ele>929.6</ele>
        <time>2025-01-12T13:59:32.209Z</time>
      </trkpt>
      <trkpt lat="43.6843" lon="6.19342">
        <ele>929.4</ele>
        <time>2025-01-12T13:59:35.422Z</time>
      </trkpt>
      <trkpt lat="43.68432" lon="6.19339">
        <ele>929.2</ele>
        <time>2025-01-12T13:59:38.635Z</time>
      </trkpt>
      <trkpt lat="43.68434" lon="6.19337">
        <ele>929</ele>
        <time>2025-01-12T13:59:41.322Z</time>
      </trkpt>
      <trkpt lat="43.68436" lon="6.19334">
        <ele>928.9</ele>
        <time>2025-01-12T13:59:44.637Z</time>
      </trkpt>
      <trkpt lat="43.68438" lon="6.19332">
        <ele>928.7</ele>
        <time>2025-01-12T13:59:47.325Z</time>
      </trkpt>
      <trkpt lat="43.68441" lon="6.1933">
        <ele>928.5</ele>
        <time>2025-01-12T13:59:50.952Z</time>
      </trkpt>
      <trkpt lat="43.68444" lon="6.19329">
        <ele>928.2</ele>
        <time>2025-01-12T13:59:54.312Z</time>
      </trkpt>
      <trkpt lat="43.68447" lon="6.19328">
        <ele>927.8</ele>
        <time>2025-01-12T13:59:57.672Z</time>
      </trkpt>
      <trkpt lat="43.68449" lon="6.19327">
        <ele>927.6</ele>
        <time>2025-01-12T13:59:59.988Z</time>
      </trkpt>
      <trkpt lat="43.68452" lon="6.19326">
        <ele>927.2</ele>
        <time>2025-01-12T14:00:03.348Z</time>
      </trkpt>
      <trkpt lat="43.68455" lon="6.19324">
        <ele>926.9</ele>
        <time>2025-01-12T14:00:06.974Z</time>
      </trkpt>
      <trkpt lat="43.68457" lon="6.19322">
        <ele>926.8</ele>
        <time>2025-01-12T14:00:09.694Z</time>
      </trkpt>
      <trkpt lat="43.6846" lon="6.19321">
        <ele>926.5</ele>
        <time>2025-01-12T14:00:13.054Z</time>
      </trkpt>
      <trkpt lat="43.68462" lon="6.1932">
        <ele>926.3</ele>
        <time>2025-01-12T14:00:15.370Z</time>
      </trkpt>
      <trkpt lat="43.68464" lon="6.19319">
        <ele>926.1</ele>
        <time>2025-01-12T14:00:17.686Z</time>
      </trkpt>
      <trkpt lat="43.68466" lon="6.19317">
        <ele>925.9</ele>
        <time>2025-01-12T14:00:20.373Z</time>
      </trkpt>
      <trkpt lat="43.68468" lon="6.19318">
        <ele>925.6</ele>
        <time>2025-01-12T14:00:22.689Z</time>
      </trkpt>
      <trkpt lat="43.6847" lon="6.19318">
        <ele>925.4</ele>
        <time>2025-01-12T14:00:24.867Z</time>
      </trkpt>
      <trkpt lat="43.68472" lon="6.19318">
        <ele>925.1</ele>
        <time>2025-01-12T14:00:27.045Z</time>
      </trkpt>
      <trkpt lat="43.68474" lon="6.19317">
        <ele>925</ele>
        <time>2025-01-12T14:00:29.360Z</time>
      </trkpt>
      <trkpt lat="43.68477" lon="6.19316">
        <ele>924.7</ele>
        <time>2025-01-12T14:00:32.721Z</time>
      </trkpt>
      <trkpt lat="43.68479" lon="6.19315">
        <ele>924.5</ele>
        <time>2025-01-12T14:00:35.036Z</time>
      </trkpt>
      <trkpt lat="43.68482" lon="6.19317">
        <ele>924</ele>
        <time>2025-01-12T14:00:38.663Z</time>
      </trkpt>
      <trkpt lat="43.68485" lon="6.19316">
        <ele>923.7</ele>
        <time>2025-01-12T14:00:42.023Z</time>
      </trkpt>
      <trkpt lat="43.68488" lon="6.19316">
        <ele>923.3</ele>
        <time>2025-01-12T14:00:45.290Z</time>
      </trkpt>
      <trkpt lat="43.68491" lon="6.19316">
        <ele>923</ele>
        <time>2025-01-12T14:00:48.556Z</time>
      </trkpt>
      <trkpt lat="43.68494" lon="6.19315">
        <ele>922.7</ele>
        <time>2025-01-12T14:00:51.917Z</time>
      </trkpt>
      <trkpt lat="43.68496" lon="6.19313">
        <ele>922.7</ele>
        <time>2025-01-12T14:00:54.988Z</time>
      </trkpt>
      <trkpt lat="43.68499" lon="6.19311">
        <ele>922.5</ele>
        <time>2025-01-12T14:00:58.615Z</time>
      </trkpt>
      <trkpt lat="43.68501" lon="6.19309">
        <ele>922.5</ele>
        <time>2025-01-12T14:01:01.686Z</time>
      </trkpt>
      <trkpt lat="43.68503" lon="6.19307">
        <ele>922.4</ele>
        <time>2025-01-12T14:01:04.406Z</time>
      </trkpt>
      <trkpt lat="43.68506" lon="6.19305">
        <ele>922.2</ele>
        <time>2025-01-12T14:01:08.032Z</time>
      </trkpt>
      <trkpt lat="43.68508" lon="6.19303">
        <ele>922.1</ele>
        <time>2025-01-12T14:01:10.752Z</time>
      </trkpt>
      <trkpt lat="43.68511" lon="6.19301">
        <ele>921.8</ele>
        <time>2025-01-12T14:01:14.378Z</time>
      </trkpt>
      <trkpt lat="43.68513" lon="6.193">
        <ele>921.6</ele>
        <time>2025-01-12T14:01:16.694Z</time>
      </trkpt>
      <trkpt lat="43.68516" lon="6.19298">
        <ele>921.4</ele>
        <time>2025-01-12T14:01:20.321Z</time>
      </trkpt>
      <trkpt lat="43.68516" lon="6.19296">
        <ele>921.6</ele>
        <time>2025-01-12T14:01:23.185Z</time>
      </trkpt>
      <trkpt lat="43.68519" lon="6.19293">
        <ele>921.5</ele>
        <time>2025-01-12T14:01:27.430Z</time>
      </trkpt>
      <trkpt lat="43.68521" lon="6.19292">
        <ele>921.3</ele>
        <time>2025-01-12T14:01:29.746Z</time>
      </trkpt>
      <trkpt lat="43.68524" lon="6.1929">
        <ele>921.1</ele>
        <time>2025-01-12T14:01:33.372Z</time>
      </trkpt>
      <trkpt lat="43.68527" lon="6.19288">
        <ele>921</ele>
        <time>2025-01-12T14:01:37.157Z</time>
      </trkpt>
      <trkpt lat="43.68529" lon="6.19287">
        <ele>920.9</ele>
        <time>2025-01-12T14:01:39.473Z</time>
      </trkpt>
      <trkpt lat="43.68531" lon="6.19284">
        <ele>921</ele>
        <time>2025-01-12T14:01:43.558Z</time>
      </trkpt>
      <trkpt lat="43.68533" lon="6.19282">
        <ele>921</ele>
        <time>2025-01-12T14:01:46.630Z</time>
      </trkpt>
      <trkpt lat="43.68534" lon="6.19281">
        <ele>921</ele>
        <time>2025-01-12T14:01:48.165Z</time>
      </trkpt>
      <trkpt lat="43.68536" lon="6.1928">
        <ele>920.9</ele>
        <time>2025-01-12T14:01:50.481Z</time>
      </trkpt>
      <trkpt lat="43.68538" lon="6.19278">
        <ele>920.9</ele>
        <time>2025-01-12T14:01:53.552Z</time>
      </trkpt>
      <trkpt lat="43.6854" lon="6.19276">
        <ele>920.8</ele>
        <time>2025-01-12T14:01:56.272Z</time>
      </trkpt>
      <trkpt lat="43.68542" lon="6.19273">
        <ele>920.8</ele>
        <time>2025-01-12T14:01:59.944Z</time>
      </trkpt>
      <trkpt lat="43.68544" lon="6.1927">
        <ele>920.8</ele>
        <time>2025-01-12T14:02:03.616Z</time>
      </trkpt>
      <trkpt lat="43.68546" lon="6.19268">
        <ele>920.7</ele>
        <time>2025-01-12T14:02:06.336Z</time>
      </trkpt>
      <trkpt lat="43.68549" lon="6.19265">
        <ele>920.6</ele>
        <time>2025-01-12T14:02:10.581Z</time>
      </trkpt>
      <trkpt lat="43.68551" lon="6.19262">
        <ele>920.6</ele>
        <time>2025-01-12T14:02:14.253Z</time>
      </trkpt>
      <trkpt lat="43.68552" lon="6.19259">
        <ele>920.7</ele>
        <time>2025-01-12T14:02:17.646Z</time>
      </trkpt>
      <trkpt lat="43.68554" lon="6.19255">
        <ele>920.8</ele>
        <time>2025-01-12T14:02:22.430Z</time>
      </trkpt>
      <trkpt lat="43.68555" lon="6.19252">
        <ele>920.9</ele>
        <time>2025-01-12T14:02:25.823Z</time>
      </trkpt>
      <trkpt lat="43.68556" lon="6.19248">
        <ele>921</ele>
        <time>2025-01-12T14:02:30.044Z</time>
      </trkpt>
      <trkpt lat="43.68558" lon="6.19245">
        <ele>920.9</ele>
        <time>2025-01-12T14:02:33.359Z</time>
      </trkpt>
      <trkpt lat="43.6856" lon="6.19243">
        <ele>920.8</ele>
        <time>2025-01-12T14:02:36.079Z</time>
      </trkpt>
      <trkpt lat="43.68562" lon="6.1924">
        <ele>920.7</ele>
        <time>2025-01-12T14:02:39.394Z</time>
      </trkpt>
      <trkpt lat="43.68564" lon="6.19238">
        <ele>920.7</ele>
        <time>2025-01-12T14:02:42.466Z</time>
      </trkpt>
      <trkpt lat="43.68566" lon="6.19236">
        <ele>920.6</ele>
        <time>2025-01-12T14:02:45.185Z</time>
      </trkpt>
      <trkpt lat="43.68568" lon="6.19234">
        <ele>920.5</ele>
        <time>2025-01-12T14:02:47.905Z</time>
      </trkpt>
      <trkpt lat="43.6857" lon="6.19232">
        <ele>920.4</ele>
        <time>2025-01-12T14:02:50.625Z</time>
      </trkpt>
      <trkpt lat="43.68571" lon="6.19229">
        <ele>920.5</ele>
        <time>2025-01-12T14:02:54.018Z</time>
      </trkpt>
      <trkpt lat="43.68573" lon="6.19227">
        <ele>920.5</ele>
        <time>2025-01-12T14:02:57.089Z</time>
      </trkpt>
      <trkpt lat="43.68575" lon="6.19224">
        <ele>920.5</ele>
        <time>2025-01-12T14:03:00.761Z</time>
      </trkpt>
      <trkpt lat="43.68578" lon="6.19223">
        <ele>920.3</ele>
        <time>2025-01-12T14:03:04.121Z</time>
      </trkpt>
      <trkpt lat="43.6858" lon="6.1922">
        <ele>920.2</ele>
        <time>2025-01-12T14:03:07.437Z</time>
      </trkpt>
      <trkpt lat="43.6858" lon="6.19216">
        <ele>920.2</ele>
        <time>2025-01-12T14:03:11.036Z</time>
      </trkpt>
      <trkpt lat="43.68582" lon="6.19214">
        <ele>920.1</ele>
        <time>2025-01-12T14:03:13.756Z</time>
      </trkpt>
      <trkpt lat="43.68585" lon="6.19213">
        <ele>919.8</ele>
        <time>2025-01-12T14:03:17.116Z</time>
      </trkpt>
      <trkpt lat="43.68587" lon="6.19213">
        <ele>919.6</ele>
        <time>2025-01-12T14:03:19.294Z</time>
      </trkpt>
      <trkpt lat="43.6859" lon="6.19214">
        <ele>919.4</ele>
        <time>2025-01-12T14:03:22.654Z</time>
      </trkpt>
      <trkpt lat="43.68592" lon="6.19215">
        <ele>919.1</ele>
        <time>2025-01-12T14:03:24.970Z</time>
      </trkpt>
      <trkpt lat="43.68594" lon="6.19214">
        <ele>919</ele>
        <time>2025-01-12T14:03:27.286Z</time>
      </trkpt>
      <trkpt lat="43.68597" lon="6.19211">
        <ele>918.7</ele>
        <time>2025-01-12T14:03:31.317Z</time>
      </trkpt>
      <trkpt lat="43.68598" lon="6.19209">
        <ele>918.7</ele>
        <time>2025-01-12T14:03:33.505Z</time>
      </trkpt>
      <trkpt lat="43.68599" lon="6.19207">
        <ele>918.6</ele>
        <time>2025-01-12T14:03:35.420Z</time>
      </trkpt>
      <trkpt lat="43.68601" lon="6.19204">
        <ele>918.5</ele>
        <time>2025-01-12T14:03:38.735Z</time>
      </trkpt>
      <trkpt lat="43.68603" lon="6.19202">
        <ele>918.4</ele>
        <time>2025-01-12T14:03:41.455Z</time>
      </trkpt>
      <trkpt lat="43.68604" lon="6.19199">
        <ele>918.4</ele>
        <time>2025-01-12T14:03:44.427Z</time>
      </trkpt>
      <trkpt lat="43.68606" lon="6.19196">
        <ele>918.3</ele>
        <time>2025-01-12T14:03:47.743Z</time>
      </trkpt>
      <trkpt lat="43.68608" lon="6.19193">
        <ele>918.2</ele>
        <time>2025-01-12T14:03:51.058Z</time>
      </trkpt>
      <trkpt lat="43.68609" lon="6.1919">
        <ele>918.2</ele>
        <time>2025-01-12T14:03:54.031Z</time>
      </trkpt>
      <trkpt lat="43.68609" lon="6.19186">
        <ele>918.2</ele>
        <time>2025-01-12T14:03:57.630Z</time>
      </trkpt>
      <trkpt lat="43.68609" lon="6.19183">
        <ele>918.2</ele>
        <time>2025-01-12T14:04:00.330Z</time>
      </trkpt>
      <trkpt lat="43.68611" lon="6.19182">
        <ele>918</ele>
        <time>2025-01-12T14:04:02.646Z</time>
      </trkpt>
      <trkpt lat="43.68613" lon="6.19181">
        <ele>917.8</ele>
        <time>2025-01-12T14:04:04.961Z</time>
      </trkpt>
      <trkpt lat="43.68614" lon="6.19176">
        <ele>917.8</ele>
        <time>2025-01-12T14:04:09.630Z</time>
      </trkpt>
      <trkpt lat="43.68616" lon="6.19174">
        <ele>917.6</ele>
        <time>2025-01-12T14:04:12.317Z</time>
      </trkpt>
      <trkpt lat="43.68618" lon="6.19171">
        <ele>917.5</ele>
        <time>2025-01-12T14:04:15.633Z</time>
      </trkpt>
      <trkpt lat="43.68619" lon="6.19167">
        <ele>917.4</ele>
        <time>2025-01-12T14:04:19.084Z</time>
      </trkpt>
      <trkpt lat="43.6862" lon="6.1916">
        <ele>917.1</ele>
        <time>2025-01-12T14:04:24.702Z</time>
      </trkpt>
      <trkpt lat="43.6862" lon="6.19156">
        <ele>917</ele>
        <time>2025-01-12T14:04:27.946Z</time>
      </trkpt>
      <trkpt lat="43.68619" lon="6.19153">
        <ele>916.9</ele>
        <time>2025-01-12T14:04:30.567Z</time>
      </trkpt>
      <trkpt lat="43.68619" lon="6.1915">
        <ele>916.8</ele>
        <time>2025-01-12T14:04:32.930Z</time>
      </trkpt>
      <trkpt lat="43.6862" lon="6.19146">
        <ele>916.6</ele>
        <time>2025-01-12T14:04:36.262Z</time>
      </trkpt>
      <trkpt lat="43.6862" lon="6.19143">
        <ele>916.5</ele>
        <time>2025-01-12T14:04:38.624Z</time>
      </trkpt>
      <trkpt lat="43.68619" lon="6.1914">
        <ele>916.5</ele>
        <time>2025-01-12T14:04:41.597Z</time>
      </trkpt>
      <trkpt lat="43.68618" lon="6.19135">
        <ele>916.5</ele>
        <time>2025-01-12T14:04:46.266Z</time>
      </trkpt>
      <trkpt lat="43.68618" lon="6.19132">
        <ele>916.5</ele>
        <time>2025-01-12T14:04:48.965Z</time>
      </trkpt>
      <trkpt lat="43.68618" lon="6.19129">
        <ele>916.5</ele>
        <time>2025-01-12T14:04:51.665Z</time>
      </trkpt>
      <trkpt lat="43.68618" lon="6.19127">
        <ele>916.5</ele>
        <time>2025-01-12T14:04:53.465Z</time>
      </trkpt>
      <trkpt lat="43.6862" lon="6.19124">
        <ele>916.4</ele>
        <time>2025-01-12T14:04:56.780Z</time>
      </trkpt>
      <trkpt lat="43.68622" lon="6.19122">
        <ele>916.2</ele>
        <time>2025-01-12T14:04:59.468Z</time>
      </trkpt>
      <trkpt lat="43.68624" lon="6.19119">
        <ele>916.1</ele>
        <time>2025-01-12T14:05:02.783Z</time>
      </trkpt>
      <trkpt lat="43.68626" lon="6.19116">
        <ele>915.9</ele>
        <time>2025-01-12T14:05:05.996Z</time>
      </trkpt>
      <trkpt lat="43.68628" lon="6.19113">
        <ele>915.8</ele>
        <time>2025-01-12T14:05:09.311Z</time>
      </trkpt>
      <trkpt lat="43.6863" lon="6.1911">
        <ele>915.6</ele>
        <time>2025-01-12T14:05:12.524Z</time>
      </trkpt>
      <trkpt lat="43.68632" lon="6.19107">
        <ele>915.5</ele>
        <time>2025-01-12T14:05:15.839Z</time>
      </trkpt>
      <trkpt lat="43.68633" lon="6.19105">
        <ele>915.4</ele>
        <time>2025-01-12T14:05:17.754Z</time>
      </trkpt>
      <trkpt lat="43.68635" lon="6.19102">
        <ele>915.2</ele>
        <time>2025-01-12T14:05:20.967Z</time>
      </trkpt>
      <trkpt lat="43.68638" lon="6.191">
        <ele>915.1</ele>
        <time>2025-01-12T14:05:24.752Z</time>
      </trkpt>
      <trkpt lat="43.68641" lon="6.19098">
        <ele>914.9</ele>
        <time>2025-01-12T14:05:28.378Z</time>
      </trkpt>
      <trkpt lat="43.68643" lon="6.19097">
        <ele>914.8</ele>
        <time>2025-01-12T14:05:30.694Z</time>
      </trkpt>
      <trkpt lat="43.68646" lon="6.19095">
        <ele>914.6</ele>
        <time>2025-01-12T14:05:34.320Z</time>
      </trkpt>
      <trkpt lat="43.68649" lon="6.19094">
        <ele>914.5</ele>
        <time>2025-01-12T14:05:37.803Z</time>
      </trkpt>
      <trkpt lat="43.68651" lon="6.19092">
        <ele>914.4</ele>
        <time>2025-01-12T14:05:40.523Z</time>
      </trkpt>
      <trkpt lat="43.68653" lon="6.19089">
        <ele>914.4</ele>
        <time>2025-01-12T14:05:44.194Z</time>
      </trkpt>
      <trkpt lat="43.68656" lon="6.19087">
        <ele>914.3</ele>
        <time>2025-01-12T14:05:47.979Z</time>
      </trkpt>
      <trkpt lat="43.68658" lon="6.19086">
        <ele>914.2</ele>
        <time>2025-01-12T14:05:50.295Z</time>
      </trkpt>
      <trkpt lat="43.6866" lon="6.19085">
        <ele>914.2</ele>
        <time>2025-01-12T14:05:52.942Z</time>
      </trkpt>
      <trkpt lat="43.68662" lon="6.19082">
        <ele>914.2</ele>
        <time>2025-01-12T14:05:56.614Z</time>
      </trkpt>
      <trkpt lat="43.68663" lon="6.19079">
        <ele>914.3</ele>
        <time>2025-01-12T14:06:00.007Z</time>
      </trkpt>
      <trkpt lat="43.68664" lon="6.19076">
        <ele>914.3</ele>
        <time>2025-01-12T14:06:02.980Z</time>
      </trkpt>
      <trkpt lat="43.68665" lon="6.19073">
        <ele>914.4</ele>
        <time>2025-01-12T14:06:06.373Z</time>
      </trkpt>
      <trkpt lat="43.68667" lon="6.1907">
        <ele>914.5</ele>
        <time>2025-01-12T14:06:10.457Z</time>
      </trkpt>
      <trkpt lat="43.68668" lon="6.19067">
        <ele>914.5</ele>
        <time>2025-01-12T14:06:13.430Z</time>
      </trkpt>
      <trkpt lat="43.6867" lon="6.19065">
        <ele>914.5</ele>
        <time>2025-01-12T14:06:16.502Z</time>
      </trkpt>
      <trkpt lat="43.6867" lon="6.19062">
        <ele>914.6</ele>
        <time>2025-01-12T14:06:19.626Z</time>
      </trkpt>
      <trkpt lat="43.68673" lon="6.19057">
        <ele>914.7</ele>
        <time>2025-01-12T14:06:25.874Z</time>
      </trkpt>
      <trkpt lat="43.68676" lon="6.19053">
        <ele>914.6</ele>
        <time>2025-01-12T14:06:30.696Z</time>
      </trkpt>
      <trkpt lat="43.68679" lon="6.19051">
        <ele>914.5</ele>
        <time>2025-01-12T14:06:34.481Z</time>
      </trkpt>
      <trkpt lat="43.68685" lon="6.19051">
        <ele>914.4</ele>
        <time>2025-01-12T14:06:41.578Z</time>
      </trkpt>
      <trkpt lat="43.6869" lon="6.19046">
        <ele>914.4</ele>
        <time>2025-01-12T14:06:49.256Z</time>
      </trkpt>
      <trkpt lat="43.68692" lon="6.19042">
        <ele>914.5</ele>
        <time>2025-01-12T14:06:54.040Z</time>
      </trkpt>
      <trkpt lat="43.68695" lon="6.19041">
        <ele>914.5</ele>
        <time>2025-01-12T14:06:57.881Z</time>
      </trkpt>
      <trkpt lat="43.68698" lon="6.19041">
        <ele>914.5</ele>
        <time>2025-01-12T14:07:01.614Z</time>
      </trkpt>
      <trkpt lat="43.687" lon="6.19042">
        <ele>914.4</ele>
        <time>2025-01-12T14:07:03.930Z</time>
      </trkpt>
      <trkpt lat="43.68702" lon="6.19043">
        <ele>914.3</ele>
        <time>2025-01-12T14:07:06.245Z</time>
      </trkpt>
      <trkpt lat="43.68706" lon="6.19045">
        <ele>914.1</ele>
        <time>2025-01-12T14:07:10.877Z</time>
      </trkpt>
      <trkpt lat="43.68708" lon="6.19045">
        <ele>914.1</ele>
        <time>2025-01-12T14:07:13.366Z</time>
      </trkpt>
      <trkpt lat="43.68712" lon="6.19043">
        <ele>914.1</ele>
        <time>2025-01-12T14:07:18.659Z</time>
      </trkpt>
      <trkpt lat="43.68715" lon="6.1904">
        <ele>914.2</ele>
        <time>2025-01-12T14:07:23.673Z</time>
      </trkpt>
      <trkpt lat="43.68717" lon="6.19033">
        <ele>914.7</ele>
        <time>2025-01-12T14:07:32.812Z</time>
      </trkpt>
      <trkpt lat="43.68719" lon="6.19031">
        <ele>914.8</ele>
        <time>2025-01-12T14:07:36.303Z</time>
      </trkpt>
      <trkpt lat="43.68721" lon="6.19029">
        <ele>914.9</ele>
        <time>2025-01-12T14:07:39.793Z</time>
      </trkpt>
      <trkpt lat="43.68722" lon="6.19028">
        <ele>915</ele>
        <time>2025-01-12T14:07:41.790Z</time>
      </trkpt>
      <trkpt lat="43.68728" lon="6.19024">
        <ele>915.2</ele>
        <time>2025-01-12T14:07:50.898Z</time>
      </trkpt>
      <trkpt lat="43.68734" lon="6.19019">
        <ele>915.6</ele>
        <time>2025-01-12T14:08:01.357Z</time>
      </trkpt>
      <trkpt lat="43.68742" lon="6.19016">
        <ele>916</ele>
        <time>2025-01-12T14:08:13.379Z</time>
      </trkpt>
      <trkpt lat="43.68748" lon="6.19014">
        <ele>916.4</ele>
        <time>2025-01-12T14:08:22.833Z</time>
      </trkpt>
      <trkpt lat="43.68754" lon="6.19011">
        <ele>916.9</ele>
        <time>2025-01-12T14:08:33.063Z</time>
      </trkpt>
      <trkpt lat="43.68759" lon="6.19007">
        <ele>917.3</ele>
        <time>2025-01-12T14:08:42.044Z</time>
      </trkpt>
      <trkpt lat="43.68763" lon="6.19004">
        <ele>917.6</ele>
        <time>2025-01-12T14:08:49.041Z</time>
      </trkpt>
      <trkpt lat="43.68767" lon="6.19001">
        <ele>917.9</ele>
        <time>2025-01-12T14:08:56.038Z</time>
      </trkpt>
      <trkpt lat="43.68773" lon="6.18996">
        <ele>918.4</ele>
        <time>2025-01-12T14:09:07.008Z</time>
      </trkpt>
      <trkpt lat="43.68778" lon="6.1899">
        <ele>919.1</ele>
        <time>2025-01-12T14:09:18.674Z</time>
      </trkpt>
      <trkpt lat="43.68783" lon="6.18986">
        <ele>919.5</ele>
        <time>2025-01-12T14:09:27.655Z</time>
      </trkpt>
      <trkpt lat="43.68786" lon="6.18982">
        <ele>919.9</ele>
        <time>2025-01-12T14:09:34.754Z</time>
      </trkpt>
      <trkpt lat="43.68791" lon="6.18973">
        <ele>920.9</ele>
        <time>2025-01-12T14:09:50.068Z</time>
      </trkpt>
      <trkpt lat="43.68796" lon="6.18964">
        <ele>921.5</ele>
        <time>2025-01-12T14:10:02.995Z</time>
      </trkpt>
      <trkpt lat="43.68799" lon="6.18958">
        <ele>921.9</ele>
        <time>2025-01-12T14:10:11.381Z</time>
      </trkpt>
      <trkpt lat="43.68805" lon="6.18952">
        <ele>922.4</ele>
        <time>2025-01-12T14:10:22.827Z</time>
      </trkpt>
      <trkpt lat="43.68811" lon="6.18946">
        <ele>923.1</ele>
        <time>2025-01-12T14:10:35.376Z</time>
      </trkpt>
      <trkpt lat="43.68817" lon="6.1894">
        <ele>923.6</ele>
        <time>2025-01-12T14:10:47.356Z</time>
      </trkpt>
      <trkpt lat="43.68823" lon="6.18933">
        <ele>924.3</ele>
        <time>2025-01-12T14:10:59.860Z</time>
      </trkpt>
      <trkpt lat="43.68829" lon="6.18927">
        <ele>925</ele>
        <time>2025-01-12T14:11:12.410Z</time>
      </trkpt>
      <trkpt lat="43.68833" lon="6.18923">
        <ele>925.5</ele>
        <time>2025-01-12T14:11:20.975Z</time>
      </trkpt>
      <trkpt lat="43.68837" lon="6.18919">
        <ele>925.9</ele>
        <time>2025-01-12T14:11:28.961Z</time>
      </trkpt>
      <trkpt lat="43.6884" lon="6.18915">
        <ele>926.3</ele>
        <time>2025-01-12T14:11:36.060Z</time>
      </trkpt>
      <trkpt lat="43.68844" lon="6.18911">
        <ele>926.6</ele>
        <time>2025-01-12T14:11:43.520Z</time>
      </trkpt>
      <trkpt lat="43.6885" lon="6.18907">
        <ele>926.9</ele>
        <time>2025-01-12T14:11:53.080Z</time>
      </trkpt>
      <trkpt lat="43.68855" lon="6.18902">
        <ele>927.3</ele>
        <time>2025-01-12T14:12:02.533Z</time>
      </trkpt>
      <trkpt lat="43.68861" lon="6.18897">
        <ele>927.7</ele>
        <time>2025-01-12T14:12:12.992Z</time>
      </trkpt>
      <trkpt lat="43.68866" lon="6.18892">
        <ele>928</ele>
        <time>2025-01-12T14:12:21.952Z</time>
      </trkpt>
      <trkpt lat="43.68872" lon="6.18887">
        <ele>928.5</ele>
        <time>2025-01-12T14:12:32.921Z</time>
      </trkpt>
      <trkpt lat="43.68877" lon="6.18881">
        <ele>928.9</ele>
        <time>2025-01-12T14:12:42.915Z</time>
      </trkpt>
      <trkpt lat="43.68881" lon="6.18877">
        <ele>929.1</ele>
        <time>2025-01-12T14:12:49.896Z</time>
      </trkpt>
      <trkpt lat="43.68885" lon="6.18873">
        <ele>929.4</ele>
        <time>2025-01-12T14:12:57.357Z</time>
      </trkpt>
      <trkpt lat="43.68889" lon="6.18869">
        <ele>929.7</ele>
        <time>2025-01-12T14:13:04.818Z</time>
      </trkpt>
      <trkpt lat="43.68893" lon="6.18865">
        <ele>929.8</ele>
        <time>2025-01-12T14:13:11.361Z</time>
      </trkpt>
      <trkpt lat="43.689" lon="6.18858">
        <ele>930</ele>
        <time>2025-01-12T14:13:22.917Z</time>
      </trkpt>
      <trkpt lat="43.68905" lon="6.1885">
        <ele>930.2</ele>
        <time>2025-01-12T14:13:33.244Z</time>
      </trkpt>
      <trkpt lat="43.6891" lon="6.18844">
        <ele>930.5</ele>
        <time>2025-01-12T14:13:42.753Z</time>
      </trkpt>
      <trkpt lat="43.68916" lon="6.18842">
        <ele>930.7</ele>
        <time>2025-01-12T14:13:51.257Z</time>
      </trkpt>
      <trkpt lat="43.68923" lon="6.18837">
        <ele>930.8</ele>
        <time>2025-01-12T14:14:01.455Z</time>
      </trkpt>
      <trkpt lat="43.68931" lon="6.18835">
        <ele>930.9</ele>
        <time>2025-01-12T14:14:11.965Z</time>
      </trkpt>
      <trkpt lat="43.68939" lon="6.18833">
        <ele>931</ele>
        <time>2025-01-12T14:14:22.476Z</time>
      </trkpt>
      <trkpt lat="43.68944" lon="6.1883">
        <ele>930.9</ele>
        <time>2025-01-12T14:14:28.890Z</time>
      </trkpt>
      <trkpt lat="43.6895" lon="6.1883">
        <ele>930.5</ele>
        <time>2025-01-12T14:14:35.423Z</time>
      </trkpt>
      <trkpt lat="43.68957" lon="6.18829">
        <ele>930.1</ele>
        <time>2025-01-12T14:14:43.086Z</time>
      </trkpt>
      <trkpt lat="43.68962" lon="6.18828">
        <ele>929.8</ele>
        <time>2025-01-12T14:14:48.587Z</time>
      </trkpt>
      <trkpt lat="43.68967" lon="6.18827">
        <ele>929.5</ele>
        <time>2025-01-12T14:14:54.088Z</time>
      </trkpt>
      <trkpt lat="43.68973" lon="6.18826">
        <ele>929.2</ele>
        <time>2025-01-12T14:15:00.669Z</time>
      </trkpt>
      <trkpt lat="43.6898" lon="6.18824">
        <ele>928.6</ele>
        <time>2025-01-12T14:15:08.452Z</time>
      </trkpt>
      <trkpt lat="43.68985" lon="6.1882">
        <ele>928.3</ele>
        <time>2025-01-12T14:15:14.742Z</time>
      </trkpt>
      <trkpt lat="43.68991" lon="6.18814">
        <ele>928.1</ele>
        <time>2025-01-12T14:15:23.232Z</time>
      </trkpt>
      <trkpt lat="43.68996" lon="6.18811">
        <ele>927.9</ele>
        <time>2025-01-12T14:15:29.306Z</time>
      </trkpt>
      <trkpt lat="43.69003" lon="6.18804">
        <ele>927.8</ele>
        <time>2025-01-12T14:15:39.682Z</time>
      </trkpt>
      <trkpt lat="43.69009" lon="6.18795">
        <ele>927.5</ele>
        <time>2025-01-12T14:15:49.627Z</time>
      </trkpt>
      <trkpt lat="43.69014" lon="6.18787">
        <ele>927.3</ele>
        <time>2025-01-12T14:15:58.418Z</time>
      </trkpt>
      <trkpt lat="43.69019" lon="6.18779">
        <ele>927.3</ele>
        <time>2025-01-12T14:16:07.933Z</time>
      </trkpt>
      <trkpt lat="43.69022" lon="6.18774">
        <ele>927.1</ele>
        <time>2025-01-12T14:16:13.078Z</time>
      </trkpt>
      <trkpt lat="43.69025" lon="6.18769">
        <ele>926.8</ele>
        <time>2025-01-12T14:16:18.194Z</time>
      </trkpt>
      <trkpt lat="43.69031" lon="6.18763">
        <ele>926.3</ele>
        <time>2025-01-12T14:16:26.256Z</time>
      </trkpt>
      <trkpt lat="43.69037" lon="6.18759">
        <ele>925.9</ele>
        <time>2025-01-12T14:16:33.509Z</time>
      </trkpt>
      <trkpt lat="43.69043" lon="6.18755">
        <ele>925.5</ele>
        <time>2025-01-12T14:16:40.762Z</time>
      </trkpt>
      <trkpt lat="43.69049" lon="6.18754">
        <ele>925.3</ele>
        <time>2025-01-12T14:16:47.568Z</time>
      </trkpt>
      <trkpt lat="43.69056" lon="6.18754">
        <ele>925</ele>
        <time>2025-01-12T14:16:55.229Z</time>
      </trkpt>
      <trkpt lat="43.6906" lon="6.1875">
        <ele>924.5</ele>
        <time>2025-01-12T14:17:00.604Z</time>
      </trkpt>
      <trkpt lat="43.69064" lon="6.18743">
        <ele>923.8</ele>
        <time>2025-01-12T14:17:07.629Z</time>
      </trkpt>
      <trkpt lat="43.69068" lon="6.18735">
        <ele>923.1</ele>
        <time>2025-01-12T14:17:15.287Z</time>
      </trkpt>
      <trkpt lat="43.6907" lon="6.18726">
        <ele>922.6</ele>
        <time>2025-01-12T14:17:22.700Z</time>
      </trkpt>
      <trkpt lat="43.69072" lon="6.18714">
        <ele>921.5</ele>
        <time>2025-01-12T14:17:32.396Z</time>
      </trkpt>
      <trkpt lat="43.69075" lon="6.18706">
        <ele>920.6</ele>
        <time>2025-01-12T14:17:39.491Z</time>
      </trkpt>
      <trkpt lat="43.6908" lon="6.18702">
        <ele>919.8</ele>
        <time>2025-01-12T14:17:45.781Z</time>
      </trkpt>
      <trkpt lat="43.69085" lon="6.18703">
        <ele>919.4</ele>
        <time>2025-01-12T14:17:51.282Z</time>
      </trkpt>
      <trkpt lat="43.69091" lon="6.18703">
        <ele>918.6</ele>
        <time>2025-01-12T14:17:57.815Z</time>
      </trkpt>
      <trkpt lat="43.69097" lon="6.18703">
        <ele>917.8</ele>
        <time>2025-01-12T14:18:04.349Z</time>
      </trkpt>
      <trkpt lat="43.69101" lon="6.18704">
        <ele>917.4</ele>
        <time>2025-01-12T14:18:08.775Z</time>
      </trkpt>
      <trkpt lat="43.69105" lon="6.187">
        <ele>916.4</ele>
        <time>2025-01-12T14:18:14.150Z</time>
      </trkpt>
      <trkpt lat="43.691" lon="6.18703">
        <ele>917.4</ele>
        <time>2025-01-12T14:18:26.938Z</time>
      </trkpt>
      <trkpt lat="43.69097" lon="6.18703">
        <ele>917.8</ele>
        <time>2025-01-12T14:18:32.773Z</time>
      </trkpt>
      <trkpt lat="43.69092" lon="6.18702">
        <ele>918.4</ele>
        <time>2025-01-12T14:18:42.097Z</time>
      </trkpt>
      <trkpt lat="43.69086" lon="6.18702">
        <ele>919.2</ele>
        <time>2025-01-12T14:18:53.088Z</time>
      </trkpt>
      <trkpt lat="43.69081" lon="6.18702">
        <ele>919.7</ele>
        <time>2025-01-12T14:19:02.356Z</time>
      </trkpt>
      <trkpt lat="43.69076" lon="6.18701">
        <ele>920.1</ele>
        <time>2025-01-12T14:19:10.479Z</time>
      </trkpt>
      <trkpt lat="43.6907" lon="6.18697">
        <ele>920.2</ele>
        <time>2025-01-12T14:19:19.164Z</time>
      </trkpt>
      <trkpt lat="43.69067" lon="6.18693">
        <ele>920.1</ele>
        <time>2025-01-12T14:19:23.986Z</time>
      </trkpt>
      <trkpt lat="43.69061" lon="6.18685">
        <ele>919.9</ele>
        <time>2025-01-12T14:19:33.629Z</time>
      </trkpt>
      <trkpt lat="43.69059" lon="6.18679">
        <ele>919.6</ele>
        <time>2025-01-12T14:19:38.831Z</time>
      </trkpt>
      <trkpt lat="43.69056" lon="6.18673">
        <ele>919.4</ele>
        <time>2025-01-12T14:19:44.688Z</time>
      </trkpt>
      <trkpt lat="43.69053" lon="6.18663">
        <ele>918.5</ele>
        <time>2025-01-12T14:19:53.212Z</time>
      </trkpt>
      <trkpt lat="43.69051" lon="6.1866">
        <ele>918</ele>
        <time>2025-01-12T14:19:56.425Z</time>
      </trkpt>
      <trkpt lat="43.69049" lon="6.18655">
        <ele>917.3</ele>
        <time>2025-01-12T14:20:00.924Z</time>
      </trkpt>
      <trkpt lat="43.69045" lon="6.18647">
        <ele>916.2</ele>
        <time>2025-01-12T14:20:08.582Z</time>
      </trkpt>
      <trkpt lat="43.69044" lon="6.18644">
        <ele>915.7</ele>
        <time>2025-01-12T14:20:11.183Z</time>
      </trkpt>
      <trkpt lat="43.69044" lon="6.18639">
        <ele>915</ele>
        <time>2025-01-12T14:20:15.120Z</time>
      </trkpt>
      <trkpt lat="43.69043" lon="6.18632">
        <ele>913.8</ele>
        <time>2025-01-12T14:20:20.738Z</time>
      </trkpt>
      <trkpt lat="43.69041" lon="6.18626">
        <ele>912.7</ele>
        <time>2025-01-12T14:20:25.940Z</time>
      </trkpt>
      <trkpt lat="43.69038" lon="6.18616">
        <ele>910.9</ele>
        <time>2025-01-12T14:20:34.464Z</time>
      </trkpt>
      <trkpt lat="43.69036" lon="6.18606">
        <ele>909</ele>
        <time>2025-01-12T14:20:42.633Z</time>
      </trkpt>
      <trkpt lat="43.69033" lon="6.18602">
        <ele>908.3</ele>
        <time>2025-01-12T14:20:47.171Z</time>
      </trkpt>
      <trkpt lat="43.69029" lon="6.18598">
        <ele>907.6</ele>
        <time>2025-01-12T14:20:52.546Z</time>
      </trkpt>
      <trkpt lat="43.69026" lon="6.18589">
        <ele>905.9</ele>
        <time>2025-01-12T14:21:00.349Z</time>
      </trkpt>
      <trkpt lat="43.69024" lon="6.18583">
        <ele>904.8</ele>
        <time>2025-01-12T14:21:05.551Z</time>
      </trkpt>
      <trkpt lat="43.69022" lon="6.18576">
        <ele>903.5</ele>
        <time>2025-01-12T14:21:11.477Z</time>
      </trkpt>
      <trkpt lat="43.69022" lon="6.18564">
        <ele>901.3</ele>
        <time>2025-01-12T14:21:20.925Z</time>
      </trkpt>
      <trkpt lat="43.69023" lon="6.18556">
        <ele>899.9</ele>
        <time>2025-01-12T14:21:27.317Z</time>
      </trkpt>
      <trkpt lat="43.69023" lon="6.18548">
        <ele>898.5</ele>
        <time>2025-01-12T14:21:33.616Z</time>
      </trkpt>
      <trkpt lat="43.69021" lon="6.18539">
        <ele>896.9</ele>
        <time>2025-01-12T14:21:41.030Z</time>
      </trkpt>
      <trkpt lat="43.69018" lon="6.18536">
        <ele>896.4</ele>
        <time>2025-01-12T14:21:45.061Z</time>
      </trkpt>
      <trkpt lat="43.69014" lon="6.18533">
        <ele>895.8</ele>
        <time>2025-01-12T14:21:50.016Z</time>
      </trkpt>
      <trkpt lat="43.69009" lon="6.1853">
        <ele>895.3</ele>
        <time>2025-01-12T14:21:55.950Z</time>
      </trkpt>
      <trkpt lat="43.69004" lon="6.18527">
        <ele>894.9</ele>
        <time>2025-01-12T14:22:01.885Z</time>
      </trkpt>
      <trkpt lat="43.68999" lon="6.18519">
        <ele>893.6</ele>
        <time>2025-01-12T14:22:10.211Z</time>
      </trkpt>
      <trkpt lat="43.68997" lon="6.18511">
        <ele>892</ele>
        <time>2025-01-12T14:22:16.876Z</time>
      </trkpt>
      <trkpt lat="43.68994" lon="6.18503">
        <ele>890.4</ele>
        <time>2025-01-12T14:22:23.971Z</time>
      </trkpt>
      <trkpt lat="43.68991" lon="6.18496">
        <ele>888.9</ele>
        <time>2025-01-12T14:22:30.378Z</time>
      </trkpt>
      <trkpt lat="43.68989" lon="6.18493">
        <ele>888.1</ele>
        <time>2025-01-12T14:22:33.591Z</time>
      </trkpt>
      <trkpt lat="43.68987" lon="6.18486">
        <ele>886.9</ele>
        <time>2025-01-12T14:22:39.517Z</time>
      </trkpt>
      <trkpt lat="43.68989" lon="6.1848">
        <ele>886.4</ele>
        <time>2025-01-12T14:22:44.719Z</time>
      </trkpt>
      <trkpt lat="43.6899" lon="6.18475">
        <ele>885.9</ele>
        <time>2025-01-12T14:22:48.804Z</time>
      </trkpt>
      <trkpt lat="43.68993" lon="6.18474">
        <ele>886.2</ele>
        <time>2025-01-12T14:22:53.055Z</time>
      </trkpt>
      <trkpt lat="43.68995" lon="6.18471">
        <ele>886.1</ele>
        <time>2025-01-12T14:22:56.727Z</time>
      </trkpt>
      <trkpt lat="43.68997" lon="6.18472">
        <ele>886.5</ele>
        <time>2025-01-12T14:23:01.807Z</time>
      </trkpt>
      <trkpt lat="43.68999" lon="6.18472">
        <ele>886.8</ele>
        <time>2025-01-12T14:23:05.942Z</time>
      </trkpt>
      <trkpt lat="43.69002" lon="6.18468">
        <ele>886.3</ele>
        <time>2025-01-12T14:23:10.479Z</time>
      </trkpt>
      <trkpt lat="43.69005" lon="6.18468">
        <ele>886.2</ele>
        <time>2025-01-12T14:23:13.856Z</time>
      </trkpt>
      <trkpt lat="43.69008" lon="6.18471">
        <ele>886.5</ele>
        <time>2025-01-12T14:23:20.433Z</time>
      </trkpt>
      <trkpt lat="43.69011" lon="6.18478">
        <ele>887.4</ele>
        <time>2025-01-12T14:23:32.734Z</time>
      </trkpt>
      <trkpt lat="43.69016" lon="6.18473">
        <ele>886.5</ele>
        <time>2025-01-12T14:23:39.452Z</time>
      </trkpt>
      <trkpt lat="43.69017" lon="6.18466">
        <ele>885.5</ele>
        <time>2025-01-12T14:23:45.070Z</time>
      </trkpt>
      <trkpt lat="43.69018" lon="6.18454">
        <ele>883.7</ele>
        <time>2025-01-12T14:23:54.581Z</time>
      </trkpt>
      <trkpt lat="43.69021" lon="6.18448">
        <ele>882.8</ele>
        <time>2025-01-12T14:24:00.325Z</time>
      </trkpt>
      <trkpt lat="43.69025" lon="6.18445">
        <ele>882.2</ele>
        <time>2025-01-12T14:24:05.280Z</time>
      </trkpt>
      <trkpt lat="43.69029" lon="6.18441">
        <ele>881.3</ele>
        <time>2025-01-12T14:24:10.654Z</time>
      </trkpt>
      <trkpt lat="43.69034" lon="6.18436">
        <ele>879.9</ele>
        <time>2025-01-12T14:24:17.373Z</time>
      </trkpt>
      <trkpt lat="43.69039" lon="6.1843">
        <ele>878.3</ele>
        <time>2025-01-12T14:24:24.581Z</time>
      </trkpt>
      <trkpt lat="43.69043" lon="6.18426">
        <ele>877.2</ele>
        <time>2025-01-12T14:24:29.956Z</time>
      </trkpt>
      <trkpt lat="43.69047" lon="6.18422">
        <ele>876</ele>
        <time>2025-01-12T14:24:35.331Z</time>
      </trkpt>
      <trkpt lat="43.69051" lon="6.18418">
        <ele>874.8</ele>
        <time>2025-01-12T14:24:40.706Z</time>
      </trkpt>
      <trkpt lat="43.69055" lon="6.18414">
        <ele>873.9</ele>
        <time>2025-01-12T14:24:46.081Z</time>
      </trkpt>
      <trkpt lat="43.69059" lon="6.1841">
        <ele>872.8</ele>
        <time>2025-01-12T14:24:51.456Z</time>
      </trkpt>
      <trkpt lat="43.69062" lon="6.18405">
        <ele>871.8</ele>
        <time>2025-01-12T14:24:56.571Z</time>
      </trkpt>
      <trkpt lat="43.69065" lon="6.18398">
        <ele>870.6</ele>
        <time>2025-01-12T14:25:02.978Z</time>
      </trkpt>
      <trkpt lat="43.69066" lon="6.18391">
        <ele>869.9</ele>
        <time>2025-01-12T14:25:08.596Z</time>
      </trkpt>
      <trkpt lat="43.69067" lon="6.18385">
        <ele>869.2</ele>
        <time>2025-01-12T14:25:13.444Z</time>
      </trkpt>
      <trkpt lat="43.69069" lon="6.18378">
        <ele>868.3</ele>
        <time>2025-01-12T14:25:19.370Z</time>
      </trkpt>
      <trkpt lat="43.69074" lon="6.18368">
        <ele>866.8</ele>
        <time>2025-01-12T14:25:28.943Z</time>
      </trkpt>
      <trkpt lat="43.69077" lon="6.18362">
        <ele>866</ele>
        <time>2025-01-12T14:25:34.687Z</time>
      </trkpt>
      <trkpt lat="43.6908" lon="6.18356">
        <ele>865.1</ele>
        <time>2025-01-12T14:25:40.430Z</time>
      </trkpt>
      <trkpt lat="43.69083" lon="6.18349">
        <ele>864.2</ele>
        <time>2025-01-12T14:25:46.837Z</time>
      </trkpt>
      <trkpt lat="43.69087" lon="6.18341">
        <ele>863</ele>
        <time>2025-01-12T14:25:54.495Z</time>
      </trkpt>
      <trkpt lat="43.69088" lon="6.18336">
        <ele>862.5</ele>
        <time>2025-01-12T14:25:58.579Z</time>
      </trkpt>
      <trkpt lat="43.69094" lon="6.18333">
        <ele>861.4</ele>
        <time>2025-01-12T14:26:05.527Z</time>
      </trkpt>
      <trkpt lat="43.69101" lon="6.1833">
        <ele>860.1</ele>
        <time>2025-01-12T14:26:13.506Z</time>
      </trkpt>
      <trkpt lat="43.69107" lon="6.18327">
        <ele>859.1</ele>
        <time>2025-01-12T14:26:20.454Z</time>
      </trkpt>
      <trkpt lat="43.69113" lon="6.1832">
        <ele>857.8</ele>
        <time>2025-01-12T14:26:29.001Z</time>
      </trkpt>
      <trkpt lat="43.69118" lon="6.18314">
        <ele>856.7</ele>
        <time>2025-01-12T14:26:36.209Z</time>
      </trkpt>
      <trkpt lat="43.69122" lon="6.18311">
        <ele>856.1</ele>
        <time>2025-01-12T14:26:41.164Z</time>
      </trkpt>
      <trkpt lat="43.69128" lon="6.18306">
        <ele>855.2</ele>
        <time>2025-01-12T14:26:48.792Z</time>
      </trkpt>
      <trkpt lat="43.69133" lon="6.18301">
        <ele>854.3</ele>
        <time>2025-01-12T14:26:55.511Z</time>
      </trkpt>
      <trkpt lat="43.69138" lon="6.18294">
        <ele>853.6</ele>
        <time>2025-01-12T14:27:03.258Z</time>
      </trkpt>
      <trkpt lat="43.69143" lon="6.18286">
        <ele>852.8</ele>
        <time>2025-01-12T14:27:11.583Z</time>
      </trkpt>
      <trkpt lat="43.69147" lon="6.18281">
        <ele>852.2</ele>
        <time>2025-01-12T14:27:17.454Z</time>
      </trkpt>
      <trkpt lat="43.6915" lon="6.18275">
        <ele>851.5</ele>
        <time>2025-01-12T14:27:23.198Z</time>
      </trkpt>
      <trkpt lat="43.69156" lon="6.18269">
        <ele>850.4</ele>
        <time>2025-01-12T14:27:31.260Z</time>
      </trkpt>
      <trkpt lat="43.6916" lon="6.18265">
        <ele>849.8</ele>
        <time>2025-01-12T14:27:36.635Z</time>
      </trkpt>
      <trkpt lat="43.69165" lon="6.18256">
        <ele>849.2</ele>
        <time>2025-01-12T14:27:45.571Z</time>
      </trkpt>
      <trkpt lat="43.69168" lon="6.18253">
        <ele>849</ele>
        <time>2025-01-12T14:27:49.602Z</time>
      </trkpt>
      <trkpt lat="43.69169" lon="6.18251">
        <ele>848.9</ele>
        <time>2025-01-12T14:27:51.517Z</time>
      </trkpt>
      <trkpt lat="43.69171" lon="6.1825">
        <ele>848.7</ele>
        <time>2025-01-12T14:27:53.832Z</time>
      </trkpt>
      <trkpt lat="43.69174" lon="6.18249">
        <ele>848.4</ele>
        <time>2025-01-12T14:27:57.193Z</time>
      </trkpt>
      <trkpt lat="43.69179" lon="6.18246">
        <ele>847.7</ele>
        <time>2025-01-12T14:28:03.127Z</time>
      </trkpt>
      <trkpt lat="43.69184" lon="6.18243">
        <ele>847.2</ele>
        <time>2025-01-12T14:28:09.062Z</time>
      </trkpt>
      <trkpt lat="43.6919" lon="6.18239">
        <ele>846.7</ele>
        <time>2025-01-12T14:28:16.315Z</time>
      </trkpt>
      <trkpt lat="43.69194" lon="6.18235">
        <ele>846.5</ele>
        <time>2025-01-12T14:28:21.754Z</time>
      </trkpt>
      <trkpt lat="43.69197" lon="6.18228">
        <ele>845.9</ele>
        <time>2025-01-12T14:28:28.161Z</time>
      </trkpt>
      <trkpt lat="43.69201" lon="6.1822">
        <ele>845.3</ele>
        <time>2025-01-12T14:28:35.819Z</time>
      </trkpt>
      <trkpt lat="43.69204" lon="6.18211">
        <ele>844.1</ele>
        <time>2025-01-12T14:28:43.621Z</time>
      </trkpt>
      <trkpt lat="43.69206" lon="6.18209">
        <ele>843.9</ele>
        <time>2025-01-12T14:28:46.309Z</time>
      </trkpt>
      <trkpt lat="43.69211" lon="6.18205">
        <ele>843.4</ele>
        <time>2025-01-12T14:28:52.598Z</time>
      </trkpt>
      <trkpt lat="43.69216" lon="6.182">
        <ele>843.1</ele>
        <time>2025-01-12T14:28:59.317Z</time>
      </trkpt>
      <trkpt lat="43.69219" lon="6.18195">
        <ele>842.9</ele>
        <time>2025-01-12T14:29:04.463Z</time>
      </trkpt>
      <trkpt lat="43.69223" lon="6.18189">
        <ele>842.4</ele>
        <time>2025-01-12T14:29:10.888Z</time>
      </trkpt>
      <trkpt lat="43.69226" lon="6.18183">
        <ele>841.5</ele>
        <time>2025-01-12T14:29:16.632Z</time>
      </trkpt>
      <trkpt lat="43.6923" lon="6.18176">
        <ele>840.6</ele>
        <time>2025-01-12T14:29:23.656Z</time>
      </trkpt>
      <trkpt lat="43.69233" lon="6.18169">
        <ele>839.8</ele>
        <time>2025-01-12T14:29:30.063Z</time>
      </trkpt>
      <trkpt lat="43.69237" lon="6.18162">
        <ele>838.9</ele>
        <time>2025-01-12T14:29:37.087Z</time>
      </trkpt>
      <trkpt lat="43.6924" lon="6.18155">
        <ele>837.9</ele>
        <time>2025-01-12T14:29:43.494Z</time>
      </trkpt>
      <trkpt lat="43.69244" lon="6.18145">
        <ele>836.7</ele>
        <time>2025-01-12T14:29:52.492Z</time>
      </trkpt>
      <trkpt lat="43.69248" lon="6.18134">
        <ele>835.5</ele>
        <time>2025-01-12T14:30:02.186Z</time>
      </trkpt>
      <trkpt lat="43.69252" lon="6.18125">
        <ele>834.4</ele>
        <time>2025-01-12T14:30:10.504Z</time>
      </trkpt>
      <trkpt lat="43.69256" lon="6.18115">
        <ele>833.2</ele>
        <time>2025-01-12T14:30:19.501Z</time>
      </trkpt>
      <trkpt lat="43.69258" lon="6.18111">
        <ele>832.7</ele>
        <time>2025-01-12T14:30:23.330Z</time>
      </trkpt>
      <trkpt lat="43.69262" lon="6.18103">
        <ele>831.8</ele>
        <time>2025-01-12T14:30:30.988Z</time>
      </trkpt>
      <trkpt lat="43.69266" lon="6.18097">
        <ele>831.2</ele>
        <time>2025-01-12T14:30:37.414Z</time>
      </trkpt>
      <trkpt lat="43.69271" lon="6.1809">
        <ele>830.5</ele>
        <time>2025-01-12T14:30:45.161Z</time>
      </trkpt>
      <trkpt lat="43.69275" lon="6.18084">
        <ele>830.1</ele>
        <time>2025-01-12T14:30:51.586Z</time>
      </trkpt>
      <trkpt lat="43.69279" lon="6.18077">
        <ele>829.3</ele>
        <time>2025-01-12T14:30:58.611Z</time>
      </trkpt>
      <trkpt lat="43.69285" lon="6.18068">
        <ele>828.1</ele>
        <time>2025-01-12T14:31:08.249Z</time>
      </trkpt>
      <trkpt lat="43.6929" lon="6.18058">
        <ele>826.8</ele>
        <time>2025-01-12T14:31:17.821Z</time>
      </trkpt>
      <trkpt lat="43.69295" lon="6.18051">
        <ele>825.9</ele>
        <time>2025-01-12T14:31:25.568Z</time>
      </trkpt>
      <trkpt lat="43.69299" lon="6.18044">
        <ele>825</ele>
        <time>2025-01-12T14:31:32.593Z</time>
      </trkpt>
      <trkpt lat="43.69301" lon="6.18037">
        <ele>824.2</ele>
        <time>2025-01-12T14:31:38.519Z</time>
      </trkpt>
      <trkpt lat="43.69301" lon="6.18029">
        <ele>823.3</ele>
        <time>2025-01-12T14:31:44.817Z</time>
      </trkpt>
      <trkpt lat="43.69301" lon="6.1802">
        <ele>822.6</ele>
        <time>2025-01-12T14:31:51.903Z</time>
      </trkpt>
      <trkpt lat="43.69304" lon="6.18013">
        <ele>822</ele>
        <time>2025-01-12T14:31:58.310Z</time>
      </trkpt>
      <trkpt lat="43.69309" lon="6.18007">
        <ele>821.3</ele>
        <time>2025-01-12T14:32:05.518Z</time>
      </trkpt>
      <trkpt lat="43.69313" lon="6.18">
        <ele>820.5</ele>
        <time>2025-01-12T14:32:12.543Z</time>
      </trkpt>
      <trkpt lat="43.69314" lon="6.17994">
        <ele>820</ele>
        <time>2025-01-12T14:32:17.390Z</time>
      </trkpt>
      <trkpt lat="43.69314" lon="6.17989">
        <ele>819.6</ele>
        <time>2025-01-12T14:32:21.327Z</time>
      </trkpt>
      <trkpt lat="43.69313" lon="6.17984">
        <ele>819.3</ele>
        <time>2025-01-12T14:32:25.411Z</time>
      </trkpt>
      <trkpt lat="43.69313" lon="6.1798">
        <ele>819</ele>
        <time>2025-01-12T14:32:28.561Z</time>
      </trkpt>
      <trkpt lat="43.6931" lon="6.17971">
        <ele>818.6</ele>
        <time>2025-01-12T14:32:36.363Z</time>
      </trkpt>
      <trkpt lat="43.69309" lon="6.17964">
        <ele>818.2</ele>
        <time>2025-01-12T14:32:41.981Z</time>
      </trkpt>
      <trkpt lat="43.6931" lon="6.17957">
        <ele>817.6</ele>
        <time>2025-01-12T14:32:47.599Z</time>
      </trkpt>
      <trkpt lat="43.69312" lon="6.17953">
        <ele>817.2</ele>
        <time>2025-01-12T14:32:51.428Z</time>
      </trkpt>
      <trkpt lat="43.69316" lon="6.17951">
        <ele>816.7</ele>
        <time>2025-01-12T14:32:56.059Z</time>
      </trkpt>
      <trkpt lat="43.69324" lon="6.17947">
        <ele>815.9</ele>
        <time>2025-01-12T14:33:05.322Z</time>
      </trkpt>
      <trkpt lat="43.69331" lon="6.17943">
        <ele>815.1</ele>
        <time>2025-01-12T14:33:13.569Z</time>
      </trkpt>
      <trkpt lat="43.69337" lon="6.17939">
        <ele>814.3</ele>
        <time>2025-01-12T14:33:20.822Z</time>
      </trkpt>
      <trkpt lat="43.69339" lon="6.17938">
        <ele>814.1</ele>
        <time>2025-01-12T14:33:23.138Z</time>
      </trkpt>
      <trkpt lat="43.69347" lon="6.17938">
        <ele>813.6</ele>
        <time>2025-01-12T14:33:31.849Z</time>
      </trkpt>
      <trkpt lat="43.69351" lon="6.17937">
        <ele>813.2</ele>
        <time>2025-01-12T14:33:36.275Z</time>
      </trkpt>
      <trkpt lat="43.69354" lon="6.17935">
        <ele>812.8</ele>
        <time>2025-01-12T14:33:39.901Z</time>
      </trkpt>
      <trkpt lat="43.69357" lon="6.1793">
        <ele>812.3</ele>
        <time>2025-01-12T14:33:45.017Z</time>
      </trkpt>
      <trkpt lat="43.69362" lon="6.17921">
        <ele>811.2</ele>
        <time>2025-01-12T14:33:53.953Z</time>
      </trkpt>
      <trkpt lat="43.69363" lon="6.17915">
        <ele>810.7</ele>
        <time>2025-01-12T14:33:58.800Z</time>
      </trkpt>
      <trkpt lat="43.69366" lon="6.1791">
        <ele>810</ele>
        <time>2025-01-12T14:34:03.916Z</time>
      </trkpt>
      <trkpt lat="43.69373" lon="6.17906">
        <ele>808.9</ele>
        <time>2025-01-12T14:34:12.163Z</time>
      </trkpt>
      <trkpt lat="43.69379" lon="6.17904">
        <ele>808.2</ele>
        <time>2025-01-12T14:34:18.883Z</time>
      </trkpt>
      <trkpt lat="43.69386" lon="6.17903">
        <ele>807.3</ele>
        <time>2025-01-12T14:34:26.546Z</time>
      </trkpt>
      <trkpt lat="43.69392" lon="6.179">
        <ele>806.4</ele>
        <time>2025-01-12T14:34:33.493Z</time>
      </trkpt>
      <trkpt lat="43.69396" lon="6.17896">
        <ele>805.8</ele>
        <time>2025-01-12T14:34:38.868Z</time>
      </trkpt>
      <trkpt lat="43.69399" lon="6.17891">
        <ele>805.3</ele>
        <time>2025-01-12T14:34:43.984Z</time>
      </trkpt>
      <trkpt lat="43.69403" lon="6.17887">
        <ele>804.8</ele>
        <time>2025-01-12T14:34:49.358Z</time>
      </trkpt>
      <trkpt lat="43.69406" lon="6.17882">
        <ele>804.2</ele>
        <time>2025-01-12T14:34:54.474Z</time>
      </trkpt>
      <trkpt lat="43.69412" lon="6.1788">
        <ele>803.6</ele>
        <time>2025-01-12T14:35:01.194Z</time>
      </trkpt>
      <trkpt lat="43.69416" lon="6.17876">
        <ele>803.1</ele>
        <time>2025-01-12T14:35:06.569Z</time>
      </trkpt>
      <trkpt lat="43.6942" lon="6.17871">
        <ele>802.4</ele>
        <time>2025-01-12T14:35:12.440Z</time>
      </trkpt>
      <trkpt lat="43.69426" lon="6.17864">
        <ele>801.5</ele>
        <time>2025-01-12T14:35:20.987Z</time>
      </trkpt>
      <trkpt lat="43.69431" lon="6.17856">
        <ele>800.6</ele>
        <time>2025-01-12T14:35:29.313Z</time>
      </trkpt>
      <trkpt lat="43.69436" lon="6.1785">
        <ele>800</ele>
        <time>2025-01-12T14:35:36.521Z</time>
      </trkpt>
      <trkpt lat="43.6944" lon="6.17843">
        <ele>799.5</ele>
        <time>2025-01-12T14:35:43.545Z</time>
      </trkpt>
      <trkpt lat="43.69444" lon="6.17838">
        <ele>799.2</ele>
        <time>2025-01-12T14:35:49.416Z</time>
      </trkpt>
      <trkpt lat="43.69448" lon="6.17832">
        <ele>798.5</ele>
        <time>2025-01-12T14:35:55.841Z</time>
      </trkpt>
      <trkpt lat="43.69452" lon="6.17827">
        <ele>797.9</ele>
        <time>2025-01-12T14:36:01.712Z</time>
      </trkpt>
      <trkpt lat="43.69456" lon="6.17821">
        <ele>797.2</ele>
        <time>2025-01-12T14:36:08.138Z</time>
      </trkpt>
      <trkpt lat="43.69461" lon="6.17813">
        <ele>796.6</ele>
        <time>2025-01-12T14:36:16.463Z</time>
      </trkpt>
      <trkpt lat="43.69462" lon="6.17807">
        <ele>796.4</ele>
        <time>2025-01-12T14:36:21.311Z</time>
      </trkpt>
      <trkpt lat="43.69461" lon="6.17801">
        <ele>796</ele>
        <time>2025-01-12T14:36:26.158Z</time>
      </trkpt>
      <trkpt lat="43.69461" lon="6.17797">
        <ele>795.7</ele>
        <time>2025-01-12T14:36:29.307Z</time>
      </trkpt>
      <trkpt lat="43.69463" lon="6.17793">
        <ele>795.4</ele>
        <time>2025-01-12T14:36:33.136Z</time>
      </trkpt>
      <trkpt lat="43.69469" lon="6.17789">
        <ele>795.3</ele>
        <time>2025-01-12T14:36:41.054Z</time>
      </trkpt>
      <trkpt lat="43.69474" lon="6.17785">
        <ele>795.1</ele>
        <time>2025-01-12T14:36:47.530Z</time>
      </trkpt>
      <trkpt lat="43.69478" lon="6.17781">
        <ele>794.7</ele>
        <time>2025-01-12T14:36:52.905Z</time>
      </trkpt>
      <trkpt lat="43.69485" lon="6.17775">
        <ele>794</ele>
        <time>2025-01-12T14:37:01.872Z</time>
      </trkpt>
      <trkpt lat="43.6949" lon="6.17769">
        <ele>793.5</ele>
        <time>2025-01-12T14:37:09.080Z</time>
      </trkpt>
      <trkpt lat="43.69494" lon="6.17763">
        <ele>793.2</ele>
        <time>2025-01-12T14:37:15.506Z</time>
      </trkpt>
      <trkpt lat="43.69498" lon="6.17757">
        <ele>793</ele>
        <time>2025-01-12T14:37:22.136Z</time>
      </trkpt>
      <trkpt lat="43.69501" lon="6.1775">
        <ele>792.9</ele>
        <time>2025-01-12T14:37:29.088Z</time>
      </trkpt>
      <trkpt lat="43.69505" lon="6.17746">
        <ele>792.5</ele>
        <time>2025-01-12T14:37:34.463Z</time>
      </trkpt>
      <trkpt lat="43.69509" lon="6.17741">
        <ele>792.2</ele>
        <time>2025-01-12T14:37:40.333Z</time>
      </trkpt>
      <trkpt lat="43.69517" lon="6.17737">
        <ele>791.9</ele>
        <time>2025-01-12T14:37:49.853Z</time>
      </trkpt>
      <trkpt lat="43.69524" lon="6.17732">
        <ele>791.7</ele>
        <time>2025-01-12T14:37:58.931Z</time>
      </trkpt>
      <trkpt lat="43.69529" lon="6.17727">
        <ele>791.7</ele>
        <time>2025-01-12T14:38:06.609Z</time>
      </trkpt>
      <trkpt lat="43.69534" lon="6.17722">
        <ele>791.3</ele>
        <time>2025-01-12T14:38:13.328Z</time>
      </trkpt>
      <trkpt lat="43.69539" lon="6.17715">
        <ele>790.6</ele>
        <time>2025-01-12T14:38:21.074Z</time>
      </trkpt>
      <trkpt lat="43.69541" lon="6.17709">
        <ele>790.3</ele>
        <time>2025-01-12T14:38:26.276Z</time>
      </trkpt>
      <trkpt lat="43.69543" lon="6.17702">
        <ele>790.1</ele>
        <time>2025-01-12T14:38:32.339Z</time>
      </trkpt>
      <trkpt lat="43.69543" lon="6.17693">
        <ele>789.9</ele>
        <time>2025-01-12T14:38:39.719Z</time>
      </trkpt>
      <trkpt lat="43.69544" lon="6.17686">
        <ele>789.6</ele>
        <time>2025-01-12T14:38:45.337Z</time>
      </trkpt>
      <trkpt lat="43.69544" lon="6.17678">
        <ele>789.2</ele>
        <time>2025-01-12T14:38:51.635Z</time>
      </trkpt>
      <trkpt lat="43.69546" lon="6.17669">
        <ele>788.8</ele>
        <time>2025-01-12T14:38:59.048Z</time>
      </trkpt>
      <trkpt lat="43.69548" lon="6.17663">
        <ele>788.4</ele>
        <time>2025-01-12T14:39:04.249Z</time>
      </trkpt>
      <trkpt lat="43.6955" lon="6.17657">
        <ele>788</ele>
        <time>2025-01-12T14:39:09.451Z</time>
      </trkpt>
      <trkpt lat="43.69553" lon="6.17648">
        <ele>787.5</ele>
        <time>2025-01-12T14:39:17.253Z</time>
      </trkpt>
      <trkpt lat="43.69556" lon="6.17638">
        <ele>786.9</ele>
        <time>2025-01-12T14:39:25.777Z</time>
      </trkpt>
      <trkpt lat="43.69557" lon="6.17635">
        <ele>786.6</ele>
        <time>2025-01-12T14:39:28.378Z</time>
      </trkpt>
      <trkpt lat="43.6956" lon="6.17627">
        <ele>785.8</ele>
        <time>2025-01-12T14:39:35.473Z</time>
      </trkpt>
      <trkpt lat="43.69561" lon="6.17619">
        <ele>785</ele>
        <time>2025-01-12T14:39:41.864Z</time>
      </trkpt>
      <trkpt lat="43.69561" lon="6.17611">
        <ele>784.2</ele>
        <time>2025-01-12T14:39:48.163Z</time>
      </trkpt>
      <trkpt lat="43.69562" lon="6.17601">
        <ele>783.2</ele>
        <time>2025-01-12T14:39:56.111Z</time>
      </trkpt>
      <trkpt lat="43.69563" lon="6.17591">
        <ele>782.3</ele>
        <time>2025-01-12T14:40:04.058Z</time>
      </trkpt>
      <trkpt lat="43.69563" lon="6.17579">
        <ele>781.2</ele>
        <time>2025-01-12T14:40:13.506Z</time>
      </trkpt>
      <trkpt lat="43.69563" lon="6.17571">
        <ele>780.5</ele>
        <time>2025-01-12T14:40:19.804Z</time>
      </trkpt>
      <trkpt lat="43.69562" lon="6.17562">
        <ele>779.7</ele>
        <time>2025-01-12T14:40:26.973Z</time>
      </trkpt>
      <trkpt lat="43.69563" lon="6.17554">
        <ele>779.1</ele>
        <time>2025-01-12T14:40:33.365Z</time>
      </trkpt>
      <trkpt lat="43.69565" lon="6.17545">
        <ele>778.3</ele>
        <time>2025-01-12T14:40:40.777Z</time>
      </trkpt>
      <trkpt lat="43.69566" lon="6.17533">
        <ele>777.2</ele>
        <time>2025-01-12T14:40:50.287Z</time>
      </trkpt>
      <trkpt lat="43.69567" lon="6.17525">
        <ele>776.6</ele>
        <time>2025-01-12T14:40:56.679Z</time>
      </trkpt>
      <trkpt lat="43.69567" lon="6.17516">
        <ele>776</ele>
        <time>2025-01-12T14:41:03.765Z</time>
      </trkpt>
      <trkpt lat="43.69567" lon="6.1751">
        <ele>775.5</ele>
        <time>2025-01-12T14:41:08.488Z</time>
      </trkpt>
      <trkpt lat="43.69564" lon="6.17508">
        <ele>775.2</ele>
        <time>2025-01-12T14:41:12.115Z</time>
      </trkpt>
      <trkpt lat="43.69564" lon="6.17508">
        <ele>775.2</ele>
        <time>2025-01-12T14:41:12.115Z</time>
      </trkpt>
      <trkpt lat="43.69562" lon="6.17506">
        <ele>774.9</ele>
        <time>2025-01-12T14:41:14.802Z</time>
      </trkpt>
      <trkpt lat="43.69556" lon="6.175">
        <ele>774</ele>
        <time>2025-01-12T14:41:22.864Z</time>
      </trkpt>
      <trkpt lat="43.69552" lon="6.17495">
        <ele>773</ele>
        <time>2025-01-12T14:41:28.735Z</time>
      </trkpt>
      <trkpt lat="43.69548" lon="6.17489">
        <ele>772</ele>
        <time>2025-01-12T14:41:35.160Z</time>
      </trkpt>
      <trkpt lat="43.69545" lon="6.17481">
        <ele>771</ele>
        <time>2025-01-12T14:41:42.255Z</time>
      </trkpt>
      <trkpt lat="43.69544" lon="6.17473">
        <ele>770.4</ele>
        <time>2025-01-12T14:41:48.647Z</time>
      </trkpt>
      <trkpt lat="43.69545" lon="6.17461">
        <ele>769.8</ele>
        <time>2025-01-12T14:41:58.157Z</time>
      </trkpt>
      <trkpt lat="43.69547" lon="6.17454">
        <ele>769.7</ele>
        <time>2025-01-12T14:42:04.220Z</time>
      </trkpt>
      <trkpt lat="43.69548" lon="6.17447">
        <ele>769.3</ele>
        <time>2025-01-12T14:42:09.838Z</time>
      </trkpt>
      <trkpt lat="43.69548" lon="6.17441">
        <ele>768.8</ele>
        <time>2025-01-12T14:42:14.562Z</time>
      </trkpt>
      <trkpt lat="43.69547" lon="6.1743">
        <ele>767.7</ele>
        <time>2025-01-12T14:42:23.290Z</time>
      </trkpt>
      <trkpt lat="43.69547" lon="6.17423">
        <ele>767</ele>
        <time>2025-01-12T14:42:28.801Z</time>
      </trkpt>
      <trkpt lat="43.69544" lon="6.17417">
        <ele>766.2</ele>
        <time>2025-01-12T14:42:34.544Z</time>
      </trkpt>
      <trkpt lat="43.69538" lon="6.17413">
        <ele>765.3</ele>
        <time>2025-01-12T14:42:41.797Z</time>
      </trkpt>
      <trkpt lat="43.69533" lon="6.17411">
        <ele>764.8</ele>
        <time>2025-01-12T14:42:47.464Z</time>
      </trkpt>
      <trkpt lat="43.69526" lon="6.17405">
        <ele>763.4</ele>
        <time>2025-01-12T14:42:56.432Z</time>
      </trkpt>
      <trkpt lat="43.69523" lon="6.17401">
        <ele>762.5</ele>
        <time>2025-01-12T14:43:00.969Z</time>
      </trkpt>
      <trkpt lat="43.69519" lon="6.17396">
        <ele>761.4</ele>
        <time>2025-01-12T14:43:06.840Z</time>
      </trkpt>
      <trkpt lat="43.69514" lon="6.17386">
        <ele>759.8</ele>
        <time>2025-01-12T14:43:16.412Z</time>
      </trkpt>
      <trkpt lat="43.69509" lon="6.17377">
        <ele>758.3</ele>
        <time>2025-01-12T14:43:25.348Z</time>
      </trkpt>
      <trkpt lat="43.69506" lon="6.17373">
        <ele>757.6</ele>
        <time>2025-01-12T14:43:29.885Z</time>
      </trkpt>
      <trkpt lat="43.69502" lon="6.17369">
        <ele>756.8</ele>
        <time>2025-01-12T14:43:35.260Z</time>
      </trkpt>
      <trkpt lat="43.69498" lon="6.17358">
        <ele>755.3</ele>
        <time>2025-01-12T14:43:44.954Z</time>
      </trkpt>
      <trkpt lat="43.69494" lon="6.17351">
        <ele>753.9</ele>
        <time>2025-01-12T14:43:51.978Z</time>
      </trkpt>
      <trkpt lat="43.69489" lon="6.17344">
        <ele>752.4</ele>
        <time>2025-01-12T14:43:59.725Z</time>
      </trkpt>
      <trkpt lat="43.69484" lon="6.1734">
        <ele>751.3</ele>
        <time>2025-01-12T14:44:06.015Z</time>
      </trkpt>
      <trkpt lat="43.69479" lon="6.17335">
        <ele>750.1</ele>
        <time>2025-01-12T14:44:12.733Z</time>
      </trkpt>
      <trkpt lat="43.69474" lon="6.17326">
        <ele>748.7</ele>
        <time>2025-01-12T14:44:21.669Z</time>
      </trkpt>
      <trkpt lat="43.69472" lon="6.17316">
        <ele>747.7</ele>
        <time>2025-01-12T14:44:29.838Z</time>
      </trkpt>
      <trkpt lat="43.69472" lon="6.17305">
        <ele>746.9</ele>
        <time>2025-01-12T14:44:38.498Z</time>
      </trkpt>
      <trkpt lat="43.69469" lon="6.17294">
        <ele>745.1</ele>
        <time>2025-01-12T14:44:47.754Z</time>
      </trkpt>
      <trkpt lat="43.69468" lon="6.17284">
        <ele>743.9</ele>
        <time>2025-01-12T14:44:55.702Z</time>
      </trkpt>
      <trkpt lat="43.69468" lon="6.17272">
        <ele>742.6</ele>
        <time>2025-01-12T14:45:05.149Z</time>
      </trkpt>
      <trkpt lat="43.69469" lon="6.17265">
        <ele>742.1</ele>
        <time>2025-01-12T14:45:10.767Z</time>
      </trkpt>
      <trkpt lat="43.6947" lon="6.17258">
        <ele>741.5</ele>
        <time>2025-01-12T14:45:16.385Z</time>
      </trkpt>
      <trkpt lat="43.69471" lon="6.17251">
        <ele>740.9</ele>
        <time>2025-01-12T14:45:22.002Z</time>
      </trkpt>
      <trkpt lat="43.69472" lon="6.17244">
        <ele>740.3</ele>
        <time>2025-01-12T14:45:27.620Z</time>
      </trkpt>
      <trkpt lat="43.6947" lon="6.17232">
        <ele>738.8</ele>
        <time>2025-01-12T14:45:37.315Z</time>
      </trkpt>
      <trkpt lat="43.69468" lon="6.17222">
        <ele>737.5</ele>
        <time>2025-01-12T14:45:45.484Z</time>
      </trkpt>
      <trkpt lat="43.69467" lon="6.17216">
        <ele>736.8</ele>
        <time>2025-01-12T14:45:50.332Z</time>
      </trkpt>
      <trkpt lat="43.69465" lon="6.1721">
        <ele>735.9</ele>
        <time>2025-01-12T14:45:55.533Z</time>
      </trkpt>
      <trkpt lat="43.69461" lon="6.17201">
        <ele>734.5</ele>
        <time>2025-01-12T14:46:03.851Z</time>
      </trkpt>
      <trkpt lat="43.69457" lon="6.17195">
        <ele>733.4</ele>
        <time>2025-01-12T14:46:10.276Z</time>
      </trkpt>
      <trkpt lat="43.69452" lon="6.17188">
        <ele>732.3</ele>
        <time>2025-01-12T14:46:18.023Z</time>
      </trkpt>
      <trkpt lat="43.69448" lon="6.17185">
        <ele>731.7</ele>
        <time>2025-01-12T14:46:22.978Z</time>
      </trkpt>
      <trkpt lat="43.69444" lon="6.17181">
        <ele>731</ele>
        <time>2025-01-12T14:46:28.352Z</time>
      </trkpt>
      <trkpt lat="43.69438" lon="6.17178">
        <ele>729.9</ele>
        <time>2025-01-12T14:46:35.300Z</time>
      </trkpt>
      <trkpt lat="43.69431" lon="6.17179">
        <ele>729</ele>
        <time>2025-01-12T14:46:42.962Z</time>
      </trkpt>
      <trkpt lat="43.69424" lon="6.17181">
        <ele>728.1</ele>
        <time>2025-01-12T14:46:50.745Z</time>
      </trkpt>
      <trkpt lat="43.69417" lon="6.17183">
        <ele>727.2</ele>
        <time>2025-01-12T14:46:58.529Z</time>
      </trkpt>
      <trkpt lat="43.69411" lon="6.17186">
        <ele>726.4</ele>
        <time>2025-01-12T14:47:05.476Z</time>
      </trkpt>
      <trkpt lat="43.69404" lon="6.17188">
        <ele>725.4</ele>
        <time>2025-01-12T14:47:13.259Z</time>
      </trkpt>
      <trkpt lat="43.69399" lon="6.17191">
        <ele>724.7</ele>
        <time>2025-01-12T14:47:19.194Z</time>
      </trkpt>
      <trkpt lat="43.69393" lon="6.17194">
        <ele>723.7</ele>
        <time>2025-01-12T14:47:26.141Z</time>
      </trkpt>
      <trkpt lat="43.69389" lon="6.17197">
        <ele>723.1</ele>
        <time>2025-01-12T14:47:31.096Z</time>
      </trkpt>
      <trkpt lat="43.69385" lon="6.17199">
        <ele>722.3</ele>
        <time>2025-01-12T14:47:35.727Z</time>
      </trkpt>
      <trkpt lat="43.6938" lon="6.17202">
        <ele>721.4</ele>
        <time>2025-01-12T14:47:41.662Z</time>
      </trkpt>
      <trkpt lat="43.69376" lon="6.17204">
        <ele>720.6</ele>
        <time>2025-01-12T14:47:46.293Z</time>
      </trkpt>
      <trkpt lat="43.69371" lon="6.17207">
        <ele>719.6</ele>
        <time>2025-01-12T14:47:52.228Z</time>
      </trkpt>
      <trkpt lat="43.69367" lon="6.1721">
        <ele>718.8</ele>
        <time>2025-01-12T14:47:57.183Z</time>
      </trkpt>
      <trkpt lat="43.69362" lon="6.17213">
        <ele>717.9</ele>
        <time>2025-01-12T14:48:03.117Z</time>
      </trkpt>
      <trkpt lat="43.69357" lon="6.17216">
        <ele>717.7</ele>
        <time>2025-01-12T14:48:09.531Z</time>
      </trkpt>
      <trkpt lat="43.69354" lon="6.17217">
        <ele>717.7</ele>
        <time>2025-01-12T14:48:13.372Z</time>
      </trkpt>
      <trkpt lat="43.69351" lon="6.17214">
        <ele>717.5</ele>
        <time>2025-01-12T14:48:17.403Z</time>
      </trkpt>
      <trkpt lat="43.69349" lon="6.1721">
        <ele>717.2</ele>
        <time>2025-01-12T14:48:21.232Z</time>
      </trkpt>
      <trkpt lat="43.69347" lon="6.17203">
        <ele>716.6</ele>
        <time>2025-01-12T14:48:27.158Z</time>
      </trkpt>
      <trkpt lat="43.69344" lon="6.17195">
        <ele>715.8</ele>
        <time>2025-01-12T14:48:34.253Z</time>
      </trkpt>
      <trkpt lat="43.69341" lon="6.17187">
        <ele>714.9</ele>
        <time>2025-01-12T14:48:41.348Z</time>
      </trkpt>
      <trkpt lat="43.69337" lon="6.17179">
        <ele>713.7</ele>
        <time>2025-01-12T14:48:49.006Z</time>
      </trkpt>
      <trkpt lat="43.69333" lon="6.17171">
        <ele>712.5</ele>
        <time>2025-01-12T14:48:56.664Z</time>
      </trkpt>
      <trkpt lat="43.69329" lon="6.17162">
        <ele>711.9</ele>
        <time>2025-01-12T14:49:04.981Z</time>
      </trkpt>
      <trkpt lat="43.69326" lon="6.17156">
        <ele>711.6</ele>
        <time>2025-01-12T14:49:10.725Z</time>
      </trkpt>
      <trkpt lat="43.69324" lon="6.17151">
        <ele>711.2</ele>
        <time>2025-01-12T14:49:15.223Z</time>
      </trkpt>
      <trkpt lat="43.69321" lon="6.17145">
        <ele>710.6</ele>
        <time>2025-01-12T14:49:20.967Z</time>
      </trkpt>
      <trkpt lat="43.69319" lon="6.17139">
        <ele>710</ele>
        <time>2025-01-12T14:49:26.168Z</time>
      </trkpt>
      <trkpt lat="43.69316" lon="6.17133">
        <ele>709.4</ele>
        <time>2025-01-12T14:49:31.912Z</time>
      </trkpt>
      <trkpt lat="43.69313" lon="6.17128">
        <ele>708.7</ele>
        <time>2025-01-12T14:49:37.027Z</time>
      </trkpt>
      <trkpt lat="43.69311" lon="6.17122">
        <ele>707.9</ele>
        <time>2025-01-12T14:49:42.229Z</time>
      </trkpt>
      <trkpt lat="43.69308" lon="6.17116">
        <ele>706.9</ele>
        <time>2025-01-12T14:49:47.972Z</time>
      </trkpt>
      <trkpt lat="43.69304" lon="6.1711">
        <ele>705.9</ele>
        <time>2025-01-12T14:49:54.398Z</time>
      </trkpt>
      <trkpt lat="43.69299" lon="6.17104">
        <ele>705.6</ele>
        <time>2025-01-12T14:50:01.606Z</time>
      </trkpt>
      <trkpt lat="43.69291" lon="6.17099">
        <ele>704.8</ele>
        <time>2025-01-12T14:50:11.165Z</time>
      </trkpt>
      <trkpt lat="43.69284" lon="6.17096">
        <ele>704</ele>
        <time>2025-01-12T14:50:19.145Z</time>
      </trkpt>
      <trkpt lat="43.69277" lon="6.17095">
        <ele>703.3</ele>
        <time>2025-01-12T14:50:26.808Z</time>
      </trkpt>
      <trkpt lat="43.6927" lon="6.17094">
        <ele>703.2</ele>
        <time>2025-01-12T14:50:34.844Z</time>
      </trkpt>
      <trkpt lat="43.69263" lon="6.17092">
        <ele>702.9</ele>
        <time>2025-01-12T14:50:43.017Z</time>
      </trkpt>
      <trkpt lat="43.69256" lon="6.17091">
        <ele>702.8</ele>
        <time>2025-01-12T14:50:51.403Z</time>
      </trkpt>
      <trkpt lat="43.69249" lon="6.17089">
        <ele>702.6</ele>
        <time>2025-01-12T14:50:59.576Z</time>
      </trkpt>
      <trkpt lat="43.69244" lon="6.17088">
        <ele>702.3</ele>
        <time>2025-01-12T14:51:05.077Z</time>
      </trkpt>
      <trkpt lat="43.69239" lon="6.17088">
        <ele>702.1</ele>
        <time>2025-01-12T14:51:10.595Z</time>
      </trkpt>
      <trkpt lat="43.69234" lon="6.17087">
        <ele>701.8</ele>
        <time>2025-01-12T14:51:16.096Z</time>
      </trkpt>
      <trkpt lat="43.69229" lon="6.17086">
        <ele>701.5</ele>
        <time>2025-01-12T14:51:21.597Z</time>
      </trkpt>
      <trkpt lat="43.69222" lon="6.17084">
        <ele>701.1</ele>
        <time>2025-01-12T14:51:29.380Z</time>
      </trkpt>
      <trkpt lat="43.69215" lon="6.17081">
        <ele>701.1</ele>
        <time>2025-01-12T14:51:38.894Z</time>
      </trkpt>
      <trkpt lat="43.6921" lon="6.17078">
        <ele>701</ele>
        <time>2025-01-12T14:51:45.309Z</time>
      </trkpt>
      <trkpt lat="43.69205" lon="6.17076">
        <ele>701.2</ele>
        <time>2025-01-12T14:51:52.185Z</time>
      </trkpt>
      <trkpt lat="43.692" lon="6.17073">
        <ele>701.3</ele>
        <time>2025-01-12T14:51:59.799Z</time>
      </trkpt>
      <trkpt lat="43.69195" lon="6.1707">
        <ele>701.5</ele>
        <time>2025-01-12T14:52:07.412Z</time>
      </trkpt>
      <trkpt lat="43.69189" lon="6.17065">
        <ele>702</ele>
        <time>2025-01-12T14:52:18.382Z</time>
      </trkpt>
      <trkpt lat="43.69182" lon="6.17059">
        <ele>702.5</ele>
        <time>2025-01-12T14:52:30.827Z</time>
      </trkpt>
      <trkpt lat="43.69179" lon="6.17054">
        <ele>702.6</ele>
        <time>2025-01-12T14:52:37.074Z</time>
      </trkpt>
      <trkpt lat="43.69175" lon="6.17049">
        <ele>702.8</ele>
        <time>2025-01-12T14:52:44.616Z</time>
      </trkpt>
      <trkpt lat="43.69173" lon="6.17043">
        <ele>702.8</ele>
        <time>2025-01-12T14:52:50.561Z</time>
      </trkpt>
      <trkpt lat="43.6917" lon="6.17037">
        <ele>702.9</ele>
        <time>2025-01-12T14:52:57.524Z</time>
      </trkpt>
      <trkpt lat="43.69168" lon="6.17028">
        <ele>702.8</ele>
        <time>2025-01-12T14:53:05.996Z</time>
      </trkpt>
      <trkpt lat="43.69165" lon="6.17019">
        <ele>702.9</ele>
        <time>2025-01-12T14:53:14.914Z</time>
      </trkpt>
      <trkpt lat="43.69163" lon="6.17014">
        <ele>702.8</ele>
        <time>2025-01-12T14:53:20.055Z</time>
      </trkpt>
      <trkpt lat="43.6916" lon="6.17008">
        <ele>702.7</ele>
        <time>2025-01-12T14:53:25.912Z</time>
      </trkpt>
      <trkpt lat="43.69156" lon="6.17004">
        <ele>702.7</ele>
        <time>2025-01-12T14:53:32.055Z</time>
      </trkpt>
      <trkpt lat="43.69151" lon="6.16998">
        <ele>702.4</ele>
        <time>2025-01-12T14:53:39.263Z</time>
      </trkpt>
      <trkpt lat="43.69145" lon="6.16995">
        <ele>702.5</ele>
        <time>2025-01-12T14:53:47.599Z</time>
      </trkpt>
      <trkpt lat="43.69139" lon="6.16991">
        <ele>702.7</ele>
        <time>2025-01-12T14:53:56.706Z</time>
      </trkpt>
      <trkpt lat="43.69133" lon="6.16986">
        <ele>703.3</ele>
        <time>2025-01-12T14:54:08.221Z</time>
      </trkpt>
      <trkpt lat="43.69127" lon="6.16981">
        <ele>703.9</ele>
        <time>2025-01-12T14:54:19.735Z</time>
      </trkpt>
      <trkpt lat="43.69123" lon="6.16976">
        <ele>704</ele>
        <time>2025-01-12T14:54:27.277Z</time>
      </trkpt>
      <trkpt lat="43.69118" lon="6.16972">
        <ele>704.2</ele>
        <time>2025-01-12T14:54:34.863Z</time>
      </trkpt>
      <trkpt lat="43.69114" lon="6.16967">
        <ele>704.1</ele>
        <time>2025-01-12T14:54:41.573Z</time>
      </trkpt>
      <trkpt lat="43.69109" lon="6.16962">
        <ele>704</ele>
        <time>2025-01-12T14:54:48.536Z</time>
      </trkpt>
      <trkpt lat="43.69104" lon="6.16957">
        <ele>703.9</ele>
        <time>2025-01-12T14:54:55.499Z</time>
      </trkpt>
      <trkpt lat="43.691" lon="6.16952">
        <ele>703.6</ele>
        <time>2025-01-12T14:55:01.840Z</time>
      </trkpt>
      <trkpt lat="43.69095" lon="6.16947">
        <ele>703.4</ele>
        <time>2025-01-12T14:55:08.803Z</time>
      </trkpt>
      <trkpt lat="43.6909" lon="6.16942">
        <ele>703.3</ele>
        <time>2025-01-12T14:55:15.766Z</time>
      </trkpt>
      <trkpt lat="43.69085" lon="6.16937">
        <ele>703.3</ele>
        <time>2025-01-12T14:55:23.444Z</time>
      </trkpt>
      <trkpt lat="43.69079" lon="6.16931">
        <ele>703.3</ele>
        <time>2025-01-12T14:55:32.659Z</time>
      </trkpt>
      <trkpt lat="43.69075" lon="6.16929">
        <ele>703.5</ele>
        <time>2025-01-12T14:55:38.803Z</time>
      </trkpt>
      <trkpt lat="43.6907" lon="6.16926">
        <ele>703.6</ele>
        <time>2025-01-12T14:55:45.984Z</time>
      </trkpt>
      <trkpt lat="43.69065" lon="6.16924">
        <ele>703.8</ele>
        <time>2025-01-12T14:55:53.295Z</time>
      </trkpt>
      <trkpt lat="43.6906" lon="6.16922">
        <ele>704.1</ele>
        <time>2025-01-12T14:56:01.081Z</time>
      </trkpt>
      <trkpt lat="43.69055" lon="6.16921">
        <ele>704.3</ele>
        <time>2025-01-12T14:56:08.204Z</time>
      </trkpt>
      <trkpt lat="43.69051" lon="6.1692">
        <ele>704.3</ele>
        <time>2025-01-12T14:56:12.899Z</time>
      </trkpt>
      <trkpt lat="43.69046" lon="6.16918">
        <ele>704.1</ele>
        <time>2025-01-12T14:56:19.009Z</time>
      </trkpt>
      <trkpt lat="43.69041" lon="6.16917">
        <ele>704</ele>
        <time>2025-01-12T14:56:24.928Z</time>
      </trkpt>
      <trkpt lat="43.69034" lon="6.16914">
        <ele>703.8</ele>
        <time>2025-01-12T14:56:32.994Z</time>
      </trkpt>
      <trkpt lat="43.69026" lon="6.1691">
        <ele>703.4</ele>
        <time>2025-01-12T14:56:42.513Z</time>
      </trkpt>
      <trkpt lat="43.69021" lon="6.16906">
        <ele>702.9</ele>
        <time>2025-01-12T14:56:48.803Z</time>
      </trkpt>
      <trkpt lat="43.69016" lon="6.16901">
        <ele>702.2</ele>
        <time>2025-01-12T14:56:55.521Z</time>
      </trkpt>
      <trkpt lat="43.69012" lon="6.16896">
        <ele>701.5</ele>
        <time>2025-01-12T14:57:01.393Z</time>
      </trkpt>
      <trkpt lat="43.69007" lon="6.1689">
        <ele>700.6</ele>
        <time>2025-01-12T14:57:08.601Z</time>
      </trkpt>
      <trkpt lat="43.69001" lon="6.16885">
        <ele>699.8</ele>
        <time>2025-01-12T14:57:16.229Z</time>
      </trkpt>
      <trkpt lat="43.68995" lon="6.16879">
        <ele>698.7</ele>
        <time>2025-01-12T14:57:24.291Z</time>
      </trkpt>
      <trkpt lat="43.68988" lon="6.16876">
        <ele>697.8</ele>
        <time>2025-01-12T14:57:32.271Z</time>
      </trkpt>
      <trkpt lat="43.68983" lon="6.16876">
        <ele>697.2</ele>
        <time>2025-01-12T14:57:37.715Z</time>
      </trkpt>
      <trkpt lat="43.68978" lon="6.16878">
        <ele>696.8</ele>
        <time>2025-01-12T14:57:43.383Z</time>
      </trkpt>
      <trkpt lat="43.68972" lon="6.16879">
        <ele>696.3</ele>
        <time>2025-01-12T14:57:49.963Z</time>
      </trkpt>
      <trkpt lat="43.68967" lon="6.16881">
        <ele>695.7</ele>
        <time>2025-01-12T14:57:55.631Z</time>
      </trkpt>
      <trkpt lat="43.68961" lon="6.16882">
        <ele>694.9</ele>
        <time>2025-01-12T14:58:02.212Z</time>
      </trkpt>
      <trkpt lat="43.68953" lon="6.16886">
        <ele>694</ele>
        <time>2025-01-12T14:58:11.475Z</time>
      </trkpt>
      <trkpt lat="43.68945" lon="6.16889">
        <ele>693.1</ele>
        <time>2025-01-12T14:58:20.500Z</time>
      </trkpt>
      <trkpt lat="43.68938" lon="6.16895">
        <ele>692.5</ele>
        <time>2025-01-12T14:58:29.468Z</time>
      </trkpt>
      <trkpt lat="43.6893" lon="6.169">
        <ele>691.7</ele>
        <time>2025-01-12T14:58:39.027Z</time>
      </trkpt>
      <trkpt lat="43.68925" lon="6.16904">
        <ele>691.3</ele>
        <time>2025-01-12T14:58:45.317Z</time>
      </trkpt>
      <trkpt lat="43.68919" lon="6.16908">
        <ele>690.7</ele>
        <time>2025-01-12T14:58:52.570Z</time>
      </trkpt>
      <trkpt lat="43.68913" lon="6.16913">
        <ele>690.1</ele>
        <time>2025-01-12T14:59:00.198Z</time>
      </trkpt>
      <trkpt lat="43.68909" lon="6.16914">
        <ele>689.4</ele>
        <time>2025-01-12T14:59:04.624Z</time>
      </trkpt>
      <trkpt lat="43.68901" lon="6.16917">
        <ele>688.2</ele>
        <time>2025-01-12T14:59:13.649Z</time>
      </trkpt>
      <trkpt lat="43.68897" lon="6.16918">
        <ele>687.5</ele>
        <time>2025-01-12T14:59:18.612Z</time>
      </trkpt>
      <trkpt lat="43.68892" lon="6.16919">
        <ele>686.7</ele>
        <time>2025-01-12T14:59:23.575Z</time>
      </trkpt>
      <trkpt lat="43.68888" lon="6.16921">
        <ele>686.2</ele>
        <time>2025-01-12T14:59:28.207Z</time>
      </trkpt>
      <trkpt lat="43.68883" lon="6.16923">
        <ele>685.6</ele>
        <time>2025-01-12T14:59:33.874Z</time>
      </trkpt>
      <trkpt lat="43.68879" lon="6.16925">
        <ele>685.2</ele>
        <time>2025-01-12T14:59:38.506Z</time>
      </trkpt>
      <trkpt lat="43.68874" lon="6.16927">
        <ele>684.6</ele>
        <time>2025-01-12T14:59:44.173Z</time>
      </trkpt>
      <trkpt lat="43.68869" lon="6.16929">
        <ele>684</ele>
        <time>2025-01-12T14:59:49.841Z</time>
      </trkpt>
      <trkpt lat="43.68864" lon="6.16931">
        <ele>683.4</ele>
        <time>2025-01-12T14:59:55.508Z</time>
      </trkpt>
      <trkpt lat="43.68859" lon="6.16932">
        <ele>682.8</ele>
        <time>2025-01-12T15:00:01.010Z</time>
      </trkpt>
      <trkpt lat="43.68854" lon="6.16933">
        <ele>682.2</ele>
        <time>2025-01-12T15:00:06.511Z</time>
      </trkpt>
      <trkpt lat="43.68848" lon="6.16933">
        <ele>681.3</ele>
        <time>2025-01-12T15:00:13.044Z</time>
      </trkpt>
      <trkpt lat="43.68841" lon="6.1693">
        <ele>680.1</ele>
        <time>2025-01-12T15:00:21.024Z</time>
      </trkpt>
      <trkpt lat="43.68834" lon="6.16927">
        <ele>678.8</ele>
        <time>2025-01-12T15:00:29.004Z</time>
      </trkpt>
      <trkpt lat="43.68827" lon="6.16926">
        <ele>677.9</ele>
        <time>2025-01-12T15:00:36.666Z</time>
      </trkpt>
      <trkpt lat="43.6882" lon="6.1693">
        <ele>677.3</ele>
        <time>2025-01-12T15:00:44.914Z</time>
      </trkpt>
      <trkpt lat="43.68814" lon="6.16933">
        <ele>676.7</ele>
        <time>2025-01-12T15:00:51.861Z</time>
      </trkpt>
      <trkpt lat="43.68809" lon="6.16937">
        <ele>676.2</ele>
        <time>2025-01-12T15:00:58.151Z</time>
      </trkpt>
      <trkpt lat="43.68803" lon="6.1694">
        <ele>675.6</ele>
        <time>2025-01-12T15:01:05.098Z</time>
      </trkpt>
      <trkpt lat="43.68797" lon="6.16943">
        <ele>675</ele>
        <time>2025-01-12T15:01:12.045Z</time>
      </trkpt>
      <trkpt lat="43.68792" lon="6.16944">
        <ele>674.5</ele>
        <time>2025-01-12T15:01:17.546Z</time>
      </trkpt>
      <trkpt lat="43.68787" lon="6.16943">
        <ele>673.9</ele>
        <time>2025-01-12T15:01:23.047Z</time>
      </trkpt>
      <trkpt lat="43.68781" lon="6.1694">
        <ele>673.2</ele>
        <time>2025-01-12T15:01:29.995Z</time>
      </trkpt>
      <trkpt lat="43.68775" lon="6.16936">
        <ele>672.3</ele>
        <time>2025-01-12T15:01:37.247Z</time>
      </trkpt>
      <trkpt lat="43.68768" lon="6.16936">
        <ele>671.4</ele>
        <time>2025-01-12T15:01:44.870Z</time>
      </trkpt>
      <trkpt lat="43.68761" lon="6.1694">
        <ele>670.5</ele>
        <time>2025-01-12T15:01:53.117Z</time>
      </trkpt>
      <trkpt lat="43.68756" lon="6.16945">
        <ele>669.9</ele>
        <time>2025-01-12T15:01:59.836Z</time>
      </trkpt>
      <trkpt lat="43.68751" lon="6.16949">
        <ele>669.3</ele>
        <time>2025-01-12T15:02:06.125Z</time>
      </trkpt>
      <trkpt lat="43.68744" lon="6.16952">
        <ele>668.5</ele>
        <time>2025-01-12T15:02:14.105Z</time>
      </trkpt>
      <trkpt lat="43.68738" lon="6.16951">
        <ele>667.6</ele>
        <time>2025-01-12T15:02:20.686Z</time>
      </trkpt>
      <trkpt lat="43.68735" lon="6.16946">
        <ele>666.9</ele>
        <time>2025-01-12T15:02:25.802Z</time>
      </trkpt>
      <trkpt lat="43.68732" lon="6.1694">
        <ele>666.3</ele>
        <time>2025-01-12T15:02:31.545Z</time>
      </trkpt>
      <trkpt lat="43.68732" lon="6.16935">
        <ele>666.2</ele>
        <time>2025-01-12T15:02:35.684Z</time>
      </trkpt>
      <trkpt lat="43.68733" lon="6.16923">
        <ele>666.1</ele>
        <time>2025-01-12T15:02:46.180Z</time>
      </trkpt>
      <trkpt lat="43.68734" lon="6.16914">
        <ele>666</ele>
        <time>2025-01-12T15:02:54.003Z</time>
      </trkpt>
      <trkpt lat="43.68734" lon="6.16905">
        <ele>665.8</ele>
        <time>2025-01-12T15:03:01.384Z</time>
      </trkpt>
      <trkpt lat="43.68733" lon="6.16895">
        <ele>665.3</ele>
        <time>2025-01-12T15:03:09.333Z</time>
      </trkpt>
      <trkpt lat="43.68729" lon="6.16885">
        <ele>664.6</ele>
        <time>2025-01-12T15:03:18.331Z</time>
      </trkpt>
      <trkpt lat="43.68724" lon="6.1688">
        <ele>663.9</ele>
        <time>2025-01-12T15:03:25.050Z</time>
      </trkpt>
      <trkpt lat="43.68721" lon="6.16874">
        <ele>663.3</ele>
        <time>2025-01-12T15:03:30.794Z</time>
      </trkpt>
      <trkpt lat="43.68718" lon="6.16867">
        <ele>662.8</ele>
        <time>2025-01-12T15:03:37.201Z</time>
      </trkpt>
      <trkpt lat="43.68715" lon="6.16861">
        <ele>662.2</ele>
        <time>2025-01-12T15:03:42.945Z</time>
      </trkpt>
      <trkpt lat="43.68712" lon="6.16855">
        <ele>661.7</ele>
        <time>2025-01-12T15:03:48.688Z</time>
      </trkpt>
      <trkpt lat="43.68708" lon="6.16848">
        <ele>661</ele>
        <time>2025-01-12T15:03:55.713Z</time>
      </trkpt>
      <trkpt lat="43.68705" lon="6.16842">
        <ele>660.5</ele>
        <time>2025-01-12T15:04:01.457Z</time>
      </trkpt>
      <trkpt lat="43.68702" lon="6.16835">
        <ele>659.9</ele>
        <time>2025-01-12T15:04:07.864Z</time>
      </trkpt>
      <trkpt lat="43.68699" lon="6.16829">
        <ele>659.5</ele>
        <time>2025-01-12T15:04:13.608Z</time>
      </trkpt>
      <trkpt lat="43.68694" lon="6.16824">
        <ele>659</ele>
        <time>2025-01-12T15:04:20.327Z</time>
      </trkpt>
      <trkpt lat="43.68688" lon="6.16821">
        <ele>658.7</ele>
        <time>2025-01-12T15:04:27.274Z</time>
      </trkpt>
      <trkpt lat="43.68681" lon="6.16817">
        <ele>658.2</ele>
        <time>2025-01-12T15:04:35.521Z</time>
      </trkpt>
      <trkpt lat="43.68675" lon="6.16814">
        <ele>657.8</ele>
        <time>2025-01-12T15:04:42.469Z</time>
      </trkpt>
      <trkpt lat="43.68668" lon="6.1681">
        <ele>657.2</ele>
        <time>2025-01-12T15:04:50.716Z</time>
      </trkpt>
      <trkpt lat="43.68663" lon="6.16807">
        <ele>656.7</ele>
        <time>2025-01-12T15:04:56.651Z</time>
      </trkpt>
      <trkpt lat="43.68657" lon="6.16803">
        <ele>655.9</ele>
        <time>2025-01-12T15:05:03.904Z</time>
      </trkpt>
      <trkpt lat="43.68651" lon="6.16801">
        <ele>655.1</ele>
        <time>2025-01-12T15:05:10.624Z</time>
      </trkpt>
      <trkpt lat="43.68646" lon="6.16799">
        <ele>654.5</ele>
        <time>2025-01-12T15:05:16.292Z</time>
      </trkpt>
      <trkpt lat="43.6864" lon="6.16797">
        <ele>653.8</ele>
        <time>2025-01-12T15:05:23.012Z</time>
      </trkpt>
      <trkpt lat="43.68634" lon="6.16795">
        <ele>653.8</ele>
        <time>2025-01-12T15:05:30.693Z</time>
      </trkpt>
      <trkpt lat="43.68629" lon="6.16793">
        <ele>653.9</ele>
        <time>2025-01-12T15:05:37.569Z</time>
      </trkpt>
      <trkpt lat="43.68623" lon="6.16791">
        <ele>654</ele>
        <time>2025-01-12T15:05:45.647Z</time>
      </trkpt>
      <trkpt lat="43.6862" lon="6.16783">
        <ele>653.9</ele>
        <time>2025-01-12T15:05:53.386Z</time>
      </trkpt>
      <trkpt lat="43.68617" lon="6.16775">
        <ele>653.7</ele>
        <time>2025-01-12T15:06:00.777Z</time>
      </trkpt>
      <trkpt lat="43.68614" lon="6.16764">
        <ele>653.4</ele>
        <time>2025-01-12T15:06:10.290Z</time>
      </trkpt>
      <trkpt lat="43.6861" lon="6.16753">
        <ele>653.1</ele>
        <time>2025-01-12T15:06:20.300Z</time>
      </trkpt>
      <trkpt lat="43.68609" lon="6.16745">
        <ele>652.8</ele>
        <time>2025-01-12T15:06:26.692Z</time>
      </trkpt>
      <trkpt lat="43.68609" lon="6.16737">
        <ele>652.5</ele>
        <time>2025-01-12T15:06:32.992Z</time>
      </trkpt>
      <trkpt lat="43.68608" lon="6.16729">
        <ele>652.2</ele>
        <time>2025-01-12T15:06:39.384Z</time>
      </trkpt>
      <trkpt lat="43.68607" lon="6.16721">
        <ele>652</ele>
        <time>2025-01-12T15:06:45.977Z</time>
      </trkpt>
      <trkpt lat="43.68604" lon="6.16712">
        <ele>651.6</ele>
        <time>2025-01-12T15:06:53.781Z</time>
      </trkpt>
      <trkpt lat="43.68601" lon="6.16703">
        <ele>651.3</ele>
        <time>2025-01-12T15:07:01.646Z</time>
      </trkpt>
      <trkpt lat="43.686" lon="6.16697">
        <ele>651.1</ele>
        <time>2025-01-12T15:07:06.495Z</time>
      </trkpt>
      <trkpt lat="43.68598" lon="6.16691">
        <ele>650.8</ele>
        <time>2025-01-12T15:07:11.697Z</time>
      </trkpt>
      <trkpt lat="43.68597" lon="6.16686">
        <ele>650.5</ele>
        <time>2025-01-12T15:07:15.782Z</time>
      </trkpt>
      <trkpt lat="43.68598" lon="6.16675">
        <ele>649.9</ele>
        <time>2025-01-12T15:07:24.512Z</time>
      </trkpt>
      <trkpt lat="43.68597" lon="6.16667">
        <ele>649.5</ele>
        <time>2025-01-12T15:07:30.904Z</time>
      </trkpt>
      <trkpt lat="43.68594" lon="6.16656">
        <ele>649</ele>
        <time>2025-01-12T15:07:40.161Z</time>
      </trkpt>
      <trkpt lat="43.68588" lon="6.1665">
        <ele>648.7</ele>
        <time>2025-01-12T15:07:48.320Z</time>
      </trkpt>
      <trkpt lat="43.68586" lon="6.16645">
        <ele>648.4</ele>
        <time>2025-01-12T15:07:52.820Z</time>
      </trkpt>
      <trkpt lat="43.68585" lon="6.16637">
        <ele>647.9</ele>
        <time>2025-01-12T15:07:59.212Z</time>
      </trkpt>
      <trkpt lat="43.68587" lon="6.16629">
        <ele>647.6</ele>
        <time>2025-01-12T15:08:05.877Z</time>
      </trkpt>
      <trkpt lat="43.68588" lon="6.1662">
        <ele>647.2</ele>
        <time>2025-01-12T15:08:13.047Z</time>
      </trkpt>
      <trkpt lat="43.68591" lon="6.16615">
        <ele>646.9</ele>
        <time>2025-01-12T15:08:18.163Z</time>
      </trkpt>
      <trkpt lat="43.68594" lon="6.1661">
        <ele>646.6</ele>
        <time>2025-01-12T15:08:23.279Z</time>
      </trkpt>
      <trkpt lat="43.68597" lon="6.16605">
        <ele>646.4</ele>
        <time>2025-01-12T15:08:28.425Z</time>
      </trkpt>
      <trkpt lat="43.68599" lon="6.16599">
        <ele>646.2</ele>
        <time>2025-01-12T15:08:33.669Z</time>
      </trkpt>
      <trkpt lat="43.68601" lon="6.16592">
        <ele>646.1</ele>
        <time>2025-01-12T15:08:40.074Z</time>
      </trkpt>
      <trkpt lat="43.686" lon="6.16584">
        <ele>646</ele>
        <time>2025-01-12T15:08:47.010Z</time>
      </trkpt>
      <trkpt lat="43.68597" lon="6.16576">
        <ele>645.6</ele>
        <time>2025-01-12T15:08:54.106Z</time>
      </trkpt>
      <trkpt lat="43.68593" lon="6.1657">
        <ele>645.1</ele>
        <time>2025-01-12T15:09:00.532Z</time>
      </trkpt>
      <trkpt lat="43.6859" lon="6.16565">
        <ele>644.5</ele>
        <time>2025-01-12T15:09:05.648Z</time>
      </trkpt>
      <trkpt lat="43.68586" lon="6.16559">
        <ele>643.6</ele>
        <time>2025-01-12T15:09:12.074Z</time>
      </trkpt>
      <trkpt lat="43.68582" lon="6.16553">
        <ele>643.1</ele>
        <time>2025-01-12T15:09:18.499Z</time>
      </trkpt>
      <trkpt lat="43.68577" lon="6.16545">
        <ele>643.4</ele>
        <time>2025-01-12T15:09:29.269Z</time>
      </trkpt>
      <trkpt lat="43.68572" lon="6.16538">
        <ele>643.5</ele>
        <time>2025-01-12T15:09:38.518Z</time>
      </trkpt>
      <trkpt lat="43.68567" lon="6.1653">
        <ele>643.4</ele>
        <time>2025-01-12T15:09:47.661Z</time>
      </trkpt>
      <trkpt lat="43.68562" lon="6.16522">
        <ele>643.1</ele>
        <time>2025-01-12T15:09:56.118Z</time>
      </trkpt>
      <trkpt lat="43.68556" lon="6.16514">
        <ele>642.5</ele>
        <time>2025-01-12T15:10:05.194Z</time>
      </trkpt>
      <trkpt lat="43.68551" lon="6.16507">
        <ele>642.1</ele>
        <time>2025-01-12T15:10:12.941Z</time>
      </trkpt>
      <trkpt lat="43.68546" lon="6.16499">
        <ele>641.6</ele>
        <time>2025-01-12T15:10:21.267Z</time>
      </trkpt>
      <trkpt lat="43.68541" lon="6.16491">
        <ele>641.3</ele>
        <time>2025-01-12T15:10:29.725Z</time>
      </trkpt>
      <trkpt lat="43.68538" lon="6.16485">
        <ele>641</ele>
        <time>2025-01-12T15:10:35.469Z</time>
      </trkpt>
      <trkpt lat="43.68534" lon="6.16478">
        <ele>640.6</ele>
        <time>2025-01-12T15:10:42.494Z</time>
      </trkpt>
      <trkpt lat="43.6853" lon="6.16475">
        <ele>640.3</ele>
        <time>2025-01-12T15:10:47.449Z</time>
      </trkpt>
      <trkpt lat="43.68525" lon="6.16471">
        <ele>639.9</ele>
        <time>2025-01-12T15:10:53.739Z</time>
      </trkpt>
      <trkpt lat="43.6852" lon="6.16469">
        <ele>639.7</ele>
        <time>2025-01-12T15:10:59.509Z</time>
      </trkpt>
      <trkpt lat="43.68515" lon="6.16467">
        <ele>639.5</ele>
        <time>2025-01-12T15:11:05.280Z</time>
      </trkpt>
      <trkpt lat="43.68508" lon="6.16465">
        <ele>639.3</ele>
        <time>2025-01-12T15:11:13.453Z</time>
      </trkpt>
      <trkpt lat="43.685" lon="6.16463">
        <ele>639</ele>
        <time>2025-01-12T15:11:22.507Z</time>
      </trkpt>
      <trkpt lat="43.68495" lon="6.16463">
        <ele>638.8</ele>
        <time>2025-01-12T15:11:28.024Z</time>
      </trkpt>
      <trkpt lat="43.6849" lon="6.16462">
        <ele>638.5</ele>
        <time>2025-01-12T15:11:33.525Z</time>
      </trkpt>
      <trkpt lat="43.68485" lon="6.16462">
        <ele>638.3</ele>
        <time>2025-01-12T15:11:39.043Z</time>
      </trkpt>
      <trkpt lat="43.6848" lon="6.16461">
        <ele>638</ele>
        <time>2025-01-12T15:11:44.544Z</time>
      </trkpt>
      <trkpt lat="43.68474" lon="6.1646">
        <ele>637.7</ele>
        <time>2025-01-12T15:11:51.125Z</time>
      </trkpt>
      <trkpt lat="43.68468" lon="6.16458">
        <ele>637.3</ele>
        <time>2025-01-12T15:11:57.845Z</time>
      </trkpt>
      <trkpt lat="43.68462" lon="6.16457">
        <ele>637.1</ele>
        <time>2025-01-12T15:12:04.652Z</time>
      </trkpt>
      <trkpt lat="43.68456" lon="6.16455">
        <ele>636.8</ele>
        <time>2025-01-12T15:12:11.372Z</time>
      </trkpt>
      <trkpt lat="43.68451" lon="6.16453">
        <ele>636.5</ele>
        <time>2025-01-12T15:12:17.040Z</time>
      </trkpt>
      <trkpt lat="43.68445" lon="6.1645">
        <ele>636.2</ele>
        <time>2025-01-12T15:12:23.987Z</time>
      </trkpt>
      <trkpt lat="43.68438" lon="6.16445">
        <ele>635.8</ele>
        <time>2025-01-12T15:12:32.566Z</time>
      </trkpt>
      <trkpt lat="43.68431" lon="6.16439">
        <ele>635.4</ele>
        <time>2025-01-12T15:12:41.534Z</time>
      </trkpt>
      <trkpt lat="43.68428" lon="6.16435">
        <ele>635.2</ele>
        <time>2025-01-12T15:12:46.477Z</time>
      </trkpt>
      <trkpt lat="43.68424" lon="6.16431">
        <ele>634.9</ele>
        <time>2025-01-12T15:12:51.422Z</time>
      </trkpt>
      <trkpt lat="43.68418" lon="6.16423">
        <ele>634.3</ele>
        <time>2025-01-12T15:13:00.498Z</time>
      </trkpt>
      <trkpt lat="43.68415" lon="6.16419">
        <ele>634</ele>
        <time>2025-01-12T15:13:05.441Z</time>
      </trkpt>
      <trkpt lat="43.68411" lon="6.16415">
        <ele>633.8</ele>
        <time>2025-01-12T15:13:10.386Z</time>
      </trkpt>
      <trkpt lat="43.68408" lon="6.16411">
        <ele>633.6</ele>
        <time>2025-01-12T15:13:15.337Z</time>
      </trkpt>
      <trkpt lat="43.68404" lon="6.16407">
        <ele>633.4</ele>
        <time>2025-01-12T15:13:20.290Z</time>
      </trkpt>
      <trkpt lat="43.68398" lon="6.164">
        <ele>632.9</ele>
        <time>2025-01-12T15:13:28.838Z</time>
      </trkpt>
      <trkpt lat="43.68391" lon="6.16394">
        <ele>632.3</ele>
        <time>2025-01-12T15:13:37.806Z</time>
      </trkpt>
      <trkpt lat="43.68385" lon="6.16387">
        <ele>632</ele>
        <time>2025-01-12T15:13:46.515Z</time>
      </trkpt>
      <trkpt lat="43.68378" lon="6.1638">
        <ele>631.9</ele>
        <time>2025-01-12T15:13:56.891Z</time>
      </trkpt>
      <trkpt lat="43.68373" lon="6.16374">
        <ele>631.7</ele>
        <time>2025-01-12T15:14:04.411Z</time>
      </trkpt>
      <trkpt lat="43.68368" lon="6.16368">
        <ele>631.4</ele>
        <time>2025-01-12T15:14:11.620Z</time>
      </trkpt>
      <trkpt lat="43.68362" lon="6.16361">
        <ele>631</ele>
        <time>2025-01-12T15:14:20.168Z</time>
      </trkpt>
      <trkpt lat="43.68357" lon="6.16355">
        <ele>630.8</ele>
        <time>2025-01-12T15:14:27.687Z</time>
      </trkpt>
      <trkpt lat="43.68353" lon="6.1635">
        <ele>630.6</ele>
        <time>2025-01-12T15:14:33.689Z</time>
      </trkpt>
      <trkpt lat="43.6835" lon="6.16345">
        <ele>630.4</ele>
        <time>2025-01-12T15:14:38.805Z</time>
      </trkpt>
      <trkpt lat="43.68346" lon="6.1634">
        <ele>630</ele>
        <time>2025-01-12T15:14:44.676Z</time>
      </trkpt>
      <trkpt lat="43.68342" lon="6.16335">
        <ele>629.7</ele>
        <time>2025-01-12T15:14:50.547Z</time>
      </trkpt>
      <trkpt lat="43.68338" lon="6.16331">
        <ele>629.3</ele>
        <time>2025-01-12T15:14:55.923Z</time>
      </trkpt>
      <trkpt lat="43.68333" lon="6.16326">
        <ele>629</ele>
        <time>2025-01-12T15:15:02.641Z</time>
      </trkpt>
      <trkpt lat="43.68329" lon="6.16322">
        <ele>628.8</ele>
        <time>2025-01-12T15:15:08.081Z</time>
      </trkpt>
      <trkpt lat="43.68325" lon="6.16317">
        <ele>628.7</ele>
        <time>2025-01-12T15:15:14.423Z</time>
      </trkpt>
      <trkpt lat="43.6832" lon="6.16313">
        <ele>628.5</ele>
        <time>2025-01-12T15:15:20.899Z</time>
      </trkpt>
      <trkpt lat="43.68316" lon="6.16308">
        <ele>628.4</ele>
        <time>2025-01-12T15:15:27.241Z</time>
      </trkpt>
      <trkpt lat="43.68311" lon="6.16304">
        <ele>628.1</ele>
        <time>2025-01-12T15:15:33.531Z</time>
      </trkpt>
      <trkpt lat="43.68307" lon="6.16299">
        <ele>627.8</ele>
        <time>2025-01-12T15:15:39.402Z</time>
      </trkpt>
      <trkpt lat="43.68302" lon="6.16295">
        <ele>627.4</ele>
        <time>2025-01-12T15:15:45.692Z</time>
      </trkpt>
      <trkpt lat="43.68296" lon="6.1629">
        <ele>626.9</ele>
        <time>2025-01-12T15:15:53.320Z</time>
      </trkpt>
      <trkpt lat="43.6829" lon="6.16287">
        <ele>626.6</ele>
        <time>2025-01-12T15:16:00.267Z</time>
      </trkpt>
      <trkpt lat="43.68283" lon="6.16283">
        <ele>626.2</ele>
        <time>2025-01-12T15:16:08.515Z</time>
      </trkpt>
      <trkpt lat="43.68277" lon="6.16279">
        <ele>626</ele>
        <time>2025-01-12T15:16:16.085Z</time>
      </trkpt>
      <trkpt lat="43.68271" lon="6.16275">
        <ele>625.8</ele>
        <time>2025-01-12T15:16:23.655Z</time>
      </trkpt>
      <trkpt lat="43.68265" lon="6.1627">
        <ele>625.5</ele>
        <time>2025-01-12T15:16:31.322Z</time>
      </trkpt>
      <trkpt lat="43.68259" lon="6.16265">
        <ele>625.3</ele>
        <time>2025-01-12T15:16:39.319Z</time>
      </trkpt>
      <trkpt lat="43.68252" lon="6.1626">
        <ele>625.1</ele>
        <time>2025-01-12T15:16:48.398Z</time>
      </trkpt>
      <trkpt lat="43.68246" lon="6.16255">
        <ele>624.7</ele>
        <time>2025-01-12T15:16:56.026Z</time>
      </trkpt>
      <trkpt lat="43.6824" lon="6.1625">
        <ele>624.3</ele>
        <time>2025-01-12T15:17:03.654Z</time>
      </trkpt>
      <trkpt lat="43.68234" lon="6.16245">
        <ele>623.8</ele>
        <time>2025-01-12T15:17:11.282Z</time>
      </trkpt>
      <trkpt lat="43.68228" lon="6.16239">
        <ele>623.3</ele>
        <time>2025-01-12T15:17:19.344Z</time>
      </trkpt>
      <trkpt lat="43.68222" lon="6.16234">
        <ele>623</ele>
        <time>2025-01-12T15:17:27.012Z</time>
      </trkpt>
      <trkpt lat="43.68218" lon="6.1623">
        <ele>622.8</ele>
        <time>2025-01-12T15:17:32.451Z</time>
      </trkpt>
      <trkpt lat="43.68214" lon="6.16227">
        <ele>622.7</ele>
        <time>2025-01-12T15:17:37.748Z</time>
      </trkpt>
      <trkpt lat="43.68209" lon="6.16223">
        <ele>622.5</ele>
        <time>2025-01-12T15:17:44.225Z</time>
      </trkpt>
      <trkpt lat="43.68205" lon="6.16219">
        <ele>622.3</ele>
        <time>2025-01-12T15:17:49.664Z</time>
      </trkpt>
      <trkpt lat="43.682" lon="6.16214">
        <ele>621.9</ele>
        <time>2025-01-12T15:17:56.383Z</time>
      </trkpt>
      <trkpt lat="43.68195" lon="6.16208">
        <ele>621.5</ele>
        <time>2025-01-12T15:18:03.592Z</time>
      </trkpt>
      <trkpt lat="43.6819" lon="6.16205">
        <ele>621.2</ele>
        <time>2025-01-12T15:18:09.527Z</time>
      </trkpt>
      <trkpt lat="43.68184" lon="6.16201">
        <ele>620.9</ele>
        <time>2025-01-12T15:18:16.780Z</time>
      </trkpt>
      <trkpt lat="43.6818" lon="6.16199">
        <ele>620.6</ele>
        <time>2025-01-12T15:18:21.411Z</time>
      </trkpt>
      <trkpt lat="43.68175" lon="6.16196">
        <ele>620.4</ele>
        <time>2025-01-12T15:18:27.485Z</time>
      </trkpt>
      <trkpt lat="43.68171" lon="6.16194">
        <ele>620.1</ele>
        <time>2025-01-12T15:18:32.116Z</time>
      </trkpt>
      <trkpt lat="43.68167" lon="6.16192">
        <ele>619.9</ele>
        <time>2025-01-12T15:18:36.748Z</time>
      </trkpt>
      <trkpt lat="43.68162" lon="6.16189">
        <ele>619.6</ele>
        <time>2025-01-12T15:18:42.683Z</time>
      </trkpt>
      <trkpt lat="43.68158" lon="6.16187">
        <ele>619.4</ele>
        <time>2025-01-12T15:18:47.314Z</time>
      </trkpt>
      <trkpt lat="43.68153" lon="6.16184">
        <ele>619.1</ele>
        <time>2025-01-12T15:18:53.388Z</time>
      </trkpt>
      <trkpt lat="43.68149" lon="6.16182">
        <ele>618.9</ele>
        <time>2025-01-12T15:18:58.019Z</time>
      </trkpt>
      <trkpt lat="43.68142" lon="6.16177">
        <ele>618.5</ele>
        <time>2025-01-12T15:19:06.598Z</time>
      </trkpt>
      <trkpt lat="43.68134" lon="6.16172">
        <ele>618</ele>
        <time>2025-01-12T15:19:16.158Z</time>
      </trkpt>
      <trkpt lat="43.68127" lon="6.16167">
        <ele>617.6</ele>
        <time>2025-01-12T15:19:24.737Z</time>
      </trkpt>
      <trkpt lat="43.68119" lon="6.16162">
        <ele>617.3</ele>
        <time>2025-01-12T15:19:34.593Z</time>
      </trkpt>
      <trkpt lat="43.68112" lon="6.16158">
        <ele>617</ele>
        <time>2025-01-12T15:19:42.961Z</time>
      </trkpt>
      <trkpt lat="43.68104" lon="6.16153">
        <ele>616.7</ele>
        <time>2025-01-12T15:19:52.817Z</time>
      </trkpt>
      <trkpt lat="43.681" lon="6.16149">
        <ele>616.6</ele>
        <time>2025-01-12T15:19:58.594Z</time>
      </trkpt>
      <trkpt lat="43.68095" lon="6.16144">
        <ele>616.4</ele>
        <time>2025-01-12T15:20:05.557Z</time>
      </trkpt>
      <trkpt lat="43.68088" lon="6.1614">
        <ele>616.2</ele>
        <time>2025-01-12T15:20:14.258Z</time>
      </trkpt>
      <trkpt lat="43.6808" lon="6.16135">
        <ele>615.6</ele>
        <time>2025-01-12T15:20:23.818Z</time>
      </trkpt>
      <trkpt lat="43.68076" lon="6.16133">
        <ele>615.3</ele>
        <time>2025-01-12T15:20:28.449Z</time>
      </trkpt>
      <trkpt lat="43.68072" lon="6.1613">
        <ele>615</ele>
        <time>2025-01-12T15:20:33.404Z</time>
      </trkpt>
      <trkpt lat="43.68067" lon="6.16128">
        <ele>614.7</ele>
        <time>2025-01-12T15:20:39.072Z</time>
      </trkpt>
      <trkpt lat="43.68063" lon="6.16125">
        <ele>614.4</ele>
        <time>2025-01-12T15:20:44.027Z</time>
      </trkpt>
      <trkpt lat="43.68056" lon="6.16123">
        <ele>614</ele>
        <time>2025-01-12T15:20:51.810Z</time>
      </trkpt>
      <trkpt lat="43.68048" lon="6.1612">
        <ele>613.7</ele>
        <time>2025-01-12T15:21:01.061Z</time>
      </trkpt>
      <trkpt lat="43.68043" lon="6.16118">
        <ele>613.5</ele>
        <time>2025-01-12T15:21:06.831Z</time>
      </trkpt>
      <trkpt lat="43.68037" lon="6.16116">
        <ele>613.3</ele>
        <time>2025-01-12T15:21:13.796Z</time>
      </trkpt>
      <trkpt lat="43.68033" lon="6.16114">
        <ele>613.2</ele>
        <time>2025-01-12T15:21:18.725Z</time>
      </trkpt>
      <trkpt lat="43.68028" lon="6.16112">
        <ele>613</ele>
        <time>2025-01-12T15:21:24.496Z</time>
      </trkpt>
      <trkpt lat="43.68021" lon="6.16112">
        <ele>612.8</ele>
        <time>2025-01-12T15:21:32.486Z</time>
      </trkpt>
      <trkpt lat="43.68014" lon="6.16111">
        <ele>612.5</ele>
        <time>2025-01-12T15:21:40.192Z</time>
      </trkpt>
      <trkpt lat="43.6801" lon="6.16109">
        <ele>612.3</ele>
        <time>2025-01-12T15:21:44.824Z</time>
      </trkpt>
      <trkpt lat="43.68005" lon="6.16107">
        <ele>612</ele>
        <time>2025-01-12T15:21:50.492Z</time>
      </trkpt>
      <trkpt lat="43.67998" lon="6.161">
        <ele>611.5</ele>
        <time>2025-01-12T15:21:59.898Z</time>
      </trkpt>
      <trkpt lat="43.67994" lon="6.16095">
        <ele>611.2</ele>
        <time>2025-01-12T15:22:05.770Z</time>
      </trkpt>
      <trkpt lat="43.6799" lon="6.16089">
        <ele>610.8</ele>
        <time>2025-01-12T15:22:12.196Z</time>
      </trkpt>
      <trkpt lat="43.67985" lon="6.16085">
        <ele>610.5</ele>
        <time>2025-01-12T15:22:18.486Z</time>
      </trkpt>
      <trkpt lat="43.67977" lon="6.16083">
        <ele>610.2</ele>
        <time>2025-01-12T15:22:27.540Z</time>
      </trkpt>
      <trkpt lat="43.67973" lon="6.16083">
        <ele>610</ele>
        <time>2025-01-12T15:22:31.895Z</time>
      </trkpt>
      <trkpt lat="43.67968" lon="6.16083">
        <ele>610</ele>
        <time>2025-01-12T15:22:38.117Z</time>
      </trkpt>
      <trkpt lat="43.67962" lon="6.16082">
        <ele>610</ele>
        <time>2025-01-12T15:22:45.638Z</time>
      </trkpt>
      <trkpt lat="43.67956" lon="6.16077">
        <ele>609.7</ele>
        <time>2025-01-12T15:22:53.306Z</time>
      </trkpt>
      <trkpt lat="43.67951" lon="6.16069">
        <ele>609.2</ele>
        <time>2025-01-12T15:23:01.632Z</time>
      </trkpt>
      <trkpt lat="43.67948" lon="6.16064">
        <ele>608.8</ele>
        <time>2025-01-12T15:23:06.748Z</time>
      </trkpt>
      <trkpt lat="43.67944" lon="6.16058">
        <ele>608.2</ele>
        <time>2025-01-12T15:23:13.174Z</time>
      </trkpt>
      <trkpt lat="43.67939" lon="6.16052">
        <ele>608</ele>
        <time>2025-01-12T15:23:20.694Z</time>
      </trkpt>
      <trkpt lat="43.67933" lon="6.16045">
        <ele>607.8</ele>
        <time>2025-01-12T15:23:29.738Z</time>
      </trkpt>
      <trkpt lat="43.67929" lon="6.16042">
        <ele>607.7</ele>
        <time>2025-01-12T15:23:35.035Z</time>
      </trkpt>
      <trkpt lat="43.67925" lon="6.16039">
        <ele>607.6</ele>
        <time>2025-01-12T15:23:40.333Z</time>
      </trkpt>
      <trkpt lat="43.67923" lon="6.16036">
        <ele>607.5</ele>
        <time>2025-01-12T15:23:43.648Z</time>
      </trkpt>
      <trkpt lat="43.67921" lon="6.1603">
        <ele>607.2</ele>
        <time>2025-01-12T15:23:48.851Z</time>
      </trkpt>
      <trkpt lat="43.6792" lon="6.16019">
        <ele>606.8</ele>
        <time>2025-01-12T15:23:57.582Z</time>
      </trkpt>
      <trkpt lat="43.67918" lon="6.16011">
        <ele>606.5</ele>
        <time>2025-01-12T15:24:04.247Z</time>
      </trkpt>
      <trkpt lat="43.67914" lon="6.16004">
        <ele>606.2</ele>
        <time>2025-01-12T15:24:11.273Z</time>
      </trkpt>
      <trkpt lat="43.67911" lon="6.16">
        <ele>606</ele>
        <time>2025-01-12T15:24:15.811Z</time>
      </trkpt>
      <trkpt lat="43.67907" lon="6.15996">
        <ele>606</ele>
        <time>2025-01-12T15:24:21.954Z</time>
      </trkpt>
      <trkpt lat="43.679" lon="6.1599">
        <ele>606</ele>
        <time>2025-01-12T15:24:32.203Z</time>
      </trkpt>
      <trkpt lat="43.67896" lon="6.15984">
        <ele>606</ele>
        <time>2025-01-12T15:24:39.547Z</time>
      </trkpt>
      <trkpt lat="43.67891" lon="6.15985">
        <ele>606</ele>
        <time>2025-01-12T15:24:45.834Z</time>
      </trkpt>
      <trkpt lat="43.67885" lon="6.15986">
        <ele>606</ele>
        <time>2025-01-12T15:24:53.355Z</time>
      </trkpt>
      <trkpt lat="43.6788" lon="6.1599">
        <ele>606</ele>
        <time>2025-01-12T15:25:00.544Z</time>
      </trkpt>
      <trkpt lat="43.67874" lon="6.15994">
        <ele>606</ele>
        <time>2025-01-12T15:25:08.833Z</time>
      </trkpt>
      <trkpt lat="43.67868" lon="6.15998">
        <ele>606</ele>
        <time>2025-01-12T15:25:17.122Z</time>
      </trkpt>
      <trkpt lat="43.67861" lon="6.16001">
        <ele>606</ele>
        <time>2025-01-12T15:25:26.242Z</time>
      </trkpt>
      <trkpt lat="43.67853" lon="6.16">
        <ele>606</ele>
        <time>2025-01-12T15:25:36.238Z</time>
      </trkpt>
      <trkpt lat="43.67848" lon="6.16001">
        <ele>606</ele>
        <time>2025-01-12T15:25:42.525Z</time>
      </trkpt>
      <trkpt lat="43.67842" lon="6.16001">
        <ele>606</ele>
        <time>2025-01-12T15:25:49.992Z</time>
      </trkpt>
      <trkpt lat="43.67835" lon="6.16006">
        <ele>606.2</ele>
        <time>2025-01-12T15:26:00.607Z</time>
      </trkpt>
      <trkpt lat="43.67827" lon="6.1601">
        <ele>606.4</ele>
        <time>2025-01-12T15:26:12.000Z</time>
      </trkpt>
    </trkseg>
  </trk>
</gpx>